<?xml version='1.0' encoding='UTF-8'?><gpx version="1.1" creator="JPX - https://github.com/jenetics/jpx" xmlns="http://www.topografix.com/GPX/1/1"><trk><trkseg><trkpt lat="36.79030749041656" lon="-107.9947470215514"><ele>1813.9999999999998</ele><time>2026-04-11T16:44:44Z</time></trkpt><trkpt lat="36.79024838569281" lon="-107.9947003139468"><ele>1814.0</ele><time>2026-04-11T16:44:45Z</time></trkpt><trkpt lat="36.790186736762095" lon="-107.99465930135943"><ele>1814.0</ele><time>2026-04-11T16:44:46Z</time></trkpt><trkpt lat="36.79010388386956" lon="-107.99461194467703"><ele>1814.0</ele><time>2026-04-11T16:44:47Z</time></trkpt><trkpt lat="36.790007699962764" lon="-107.99455263616976"><ele>1813.9999999999998</ele><time>2026-04-11T16:44:48Z</time></trkpt><trkpt lat="36.78993446257864" lon="-107.99452058897339"><ele>1814.0</ele><time>2026-04-11T16:44:49Z</time></trkpt><trkpt lat="36.78984577181879" lon="-107.99451817714865"><ele>1815.6</ele><time>2026-04-11T16:44:50Z</time></trkpt><trkpt lat="36.78975601924332" lon="-107.99451533713686"><ele>1817.2</ele><time>2026-04-11T16:44:51Z</time></trkpt><trkpt lat="36.789650672888826" lon="-107.99438186771393"><ele>1818.7999999999997</ele><time>2026-04-11T16:44:53.001Z</time></trkpt><trkpt lat="36.7895678901447" lon="-107.9942917419017"><ele>1820.3999999999999</ele><time>2026-04-11T16:44:54.001Z</time></trkpt><trkpt lat="36.78952748789048" lon="-107.9941935779472"><ele>1822.0</ele><time>2026-04-11T16:44:55.001Z</time></trkpt><trkpt lat="36.78950912492967" lon="-107.99405979052784"><ele>1822.0</ele><time>2026-04-11T16:44:56.001Z</time></trkpt><trkpt lat="36.78949206469087" lon="-107.9939220242232"><ele>1821.9999999999998</ele><time>2026-04-11T16:44:57.001Z</time></trkpt><trkpt lat="36.78948023282776" lon="-107.99379082189787"><ele>1821.9999999999998</ele><time>2026-04-11T16:44:58.001Z</time></trkpt><trkpt lat="36.78943308235686" lon="-107.99367151858333"><ele>1822.0</ele><time>2026-04-11T16:44:59.001Z</time></trkpt><trkpt lat="36.789379450480325" lon="-107.99353798046123"><ele>1822.0</ele><time>2026-04-11T16:45:00.001Z</time></trkpt><trkpt lat="36.78934846880071" lon="-107.99341109191231"><ele>1822.8333333333335</ele><time>2026-04-11T16:45:01.001Z</time></trkpt><trkpt lat="36.78932202825585" lon="-107.99329817189572"><ele>1823.6666666666667</ele><time>2026-04-11T16:45:02.001Z</time></trkpt><trkpt lat="36.78928824052611" lon="-107.99317837346575"><ele>1824.5</ele><time>2026-04-11T16:45:03.001Z</time></trkpt><trkpt lat="36.789210576155156" lon="-107.9931201527993"><ele>1825.3333333333335</ele><time>2026-04-11T16:45:04.001Z</time></trkpt><trkpt lat="36.78915763406015" lon="-107.99306469871242"><ele>1826.1666666666667</ele><time>2026-04-11T16:45:05.001Z</time></trkpt><trkpt lat="36.78909782655678" lon="-107.99298341634888"><ele>1827.0</ele><time>2026-04-11T16:45:06.001Z</time></trkpt><trkpt lat="36.789024983518686" lon="-107.99290649344618"><ele>1827.0</ele><time>2026-04-11T16:45:07.001Z</time></trkpt><trkpt lat="36.78890898212279" lon="-107.99281396029154"><ele>1826.9999999999998</ele><time>2026-04-11T16:45:08.001Z</time></trkpt><trkpt lat="36.788806161647855" lon="-107.99273387617257"><ele>1826.9999999999998</ele><time>2026-04-11T16:45:09.001Z</time></trkpt><trkpt lat="36.78871438937983" lon="-107.99267474127208"><ele>1827.0</ele><time>2026-04-11T16:45:10.001Z</time></trkpt><trkpt lat="36.78864851636646" lon="-107.99264832219158"><ele>1827.0</ele><time>2026-04-11T16:45:11.001Z</time></trkpt><trkpt lat="36.78858386762074" lon="-107.9925298547694"><ele>1827.1999999999998</ele><time>2026-04-11T16:45:13.001Z</time></trkpt><trkpt lat="36.788498760459724" lon="-107.99248607458514"><ele>1827.3999999999999</ele><time>2026-04-11T16:45:14.001Z</time></trkpt><trkpt lat="36.78839973657031" lon="-107.99246777889235"><ele>1827.6000000000001</ele><time>2026-04-11T16:45:15.001Z</time></trkpt><trkpt lat="36.788320695253844" lon="-107.99243552901135"><ele>1827.8000000000002</ele><time>2026-04-11T16:45:16.001Z</time></trkpt><trkpt lat="36.788222914502" lon="-107.99243686171248"><ele>1828.0</ele><time>2026-04-11T16:45:17.001Z</time></trkpt><trkpt lat="36.78813950774429" lon="-107.99246694623709"><ele>1828.0</ele><time>2026-04-11T16:45:18.001Z</time></trkpt><trkpt lat="36.78805983390521" lon="-107.99247849026865"><ele>1828.0000000000002</ele><time>2026-04-11T16:45:19.001Z</time></trkpt><trkpt lat="36.78798151938798" lon="-107.99243980872465"><ele>1828.0000000000002</ele><time>2026-04-11T16:45:20.001Z</time></trkpt><trkpt lat="36.78790231638442" lon="-107.99236825919188"><ele>1828.0</ele><time>2026-04-11T16:45:21.001Z</time></trkpt><trkpt lat="36.787787272999985" lon="-107.99230646143866"><ele>1828.0</ele><time>2026-04-11T16:45:22.001Z</time></trkpt><trkpt lat="36.7877028300001" lon="-107.99225097930466"><ele>1828.0</ele><time>2026-04-11T16:45:23.001Z</time></trkpt><trkpt lat="36.787623350973675" lon="-107.9921804158362"><ele>1828.0</ele><time>2026-04-11T16:45:24.001Z</time></trkpt><trkpt lat="36.787558757951786" lon="-107.9920676983944"><ele>1828.0</ele><time>2026-04-11T16:45:25.001Z</time></trkpt><trkpt lat="36.7874990355005" lon="-107.99191297140837"><ele>1828.0</ele><time>2026-04-11T16:45:26.001Z</time></trkpt><trkpt lat="36.78745910073289" lon="-107.99175438668999"><ele>1828.25</ele><time>2026-04-11T16:45:27.001Z</time></trkpt><trkpt lat="36.787434605301996" lon="-107.99160170905003"><ele>1828.5</ele><time>2026-04-11T16:45:28.001Z</time></trkpt><trkpt lat="36.787431555691214" lon="-107.99145625893082"><ele>1828.75</ele><time>2026-04-11T16:45:29.001Z</time></trkpt><trkpt lat="36.78744744565058" lon="-107.99128362843643"><ele>1829.0</ele><time>2026-04-11T16:45:30.001Z</time></trkpt><trkpt lat="36.78745501389544" lon="-107.99113286787329"><ele>1829.0</ele><time>2026-04-11T16:45:31.001Z</time></trkpt><trkpt lat="36.787455680091455" lon="-107.99098300955714"><ele>1829.0</ele><time>2026-04-11T16:45:32.001Z</time></trkpt><trkpt lat="36.78744111814841" lon="-107.99083105427174"><ele>1829.0</ele><time>2026-04-11T16:45:33.001Z</time></trkpt><trkpt lat="36.7874346937614" lon="-107.9907503980293"><ele>1829.0</ele><time>2026-04-11T16:45:34.001Z</time></trkpt><trkpt lat="36.787307841704475" lon="-107.9905995147088"><ele>1829.6</ele><time>2026-04-11T16:45:36.001Z</time></trkpt><trkpt lat="36.78721922795281" lon="-107.99052063446466"><ele>1830.2</ele><time>2026-04-11T16:45:37.001Z</time></trkpt><trkpt lat="36.78715834766719" lon="-107.9904193313635"><ele>1830.7999999999997</ele><time>2026-04-11T16:45:38.001Z</time></trkpt><trkpt lat="36.787087814747196" lon="-107.99034970404074"><ele>1831.3999999999999</ele><time>2026-04-11T16:45:39.001Z</time></trkpt><trkpt lat="36.78699753763705" lon="-107.99033805686717"><ele>1832.0</ele><time>2026-04-11T16:45:40.001Z</time></trkpt><trkpt lat="36.7868975820021" lon="-107.99045562028297"><ele>1832.6</ele><time>2026-04-11T16:45:42.001Z</time></trkpt><trkpt lat="36.7868070154875" lon="-107.99049419711312"><ele>1833.1999999999998</ele><time>2026-04-11T16:45:43.001Z</time></trkpt><trkpt lat="36.78669971210913" lon="-107.99045888998847"><ele>1833.8</ele><time>2026-04-11T16:45:44.001Z</time></trkpt><trkpt lat="36.78659212680391" lon="-107.99043884240808"><ele>1834.4</ele><time>2026-04-11T16:45:45.001Z</time></trkpt><trkpt lat="36.78650142603378" lon="-107.99047803218477"><ele>1835.0</ele><time>2026-04-11T16:45:46.001Z</time></trkpt><trkpt lat="36.7863899957073" lon="-107.99052784948455"><ele>1835.0</ele><time>2026-04-11T16:45:47.001Z</time></trkpt><trkpt lat="36.78628746439456" lon="-107.9905564202882"><ele>1835.0</ele><time>2026-04-11T16:45:48.001Z</time></trkpt><trkpt lat="36.78619949315115" lon="-107.99055403061185"><ele>1835.0</ele><time>2026-04-11T16:45:49.001Z</time></trkpt><trkpt lat="36.78611530375367" lon="-107.99056424673766"><ele>1835.0</ele><time>2026-04-11T16:45:50.001Z</time></trkpt><trkpt lat="36.78600374968655" lon="-107.99059016666294"><ele>1835.0</ele><time>2026-04-11T16:45:51.001Z</time></trkpt><trkpt lat="36.78589073952808" lon="-107.99061271673857"><ele>1835.8</ele><time>2026-04-11T16:45:52.001Z</time></trkpt><trkpt lat="36.78577544101693" lon="-107.9906328826432"><ele>1836.6</ele><time>2026-04-11T16:45:53.001Z</time></trkpt><trkpt lat="36.785667622405064" lon="-107.9906306369777"><ele>1837.4</ele><time>2026-04-11T16:45:54.001Z</time></trkpt><trkpt lat="36.78556798441497" lon="-107.99061257195203"><ele>1838.2</ele><time>2026-04-11T16:45:55.001Z</time></trkpt><trkpt lat="36.785501826734524" lon="-107.99061201359817"><ele>1839.0</ele><time>2026-04-11T16:45:56.001Z</time></trkpt><trkpt lat="36.785404785131405" lon="-107.99054429577123"><ele>1839.0</ele><time>2026-04-11T16:45:57.002Z</time></trkpt><trkpt lat="36.78531682541187" lon="-107.990502090756"><ele>1839.0</ele><time>2026-04-11T16:45:58.002Z</time></trkpt><trkpt lat="36.78524347833435" lon="-107.99048741553403"><ele>1839.0</ele><time>2026-04-11T16:45:59.002Z</time></trkpt><trkpt lat="36.785182747366434" lon="-107.99044965818696"><ele>1839.0</ele><time>2026-04-11T16:46:00.002Z</time></trkpt><trkpt lat="36.785149195629515" lon="-107.99037693590594"><ele>1839.0</ele><time>2026-04-11T16:46:01.002Z</time></trkpt><trkpt lat="36.785076802175304" lon="-107.99031457461903"><ele>1839.0</ele><time>2026-04-11T16:46:02.002Z</time></trkpt><trkpt lat="36.78499622310067" lon="-107.99031979099476"><ele>1838.6</ele><time>2026-04-11T16:46:03.002Z</time></trkpt><trkpt lat="36.78492353337252" lon="-107.99030613937879"><ele>1838.2</ele><time>2026-04-11T16:46:04.002Z</time></trkpt><trkpt lat="36.78487320770517" lon="-107.99014295111789"><ele>1837.7999999999997</ele><time>2026-04-11T16:46:06.002Z</time></trkpt><trkpt lat="36.7848022575691" lon="-107.99004815463616"><ele>1837.3999999999999</ele><time>2026-04-11T16:46:07.002Z</time></trkpt><trkpt lat="36.78470754192727" lon="-107.98997241113825"><ele>1837.0</ele><time>2026-04-11T16:46:08.002Z</time></trkpt><trkpt lat="36.784652762464724" lon="-107.989875238553"><ele>1836.8</ele><time>2026-04-11T16:46:09.002Z</time></trkpt><trkpt lat="36.784589712287634" lon="-107.98977450029902"><ele>1836.6</ele><time>2026-04-11T16:46:10.002Z</time></trkpt><trkpt lat="36.784543652447866" lon="-107.98971423847117"><ele>1836.3999999999999</ele><time>2026-04-11T16:46:11.002Z</time></trkpt><trkpt lat="36.784451691367615" lon="-107.98974703111388"><ele>1836.1999999999998</ele><time>2026-04-11T16:46:12.002Z</time></trkpt><trkpt lat="36.784340164291784" lon="-107.98976131407157"><ele>1836.0</ele><time>2026-04-11T16:46:13.002Z</time></trkpt><trkpt lat="36.78424139400929" lon="-107.98972786945909"><ele>1836.3333333333333</ele><time>2026-04-11T16:46:14.002Z</time></trkpt><trkpt lat="36.784175062205065" lon="-107.98966480459303"><ele>1836.6666666666665</ele><time>2026-04-11T16:46:15Z</time></trkpt><trkpt lat="36.78412136421142" lon="-107.98959174501674"><ele>1837.0</ele><time>2026-04-11T16:46:16Z</time></trkpt><trkpt lat="36.78405228407981" lon="-107.9895907129302"><ele>1837.3333333333333</ele><time>2026-04-11T16:46:17Z</time></trkpt><trkpt lat="36.78396481120361" lon="-107.98960116441181"><ele>1837.6666666666665</ele><time>2026-04-11T16:46:18Z</time></trkpt><trkpt lat="36.78391968033949" lon="-107.98953655382262"><ele>1838.0</ele><time>2026-04-11T16:46:19Z</time></trkpt><trkpt lat="36.78390648480701" lon="-107.98945933038043"><ele>1837.9999999999998</ele><time>2026-04-11T16:46:20Z</time></trkpt><trkpt lat="36.78390634104194" lon="-107.9893799111765"><ele>1838.0</ele><time>2026-04-11T16:46:21Z</time></trkpt><trkpt lat="36.7838612548115" lon="-107.98927667722302"><ele>1838.0</ele><time>2026-04-11T16:46:22Z</time></trkpt><trkpt lat="36.7837947913502" lon="-107.98918932367839"><ele>1838.0</ele><time>2026-04-11T16:46:23Z</time></trkpt><trkpt lat="36.7837226077254" lon="-107.98912626818134"><ele>1837.9999999999998</ele><time>2026-04-11T16:46:24Z</time></trkpt><trkpt lat="36.78364710013988" lon="-107.9890990175849"><ele>1838.0</ele><time>2026-04-11T16:46:25Z</time></trkpt><trkpt lat="36.78356304753862" lon="-107.98906844176872"><ele>1840.0</ele><time>2026-04-11T16:46:26Z</time></trkpt><trkpt lat="36.78345585886017" lon="-107.98902441774376"><ele>1842.0000000000002</ele><time>2026-04-11T16:46:27Z</time></trkpt><trkpt lat="36.783359969398006" lon="-107.98901832498873"><ele>1844.0000000000002</ele><time>2026-04-11T16:46:28Z</time></trkpt><trkpt lat="36.78327232151228" lon="-107.98903844916853"><ele>1846.0</ele><time>2026-04-11T16:46:29Z</time></trkpt><trkpt lat="36.783182920622394" lon="-107.98905037798131"><ele>1848.0</ele><time>2026-04-11T16:46:30Z</time></trkpt><trkpt lat="36.78308915760788" lon="-107.98901362143366"><ele>1848.0</ele><time>2026-04-11T16:46:31Z</time></trkpt><trkpt lat="36.78300862644066" lon="-107.98900006989946"><ele>1848.0</ele><time>2026-04-11T16:46:32Z</time></trkpt><trkpt lat="36.782937585193295" lon="-107.98906133356773"><ele>1848.0</ele><time>2026-04-11T16:46:33Z</time></trkpt><trkpt lat="36.7828780706488" lon="-107.98910508421605"><ele>1848.0</ele><time>2026-04-11T16:46:34Z</time></trkpt><trkpt lat="36.78282121549557" lon="-107.98907079562647"><ele>1848.0</ele><time>2026-04-11T16:46:36Z</time></trkpt><trkpt lat="36.782812012353986" lon="-107.98894857955582"><ele>1848.0</ele><time>2026-04-11T16:46:38Z</time></trkpt><trkpt lat="36.78282807091503" lon="-107.98884812967096"><ele>1848.0</ele><time>2026-04-11T16:46:39Z</time></trkpt><trkpt lat="36.78283471440748" lon="-107.98871537604845"><ele>1848.0000000000002</ele><time>2026-04-11T16:46:40Z</time></trkpt><trkpt lat="36.782801665123955" lon="-107.98856316882807"><ele>1848.0000000000002</ele><time>2026-04-11T16:46:41Z</time></trkpt><trkpt lat="36.782759926014144" lon="-107.98843366346951"><ele>1848.0</ele><time>2026-04-11T16:46:42Z</time></trkpt><trkpt lat="36.78271891167921" lon="-107.98834099722541"><ele>1848.0</ele><time>2026-04-11T16:46:43Z</time></trkpt><trkpt lat="36.7826657145151" lon="-107.9882690517539"><ele>1848.8000000000002</ele><time>2026-04-11T16:46:44Z</time></trkpt><trkpt lat="36.78260175924434" lon="-107.9881902719535"><ele>1849.6000000000001</ele><time>2026-04-11T16:46:45.001Z</time></trkpt><trkpt lat="36.7825388867116" lon="-107.98809640329978"><ele>1850.3999999999999</ele><time>2026-04-11T16:46:46.001Z</time></trkpt><trkpt lat="36.78249683398825" lon="-107.98798820136729"><ele>1851.1999999999998</ele><time>2026-04-11T16:46:47.001Z</time></trkpt><trkpt lat="36.78245334800561" lon="-107.98785149244084"><ele>1852.0</ele><time>2026-04-11T16:46:48.001Z</time></trkpt><trkpt lat="36.782396525973766" lon="-107.98772371881525"><ele>1852.0</ele><time>2026-04-11T16:46:49.001Z</time></trkpt><trkpt lat="36.78233035436573" lon="-107.98764204989129"><ele>1851.9999999999998</ele><time>2026-04-11T16:46:50.001Z</time></trkpt><trkpt lat="36.782271834980655" lon="-107.98761059784215"><ele>1851.9999999999998</ele><time>2026-04-11T16:46:51.001Z</time></trkpt><trkpt lat="36.78219567401563" lon="-107.987620529727"><ele>1852.0</ele><time>2026-04-11T16:46:52.001Z</time></trkpt><trkpt lat="36.78208636137752" lon="-107.9875926140978"><ele>1852.0</ele><time>2026-04-11T16:46:53.001Z</time></trkpt><trkpt lat="36.781969067656334" lon="-107.98754228585332"><ele>1852.0</ele><time>2026-04-11T16:46:54.001Z</time></trkpt><trkpt lat="36.78188277292405" lon="-107.98751259141997"><ele>1851.9999999999998</ele><time>2026-04-11T16:46:55.001Z</time></trkpt><trkpt lat="36.781790665252366" lon="-107.98752195770784"><ele>1851.9999999999998</ele><time>2026-04-11T16:46:56.001Z</time></trkpt><trkpt lat="36.78167540172257" lon="-107.98753882628651"><ele>1852.0</ele><time>2026-04-11T16:46:57.001Z</time></trkpt><trkpt lat="36.78156051841258" lon="-107.98754819617523"><ele>1852.0</ele><time>2026-04-11T16:46:58.001Z</time></trkpt><trkpt lat="36.78144237518768" lon="-107.98754166387337"><ele>1851.6</ele><time>2026-04-11T16:46:59.001Z</time></trkpt><trkpt lat="36.78132314009512" lon="-107.98754687072606"><ele>1851.1999999999998</ele><time>2026-04-11T16:47:00.001Z</time></trkpt><trkpt lat="36.78123337663143" lon="-107.98754401133775"><ele>1850.8</ele><time>2026-04-11T16:47:01.001Z</time></trkpt><trkpt lat="36.781135448520814" lon="-107.98752393181002"><ele>1850.4</ele><time>2026-04-11T16:47:02.001Z</time></trkpt><trkpt lat="36.78102287403383" lon="-107.98750316668807"><ele>1850.0</ele><time>2026-04-11T16:47:03.001Z</time></trkpt><trkpt lat="36.78093362367689" lon="-107.98746342116891"><ele>1848.6</ele><time>2026-04-11T16:47:04.001Z</time></trkpt><trkpt lat="36.78086271587939" lon="-107.98745463768661"><ele>1847.2</ele><time>2026-04-11T16:47:05.001Z</time></trkpt><trkpt lat="36.78076869702919" lon="-107.98747092461142"><ele>1845.8000000000002</ele><time>2026-04-11T16:47:06.001Z</time></trkpt><trkpt lat="36.78068184855199" lon="-107.98744412170427"><ele>1844.4</ele><time>2026-04-11T16:47:07.001Z</time></trkpt><trkpt lat="36.780605459324725" lon="-107.98735918327633"><ele>1843.0</ele><time>2026-04-11T16:47:08.001Z</time></trkpt><trkpt lat="36.780509766731385" lon="-107.98730501173924"><ele>1843.0000000000002</ele><time>2026-04-11T16:47:09.001Z</time></trkpt><trkpt lat="36.78041205821199" lon="-107.98733580692748"><ele>1843.0</ele><time>2026-04-11T16:47:10.001Z</time></trkpt><trkpt lat="36.78033462370959" lon="-107.98739764735508"><ele>1843.0</ele><time>2026-04-11T16:47:11.001Z</time></trkpt><trkpt lat="36.780268153453804" lon="-107.98744980695125"><ele>1843.0</ele><time>2026-04-11T16:47:12.001Z</time></trkpt><trkpt lat="36.78019298904737" lon="-107.98749491741144"><ele>1843.0000000000002</ele><time>2026-04-11T16:47:13.001Z</time></trkpt><trkpt lat="36.78010060924091" lon="-107.98750442793764"><ele>1843.0</ele><time>2026-04-11T16:47:14.001Z</time></trkpt><trkpt lat="36.78002207317252" lon="-107.9875102602335"><ele>1843.0</ele><time>2026-04-11T16:47:15.001Z</time></trkpt><trkpt lat="36.77994090789369" lon="-107.98752261004302"><ele>1843.0000000000002</ele><time>2026-04-11T16:47:16.001Z</time></trkpt><trkpt lat="36.779847544163275" lon="-107.98754070696225"><ele>1843.0000000000002</ele><time>2026-04-11T16:47:17.001Z</time></trkpt><trkpt lat="36.77971772375769" lon="-107.9875573512473"><ele>1843.0</ele><time>2026-04-11T16:47:18.001Z</time></trkpt><trkpt lat="36.77959008418944" lon="-107.98756960076408"><ele>1843.0</ele><time>2026-04-11T16:47:19.001Z</time></trkpt><trkpt lat="36.77950634879967" lon="-107.98756882725476"><ele>1843.0000000000002</ele><time>2026-04-11T16:47:20.001Z</time></trkpt><trkpt lat="36.779420477308655" lon="-107.98757476781913"><ele>1843.0</ele><time>2026-04-11T16:47:21.001Z</time></trkpt><trkpt lat="36.779345300628826" lon="-107.98762380880622"><ele>1843.0</ele><time>2026-04-11T16:47:22.001Z</time></trkpt><trkpt lat="36.77927689560517" lon="-107.98768506528793"><ele>1843.0</ele><time>2026-04-11T16:47:23.001Z</time></trkpt><trkpt lat="36.77919909610689" lon="-107.98770800088985"><ele>1843.0000000000002</ele><time>2026-04-11T16:47:24.001Z</time></trkpt><trkpt lat="36.77910717727089" lon="-107.98768336788726"><ele>1843.0</ele><time>2026-04-11T16:47:25.001Z</time></trkpt><trkpt lat="36.77901514798031" lon="-107.98769187446473"><ele>1842.0</ele><time>2026-04-11T16:47:26.001Z</time></trkpt><trkpt lat="36.7789391882925" lon="-107.98774458294484"><ele>1841.0000000000002</ele><time>2026-04-11T16:47:27.001Z</time></trkpt><trkpt lat="36.77885811958573" lon="-107.98778581317121"><ele>1840.0000000000002</ele><time>2026-04-11T16:47:28.001Z</time></trkpt><trkpt lat="36.778772127315115" lon="-107.9878029428343"><ele>1839.0</ele><time>2026-04-11T16:47:29.001Z</time></trkpt><trkpt lat="36.778671352123595" lon="-107.98781216284712"><ele>1838.0</ele><time>2026-04-11T16:47:30.001Z</time></trkpt><trkpt lat="36.77855928527163" lon="-107.98782200146853"><ele>1837.8000000000002</ele><time>2026-04-11T16:47:31.001Z</time></trkpt><trkpt lat="36.77843972754145" lon="-107.98783704994875"><ele>1837.6000000000001</ele><time>2026-04-11T16:47:32.001Z</time></trkpt><trkpt lat="36.77833467202034" lon="-107.98785663581076"><ele>1837.3999999999999</ele><time>2026-04-11T16:47:33.001Z</time></trkpt><trkpt lat="36.77824606675964" lon="-107.98789539372993"><ele>1837.1999999999998</ele><time>2026-04-11T16:47:34.001Z</time></trkpt><trkpt lat="36.77815353337237" lon="-107.98792261523954"><ele>1837.0</ele><time>2026-04-11T16:47:35.001Z</time></trkpt><trkpt lat="36.77807565914339" lon="-107.98793201905785"><ele>1837.0000000000002</ele><time>2026-04-11T16:47:36.001Z</time></trkpt><trkpt lat="36.77799417676259" lon="-107.98793736301742"><ele>1837.0</ele><time>2026-04-11T16:47:37.001Z</time></trkpt><trkpt lat="36.77792165934042" lon="-107.9879656846715"><ele>1837.0</ele><time>2026-04-11T16:47:38.001Z</time></trkpt><trkpt lat="36.77785731355665" lon="-107.98800584932081"><ele>1837.0</ele><time>2026-04-11T16:47:39.001Z</time></trkpt><trkpt lat="36.777794358058124" lon="-107.98803628006563"><ele>1837.0000000000002</ele><time>2026-04-11T16:47:40.001Z</time></trkpt><trkpt lat="36.77768886187124" lon="-107.98802502667071"><ele>1837.0</ele><time>2026-04-11T16:47:41.001Z</time></trkpt><trkpt lat="36.777594277311415" lon="-107.98802328165995"><ele>1836.6666666666667</ele><time>2026-04-11T16:47:42.001Z</time></trkpt><trkpt lat="36.77750833249757" lon="-107.98802707161681"><ele>1836.3333333333335</ele><time>2026-04-11T16:47:43.001Z</time></trkpt><trkpt lat="36.777425636187225" lon="-107.98804670279839"><ele>1836.0</ele><time>2026-04-11T16:47:44.001Z</time></trkpt><trkpt lat="36.77734085420484" lon="-107.98808859812077"><ele>1835.6666666666665</ele><time>2026-04-11T16:47:45.001Z</time></trkpt><trkpt lat="36.777252691702394" lon="-107.98813638093829"><ele>1835.3333333333333</ele><time>2026-04-11T16:47:46.001Z</time></trkpt><trkpt lat="36.77718537704774" lon="-107.988186092045"><ele>1835.0</ele><time>2026-04-11T16:47:47.001Z</time></trkpt><trkpt lat="36.77711528990142" lon="-107.98824333815615"><ele>1835.0</ele><time>2026-04-11T16:47:48.001Z</time></trkpt><trkpt lat="36.77701915865249" lon="-107.98828958058652"><ele>1835.0</ele><time>2026-04-11T16:47:49.001Z</time></trkpt><trkpt lat="36.77692887074107" lon="-107.98834122735096"><ele>1835.0</ele><time>2026-04-11T16:47:50.001Z</time></trkpt><trkpt lat="36.77686486658759" lon="-107.9884245973091"><ele>1835.0</ele><time>2026-04-11T16:47:51.001Z</time></trkpt><trkpt lat="36.776791578573004" lon="-107.98851859494137"><ele>1835.0</ele><time>2026-04-11T16:47:52.001Z</time></trkpt><trkpt lat="36.77671990764399" lon="-107.98862701501862"><ele>1834.2</ele><time>2026-04-11T16:47:53.001Z</time></trkpt><trkpt lat="36.776657599321034" lon="-107.98875814970239"><ele>1833.4</ele><time>2026-04-11T16:47:54.001Z</time></trkpt><trkpt lat="36.776592264014816" lon="-107.98886332367333"><ele>1832.6</ele><time>2026-04-11T16:47:55.001Z</time></trkpt><trkpt lat="36.77650343508206" lon="-107.98894529258072"><ele>1831.8</ele><time>2026-04-11T16:47:56.001Z</time></trkpt><trkpt lat="36.77642975839195" lon="-107.98902827108246"><ele>1831.0</ele><time>2026-04-11T16:47:57.001Z</time></trkpt><trkpt lat="36.776402308557564" lon="-107.9891359369316"><ele>1830.6</ele><time>2026-04-11T16:47:58.001Z</time></trkpt><trkpt lat="36.77640496025767" lon="-107.98925030581265"><ele>1830.1999999999998</ele><time>2026-04-11T16:47:59.001Z</time></trkpt><trkpt lat="36.77638641978379" lon="-107.98932995054467"><ele>1829.8000000000002</ele><time>2026-04-11T16:48:00.001Z</time></trkpt><trkpt lat="36.77629186793711" lon="-107.98939684301688"><ele>1829.4</ele><time>2026-04-11T16:48:02.001Z</time></trkpt><trkpt lat="36.776172416669006" lon="-107.98944964321859"><ele>1829.0</ele><time>2026-04-11T16:48:03.001Z</time></trkpt><trkpt lat="36.77609464426396" lon="-107.98948346338834"><ele>1829.0</ele><time>2026-04-11T16:48:04.001Z</time></trkpt><trkpt lat="36.776016785836575" lon="-107.98934001770836"><ele>1829.0</ele><time>2026-04-11T16:48:06.001Z</time></trkpt><trkpt lat="36.775978552808006" lon="-107.98919443052023"><ele>1829.0</ele><time>2026-04-11T16:48:07.001Z</time></trkpt><trkpt lat="36.77594717393343" lon="-107.98907033155163"><ele>1829.0</ele><time>2026-04-11T16:48:08.002Z</time></trkpt><trkpt lat="36.77589081420126" lon="-107.98894524678649"><ele>1829.6</ele><time>2026-04-11T16:48:09.002Z</time></trkpt><trkpt lat="36.77583125158408" lon="-107.98886417135509"><ele>1830.2</ele><time>2026-04-11T16:48:10.002Z</time></trkpt><trkpt lat="36.77577209635297" lon="-107.98882846822048"><ele>1830.7999999999997</ele><time>2026-04-11T16:48:11.002Z</time></trkpt><trkpt lat="36.775664305703486" lon="-107.98880587874802"><ele>1831.3999999999999</ele><time>2026-04-11T16:48:12.002Z</time></trkpt><trkpt lat="36.77557042899082" lon="-107.98879055732495"><ele>1832.0</ele><time>2026-04-11T16:48:13.002Z</time></trkpt><trkpt lat="36.77547287538779" lon="-107.9887978100292"><ele>1832.0</ele><time>2026-04-11T16:48:14.002Z</time></trkpt><trkpt lat="36.775369115639386" lon="-107.98881742500325"><ele>1831.9999999999998</ele><time>2026-04-11T16:48:15.002Z</time></trkpt><trkpt lat="36.775270581788384" lon="-107.98883570937645"><ele>1831.9999999999998</ele><time>2026-04-11T16:48:16.002Z</time></trkpt><trkpt lat="36.7751796666111" lon="-107.98881372224837"><ele>1832.0</ele><time>2026-04-11T16:48:17.002Z</time></trkpt><trkpt lat="36.77509422215235" lon="-107.98877179760348"><ele>1832.0</ele><time>2026-04-11T16:48:18.002Z</time></trkpt><trkpt lat="36.77501451623859" lon="-107.9887053720027"><ele>1831.75</ele><time>2026-04-11T16:48:19.002Z</time></trkpt><trkpt lat="36.774926590567745" lon="-107.98863794105488"><ele>1831.5</ele><time>2026-04-11T16:48:20.002Z</time></trkpt><trkpt lat="36.77481876005732" lon="-107.98857464552754"><ele>1831.25</ele><time>2026-04-11T16:48:21Z</time></trkpt><trkpt lat="36.77471594231489" lon="-107.98850039767031"><ele>1831.0</ele><time>2026-04-11T16:48:22Z</time></trkpt><trkpt lat="36.77461014574795" lon="-107.9884240210267"><ele>1831.0</ele><time>2026-04-11T16:48:23Z</time></trkpt><trkpt lat="36.7745346942729" lon="-107.98837113001767"><ele>1831.0</ele><time>2026-04-11T16:48:24Z</time></trkpt><trkpt lat="36.77449944931796" lon="-107.98828131453762"><ele>1831.0</ele><time>2026-04-11T16:48:26Z</time></trkpt><trkpt lat="36.77441578274913" lon="-107.98817909002834"><ele>1831.0</ele><time>2026-04-11T16:48:28Z</time></trkpt><trkpt lat="36.77434900952866" lon="-107.98814182008779"><ele>1831.0</ele><time>2026-04-11T16:48:31Z</time></trkpt><trkpt lat="36.77422227675029" lon="-107.98812311949054"><ele>1831.0</ele><time>2026-04-11T16:49:45.001Z</time></trkpt><trkpt lat="36.77413063912502" lon="-107.98812331466391"><ele>1831.0</ele><time>2026-04-11T16:49:46.001Z</time></trkpt><trkpt lat="36.77402093551673" lon="-107.98811588812599"><ele>1831.0</ele><time>2026-04-11T16:49:47.001Z</time></trkpt><trkpt lat="36.77390843282778" lon="-107.9881069887395"><ele>1831.0</ele><time>2026-04-11T16:49:48.001Z</time></trkpt><trkpt lat="36.77382223544466" lon="-107.98811441176984"><ele>1831.0</ele><time>2026-04-11T16:49:49.001Z</time></trkpt><trkpt lat="36.77373144657457" lon="-107.98814438802806"><ele>1831.0</ele><time>2026-04-11T16:49:50.001Z</time></trkpt><trkpt lat="36.77361880502842" lon="-107.98820259621928"><ele>1831.0</ele><time>2026-04-11T16:49:51.001Z</time></trkpt><trkpt lat="36.77352368788841" lon="-107.98823466126257"><ele>1831.0</ele><time>2026-04-11T16:49:52.001Z</time></trkpt><trkpt lat="36.773413630119286" lon="-107.98823577108233"><ele>1831.0</ele><time>2026-04-11T16:49:53.001Z</time></trkpt><trkpt lat="36.77330554048943" lon="-107.98823226139321"><ele>1831.0</ele><time>2026-04-11T16:49:54.001Z</time></trkpt><trkpt lat="36.773220533109736" lon="-107.98820684257262"><ele>1830.0</ele><time>2026-04-11T16:49:55.001Z</time></trkpt><trkpt lat="36.7731246797097" lon="-107.98812214721225"><ele>1829.0</ele><time>2026-04-11T16:49:56.001Z</time></trkpt><trkpt lat="36.77303650589529" lon="-107.98802667952471"><ele>1828.0</ele><time>2026-04-11T16:49:57.001Z</time></trkpt><trkpt lat="36.7729236669167" lon="-107.98793821386293"><ele>1827.0</ele><time>2026-04-11T16:49:58.001Z</time></trkpt><trkpt lat="36.772801648558094" lon="-107.98787231109459"><ele>1826.8</ele><time>2026-04-11T16:49:59.001Z</time></trkpt><trkpt lat="36.772676369444106" lon="-107.98782723286487"><ele>1826.6</ele><time>2026-04-11T16:50:00.001Z</time></trkpt><trkpt lat="36.77255234250171" lon="-107.98780821471621"><ele>1826.3999999999999</ele><time>2026-04-11T16:50:01.001Z</time></trkpt><trkpt lat="36.772457450185776" lon="-107.98779605419237"><ele>1826.1999999999998</ele><time>2026-04-11T16:50:02.001Z</time></trkpt><trkpt lat="36.77237892936358" lon="-107.98778836165381"><ele>1826.0</ele><time>2026-04-11T16:50:03.001Z</time></trkpt><trkpt lat="36.7722874075878" lon="-107.98784642594701"><ele>1826.0</ele><time>2026-04-11T16:50:04.001Z</time></trkpt><trkpt lat="36.772159760161124" lon="-107.98789525425076"><ele>1826.0</ele><time>2026-04-11T16:50:05.001Z</time></trkpt><trkpt lat="36.772035984551515" lon="-107.98789326245507"><ele>1826.0</ele><time>2026-04-11T16:50:06.001Z</time></trkpt><trkpt lat="36.7719381818739" lon="-107.9878761137915"><ele>1826.0</ele><time>2026-04-11T16:50:07.001Z</time></trkpt><trkpt lat="36.77181055246284" lon="-107.9878566740852"><ele>1825.75</ele><time>2026-04-11T16:50:08.001Z</time></trkpt><trkpt lat="36.771647526650334" lon="-107.98783453118479"><ele>1825.5</ele><time>2026-04-11T16:50:09.001Z</time></trkpt><trkpt lat="36.77151901015473" lon="-107.98780921965204"><ele>1825.25</ele><time>2026-04-11T16:50:10.001Z</time></trkpt><trkpt lat="36.771406798742646" lon="-107.98778913957744"><ele>1825.0</ele><time>2026-04-11T16:50:11.001Z</time></trkpt><trkpt lat="36.77130949446805" lon="-107.98779648215275"><ele>1825.0</ele><time>2026-04-11T16:50:12.001Z</time></trkpt><trkpt lat="36.77120944839093" lon="-107.98785204277033"><ele>1825.0</ele><time>2026-04-11T16:50:13.001Z</time></trkpt><trkpt lat="36.77109353755043" lon="-107.98793676821668"><ele>1825.0</ele><time>2026-04-11T16:50:14.001Z</time></trkpt><trkpt lat="36.770991255437025" lon="-107.98801286339759"><ele>1825.0</ele><time>2026-04-11T16:50:15.001Z</time></trkpt><trkpt lat="36.770891144025384" lon="-107.98807885901628"><ele>1824.8</ele><time>2026-04-11T16:50:16.002Z</time></trkpt><trkpt lat="36.77080270878722" lon="-107.98811956671219"><ele>1824.6</ele><time>2026-04-11T16:50:17.002Z</time></trkpt><trkpt lat="36.77069364367731" lon="-107.98814736562647"><ele>1824.4</ele><time>2026-04-11T16:50:18.002Z</time></trkpt><trkpt lat="36.77057295843852" lon="-107.98817047272112"><ele>1824.2</ele><time>2026-04-11T16:50:19.002Z</time></trkpt><trkpt lat="36.770459526384606" lon="-107.98820058973747"><ele>1824.0</ele><time>2026-04-11T16:50:20.002Z</time></trkpt><trkpt lat="36.770384636269796" lon="-107.98824285117809"><ele>1824.0</ele><time>2026-04-11T16:50:21.002Z</time></trkpt><trkpt lat="36.770319350211196" lon="-107.98827569769804"><ele>1824.0</ele><time>2026-04-11T16:50:22.002Z</time></trkpt><trkpt lat="36.77022425124984" lon="-107.98829248440059"><ele>1824.0</ele><time>2026-04-11T16:50:23.002Z</time></trkpt><trkpt lat="36.770118685196" lon="-107.98829713061438"><ele>1824.0</ele><time>2026-04-11T16:50:24.002Z</time></trkpt><trkpt lat="36.77001861018095" lon="-107.9882883702733"><ele>1824.0</ele><time>2026-04-11T16:50:25.002Z</time></trkpt><trkpt lat="36.76989252534295" lon="-107.98826665424464"><ele>1823.5</ele><time>2026-04-11T16:50:26.002Z</time></trkpt><trkpt lat="36.76977566255071" lon="-107.98826328058406"><ele>1823.0</ele><time>2026-04-11T16:50:27Z</time></trkpt><trkpt lat="36.76966994962805" lon="-107.98826189313715"><ele>1822.5</ele><time>2026-04-11T16:50:28Z</time></trkpt><trkpt lat="36.769552758959044" lon="-107.988243365634"><ele>1822.0</ele><time>2026-04-11T16:50:29Z</time></trkpt><trkpt lat="36.76942679967099" lon="-107.98822878418525"><ele>1822.1666666666667</ele><time>2026-04-11T16:50:30Z</time></trkpt><trkpt lat="36.76930734133593" lon="-107.98822465030483"><ele>1822.3333333333335</ele><time>2026-04-11T16:50:31Z</time></trkpt><trkpt lat="36.769199779099765" lon="-107.9882297939633"><ele>1822.5</ele><time>2026-04-11T16:50:32Z</time></trkpt><trkpt lat="36.76912151838596" lon="-107.98824791936146"><ele>1822.6666666666665</ele><time>2026-04-11T16:50:33Z</time></trkpt><trkpt lat="36.76905152547585" lon="-107.98826420370908"><ele>1822.8333333333333</ele><time>2026-04-11T16:50:34Z</time></trkpt><trkpt lat="36.7689948426471" lon="-107.98822536911224"><ele>1823.0</ele><time>2026-04-11T16:50:35Z</time></trkpt><trkpt lat="36.7689356854565" lon="-107.98815676705355"><ele>1823.0</ele><time>2026-04-11T16:50:36Z</time></trkpt><trkpt lat="36.76885319160675" lon="-107.9880887850833"><ele>1823.0000000000002</ele><time>2026-04-11T16:50:37Z</time></trkpt><trkpt lat="36.76876233430211" lon="-107.98801454373167"><ele>1823.0000000000002</ele><time>2026-04-11T16:50:38Z</time></trkpt><trkpt lat="36.76867866061392" lon="-107.98796202663395"><ele>1823.0</ele><time>2026-04-11T16:50:39Z</time></trkpt><trkpt lat="36.768581345576415" lon="-107.98793107957988"><ele>1823.0</ele><time>2026-04-11T16:50:40Z</time></trkpt><trkpt lat="36.76848231221072" lon="-107.98791717686399"><ele>1822.4</ele><time>2026-04-11T16:50:41Z</time></trkpt><trkpt lat="36.76838501118405" lon="-107.98787619557052"><ele>1821.8000000000002</ele><time>2026-04-11T16:50:42Z</time></trkpt><trkpt lat="36.76830743808449" lon="-107.98784336386154"><ele>1821.2</ele><time>2026-04-11T16:50:43Z</time></trkpt><trkpt lat="36.768232239260335" lon="-107.98786498910295"><ele>1820.6</ele><time>2026-04-11T16:50:44Z</time></trkpt><trkpt lat="36.76812929634404" lon="-107.98792306882258"><ele>1820.0</ele><time>2026-04-11T16:50:45Z</time></trkpt><trkpt lat="36.768032241401926" lon="-107.98796141086923"><ele>1819.9999999999998</ele><time>2026-04-11T16:50:46Z</time></trkpt><trkpt lat="36.767964026664444" lon="-107.98803003641484"><ele>1820.0</ele><time>2026-04-11T16:50:47Z</time></trkpt><trkpt lat="36.76790508312207" lon="-107.98813202911619"><ele>1820.0</ele><time>2026-04-11T16:50:48Z</time></trkpt><trkpt lat="36.76783556480461" lon="-107.98820703946298"><ele>1820.0</ele><time>2026-04-11T16:50:49Z</time></trkpt><trkpt lat="36.76774950086677" lon="-107.98822143956778"><ele>1819.9999999999998</ele><time>2026-04-11T16:50:50Z</time></trkpt><trkpt lat="36.7676814217068" lon="-107.98824819788096"><ele>1820.0</ele><time>2026-04-11T16:50:51Z</time></trkpt><trkpt lat="36.76762077862498" lon="-107.98828198699243"><ele>1819.8</ele><time>2026-04-11T16:50:52Z</time></trkpt><trkpt lat="36.767471264696624" lon="-107.98821427425598"><ele>1819.6</ele><time>2026-04-11T16:50:54Z</time></trkpt><trkpt lat="36.76736998042532" lon="-107.98819878248837"><ele>1819.4</ele><time>2026-04-11T16:50:55Z</time></trkpt><trkpt lat="36.767278675119016" lon="-107.98820596636418"><ele>1819.2</ele><time>2026-04-11T16:50:56Z</time></trkpt><trkpt lat="36.767193647952645" lon="-107.98819367523505"><ele>1819.0</ele><time>2026-04-11T16:50:57Z</time></trkpt><trkpt lat="36.76708969486246" lon="-107.98815423534748"><ele>1819.0</ele><time>2026-04-11T16:50:58Z</time></trkpt><trkpt lat="36.766980436023914" lon="-107.9881221731235"><ele>1819.0</ele><time>2026-04-11T16:50:59Z</time></trkpt><trkpt lat="36.76686648562578" lon="-107.9881045454456"><ele>1819.0</ele><time>2026-04-11T16:51:00Z</time></trkpt><trkpt lat="36.76675847473639" lon="-107.98809415265245"><ele>1819.0</ele><time>2026-04-11T16:51:01Z</time></trkpt><trkpt lat="36.76666597874221" lon="-107.98809344598628"><ele>1819.0</ele><time>2026-04-11T16:51:02Z</time></trkpt><trkpt lat="36.76657139706573" lon="-107.9881077296086"><ele>1818.8000000000002</ele><time>2026-04-11T16:51:03.001Z</time></trkpt><trkpt lat="36.76648908855037" lon="-107.98816619543705"><ele>1818.6000000000001</ele><time>2026-04-11T16:51:04.001Z</time></trkpt><trkpt lat="36.76641379433669" lon="-107.9882632840029"><ele>1818.4</ele><time>2026-04-11T16:51:05.001Z</time></trkpt><trkpt lat="36.76635375152142" lon="-107.98838084107378"><ele>1818.2</ele><time>2026-04-11T16:51:06.001Z</time></trkpt><trkpt lat="36.76628406103242" lon="-107.98849602149944"><ele>1818.0</ele><time>2026-04-11T16:51:07.001Z</time></trkpt><trkpt lat="36.76619721691642" lon="-107.98855540971896"><ele>1818.0</ele><time>2026-04-11T16:51:08.001Z</time></trkpt><trkpt lat="36.76612436053685" lon="-107.98854630770333"><ele>1818.0000000000002</ele><time>2026-04-11T16:51:09.001Z</time></trkpt><trkpt lat="36.76605390659076" lon="-107.98852662960587"><ele>1818.0000000000002</ele><time>2026-04-11T16:51:10.001Z</time></trkpt><trkpt lat="36.76593170248819" lon="-107.98850776793816"><ele>1818.0</ele><time>2026-04-11T16:51:11.001Z</time></trkpt><trkpt lat="36.76584071306793" lon="-107.988474125047"><ele>1818.0</ele><time>2026-04-11T16:51:12.001Z</time></trkpt><trkpt lat="36.76575419370138" lon="-107.98848312883763"><ele>1818.4</ele><time>2026-04-11T16:51:13.001Z</time></trkpt><trkpt lat="36.76565512577075" lon="-107.98853008786783"><ele>1818.8000000000002</ele><time>2026-04-11T16:51:14.001Z</time></trkpt><trkpt lat="36.76557215859949" lon="-107.98860437139547"><ele>1819.2</ele><time>2026-04-11T16:51:15.001Z</time></trkpt><trkpt lat="36.765516108369454" lon="-107.98869551982065"><ele>1819.6</ele><time>2026-04-11T16:51:16.001Z</time></trkpt><trkpt lat="36.76547127644826" lon="-107.98879758805313"><ele>1820.0</ele><time>2026-04-11T16:51:17.001Z</time></trkpt><trkpt lat="36.76542278560765" lon="-107.9888982027452"><ele>1820.0</ele><time>2026-04-11T16:51:18.001Z</time></trkpt><trkpt lat="36.76529893551997" lon="-107.98891560148256"><ele>1820.0</ele><time>2026-04-11T16:51:20.001Z</time></trkpt><trkpt lat="36.76519590492904" lon="-107.98893588456707"><ele>1820.0</ele><time>2026-04-11T16:51:21.001Z</time></trkpt><trkpt lat="36.76509679484061" lon="-107.98896848208544"><ele>1820.0</ele><time>2026-04-11T16:51:22.001Z</time></trkpt><trkpt lat="36.76501645981614" lon="-107.98895768896035"><ele>1820.0</ele><time>2026-04-11T16:51:23.001Z</time></trkpt><trkpt lat="36.76490392469529" lon="-107.98892771803398"><ele>1819.8333333333333</ele><time>2026-04-11T16:51:24.001Z</time></trkpt><trkpt lat="36.764775970690415" lon="-107.98891790821142"><ele>1819.6666666666665</ele><time>2026-04-11T16:51:25.001Z</time></trkpt><trkpt lat="36.76469513082778" lon="-107.98892692173065"><ele>1819.5</ele><time>2026-04-11T16:51:26.001Z</time></trkpt><trkpt lat="36.76462761162344" lon="-107.98894329996212"><ele>1819.3333333333335</ele><time>2026-04-11T16:51:27.001Z</time></trkpt><trkpt lat="36.76456704261541" lon="-107.98891081632662"><ele>1819.1666666666667</ele><time>2026-04-11T16:51:28.001Z</time></trkpt><trkpt lat="36.764504718523796" lon="-107.98881492868492"><ele>1819.0</ele><time>2026-04-11T16:51:29.001Z</time></trkpt><trkpt lat="36.764442092033626" lon="-107.9886914075653"><ele>1819.0</ele><time>2026-04-11T16:51:30.001Z</time></trkpt><trkpt lat="36.764404137138776" lon="-107.9885681632979"><ele>1819.0</ele><time>2026-04-11T16:51:31.001Z</time></trkpt><trkpt lat="36.76435382734822" lon="-107.98844388136393"><ele>1819.0</ele><time>2026-04-11T16:51:32.001Z</time></trkpt><trkpt lat="36.7642692672593" lon="-107.98831631957783"><ele>1819.0</ele><time>2026-04-11T16:51:33.001Z</time></trkpt><trkpt lat="36.764191720894075" lon="-107.98822213446441"><ele>1818.8000000000002</ele><time>2026-04-11T16:51:34.001Z</time></trkpt><trkpt lat="36.76413870121022" lon="-107.98816321836024"><ele>1818.6000000000001</ele><time>2026-04-11T16:51:35.001Z</time></trkpt><trkpt lat="36.76407010653972" lon="-107.98815905161408"><ele>1818.4</ele><time>2026-04-11T16:51:36.001Z</time></trkpt><trkpt lat="36.763976378845626" lon="-107.98818385268893"><ele>1818.2</ele><time>2026-04-11T16:51:37.001Z</time></trkpt><trkpt lat="36.76387128544253" lon="-107.98819753216571"><ele>1818.0</ele><time>2026-04-11T16:51:39.001Z</time></trkpt><trkpt lat="36.763755524844" lon="-107.98824371199599"><ele>1818.0</ele><time>2026-04-11T16:51:41.001Z</time></trkpt><trkpt lat="36.76368262889426" lon="-107.98825060970366"><ele>1818.0</ele><time>2026-04-11T16:51:42.001Z</time></trkpt><trkpt lat="36.76359395332766" lon="-107.9882681297334"><ele>1818.0</ele><time>2026-04-11T16:51:43.001Z</time></trkpt><trkpt lat="36.76351421176617" lon="-107.9882860081096"><ele>1818.0</ele><time>2026-04-11T16:51:44.001Z</time></trkpt><trkpt lat="36.763426609848885" lon="-107.98825706561999"><ele>1818.0</ele><time>2026-04-11T16:51:45.001Z</time></trkpt><trkpt lat="36.76333268671727" lon="-107.98820304593579"><ele>1818.0</ele><time>2026-04-11T16:51:46.001Z</time></trkpt><trkpt lat="36.76321023521852" lon="-107.98817126768846"><ele>1817.25</ele><time>2026-04-11T16:51:47.001Z</time></trkpt><trkpt lat="36.76309833531601" lon="-107.98816158805357"><ele>1816.5</ele><time>2026-04-11T16:51:48.001Z</time></trkpt><trkpt lat="36.76299782775294" lon="-107.98813602283549"><ele>1815.75</ele><time>2026-04-11T16:51:49.001Z</time></trkpt><trkpt lat="36.76288787799178" lon="-107.98808029505555"><ele>1815.0</ele><time>2026-04-11T16:51:50.001Z</time></trkpt><trkpt lat="36.7627714824863" lon="-107.9880725116225"><ele>1815.0</ele><time>2026-04-11T16:51:51.001Z</time></trkpt><trkpt lat="36.76265992214556" lon="-107.98807254214378"><ele>1815.0</ele><time>2026-04-11T16:51:52.001Z</time></trkpt><trkpt lat="36.7625602557586" lon="-107.98803769097101"><ele>1815.0</ele><time>2026-04-11T16:51:53.001Z</time></trkpt><trkpt lat="36.76245536162736" lon="-107.98795202093824"><ele>1815.0</ele><time>2026-04-11T16:51:54.001Z</time></trkpt><trkpt lat="36.762348501213644" lon="-107.98788986345693"><ele>1815.0</ele><time>2026-04-11T16:51:55.001Z</time></trkpt><trkpt lat="36.76223965355157" lon="-107.98789099150079"><ele>1815.0</ele><time>2026-04-11T16:51:56.001Z</time></trkpt><trkpt lat="36.76209375514201" lon="-107.98791462160085"><ele>1815.0</ele><time>2026-04-11T16:51:57.001Z</time></trkpt><trkpt lat="36.7619935152251" lon="-107.98792064858316"><ele>1815.0</ele><time>2026-04-11T16:51:58.001Z</time></trkpt><trkpt lat="36.76191719944365" lon="-107.98795354499397"><ele>1815.0</ele><time>2026-04-11T16:51:59.001Z</time></trkpt><trkpt lat="36.761809144836676" lon="-107.98802766526501"><ele>1815.0</ele><time>2026-04-11T16:52:00.001Z</time></trkpt><trkpt lat="36.76171858838097" lon="-107.98809168156505"><ele>1815.0</ele><time>2026-04-11T16:52:01.001Z</time></trkpt><trkpt lat="36.76166914676067" lon="-107.9881504830462"><ele>1815.0</ele><time>2026-04-11T16:52:02.001Z</time></trkpt><trkpt lat="36.76161792557315" lon="-107.98820933017606"><ele>1815.0</ele><time>2026-04-11T16:52:03.001Z</time></trkpt><trkpt lat="36.761549003365346" lon="-107.9882543847838"><ele>1815.0</ele><time>2026-04-11T16:52:04.001Z</time></trkpt><trkpt lat="36.761454522514455" lon="-107.98832621532246"><ele>1815.0</ele><time>2026-04-11T16:52:06.001Z</time></trkpt><trkpt lat="36.761351614981436" lon="-107.98833629229574"><ele>1815.0</ele><time>2026-04-11T16:52:08.001Z</time></trkpt><trkpt lat="36.76126163263206" lon="-107.98835943549591"><ele>1815.0</ele><time>2026-04-11T16:52:10.001Z</time></trkpt><trkpt lat="36.76119893809553" lon="-107.98844021997162"><ele>1815.0</ele><time>2026-04-11T16:52:14.001Z</time></trkpt><trkpt lat="36.761163805682045" lon="-107.98854044983602"><ele>1815.0</ele><time>2026-04-11T16:52:28.002Z</time></trkpt><trkpt lat="36.76109532798459" lon="-107.98865151945166"><ele>1815.0</ele><time>2026-04-11T16:52:30.002Z</time></trkpt><trkpt lat="36.76099634161808" lon="-107.98871513417379"><ele>1814.8</ele><time>2026-04-11T16:52:32.002Z</time></trkpt><trkpt lat="36.76091527258004" lon="-107.98873474857045"><ele>1814.6</ele><time>2026-04-11T16:52:33Z</time></trkpt><trkpt lat="36.76080140438844" lon="-107.98875252294157"><ele>1814.4</ele><time>2026-04-11T16:52:34Z</time></trkpt><trkpt lat="36.760690647724616" lon="-107.98877242574127"><ele>1814.2</ele><time>2026-04-11T16:52:35Z</time></trkpt><trkpt lat="36.760599972675664" lon="-107.98878336839519"><ele>1814.0</ele><time>2026-04-11T16:52:36Z</time></trkpt><trkpt lat="36.760474027122775" lon="-107.98875444775932"><ele>1814.0</ele><time>2026-04-11T16:52:37Z</time></trkpt><trkpt lat="36.76037405232884" lon="-107.98872380454159"><ele>1814.0</ele><time>2026-04-11T16:52:38Z</time></trkpt><trkpt lat="36.76028543373859" lon="-107.98868318158276"><ele>1814.0</ele><time>2026-04-11T16:52:39Z</time></trkpt><trkpt lat="36.760172719725695" lon="-107.98867440927326"><ele>1814.0</ele><time>2026-04-11T16:52:40Z</time></trkpt><trkpt lat="36.76006111318557" lon="-107.98864929788924"><ele>1814.0</ele><time>2026-04-11T16:52:41Z</time></trkpt><trkpt lat="36.75996329891657" lon="-107.98859895685152"><ele>1812.75</ele><time>2026-04-11T16:52:42Z</time></trkpt><trkpt lat="36.759866259826815" lon="-107.98852615130212"><ele>1811.5</ele><time>2026-04-11T16:52:43Z</time></trkpt><trkpt lat="36.75974511684791" lon="-107.98844945115223"><ele>1810.25</ele><time>2026-04-11T16:52:44Z</time></trkpt><trkpt lat="36.75965052106687" lon="-107.98837432542453"><ele>1809.0</ele><time>2026-04-11T16:52:45Z</time></trkpt><trkpt lat="36.759561351751444" lon="-107.98827799170985"><ele>1809.0</ele><time>2026-04-11T16:52:46Z</time></trkpt><trkpt lat="36.759458347114474" lon="-107.98817972683264"><ele>1809.0</ele><time>2026-04-11T16:52:47Z</time></trkpt><trkpt lat="36.75937264903081" lon="-107.98810337979381"><ele>1809.0</ele><time>2026-04-11T16:52:48Z</time></trkpt><trkpt lat="36.75929203255507" lon="-107.98808271459785"><ele>1809.0</ele><time>2026-04-11T16:52:49Z</time></trkpt><trkpt lat="36.759172497257445" lon="-107.98808874069519"><ele>1809.0</ele><time>2026-04-11T16:52:50Z</time></trkpt><trkpt lat="36.75904005241065" lon="-107.9881018662424"><ele>1809.0</ele><time>2026-04-11T16:52:51Z</time></trkpt><trkpt lat="36.75890378349965" lon="-107.98809402827035"><ele>1809.0</ele><time>2026-04-11T16:52:52Z</time></trkpt><trkpt lat="36.75878852020365" lon="-107.98807361898527"><ele>1809.0</ele><time>2026-04-11T16:52:53Z</time></trkpt><trkpt lat="36.75866817732905" lon="-107.98805727032276"><ele>1809.0</ele><time>2026-04-11T16:52:54Z</time></trkpt><trkpt lat="36.758545919091894" lon="-107.98805056930249"><ele>1808.4</ele><time>2026-04-11T16:52:55Z</time></trkpt><trkpt lat="36.75842850891502" lon="-107.98804675068128"><ele>1807.8000000000002</ele><time>2026-04-11T16:52:56Z</time></trkpt><trkpt lat="36.75832214207162" lon="-107.98805097074266"><ele>1807.1999999999998</ele><time>2026-04-11T16:52:57Z</time></trkpt><trkpt lat="36.75819818639204" lon="-107.98805289929545"><ele>1806.6</ele><time>2026-04-11T16:52:58Z</time></trkpt><trkpt lat="36.75810253463819" lon="-107.98805200706174"><ele>1806.0</ele><time>2026-04-11T16:52:59Z</time></trkpt><trkpt lat="36.758030771309826" lon="-107.98806864871298"><ele>1806.0</ele><time>2026-04-11T16:53:00Z</time></trkpt><trkpt lat="36.75797187114345" lon="-107.98810707444372"><ele>1806.0</ele><time>2026-04-11T16:53:01Z</time></trkpt><trkpt lat="36.75793610152659" lon="-107.98817417143354"><ele>1806.0</ele><time>2026-04-11T16:53:02Z</time></trkpt><trkpt lat="36.75790037701324" lon="-107.98826221730894"><ele>1806.0</ele><time>2026-04-11T16:53:03Z</time></trkpt><trkpt lat="36.75785439483949" lon="-107.98832170549441"><ele>1806.0</ele><time>2026-04-11T16:53:04Z</time></trkpt><trkpt lat="36.75779197525877" lon="-107.98834738306286"><ele>1806.0</ele><time>2026-04-11T16:53:05Z</time></trkpt><trkpt lat="36.75771168208949" lon="-107.98836861825005"><ele>1806.0</ele><time>2026-04-11T16:53:06Z</time></trkpt><trkpt lat="36.75759231487525" lon="-107.98841258606092"><ele>1805.4</ele><time>2026-04-11T16:53:08Z</time></trkpt><trkpt lat="36.75753619007756" lon="-107.98848087810593"><ele>1804.8</ele><time>2026-04-11T16:53:09Z</time></trkpt><trkpt lat="36.7574710056102" lon="-107.9885653222329"><ele>1804.2000000000003</ele><time>2026-04-11T16:53:10Z</time></trkpt><trkpt lat="36.75740227656855" lon="-107.98865612265823"><ele>1803.6000000000001</ele><time>2026-04-11T16:53:11.001Z</time></trkpt><trkpt lat="36.757364925805945" lon="-107.9887380011685"><ele>1803.0</ele><time>2026-04-11T16:53:12.001Z</time></trkpt><trkpt lat="36.75725151631163" lon="-107.98882317025704"><ele>1803.0</ele><time>2026-04-11T16:53:14.001Z</time></trkpt><trkpt lat="36.757155216492734" lon="-107.9888198625515"><ele>1803.0</ele><time>2026-04-11T16:53:15.001Z</time></trkpt><trkpt lat="36.75708323748564" lon="-107.98883302740585"><ele>1803.0</ele><time>2026-04-11T16:53:16.001Z</time></trkpt><trkpt lat="36.75704986639279" lon="-107.98892085364938"><ele>1803.0</ele><time>2026-04-11T16:53:17.001Z</time></trkpt><trkpt lat="36.75698227716633" lon="-107.98901048822756"><ele>1803.0</ele><time>2026-04-11T16:53:18.001Z</time></trkpt><trkpt lat="36.756929337308854" lon="-107.98909855141913"><ele>1803.0</ele><time>2026-04-11T16:53:20.001Z</time></trkpt><trkpt lat="36.756908066999785" lon="-107.9892093991169"><ele>1802.4</ele><time>2026-04-11T16:53:21.001Z</time></trkpt><trkpt lat="36.756852821321324" lon="-107.989311436792"><ele>1801.8000000000002</ele><time>2026-04-11T16:53:22.001Z</time></trkpt><trkpt lat="36.75679092573186" lon="-107.98936733681272"><ele>1801.2</ele><time>2026-04-11T16:53:23.001Z</time></trkpt><trkpt lat="36.75670611197386" lon="-107.98940914040381"><ele>1800.6</ele><time>2026-04-11T16:53:25.001Z</time></trkpt><trkpt lat="36.75659807031743" lon="-107.98952590821229"><ele>1800.0</ele><time>2026-04-11T16:53:27.001Z</time></trkpt><trkpt lat="36.756547956253705" lon="-107.98958291367882"><ele>1800.0</ele><time>2026-04-11T16:53:28.001Z</time></trkpt><trkpt lat="36.756480725445286" lon="-107.98963749077625"><ele>1800.0</ele><time>2026-04-11T16:53:29.001Z</time></trkpt><trkpt lat="36.75641917365396" lon="-107.98969402713138"><ele>1800.0</ele><time>2026-04-11T16:53:30.001Z</time></trkpt><trkpt lat="36.7563516496091" lon="-107.98973338795145"><ele>1800.0</ele><time>2026-04-11T16:53:31.001Z</time></trkpt><trkpt lat="36.75627566829182" lon="-107.9897159186445"><ele>1800.0</ele><time>2026-04-11T16:53:33.001Z</time></trkpt><trkpt lat="36.75620734937095" lon="-107.98979450746748"><ele>1800.0</ele><time>2026-04-11T16:53:35.001Z</time></trkpt><trkpt lat="36.75612002748758" lon="-107.98989037439586"><ele>1800.0</ele><time>2026-04-11T16:53:37.001Z</time></trkpt><trkpt lat="36.75603928176939" lon="-107.98990907218672"><ele>1800.0</ele><time>2026-04-11T16:53:38.001Z</time></trkpt><trkpt lat="36.75593459591622" lon="-107.98992209782014"><ele>1800.0</ele><time>2026-04-11T16:53:39.001Z</time></trkpt><trkpt lat="36.75583470838032" lon="-107.98996605329074"><ele>1800.0</ele><time>2026-04-11T16:53:40.001Z</time></trkpt><trkpt lat="36.75574459045413" lon="-107.98999240920868"><ele>1800.0</ele><time>2026-04-11T16:53:41.001Z</time></trkpt><trkpt lat="36.755670231410186" lon="-107.99001072720837"><ele>1799.5</ele><time>2026-04-11T16:53:42.001Z</time></trkpt><trkpt lat="36.755611755848534" lon="-107.99006272389153"><ele>1799.0</ele><time>2026-04-11T16:53:43.001Z</time></trkpt><trkpt lat="36.755537443781606" lon="-107.99009326688697"><ele>1798.5</ele><time>2026-04-11T16:53:45.001Z</time></trkpt><trkpt lat="36.75549198430942" lon="-107.99003164071965"><ele>1798.0</ele><time>2026-04-11T16:53:46.001Z</time></trkpt><trkpt lat="36.755427282050796" lon="-107.98993258512483"><ele>1797.5</ele><time>2026-04-11T16:53:47.001Z</time></trkpt><trkpt lat="36.755341596333466" lon="-107.98985353456447"><ele>1797.0</ele><time>2026-04-11T16:53:48.001Z</time></trkpt><trkpt lat="36.755252730579734" lon="-107.98979679814583"><ele>1796.5</ele><time>2026-04-11T16:53:49.001Z</time></trkpt><trkpt lat="36.755201688591335" lon="-107.98973381744176"><ele>1796.0</ele><time>2026-04-11T16:53:50.001Z</time></trkpt><trkpt lat="36.755154034805905" lon="-107.98964554874607"><ele>1795.5</ele><time>2026-04-11T16:53:51.001Z</time></trkpt><trkpt lat="36.75510928231073" lon="-107.98957384696077"><ele>1795.0</ele><time>2026-04-11T16:53:52.001Z</time></trkpt><trkpt lat="36.75504671440674" lon="-107.98950992755663"><ele>1794.5</ele><time>2026-04-11T16:53:53.001Z</time></trkpt><trkpt lat="36.754980638091" lon="-107.9894602994434"><ele>1794.0</ele><time>2026-04-11T16:53:54.001Z</time></trkpt><trkpt lat="36.75492817104268" lon="-107.98941321177294"><ele>1794.0</ele><time>2026-04-11T16:53:55.001Z</time></trkpt><trkpt lat="36.754867299052414" lon="-107.9893256829096"><ele>1794.0</ele><time>2026-04-11T16:53:56.001Z</time></trkpt><trkpt lat="36.75475997548792" lon="-107.98923788866851"><ele>1794.0</ele><time>2026-04-11T16:53:57.001Z</time></trkpt><trkpt lat="36.75469176608585" lon="-107.98919480650537"><ele>1794.0</ele><time>2026-04-11T16:53:58.001Z</time></trkpt><trkpt lat="36.754642413360315" lon="-107.98913632435513"><ele>1794.0</ele><time>2026-04-11T16:53:59.001Z</time></trkpt><trkpt lat="36.75458166711985" lon="-107.98909505693726"><ele>1794.0</ele><time>2026-04-11T16:54:00.001Z</time></trkpt><trkpt lat="36.75451128536795" lon="-107.98910358201682"><ele>1793.6</ele><time>2026-04-11T16:54:01.001Z</time></trkpt><trkpt lat="36.75442008909706" lon="-107.98914113557993"><ele>1793.2</ele><time>2026-04-11T16:54:02.001Z</time></trkpt><trkpt lat="36.75432013094721" lon="-107.98919993974218"><ele>1792.7999999999997</ele><time>2026-04-11T16:54:03.001Z</time></trkpt><trkpt lat="36.75422226391852" lon="-107.98925073256761"><ele>1792.3999999999999</ele><time>2026-04-11T16:54:04.001Z</time></trkpt><trkpt lat="36.75416214771458" lon="-107.9893304632424"><ele>1792.0</ele><time>2026-04-11T16:54:05.001Z</time></trkpt><trkpt lat="36.754081741204146" lon="-107.98944072713154"><ele>1792.0</ele><time>2026-04-11T16:54:06.001Z</time></trkpt><trkpt lat="36.75400455714168" lon="-107.98955297953911"><ele>1791.9999999999998</ele><time>2026-04-11T16:54:07.001Z</time></trkpt><trkpt lat="36.75389269705081" lon="-107.98959051222512"><ele>1791.9999999999998</ele><time>2026-04-11T16:54:09.001Z</time></trkpt><trkpt lat="36.75379964764396" lon="-107.98952589210619"><ele>1792.0</ele><time>2026-04-11T16:54:10.001Z</time></trkpt><trkpt lat="36.75372607369886" lon="-107.98945315125324"><ele>1792.0</ele><time>2026-04-11T16:54:11.001Z</time></trkpt><trkpt lat="36.75365054752982" lon="-107.98936716803973"><ele>1792.0</ele><time>2026-04-11T16:54:12.001Z</time></trkpt><trkpt lat="36.7535854445715" lon="-107.98926725544645"><ele>1791.9999999999998</ele><time>2026-04-11T16:54:13.001Z</time></trkpt><trkpt lat="36.75352570650508" lon="-107.98917755575633"><ele>1791.9999999999998</ele><time>2026-04-11T16:54:14.001Z</time></trkpt><trkpt lat="36.75343408683364" lon="-107.98904643270588"><ele>1792.0</ele><time>2026-04-11T16:54:16.001Z</time></trkpt><trkpt lat="36.753365334995024" lon="-107.98900163245233"><ele>1792.0</ele><time>2026-04-11T16:54:17.001Z</time></trkpt><trkpt lat="36.75325003710291" lon="-107.98901548951191"><ele>1790.75</ele><time>2026-04-11T16:54:20.001Z</time></trkpt><trkpt lat="36.7531695259644" lon="-107.9890894509237"><ele>1789.5</ele><time>2026-04-11T16:54:21.001Z</time></trkpt><trkpt lat="36.75305419074955" lon="-107.98920109272468"><ele>1788.25</ele><time>2026-04-11T16:54:22.001Z</time></trkpt><trkpt lat="36.752938393809245" lon="-107.98928263857282"><ele>1787.0</ele><time>2026-04-11T16:54:23.001Z</time></trkpt><trkpt lat="36.75283472085074" lon="-107.98935887491766"><ele>1786.8</ele><time>2026-04-11T16:54:24.001Z</time></trkpt><trkpt lat="36.752719068477255" lon="-107.989402310558"><ele>1786.6</ele><time>2026-04-11T16:54:26.001Z</time></trkpt><trkpt lat="36.75262368643384" lon="-107.98946413768415"><ele>1786.3999999999999</ele><time>2026-04-11T16:54:27.001Z</time></trkpt><trkpt lat="36.75255586963884" lon="-107.98952370169442"><ele>1786.1999999999998</ele><time>2026-04-11T16:54:28.001Z</time></trkpt><trkpt lat="36.752505127587376" lon="-107.9895845132195"><ele>1786.0</ele><time>2026-04-11T16:54:29.001Z</time></trkpt><trkpt lat="36.75244659163678" lon="-107.98968286369752"><ele>1784.8333333333335</ele><time>2026-04-11T16:54:31.002Z</time></trkpt><trkpt lat="36.752358668939124" lon="-107.98968173446774"><ele>1783.6666666666667</ele><time>2026-04-11T16:54:33.002Z</time></trkpt><trkpt lat="36.75228530120461" lon="-107.9896680976515"><ele>1782.5</ele><time>2026-04-11T16:54:35.002Z</time></trkpt><trkpt lat="36.752202865905026" lon="-107.98964191379567"><ele>1781.3333333333335</ele><time>2026-04-11T16:54:37.002Z</time></trkpt><trkpt lat="36.75213686070932" lon="-107.9896076619367"><ele>1780.1666666666667</ele><time>2026-04-11T16:54:39Z</time></trkpt><trkpt lat="36.75203783983205" lon="-107.98955977413887"><ele>1779.0</ele><time>2026-04-11T16:54:41Z</time></trkpt><trkpt lat="36.75193394251" lon="-107.98952013713063"><ele>1779.0</ele><time>2026-04-11T16:54:43Z</time></trkpt><trkpt lat="36.75186996936277" lon="-107.98952822742724"><ele>1779.0</ele><time>2026-04-11T16:55:18.001Z</time></trkpt><trkpt lat="36.751861421843344" lon="-107.98960653778092"><ele>1779.0</ele><time>2026-04-11T16:55:20.001Z</time></trkpt><trkpt lat="36.75191753109522" lon="-107.98971252794969"><ele>1779.0</ele><time>2026-04-11T16:55:22.001Z</time></trkpt><trkpt lat="36.75196662285623" lon="-107.98977169623213"><ele>1779.0</ele><time>2026-04-11T16:55:23.001Z</time></trkpt><trkpt lat="36.752029113418494" lon="-107.98983490312166"><ele>1779.0</ele><time>2026-04-11T16:55:25.001Z</time></trkpt><trkpt lat="36.75208998289616" lon="-107.98980717972266"><ele>1779.0</ele><time>2026-04-11T16:55:27.001Z</time></trkpt><trkpt lat="36.75214562863254" lon="-107.98988213899428"><ele>1779.0</ele><time>2026-04-11T16:55:30.001Z</time></trkpt><trkpt lat="36.752151300127" lon="-107.98996909172966"><ele>1779.0</ele><time>2026-04-11T16:55:31.001Z</time></trkpt><trkpt lat="36.75213547125212" lon="-107.990085040701"><ele>1779.0</ele><time>2026-04-11T16:55:33.001Z</time></trkpt><trkpt lat="36.75211993956998" lon="-107.9901687592244"><ele>1779.0</ele><time>2026-04-11T16:55:34.001Z</time></trkpt><trkpt lat="36.752097485807084" lon="-107.99028496903087"><ele>1779.0</ele><time>2026-04-11T16:55:36.001Z</time></trkpt><trkpt lat="36.752173294623816" lon="-107.99036434861483"><ele>1779.0</ele><time>2026-04-11T16:55:40.001Z</time></trkpt><trkpt lat="36.75227898526043" lon="-107.99028346743536"><ele>1779.2</ele><time>2026-04-11T16:55:42.001Z</time></trkpt><trkpt lat="36.75237054047215" lon="-107.99026158757866"><ele>1779.4</ele><time>2026-04-11T16:55:43.001Z</time></trkpt><trkpt lat="36.75247105398867" lon="-107.99022649338212"><ele>1779.6</ele><time>2026-04-11T16:55:44.001Z</time></trkpt><trkpt lat="36.75253815989103" lon="-107.99019648674948"><ele>1779.8</ele><time>2026-04-11T16:55:45.001Z</time></trkpt><trkpt lat="36.75264223440233" lon="-107.9901245296785"><ele>1780.0</ele><time>2026-04-11T16:55:47.001Z</time></trkpt><trkpt lat="36.75272286629562" lon="-107.99006802552184"><ele>1781.0000000000002</ele><time>2026-04-11T16:55:48.001Z</time></trkpt><trkpt lat="36.75281148033936" lon="-107.99000071102154"><ele>1782.0</ele><time>2026-04-11T16:55:49.001Z</time></trkpt><trkpt lat="36.75288845854835" lon="-107.98994332971921"><ele>1783.0</ele><time>2026-04-11T16:55:50.001Z</time></trkpt><trkpt lat="36.7529579675979" lon="-107.98991981850448"><ele>1784.0</ele><time>2026-04-11T16:55:51.001Z</time></trkpt><trkpt lat="36.753015354091374" lon="-107.98986736905259"><ele>1785.0000000000002</ele><time>2026-04-11T16:55:53.001Z</time></trkpt><trkpt lat="36.7529333573309" lon="-107.9897868988551"><ele>1786.0</ele><time>2026-04-11T16:55:54.001Z</time></trkpt><trkpt lat="36.75283377704684" lon="-107.98977714330356"><ele>1786.0000000000002</ele><time>2026-04-11T16:55:55.001Z</time></trkpt><trkpt lat="36.75272286438106" lon="-107.98983022077297"><ele>1786.0</ele><time>2026-04-11T16:55:56.001Z</time></trkpt><trkpt lat="36.752635234723506" lon="-107.98985407189525"><ele>1786.0</ele><time>2026-04-11T16:55:57.001Z</time></trkpt><trkpt lat="36.75256572029424" lon="-107.98985033427736"><ele>1786.0</ele><time>2026-04-11T16:55:58.001Z</time></trkpt><trkpt lat="36.75247697300604" lon="-107.98987205442404"><ele>1786.0000000000002</ele><time>2026-04-11T16:55:59.001Z</time></trkpt><trkpt lat="36.75240231658584" lon="-107.98988142392014"><ele>1786.0</ele><time>2026-04-11T16:56:00.001Z</time></trkpt><trkpt lat="36.75232711803244" lon="-107.98997183660693"><ele>1784.0000000000002</ele><time>2026-04-11T16:56:03.001Z</time></trkpt><trkpt lat="36.75227947041002" lon="-107.99006679465346"><ele>1782.0</ele><time>2026-04-11T16:56:04.001Z</time></trkpt><trkpt lat="36.75222256204322" lon="-107.99016549467356"><ele>1780.0</ele><time>2026-04-11T16:56:05.001Z</time></trkpt><trkpt lat="36.75219956921714" lon="-107.99024320028435"><ele>1778.0</ele><time>2026-04-11T16:56:06.001Z</time></trkpt><trkpt lat="36.752180508110946" lon="-107.99032697432214"><ele>1776.0000000000002</ele><time>2026-04-11T16:56:08.001Z</time></trkpt><trkpt lat="36.752270495533196" lon="-107.99037110787022"><ele>1774.0</ele><time>2026-04-11T16:56:12.001Z</time></trkpt><trkpt lat="36.75239649498726" lon="-107.99028729587849"><ele>1774.0</ele><time>2026-04-11T16:56:14.001Z</time></trkpt><trkpt lat="36.75248243623134" lon="-107.99022764215087"><ele>1774.0</ele><time>2026-04-11T16:56:15.001Z</time></trkpt><trkpt lat="36.752547531317354" lon="-107.99017851743731"><ele>1774.0</ele><time>2026-04-11T16:56:16.001Z</time></trkpt><trkpt lat="36.752670833588404" lon="-107.99010398721589"><ele>1774.0</ele><time>2026-04-11T16:56:18.001Z</time></trkpt><trkpt lat="36.75276982939016" lon="-107.99003450595086"><ele>1774.0</ele><time>2026-04-11T16:56:19.001Z</time></trkpt><trkpt lat="36.75285314851703" lon="-107.98997513524803"><ele>1776.4</ele><time>2026-04-11T16:56:20.001Z</time></trkpt><trkpt lat="36.75292196169936" lon="-107.98992376860045"><ele>1778.8000000000002</ele><time>2026-04-11T16:56:21.001Z</time></trkpt><trkpt lat="36.75301545864429" lon="-107.9898812611247"><ele>1781.1999999999998</ele><time>2026-04-11T16:56:23.001Z</time></trkpt><trkpt lat="36.752980769703676" lon="-107.98979827599807"><ele>1783.6</ele><time>2026-04-11T16:56:24.001Z</time></trkpt><trkpt lat="36.752892319455896" lon="-107.98975702203872"><ele>1786.0</ele><time>2026-04-11T16:56:25.001Z</time></trkpt><trkpt lat="36.75277624747386" lon="-107.98980608907911"><ele>1784.6</ele><time>2026-04-11T16:56:26.001Z</time></trkpt><trkpt lat="36.75267711079347" lon="-107.9898377725296"><ele>1783.1999999999998</ele><time>2026-04-11T16:56:27.001Z</time></trkpt><trkpt lat="36.75257552118764" lon="-107.98986331278081"><ele>1781.8000000000002</ele><time>2026-04-11T16:56:28.001Z</time></trkpt><trkpt lat="36.75247701438588" lon="-107.98987329250933"><ele>1780.4</ele><time>2026-04-11T16:56:29.001Z</time></trkpt><trkpt lat="36.75236636760938" lon="-107.98990591624113"><ele>1779.0</ele><time>2026-04-11T16:56:31.001Z</time></trkpt><trkpt lat="36.75230568389664" lon="-107.98997098262089"><ele>1778.0</ele><time>2026-04-11T16:56:32.001Z</time></trkpt><trkpt lat="36.75224929030998" lon="-107.99005929739921"><ele>1777.0</ele><time>2026-04-11T16:56:33.001Z</time></trkpt><trkpt lat="36.75220233816601" lon="-107.99016185908499"><ele>1776.0</ele><time>2026-04-11T16:56:34.001Z</time></trkpt><trkpt lat="36.75219902137749" lon="-107.99030268737572"><ele>1775.0</ele><time>2026-04-11T16:56:36.002Z</time></trkpt><trkpt lat="36.7522960437459" lon="-107.99034838742574"><ele>1774.0</ele><time>2026-04-11T16:56:39.002Z</time></trkpt><trkpt lat="36.7523746818926" lon="-107.99029528449407"><ele>1774.0</ele><time>2026-04-11T16:56:40.002Z</time></trkpt><trkpt lat="36.75246805298621" lon="-107.9902300871894"><ele>1774.0</ele><time>2026-04-11T16:56:41.002Z</time></trkpt><trkpt lat="36.752552219073976" lon="-107.99017458966277"><ele>1774.0</ele><time>2026-04-11T16:56:42.002Z</time></trkpt><trkpt lat="36.75263535937904" lon="-107.99012744480477"><ele>1774.0</ele><time>2026-04-11T16:56:43.002Z</time></trkpt><trkpt lat="36.75279615985439" lon="-107.99001972687346"><ele>1776.0000000000002</ele><time>2026-04-11T16:56:45Z</time></trkpt><trkpt lat="36.75287542762475" lon="-107.98995120728488"><ele>1778.0</ele><time>2026-04-11T16:56:46Z</time></trkpt><trkpt lat="36.7529331058455" lon="-107.98991371954271"><ele>1780.0</ele><time>2026-04-11T16:56:47Z</time></trkpt><trkpt lat="36.75302209477107" lon="-107.9898666302248"><ele>1782.0</ele><time>2026-04-11T16:56:49Z</time></trkpt><trkpt lat="36.75298465076254" lon="-107.98978489183746"><ele>1784.0000000000002</ele><time>2026-04-11T16:56:50Z</time></trkpt><trkpt lat="36.75287973592663" lon="-107.98974399858011"><ele>1786.0</ele><time>2026-04-11T16:56:51Z</time></trkpt><trkpt lat="36.75276578941164" lon="-107.98978914157627"><ele>1784.6</ele><time>2026-04-11T16:56:52Z</time></trkpt><trkpt lat="36.75266331524991" lon="-107.98982940255756"><ele>1783.1999999999998</ele><time>2026-04-11T16:56:53Z</time></trkpt><trkpt lat="36.75255178280904" lon="-107.98982893616173"><ele>1781.8000000000002</ele><time>2026-04-11T16:56:54Z</time></trkpt><trkpt lat="36.75248483790976" lon="-107.98988704936183"><ele>1780.4</ele><time>2026-04-11T16:56:55Z</time></trkpt><trkpt lat="36.752411477622175" lon="-107.98989227652679"><ele>1779.0</ele><time>2026-04-11T16:56:56Z</time></trkpt><trkpt lat="36.75228300991734" lon="-107.98996651777188"><ele>1778.1666666666667</ele><time>2026-04-11T16:56:58Z</time></trkpt><trkpt lat="36.75221406660847" lon="-107.99006257378831"><ele>1777.3333333333335</ele><time>2026-04-11T16:56:59Z</time></trkpt><trkpt lat="36.75219174574453" lon="-107.99014528707517"><ele>1776.5</ele><time>2026-04-11T16:57:00Z</time></trkpt><trkpt lat="36.752188275739506" lon="-107.99022433643967"><ele>1775.6666666666667</ele><time>2026-04-11T16:57:01Z</time></trkpt><trkpt lat="36.75219048531516" lon="-107.99031035582566"><ele>1774.8333333333335</ele><time>2026-04-11T16:57:02Z</time></trkpt><trkpt lat="36.752273488652925" lon="-107.99036644121038"><ele>1774.0</ele><time>2026-04-11T16:57:05Z</time></trkpt><trkpt lat="36.75239042291005" lon="-107.99027704400326"><ele>1774.0</ele><time>2026-04-11T16:57:07Z</time></trkpt><trkpt lat="36.75248359567288" lon="-107.99022278574358"><ele>1774.0</ele><time>2026-04-11T16:57:08Z</time></trkpt><trkpt lat="36.75257110384315" lon="-107.99017435482075"><ele>1774.0</ele><time>2026-04-11T16:57:09Z</time></trkpt><trkpt lat="36.75268543917568" lon="-107.99010726809689"><ele>1774.0</ele><time>2026-04-11T16:57:11Z</time></trkpt><trkpt lat="36.752818937299125" lon="-107.98999884412349"><ele>1776.4</ele><time>2026-04-11T16:57:12Z</time></trkpt><trkpt lat="36.75289358350777" lon="-107.98994573547716"><ele>1778.8000000000002</ele><time>2026-04-11T16:57:13Z</time></trkpt><trkpt lat="36.75299008718166" lon="-107.98989895895765"><ele>1781.1999999999998</ele><time>2026-04-11T16:57:15Z</time></trkpt><trkpt lat="36.752965198287576" lon="-107.98978260783683"><ele>1783.6</ele><time>2026-04-11T16:57:17Z</time></trkpt><trkpt lat="36.75285215732508" lon="-107.98977511752196"><ele>1786.0</ele><time>2026-04-11T16:57:19Z</time></trkpt><trkpt lat="36.75282310634076" lon="-107.98969067721569"><ele>1786.0000000000002</ele><time>2026-04-11T16:57:21.001Z</time></trkpt><trkpt lat="36.75278583230116" lon="-107.98959490387645"><ele>1786.0</ele><time>2026-04-11T16:57:24.001Z</time></trkpt><trkpt lat="36.75284707806169" lon="-107.98950126055402"><ele>1786.0</ele><time>2026-04-11T16:57:26.001Z</time></trkpt><trkpt lat="36.752885454324186" lon="-107.98936763933503"><ele>1786.0</ele><time>2026-04-11T16:57:28.001Z</time></trkpt><trkpt lat="36.752898725226544" lon="-107.98928569904417"><ele>1786.0000000000002</ele><time>2026-04-11T16:57:29.001Z</time></trkpt><trkpt lat="36.75290417246954" lon="-107.98919982432372"><ele>1786.0</ele><time>2026-04-11T16:57:31.001Z</time></trkpt><trkpt lat="36.7528013640533" lon="-107.989313679658"><ele>1786.0</ele><time>2026-04-11T16:57:33.001Z</time></trkpt><trkpt lat="36.75272734186958" lon="-107.98937979946818"><ele>1786.0</ele><time>2026-04-11T16:57:35.001Z</time></trkpt><trkpt lat="36.75264534125976" lon="-107.98944989182033"><ele>1786.0</ele><time>2026-04-11T16:57:37.001Z</time></trkpt><trkpt lat="36.75256793465623" lon="-107.98952582562575"><ele>1786.0</ele><time>2026-04-11T16:57:39.001Z</time></trkpt><trkpt lat="36.75250422936338" lon="-107.98961000744782"><ele>1786.0</ele><time>2026-04-11T16:57:41.001Z</time></trkpt><trkpt lat="36.752432582628494" lon="-107.98969516186283"><ele>1784.8333333333335</ele><time>2026-04-11T16:57:43.001Z</time></trkpt><trkpt lat="36.75233922306867" lon="-107.9896793352444"><ele>1783.6666666666667</ele><time>2026-04-11T16:57:45.001Z</time></trkpt><trkpt lat="36.75225839961118" lon="-107.98964365643937"><ele>1782.5</ele><time>2026-04-11T16:57:48.001Z</time></trkpt><trkpt lat="36.75218753129328" lon="-107.98961456450613"><ele>1781.3333333333335</ele><time>2026-04-11T16:57:53.001Z</time></trkpt><trkpt lat="36.75210614901968" lon="-107.98960012191588"><ele>1780.1666666666667</ele><time>2026-04-11T16:57:54.001Z</time></trkpt><trkpt lat="36.75202256091964" lon="-107.98955805734609"><ele>1779.0</ele><time>2026-04-11T16:57:56.001Z</time></trkpt><trkpt lat="36.752057216700614" lon="-107.98948176576314"><ele>1779.0</ele><time>2026-04-11T16:57:59.001Z</time></trkpt><trkpt lat="36.75212372902246" lon="-107.9894802871579"><ele>1779.0</ele><time>2026-04-11T16:58:01.001Z</time></trkpt><trkpt lat="36.75222519430086" lon="-107.9894290004377"><ele>1779.0</ele><time>2026-04-11T16:58:03.001Z</time></trkpt><trkpt lat="36.752292076984226" lon="-107.98938884699966"><ele>1779.0</ele><time>2026-04-11T16:58:04.001Z</time></trkpt><trkpt lat="36.7524080083865" lon="-107.98930214099083"><ele>1779.0</ele><time>2026-04-11T16:58:06.001Z</time></trkpt><trkpt lat="36.752475787841256" lon="-107.98923687947138"><ele>1779.0</ele><time>2026-04-11T16:58:07.001Z</time></trkpt><trkpt lat="36.75253596225848" lon="-107.98917570098945"><ele>1779.0</ele><time>2026-04-11T16:58:08.001Z</time></trkpt><trkpt lat="36.75260013969705" lon="-107.98911502873703"><ele>1779.0</ele><time>2026-04-11T16:58:09.001Z</time></trkpt><trkpt lat="36.75267760890057" lon="-107.98906201994431"><ele>1779.0</ele><time>2026-04-11T16:58:10.001Z</time></trkpt><trkpt lat="36.75276816223161" lon="-107.98901770624853"><ele>1779.0</ele><time>2026-04-11T16:58:11.001Z</time></trkpt><trkpt lat="36.75284202284767" lon="-107.98898911250063"><ele>1779.0</ele><time>2026-04-11T16:58:12.001Z</time></trkpt><trkpt lat="36.75290679360358" lon="-107.98895079430845"><ele>1778.1666666666667</ele><time>2026-04-11T16:58:13.001Z</time></trkpt><trkpt lat="36.752938121859486" lon="-107.98885271600562"><ele>1777.3333333333335</ele><time>2026-04-11T16:58:16.001Z</time></trkpt><trkpt lat="36.75285008480422" lon="-107.98877486163323"><ele>1776.5</ele><time>2026-04-11T16:58:18.001Z</time></trkpt><trkpt lat="36.7527580409626" lon="-107.98876376275173"><ele>1775.6666666666667</ele><time>2026-04-11T16:58:19.001Z</time></trkpt><trkpt lat="36.75268487100132" lon="-107.9887309128641"><ele>1774.8333333333335</ele><time>2026-04-11T16:58:20.001Z</time></trkpt><trkpt lat="36.752607630050655" lon="-107.98870700066597"><ele>1774.0</ele><time>2026-04-11T16:58:21.001Z</time></trkpt><trkpt lat="36.75253135801081" lon="-107.98869515839733"><ele>1774.0000000000002</ele><time>2026-04-11T16:58:22.001Z</time></trkpt><trkpt lat="36.752455286874195" lon="-107.98870650522663"><ele>1774.0</ele><time>2026-04-11T16:58:23.001Z</time></trkpt><trkpt lat="36.752373186231694" lon="-107.9887188861917"><ele>1774.0</ele><time>2026-04-11T16:58:24.001Z</time></trkpt><trkpt lat="36.75230280024344" lon="-107.98873331788566"><ele>1774.0</ele><time>2026-04-11T16:58:25.001Z</time></trkpt><trkpt lat="36.752208634084255" lon="-107.98870832155477"><ele>1774.0000000000002</ele><time>2026-04-11T16:58:27.001Z</time></trkpt><trkpt lat="36.752124353963595" lon="-107.9886955903794"><ele>1774.0</ele><time>2026-04-11T16:58:28.001Z</time></trkpt><trkpt lat="36.75206089650543" lon="-107.98867647709021"><ele>1774.0</ele><time>2026-04-11T16:58:29.001Z</time></trkpt><trkpt lat="36.75197065217701" lon="-107.98861329667821"><ele>1774.0</ele><time>2026-04-11T16:58:31.001Z</time></trkpt><trkpt lat="36.75189014405289" lon="-107.98854075656023"><ele>1774.0</ele><time>2026-04-11T16:58:32.001Z</time></trkpt><trkpt lat="36.751785702878806" lon="-107.988479055962"><ele>1774.0</ele><time>2026-04-11T16:58:33.001Z</time></trkpt><trkpt lat="36.75171604009356" lon="-107.98847255517693"><ele>1774.0</ele><time>2026-04-11T16:58:34.001Z</time></trkpt><trkpt lat="36.751650258407544" lon="-107.98846976288222"><ele>1773.6</ele><time>2026-04-11T16:58:35.001Z</time></trkpt><trkpt lat="36.75155571684303" lon="-107.98841883083168"><ele>1773.2</ele><time>2026-04-11T16:58:37.001Z</time></trkpt><trkpt lat="36.75146990031643" lon="-107.98833914417422"><ele>1772.7999999999997</ele><time>2026-04-11T16:58:39.002Z</time></trkpt><trkpt lat="36.75141055533176" lon="-107.98823606838491"><ele>1772.3999999999999</ele><time>2026-04-11T16:58:41.002Z</time></trkpt><trkpt lat="36.75135930585021" lon="-107.98814035747611"><ele>1772.0</ele><time>2026-04-11T16:58:43.002Z</time></trkpt><trkpt lat="36.751252741597106" lon="-107.988018544936"><ele>1770.2857142857142</ele><time>2026-04-11T16:58:45.002Z</time></trkpt><trkpt lat="36.75117822012362" lon="-107.98797944224037"><ele>1768.5714285714287</ele><time>2026-04-11T16:58:47.002Z</time></trkpt><trkpt lat="36.75111194870196" lon="-107.98797781049613"><ele>1766.8571428571427</ele><time>2026-04-11T16:58:51Z</time></trkpt><trkpt lat="36.75112509710625" lon="-107.98806032025249"><ele>1765.142857142857</ele><time>2026-04-11T16:58:54Z</time></trkpt><trkpt lat="36.75119278502997" lon="-107.98805342336672"><ele>1763.4285714285713</ele><time>2026-04-11T16:59:00Z</time></trkpt><trkpt lat="36.75126404433567" lon="-107.98807195261931"><ele>1761.7142857142856</ele><time>2026-04-11T16:59:02Z</time></trkpt><trkpt lat="36.75133462424279" lon="-107.98813007949589"><ele>1760.0</ele><time>2026-04-11T16:59:04Z</time></trkpt><trkpt lat="36.75142069746995" lon="-107.98825249860376"><ele>1762.4</ele><time>2026-04-11T16:59:06Z</time></trkpt><trkpt lat="36.751491884463846" lon="-107.9883493120797"><ele>1764.8</ele><time>2026-04-11T16:59:08Z</time></trkpt><trkpt lat="36.7515704586761" lon="-107.98843603780642"><ele>1767.1999999999998</ele><time>2026-04-11T16:59:10Z</time></trkpt><trkpt lat="36.751684816746454" lon="-107.98847660457228"><ele>1769.6</ele><time>2026-04-11T16:59:12Z</time></trkpt><trkpt lat="36.7517789032487" lon="-107.9884905399167"><ele>1772.0</ele><time>2026-04-11T16:59:15Z</time></trkpt><trkpt lat="36.751897532138436" lon="-107.98853255300453"><ele>1772.3333333333333</ele><time>2026-04-11T16:59:17Z</time></trkpt><trkpt lat="36.75196303862395" lon="-107.98858381235914"><ele>1772.6666666666665</ele><time>2026-04-11T16:59:18Z</time></trkpt><trkpt lat="36.75203163730773" lon="-107.98865835377475"><ele>1773.0</ele><time>2026-04-11T16:59:19Z</time></trkpt><trkpt lat="36.7520863652143" lon="-107.98870613368338"><ele>1773.3333333333335</ele><time>2026-04-11T16:59:20Z</time></trkpt><trkpt lat="36.752204780483495" lon="-107.98870827683167"><ele>1773.6666666666667</ele><time>2026-04-11T16:59:22Z</time></trkpt><trkpt lat="36.75228295873673" lon="-107.98871734982222"><ele>1774.0</ele><time>2026-04-11T16:59:23Z</time></trkpt><trkpt lat="36.75236244032786" lon="-107.98872856853107"><ele>1774.0</ele><time>2026-04-11T16:59:24Z</time></trkpt><trkpt lat="36.75247086909727" lon="-107.98872111137425"><ele>1774.0</ele><time>2026-04-11T16:59:36.001Z</time></trkpt><trkpt lat="36.75254516104016" lon="-107.98871465385741"><ele>1774.0</ele><time>2026-04-11T16:59:37.001Z</time></trkpt><trkpt lat="36.75264694181302" lon="-107.98871969548486"><ele>1774.0</ele><time>2026-04-11T16:59:38.001Z</time></trkpt><trkpt lat="36.75275172469259" lon="-107.9887491931498"><ele>1774.0</ele><time>2026-04-11T16:59:39.001Z</time></trkpt><trkpt lat="36.75283688024096" lon="-107.98879315396886"><ele>1776.6</ele><time>2026-04-11T16:59:40.001Z</time></trkpt><trkpt lat="36.752923419487466" lon="-107.98884194217717"><ele>1779.2</ele><time>2026-04-11T16:59:41.001Z</time></trkpt><trkpt lat="36.75301081912574" lon="-107.98885795185606"><ele>1781.7999999999997</ele><time>2026-04-11T16:59:42.001Z</time></trkpt><trkpt lat="36.75308064232717" lon="-107.98885941694274"><ele>1784.3999999999999</ele><time>2026-04-11T16:59:43.001Z</time></trkpt><trkpt lat="36.75318098751465" lon="-107.98878077994716"><ele>1787.0</ele><time>2026-04-11T16:59:44.001Z</time></trkpt><trkpt lat="36.753282304342854" lon="-107.98873981950732"><ele>1786.9999999999998</ele><time>2026-04-11T16:59:45.001Z</time></trkpt><trkpt lat="36.753342425581835" lon="-107.9888111182927"><ele>1787.0</ele><time>2026-04-11T16:59:46.001Z</time></trkpt><trkpt lat="36.753388375118895" lon="-107.98888957718432"><ele>1787.0</ele><time>2026-04-11T16:59:47.001Z</time></trkpt><trkpt lat="36.75339630435353" lon="-107.9889749975549"><ele>1787.0</ele><time>2026-04-11T16:59:48.001Z</time></trkpt><trkpt lat="36.75340319711564" lon="-107.98907007867294"><ele>1786.9999999999998</ele><time>2026-04-11T16:59:49.001Z</time></trkpt><trkpt lat="36.75346229883803" lon="-107.98913921500964"><ele>1787.0</ele><time>2026-04-11T16:59:50.001Z</time></trkpt><trkpt lat="36.75352474180998" lon="-107.98916442948158"><ele>1788.0</ele><time>2026-04-11T16:59:51.001Z</time></trkpt><trkpt lat="36.75359463904196" lon="-107.98919499819469"><ele>1788.9999999999998</ele><time>2026-04-11T16:59:52.001Z</time></trkpt><trkpt lat="36.753656027290674" lon="-107.9892551119567"><ele>1789.9999999999998</ele><time>2026-04-11T16:59:53.001Z</time></trkpt><trkpt lat="36.753713070553694" lon="-107.98940257652778"><ele>1791.0</ele><time>2026-04-11T16:59:54.001Z</time></trkpt><trkpt lat="36.75381633537827" lon="-107.98950457718192"><ele>1792.0</ele><time>2026-04-11T16:59:55.001Z</time></trkpt><trkpt lat="36.753913957123345" lon="-107.98957878615911"><ele>1792.0</ele><time>2026-04-11T16:59:56.001Z</time></trkpt><trkpt lat="36.75400601467274" lon="-107.98956977645568"><ele>1791.9999999999998</ele><time>2026-04-11T17:02:18.001Z</time></trkpt><trkpt lat="36.753918201926766" lon="-107.98954387112845"><ele>1791.9999999999998</ele><time>2026-04-11T17:02:29.001Z</time></trkpt><trkpt lat="36.753838510966645" lon="-107.9895055721973"><ele>1792.0</ele><time>2026-04-11T17:02:31.001Z</time></trkpt><trkpt lat="36.75371095973445" lon="-107.98940737008915"><ele>1792.0</ele><time>2026-04-11T17:02:33.001Z</time></trkpt><trkpt lat="36.75363564794235" lon="-107.98932058392113"><ele>1792.0</ele><time>2026-04-11T17:02:34.001Z</time></trkpt><trkpt lat="36.75359091575754" lon="-107.9892367284526"><ele>1791.9999999999998</ele><time>2026-04-11T17:02:35.001Z</time></trkpt><trkpt lat="36.753523360134956" lon="-107.9891490064889"><ele>1791.9999999999998</ele><time>2026-04-11T17:02:37.001Z</time></trkpt><trkpt lat="36.75343498595021" lon="-107.98905527136168"><ele>1792.0</ele><time>2026-04-11T17:02:39.001Z</time></trkpt><trkpt lat="36.75336323828405" lon="-107.98900283162861"><ele>1792.0</ele><time>2026-04-11T17:02:42.001Z</time></trkpt><trkpt lat="36.7532865398566" lon="-107.98900832383727"><ele>1791.0</ele><time>2026-04-11T17:02:44.001Z</time></trkpt><trkpt lat="36.75319195044098" lon="-107.98908829850377"><ele>1789.9999999999998</ele><time>2026-04-11T17:02:46.001Z</time></trkpt><trkpt lat="36.75310155686572" lon="-107.98916385400257"><ele>1788.9999999999998</ele><time>2026-04-11T17:02:47.001Z</time></trkpt><trkpt lat="36.75300126934329" lon="-107.98924767981218"><ele>1788.0</ele><time>2026-04-11T17:02:48.001Z</time></trkpt><trkpt lat="36.75291072660308" lon="-107.9893077184809"><ele>1787.0</ele><time>2026-04-11T17:02:49.001Z</time></trkpt><trkpt lat="36.75282617805095" lon="-107.98934742020663"><ele>1786.8333333333333</ele><time>2026-04-11T17:02:50.001Z</time></trkpt><trkpt lat="36.75273576324059" lon="-107.98938205223068"><ele>1786.6666666666665</ele><time>2026-04-11T17:02:51.001Z</time></trkpt><trkpt lat="36.75265366131515" lon="-107.98944061137915"><ele>1786.5</ele><time>2026-04-11T17:02:52.001Z</time></trkpt><trkpt lat="36.75259146420325" lon="-107.98949568624649"><ele>1786.3333333333335</ele><time>2026-04-11T17:02:53.001Z</time></trkpt><trkpt lat="36.75252779322086" lon="-107.98956486624176"><ele>1786.1666666666667</ele><time>2026-04-11T17:02:54.002Z</time></trkpt><trkpt lat="36.752487089998645" lon="-107.98964502034639"><ele>1786.0</ele><time>2026-04-11T17:02:55.002Z</time></trkpt><trkpt lat="36.7523836603485" lon="-107.98968514950671"><ele>1784.25</ele><time>2026-04-11T17:02:57.002Z</time></trkpt><trkpt lat="36.75225814741706" lon="-107.98965310344026"><ele>1782.5</ele><time>2026-04-11T17:02:58.002Z</time></trkpt><trkpt lat="36.752149330307134" lon="-107.9896212615697"><ele>1780.75</ele><time>2026-04-11T17:02:59.002Z</time></trkpt><trkpt lat="36.75204995168343" lon="-107.98957034797168"><ele>1779.0</ele><time>2026-04-11T17:03:00.002Z</time></trkpt><trkpt lat="36.75193895563617" lon="-107.98951859381864"><ele>1778.5</ele><time>2026-04-11T17:03:01.002Z</time></trkpt><trkpt lat="36.7518336865893" lon="-107.98948632923842"><ele>1778.0</ele><time>2026-04-11T17:03:02.002Z</time></trkpt><trkpt lat="36.7517570899006" lon="-107.98950909248094"><ele>1777.5</ele><time>2026-04-11T17:03:03Z</time></trkpt><trkpt lat="36.75170226408608" lon="-107.98955167196574"><ele>1777.0</ele><time>2026-04-11T17:03:04Z</time></trkpt><trkpt lat="36.75166082386118" lon="-107.98961398864124"><ele>1776.5</ele><time>2026-04-11T17:03:06Z</time></trkpt><trkpt lat="36.7516100836636" lon="-107.98966528900878"><ele>1776.0</ele><time>2026-04-11T17:03:08Z</time></trkpt><trkpt lat="36.75156149916156" lon="-107.98972728163267"><ele>1776.0</ele><time>2026-04-11T17:03:10Z</time></trkpt><trkpt lat="36.75150542147168" lon="-107.98978424031051"><ele>1776.0</ele><time>2026-04-11T17:03:13Z</time></trkpt><trkpt lat="36.75144351536207" lon="-107.98975547162246"><ele>1776.0</ele><time>2026-04-11T17:03:16Z</time></trkpt><trkpt lat="36.75144105140543" lon="-107.98966686325167"><ele>1776.0</ele><time>2026-04-11T17:03:20Z</time></trkpt><trkpt lat="36.75145044146371" lon="-107.98954955260496"><ele>1776.0</ele><time>2026-04-11T17:03:22Z</time></trkpt><trkpt lat="36.75139343858299" lon="-107.98943891312076"><ele>1776.0</ele><time>2026-04-11T17:03:24Z</time></trkpt><trkpt lat="36.75131395015028" lon="-107.9893510840693"><ele>1776.0</ele><time>2026-04-11T17:03:26Z</time></trkpt><trkpt lat="36.75123665324811" lon="-107.98930303668239"><ele>1776.0</ele><time>2026-04-11T17:03:28Z</time></trkpt><trkpt lat="36.75109678015483" lon="-107.98926260730136"><ele>1776.0</ele><time>2026-04-11T17:03:30Z</time></trkpt><trkpt lat="36.75095585496749" lon="-107.98923356939507"><ele>1776.0</ele><time>2026-04-11T17:03:32Z</time></trkpt><trkpt lat="36.75084416736173" lon="-107.98920809544528"><ele>1775.75</ele><time>2026-04-11T17:03:33Z</time></trkpt><trkpt lat="36.75071875172905" lon="-107.9891771236921"><ele>1775.5</ele><time>2026-04-11T17:03:34Z</time></trkpt><trkpt lat="36.750587377814256" lon="-107.98914498387191"><ele>1775.25</ele><time>2026-04-11T17:03:35Z</time></trkpt><trkpt lat="36.75046138761121" lon="-107.98911671494493"><ele>1775.0</ele><time>2026-04-11T17:03:36Z</time></trkpt><trkpt lat="36.75035718143713" lon="-107.9890821822595"><ele>1774.8333333333333</ele><time>2026-04-11T17:03:37Z</time></trkpt><trkpt lat="36.750276744742656" lon="-107.98904892513592"><ele>1774.6666666666665</ele><time>2026-04-11T17:03:38Z</time></trkpt><trkpt lat="36.75021128549608" lon="-107.98901699273905"><ele>1774.5</ele><time>2026-04-11T17:03:39Z</time></trkpt><trkpt lat="36.75014266632932" lon="-107.98899242316921"><ele>1774.3333333333335</ele><time>2026-04-11T17:03:40Z</time></trkpt><trkpt lat="36.75004534551965" lon="-107.98899433091118"><ele>1774.1666666666667</ele><time>2026-04-11T17:03:42.001Z</time></trkpt><trkpt lat="36.75001351534008" lon="-107.98910100275945"><ele>1774.0</ele><time>2026-04-11T17:03:44.001Z</time></trkpt><trkpt lat="36.74995197461123" lon="-107.98916434323024"><ele>1774.6</ele><time>2026-04-11T17:03:46.001Z</time></trkpt><trkpt lat="36.74987161924908" lon="-107.98913742459588"><ele>1775.2</ele><time>2026-04-11T17:03:48.001Z</time></trkpt><trkpt lat="36.74979753243222" lon="-107.98905006844643"><ele>1775.7999999999997</ele><time>2026-04-11T17:03:50.001Z</time></trkpt><trkpt lat="36.749702327725" lon="-107.98891990488515"><ele>1776.3999999999999</ele><time>2026-04-11T17:03:52.001Z</time></trkpt><trkpt lat="36.749627910498816" lon="-107.98883179550157"><ele>1777.0</ele><time>2026-04-11T17:03:53.001Z</time></trkpt><trkpt lat="36.74956570878663" lon="-107.98878598165466"><ele>1777.0000000000002</ele><time>2026-04-11T17:03:54.001Z</time></trkpt><trkpt lat="36.74947669171156" lon="-107.9887471044505"><ele>1777.0</ele><time>2026-04-11T17:03:56.001Z</time></trkpt><trkpt lat="36.749410282895056" lon="-107.98881151852031"><ele>1777.0</ele><time>2026-04-11T17:03:58.001Z</time></trkpt><trkpt lat="36.7494012748589" lon="-107.98891531034903"><ele>1777.0</ele><time>2026-04-11T17:04:00.001Z</time></trkpt><trkpt lat="36.74933572206712" lon="-107.98893648999609"><ele>1777.0000000000002</ele><time>2026-04-11T17:04:01.001Z</time></trkpt><trkpt lat="36.74935834285945" lon="-107.98904496764915"><ele>1777.0</ele><time>2026-04-11T17:04:02.001Z</time></trkpt><trkpt lat="36.749350268540695" lon="-107.98917070296534"><ele>1776.3333333333335</ele><time>2026-04-11T17:04:03.001Z</time></trkpt><trkpt lat="36.749332701182496" lon="-107.9892946108042"><ele>1775.6666666666667</ele><time>2026-04-11T17:04:04.001Z</time></trkpt><trkpt lat="36.74928948775235" lon="-107.98940068904196"><ele>1775.0</ele><time>2026-04-11T17:04:05.001Z</time></trkpt><trkpt lat="36.74923652108046" lon="-107.98945597880335"><ele>1774.3333333333335</ele><time>2026-04-11T17:04:06.001Z</time></trkpt><trkpt lat="36.749185468026816" lon="-107.98950304375931"><ele>1773.6666666666667</ele><time>2026-04-11T17:04:07.001Z</time></trkpt><trkpt lat="36.74913287564878" lon="-107.98955996803713"><ele>1773.0</ele><time>2026-04-11T17:04:08.001Z</time></trkpt><trkpt lat="36.7490746913499" lon="-107.98962929885262"><ele>1773.0</ele><time>2026-04-11T17:04:09.001Z</time></trkpt><trkpt lat="36.74903487991373" lon="-107.98971324382116"><ele>1773.0000000000002</ele><time>2026-04-11T17:04:10.001Z</time></trkpt><trkpt lat="36.74900352668355" lon="-107.98980230089956"><ele>1773.0000000000002</ele><time>2026-04-11T17:04:11.001Z</time></trkpt><trkpt lat="36.748991931805364" lon="-107.98990813333617"><ele>1773.0</ele><time>2026-04-11T17:04:12.001Z</time></trkpt><trkpt lat="36.74899383926717" lon="-107.99002733190052"><ele>1773.0</ele><time>2026-04-11T17:04:13.001Z</time></trkpt><trkpt lat="36.749003768718076" lon="-107.99016711083519"><ele>1772.2</ele><time>2026-04-11T17:04:14.001Z</time></trkpt><trkpt lat="36.74902471916906" lon="-107.99031878303224"><ele>1771.4</ele><time>2026-04-11T17:04:15.001Z</time></trkpt><trkpt lat="36.74905006210844" lon="-107.99046792647712"><ele>1770.6000000000001</ele><time>2026-04-11T17:04:16.001Z</time></trkpt><trkpt lat="36.74908813480172" lon="-107.99058590257816"><ele>1769.8000000000002</ele><time>2026-04-11T17:04:17.001Z</time></trkpt><trkpt lat="36.7491450459409" lon="-107.99069059234482"><ele>1769.0</ele><time>2026-04-11T17:04:18.001Z</time></trkpt><trkpt lat="36.749220158751434" lon="-107.99078298227019"><ele>1769.2</ele><time>2026-04-11T17:04:19.001Z</time></trkpt><trkpt lat="36.74929396752448" lon="-107.99086166614428"><ele>1769.4</ele><time>2026-04-11T17:04:20.001Z</time></trkpt><trkpt lat="36.749335778131496" lon="-107.99098312695855"><ele>1769.6</ele><time>2026-04-11T17:04:22.001Z</time></trkpt><trkpt lat="36.74930398004272" lon="-107.99108049310344"><ele>1769.8</ele><time>2026-04-11T17:04:23.001Z</time></trkpt><trkpt lat="36.749241926217266" lon="-107.99122305104711"><ele>1770.0</ele><time>2026-04-11T17:04:24.001Z</time></trkpt><trkpt lat="36.749148278930925" lon="-107.99138044147095"><ele>1770.0</ele><time>2026-04-11T17:04:25.001Z</time></trkpt><trkpt lat="36.74907626163495" lon="-107.99152337856805"><ele>1770.0</ele><time>2026-04-11T17:04:26.001Z</time></trkpt><trkpt lat="36.74904601270026" lon="-107.99164039460229"><ele>1770.0</ele><time>2026-04-11T17:04:27.001Z</time></trkpt><trkpt lat="36.74906041796166" lon="-107.99175547112044"><ele>1770.0</ele><time>2026-04-11T17:04:28.001Z</time></trkpt><trkpt lat="36.74905888670077" lon="-107.99185015573067"><ele>1770.0</ele><time>2026-04-11T17:04:29.001Z</time></trkpt><trkpt lat="36.74903556853871" lon="-107.99193759776979"><ele>1770.2</ele><time>2026-04-11T17:04:31.001Z</time></trkpt><trkpt lat="36.74909233805735" lon="-107.9919866095421"><ele>1770.4</ele><time>2026-04-11T17:04:32.001Z</time></trkpt><trkpt lat="36.749205894625455" lon="-107.9920598290254"><ele>1770.6</ele><time>2026-04-11T17:04:33.001Z</time></trkpt><trkpt lat="36.74930502252479" lon="-107.99213536910997"><ele>1770.8</ele><time>2026-04-11T17:04:34.001Z</time></trkpt><trkpt lat="36.74940939000751" lon="-107.99218524195197"><ele>1771.0</ele><time>2026-04-11T17:04:35.001Z</time></trkpt><trkpt lat="36.7494885304013" lon="-107.99221768941128"><ele>1770.1999999999998</ele><time>2026-04-11T17:04:36.001Z</time></trkpt><trkpt lat="36.74963040164062" lon="-107.99223534329964"><ele>1769.3999999999999</ele><time>2026-04-11T17:04:38.001Z</time></trkpt><trkpt lat="36.7497017538963" lon="-107.99221520360985"><ele>1768.6</ele><time>2026-04-11T17:04:39.001Z</time></trkpt><trkpt lat="36.749784670129415" lon="-107.99215015238602"><ele>1767.8</ele><time>2026-04-11T17:04:40.001Z</time></trkpt><trkpt lat="36.74988026124171" lon="-107.99206362993256"><ele>1767.0</ele><time>2026-04-11T17:04:41.001Z</time></trkpt><trkpt lat="36.74997333782274" lon="-107.99199216991298"><ele>1767.0</ele><time>2026-04-11T17:04:42.001Z</time></trkpt><trkpt lat="36.750057535336026" lon="-107.9919590689509"><ele>1766.9999999999998</ele><time>2026-04-11T17:04:43.001Z</time></trkpt><trkpt lat="36.75015928037516" lon="-107.99191281620926"><ele>1766.9999999999998</ele><time>2026-04-11T17:04:44.001Z</time></trkpt><trkpt lat="36.75023440478119" lon="-107.99185106312272"><ele>1767.0</ele><time>2026-04-11T17:04:45.001Z</time></trkpt><trkpt lat="36.75029421726931" lon="-107.99179000448949"><ele>1767.0</ele><time>2026-04-11T17:04:46.001Z</time></trkpt><trkpt lat="36.75035085784619" lon="-107.99169649482504"><ele>1767.5</ele><time>2026-04-11T17:04:47.001Z</time></trkpt><trkpt lat="36.7504079758178" lon="-107.99157747286635"><ele>1768.0</ele><time>2026-04-11T17:04:48.001Z</time></trkpt><trkpt lat="36.75046386600988" lon="-107.99143531507882"><ele>1768.5</ele><time>2026-04-11T17:04:49.001Z</time></trkpt><trkpt lat="36.750532222980006" lon="-107.9912716245582"><ele>1769.0</ele><time>2026-04-11T17:04:50.001Z</time></trkpt><trkpt lat="36.75060488032266" lon="-107.99115382179257"><ele>1769.0</ele><time>2026-04-11T17:04:51.001Z</time></trkpt><trkpt lat="36.75067575908466" lon="-107.99108641039719"><ele>1769.0</ele><time>2026-04-11T17:04:52.001Z</time></trkpt><trkpt lat="36.750762477212284" lon="-107.99105423340924"><ele>1769.0</ele><time>2026-04-11T17:04:53.001Z</time></trkpt><trkpt lat="36.7508720368016" lon="-107.99103489743939"><ele>1769.0</ele><time>2026-04-11T17:04:54.001Z</time></trkpt><trkpt lat="36.75099937718671" lon="-107.99100735429639"><ele>1769.0</ele><time>2026-04-11T17:04:55.001Z</time></trkpt><trkpt lat="36.7511017643587" lon="-107.99093453843759"><ele>1770.0</ele><time>2026-04-11T17:04:56.001Z</time></trkpt><trkpt lat="36.75116275264954" lon="-107.99081259279149"><ele>1771.0</ele><time>2026-04-11T17:04:57.001Z</time></trkpt><trkpt lat="36.75122832867239" lon="-107.99066708426494"><ele>1772.0</ele><time>2026-04-11T17:04:58.001Z</time></trkpt><trkpt lat="36.75129682276968" lon="-107.99050199336168"><ele>1773.0</ele><time>2026-04-11T17:04:59.001Z</time></trkpt><trkpt lat="36.751349434332035" lon="-107.99039585171033"><ele>1773.0</ele><time>2026-04-11T17:05:00.002Z</time></trkpt><trkpt lat="36.75140512849065" lon="-107.99032715560477"><ele>1773.0000000000002</ele><time>2026-04-11T17:05:01.002Z</time></trkpt><trkpt lat="36.75148914667773" lon="-107.99029162889872"><ele>1773.0000000000002</ele><time>2026-04-11T17:05:02.002Z</time></trkpt><trkpt lat="36.75161278326073" lon="-107.99027964146157"><ele>1773.0</ele><time>2026-04-11T17:05:03.002Z</time></trkpt><trkpt lat="36.751741281407554" lon="-107.9902457324724"><ele>1773.0</ele><time>2026-04-11T17:05:04.002Z</time></trkpt><trkpt lat="36.75181721881379" lon="-107.99017646578498"><ele>1773.2</ele><time>2026-04-11T17:05:05.002Z</time></trkpt><trkpt lat="36.75189028005884" lon="-107.99015988234278"><ele>1773.4</ele><time>2026-04-11T17:05:06.002Z</time></trkpt><trkpt lat="36.75197147421612" lon="-107.99018876406078"><ele>1773.6000000000001</ele><time>2026-04-11T17:05:07.002Z</time></trkpt><trkpt lat="36.75208445130051" lon="-107.990264763291"><ele>1773.8000000000002</ele><time>2026-04-11T17:05:08.002Z</time></trkpt><trkpt lat="36.75219713520131" lon="-107.99037233594049"><ele>1774.0</ele><time>2026-04-11T17:05:09Z</time></trkpt><trkpt lat="36.752307550548935" lon="-107.99049705892986"><ele>1774.0</ele><time>2026-04-11T17:05:10Z</time></trkpt><trkpt lat="36.75242776052168" lon="-107.99060566345545"><ele>1774.0</ele><time>2026-04-11T17:05:11Z</time></trkpt><trkpt lat="36.75252033481478" lon="-107.9906938919212"><ele>1774.0</ele><time>2026-04-11T17:05:12Z</time></trkpt><trkpt lat="36.75260056159056" lon="-107.99078844766892"><ele>1774.0</ele><time>2026-04-11T17:05:13Z</time></trkpt><trkpt lat="36.7526721457704" lon="-107.99089284168583"><ele>1774.6</ele><time>2026-04-11T17:05:14Z</time></trkpt><trkpt lat="36.75273251216806" lon="-107.99099386417048"><ele>1775.2</ele><time>2026-04-11T17:05:15Z</time></trkpt><trkpt lat="36.75278372290004" lon="-107.99105889003731"><ele>1775.7999999999997</ele><time>2026-04-11T17:05:16Z</time></trkpt><trkpt lat="36.75286738281057" lon="-107.99107420590737"><ele>1776.3999999999999</ele><time>2026-04-11T17:05:17Z</time></trkpt><trkpt lat="36.75296419889325" lon="-107.99107730853277"><ele>1777.0</ele><time>2026-04-11T17:05:18Z</time></trkpt><trkpt lat="36.753059841759374" lon="-107.9911223568877"><ele>1777.0</ele><time>2026-04-11T17:05:19Z</time></trkpt><trkpt lat="36.75316181064095" lon="-107.99121681292705"><ele>1777.0</ele><time>2026-04-11T17:05:20Z</time></trkpt><trkpt lat="36.75327527585938" lon="-107.9913076291836"><ele>1777.0</ele><time>2026-04-11T17:05:21Z</time></trkpt><trkpt lat="36.75338041250733" lon="-107.99138623171126"><ele>1777.0</ele><time>2026-04-11T17:05:22Z</time></trkpt><trkpt lat="36.75347828991677" lon="-107.99147169401415"><ele>1777.0</ele><time>2026-04-11T17:05:23Z</time></trkpt><trkpt lat="36.7535241932187" lon="-107.99156775069733"><ele>1776.9999999999998</ele><time>2026-04-11T17:05:24Z</time></trkpt><trkpt lat="36.75353699921254" lon="-107.99168103107488"><ele>1776.9999999999998</ele><time>2026-04-11T17:05:25Z</time></trkpt><trkpt lat="36.753561574731975" lon="-107.99178202578129"><ele>1777.0</ele><time>2026-04-11T17:05:26Z</time></trkpt><trkpt lat="36.753663817430265" lon="-107.99185167833986"><ele>1777.0</ele><time>2026-04-11T17:05:28Z</time></trkpt><trkpt lat="36.75375904294526" lon="-107.99187115963292"><ele>1777.5000000000002</ele><time>2026-04-11T17:05:29Z</time></trkpt><trkpt lat="36.753852297830704" lon="-107.99189197344487"><ele>1778.0</ele><time>2026-04-11T17:05:30Z</time></trkpt><trkpt lat="36.75390121570483" lon="-107.99196567747488"><ele>1778.5</ele><time>2026-04-11T17:05:31Z</time></trkpt><trkpt lat="36.75389298149332" lon="-107.99206885600286"><ele>1779.0</ele><time>2026-04-11T17:05:32Z</time></trkpt><trkpt lat="36.753902162645154" lon="-107.99218006245763"><ele>1779.5000000000002</ele><time>2026-04-11T17:05:33Z</time></trkpt><trkpt lat="36.75392151624992" lon="-107.99227224457485"><ele>1780.0</ele><time>2026-04-11T17:05:34Z</time></trkpt><trkpt lat="36.75400243339341" lon="-107.99232809060659"><ele>1780.0</ele><time>2026-04-11T17:05:35Z</time></trkpt><trkpt lat="36.754091218849744" lon="-107.99236236395743"><ele>1780.0</ele><time>2026-04-11T17:05:36Z</time></trkpt><trkpt lat="36.754171215136914" lon="-107.99235325893184"><ele>1780.0</ele><time>2026-04-11T17:05:37Z</time></trkpt><trkpt lat="36.75424169212753" lon="-107.99231844352097"><ele>1780.0</ele><time>2026-04-11T17:05:38Z</time></trkpt><trkpt lat="36.75434050066472" lon="-107.99226795035443"><ele>1780.0</ele><time>2026-04-11T17:05:39Z</time></trkpt><trkpt lat="36.75441630668653" lon="-107.99216955966423"><ele>1780.75</ele><time>2026-04-11T17:05:40Z</time></trkpt><trkpt lat="36.754506593095684" lon="-107.99204087360499"><ele>1781.5</ele><time>2026-04-11T17:05:41Z</time></trkpt><trkpt lat="36.75461849012934" lon="-107.99196065399013"><ele>1782.25</ele><time>2026-04-11T17:05:42Z</time></trkpt><trkpt lat="36.75472759592158" lon="-107.99197903995936"><ele>1783.0</ele><time>2026-04-11T17:05:43Z</time></trkpt><trkpt lat="36.75483990225436" lon="-107.9919848149713"><ele>1783.0</ele><time>2026-04-11T17:05:44Z</time></trkpt><trkpt lat="36.75496536919667" lon="-107.99194463632139"><ele>1783.0000000000002</ele><time>2026-04-11T17:05:45Z</time></trkpt><trkpt lat="36.75505102759377" lon="-107.99183997150367"><ele>1783.0000000000002</ele><time>2026-04-11T17:05:46Z</time></trkpt><trkpt lat="36.755118453897644" lon="-107.99176790334054"><ele>1783.0</ele><time>2026-04-11T17:05:47.001Z</time></trkpt><trkpt lat="36.75517499414259" lon="-107.99167854665772"><ele>1783.0</ele><time>2026-04-11T17:05:48.001Z</time></trkpt><trkpt lat="36.75522123763647" lon="-107.99158762684382"><ele>1784.2</ele><time>2026-04-11T17:05:49.001Z</time></trkpt><trkpt lat="36.75536268442049" lon="-107.99156920204697"><ele>1785.4</ele><time>2026-04-11T17:05:51.001Z</time></trkpt><trkpt lat="36.75545710996798" lon="-107.99151860739146"><ele>1786.6000000000001</ele><time>2026-04-11T17:05:52.001Z</time></trkpt><trkpt lat="36.755507291505694" lon="-107.99143572503853"><ele>1787.8000000000002</ele><time>2026-04-11T17:05:53.001Z</time></trkpt><trkpt lat="36.75557677023157" lon="-107.99134867410028"><ele>1789.0</ele><time>2026-04-11T17:05:54.001Z</time></trkpt><trkpt lat="36.75565395550069" lon="-107.99116980390228"><ele>1789.0</ele><time>2026-04-11T17:05:55.001Z</time></trkpt><trkpt lat="36.755720565728815" lon="-107.99104723048977"><ele>1789.0</ele><time>2026-04-11T17:05:56.001Z</time></trkpt><trkpt lat="36.75571431744772" lon="-107.99095834282873"><ele>1789.0</ele><time>2026-04-11T17:05:57.001Z</time></trkpt><trkpt lat="36.755711686423574" lon="-107.99082852805321"><ele>1789.0</ele><time>2026-04-11T17:05:58.001Z</time></trkpt><trkpt lat="36.75576966015093" lon="-107.99074458687723"><ele>1789.0</ele><time>2026-04-11T17:05:59.001Z</time></trkpt><trkpt lat="36.75588915515481" lon="-107.99067236701093"><ele>1789.6</ele><time>2026-04-11T17:06:00.001Z</time></trkpt><trkpt lat="36.75596798194624" lon="-107.99056496173465"><ele>1790.2</ele><time>2026-04-11T17:06:01.001Z</time></trkpt><trkpt lat="36.756000282676155" lon="-107.99048302706655"><ele>1790.7999999999997</ele><time>2026-04-11T17:06:02.001Z</time></trkpt><trkpt lat="36.75603863676775" lon="-107.99040443266813"><ele>1791.3999999999999</ele><time>2026-04-11T17:06:03.001Z</time></trkpt><trkpt lat="36.756154692990876" lon="-107.99038017075644"><ele>1792.0</ele><time>2026-04-11T17:06:04.001Z</time></trkpt><trkpt lat="36.756259097315706" lon="-107.99038598882024"><ele>1792.25</ele><time>2026-04-11T17:06:05.001Z</time></trkpt><trkpt lat="36.75633873821317" lon="-107.99019103541043"><ele>1792.5</ele><time>2026-04-11T17:06:07.001Z</time></trkpt><trkpt lat="36.7563764313135" lon="-107.99005700052564"><ele>1792.75</ele><time>2026-04-11T17:06:08.001Z</time></trkpt><trkpt lat="36.75641372686944" lon="-107.98993994768647"><ele>1793.0</ele><time>2026-04-11T17:06:09.001Z</time></trkpt><trkpt lat="36.75650235359567" lon="-107.98992546584205"><ele>1794.4</ele><time>2026-04-11T17:06:11.001Z</time></trkpt><trkpt lat="36.75657103531613" lon="-107.98989840467353"><ele>1795.8000000000002</ele><time>2026-04-11T17:06:14.001Z</time></trkpt><trkpt lat="36.756643936551775" lon="-107.98979489996874"><ele>1797.2</ele><time>2026-04-11T17:06:16.001Z</time></trkpt><trkpt lat="36.75671852261005" lon="-107.98976584613648"><ele>1798.6</ele><time>2026-04-11T17:08:16.001Z</time></trkpt><trkpt lat="36.75678813503087" lon="-107.989659189115"><ele>1800.0</ele><time>2026-04-11T17:08:18.001Z</time></trkpt><trkpt lat="36.756849033337154" lon="-107.98956582515565"><ele>1799.6</ele><time>2026-04-11T17:08:20.001Z</time></trkpt><trkpt lat="36.756948550179864" lon="-107.98950682557718"><ele>1799.2</ele><time>2026-04-11T17:08:22.001Z</time></trkpt><trkpt lat="36.7570024075025" lon="-107.98942146398157"><ele>1798.8000000000002</ele><time>2026-04-11T17:08:24.001Z</time></trkpt><trkpt lat="36.75694340882449" lon="-107.9892640211376"><ele>1798.4</ele><time>2026-04-11T17:08:26.001Z</time></trkpt><trkpt lat="36.75692322901051" lon="-107.98917741645415"><ele>1798.0</ele><time>2026-04-11T17:08:27.001Z</time></trkpt><trkpt lat="36.75694025935664" lon="-107.989080843381"><ele>1798.8333333333335</ele><time>2026-04-11T17:08:28.001Z</time></trkpt><trkpt lat="36.75699560376283" lon="-107.98895546987853"><ele>1799.6666666666667</ele><time>2026-04-11T17:08:30.001Z</time></trkpt><trkpt lat="36.757059943594776" lon="-107.98893134569401"><ele>1800.5</ele><time>2026-04-11T17:08:32.001Z</time></trkpt><trkpt lat="36.757137726417795" lon="-107.98885105711699"><ele>1801.3333333333335</ele><time>2026-04-11T17:08:34.001Z</time></trkpt><trkpt lat="36.75719279932317" lon="-107.98880292306896"><ele>1802.1666666666667</ele><time>2026-04-11T17:08:37.001Z</time></trkpt><trkpt lat="36.75726338076422" lon="-107.98878811764598"><ele>1803.0</ele><time>2026-04-11T17:08:51.001Z</time></trkpt><trkpt lat="36.75733654168733" lon="-107.98877805078685"><ele>1803.0</ele><time>2026-04-11T17:08:52.001Z</time></trkpt><trkpt lat="36.75744765173448" lon="-107.9887476337027"><ele>1803.0000000000002</ele><time>2026-04-11T17:08:54.001Z</time></trkpt><trkpt lat="36.757525106112396" lon="-107.98868443774637"><ele>1803.0000000000002</ele><time>2026-04-11T17:08:56.001Z</time></trkpt><trkpt lat="36.75747914486182" lon="-107.98857163396194"><ele>1803.0</ele><time>2026-04-11T17:08:58.001Z</time></trkpt><trkpt lat="36.7574093073857" lon="-107.98864827097707"><ele>1803.0</ele><time>2026-04-11T17:09:00.001Z</time></trkpt><trkpt lat="36.757368742123816" lon="-107.98873744103642"><ele>1803.0</ele><time>2026-04-11T17:09:01.001Z</time></trkpt><trkpt lat="36.75732358602447" lon="-107.98881495014871"><ele>1803.0</ele><time>2026-04-11T17:09:02.001Z</time></trkpt><trkpt lat="36.7572484433779" lon="-107.98881565929811"><ele>1803.0</ele><time>2026-04-11T17:09:03.001Z</time></trkpt><trkpt lat="36.75715336496353" lon="-107.98882673238629"><ele>1803.0</ele><time>2026-04-11T17:09:04.001Z</time></trkpt><trkpt lat="36.757097512621066" lon="-107.9888674614508"><ele>1803.0</ele><time>2026-04-11T17:09:05.001Z</time></trkpt><trkpt lat="36.75703386010979" lon="-107.98894498200448"><ele>1803.0</ele><time>2026-04-11T17:09:06.001Z</time></trkpt><trkpt lat="36.75696579588453" lon="-107.9890007395828"><ele>1803.0</ele><time>2026-04-11T17:09:07.001Z</time></trkpt><trkpt lat="36.756909769687155" lon="-107.98911714665694"><ele>1803.0</ele><time>2026-04-11T17:09:09.001Z</time></trkpt><trkpt lat="36.75691192541533" lon="-107.9892218485153"><ele>1803.0</ele><time>2026-04-11T17:09:10.001Z</time></trkpt><trkpt lat="36.756924064655244" lon="-107.98930999964448"><ele>1803.0</ele><time>2026-04-11T17:09:11.001Z</time></trkpt><trkpt lat="36.75695715677955" lon="-107.98940059200713"><ele>1803.0</ele><time>2026-04-11T17:09:12.002Z</time></trkpt><trkpt lat="36.75702294026267" lon="-107.98948140041054"><ele>1803.0</ele><time>2026-04-11T17:09:13.002Z</time></trkpt><trkpt lat="36.75712171487169" lon="-107.98957129133235"><ele>1802.0</ele><time>2026-04-11T17:09:14.002Z</time></trkpt><trkpt lat="36.75721039737479" lon="-107.98969042533282"><ele>1801.0000000000002</ele><time>2026-04-11T17:09:15.002Z</time></trkpt><trkpt lat="36.757262522366645" lon="-107.98982984208837"><ele>1800.0000000000002</ele><time>2026-04-11T17:09:16.002Z</time></trkpt><trkpt lat="36.757306129700815" lon="-107.98994626104509"><ele>1799.0</ele><time>2026-04-11T17:09:17.002Z</time></trkpt><trkpt lat="36.757353869613794" lon="-107.9900429990309"><ele>1798.0</ele><time>2026-04-11T17:09:18.002Z</time></trkpt><trkpt lat="36.757412783821" lon="-107.99013199342535"><ele>1797.0</ele><time>2026-04-11T17:09:19.002Z</time></trkpt><trkpt lat="36.75748563174128" lon="-107.99021150510043"><ele>1796.0</ele><time>2026-04-11T17:09:20.002Z</time></trkpt><trkpt lat="36.757566672375376" lon="-107.99029948279949"><ele>1795.0</ele><time>2026-04-11T17:09:21Z</time></trkpt><trkpt lat="36.75763350927923" lon="-107.99043918437701"><ele>1794.0</ele><time>2026-04-11T17:09:22Z</time></trkpt><trkpt lat="36.75770148354463" lon="-107.990598238532"><ele>1794.2</ele><time>2026-04-11T17:09:23Z</time></trkpt><trkpt lat="36.75777887910036" lon="-107.99077074286562"><ele>1794.4</ele><time>2026-04-11T17:09:24Z</time></trkpt><trkpt lat="36.757829215448886" lon="-107.99088503815207"><ele>1794.6</ele><time>2026-04-11T17:09:25Z</time></trkpt><trkpt lat="36.75788411375608" lon="-107.99098677241246"><ele>1794.8</ele><time>2026-04-11T17:09:27Z</time></trkpt><trkpt lat="36.757920441191594" lon="-107.99106318255424"><ele>1795.0</ele><time>2026-04-11T17:09:29Z</time></trkpt><trkpt lat="36.757955779823746" lon="-107.99112945083878"><ele>1795.0</ele><time>2026-04-11T17:09:31Z</time></trkpt><trkpt lat="36.75795982399085" lon="-107.99123268764588"><ele>1795.0</ele><time>2026-04-11T17:09:41Z</time></trkpt><trkpt lat="36.75797461796321" lon="-107.991317772257"><ele>1795.0</ele><time>2026-04-11T17:09:43Z</time></trkpt><trkpt lat="36.758042069339886" lon="-107.99129218184413"><ele>1795.0</ele><time>2026-04-11T17:09:46Z</time></trkpt><trkpt lat="36.75798655158624" lon="-107.99113946799137"><ele>1795.0</ele><time>2026-04-11T17:09:48Z</time></trkpt><trkpt lat="36.75793266769883" lon="-107.99104333722708"><ele>1795.0</ele><time>2026-04-11T17:09:49Z</time></trkpt><trkpt lat="36.75786629397137" lon="-107.99092857328866"><ele>1795.0</ele><time>2026-04-11T17:09:50Z</time></trkpt><trkpt lat="36.757819852996946" lon="-107.99083195658066"><ele>1795.0</ele><time>2026-04-11T17:09:51Z</time></trkpt><trkpt lat="36.75778100825756" lon="-107.99076033634091"><ele>1795.0</ele><time>2026-04-11T17:09:53Z</time></trkpt><trkpt lat="36.75789501636365" lon="-107.9907184996493"><ele>1795.0</ele><time>2026-04-11T17:09:57Z</time></trkpt><trkpt lat="36.75798226377929" lon="-107.99068648046334"><ele>1795.8</ele><time>2026-04-11T17:09:58Z</time></trkpt><trkpt lat="36.75805545796077" lon="-107.99066029908516"><ele>1796.6</ele><time>2026-04-11T17:09:59.001Z</time></trkpt><trkpt lat="36.75815226937148" lon="-107.99066893338211"><ele>1797.4</ele><time>2026-04-11T17:10:01.001Z</time></trkpt><trkpt lat="36.75822022742723" lon="-107.99062484558888"><ele>1798.2</ele><time>2026-04-11T17:10:03.001Z</time></trkpt><trkpt lat="36.7583258591088" lon="-107.99071844391014"><ele>1799.0</ele><time>2026-04-11T17:10:05.001Z</time></trkpt><trkpt lat="36.7584186727973" lon="-107.99083250191762"><ele>1798.6</ele><time>2026-04-11T17:10:08.001Z</time></trkpt><trkpt lat="36.75853553659753" lon="-107.99092472553122"><ele>1798.2</ele><time>2026-04-11T17:10:10.001Z</time></trkpt><trkpt lat="36.75860912778654" lon="-107.99097560876244"><ele>1797.7999999999997</ele><time>2026-04-11T17:10:11.001Z</time></trkpt><trkpt lat="36.75865689536695" lon="-107.99090588047099"><ele>1797.3999999999999</ele><time>2026-04-11T17:10:14.001Z</time></trkpt><trkpt lat="36.758726164644024" lon="-107.99081606680417"><ele>1797.0</ele><time>2026-04-11T17:10:17.001Z</time></trkpt><trkpt lat="36.758769162163176" lon="-107.9907259081086"><ele>1798.1999999999998</ele><time>2026-04-11T17:10:19.001Z</time></trkpt><trkpt lat="36.75881215704384" lon="-107.99066597634523"><ele>1799.3999999999999</ele><time>2026-04-11T17:11:52Z</time></trkpt><trkpt lat="36.758918479419705" lon="-107.99061386926117"><ele>1800.6000000000001</ele><time>2026-04-11T17:11:54Z</time></trkpt><trkpt lat="36.75900302972501" lon="-107.99060708032228"><ele>1801.8000000000002</ele><time>2026-04-11T17:11:56Z</time></trkpt><trkpt lat="36.759095714855945" lon="-107.99057640741158"><ele>1803.0</ele><time>2026-04-11T17:11:58Z</time></trkpt><trkpt lat="36.75917743031117" lon="-107.99048999689802"><ele>1803.0</ele><time>2026-04-11T17:12:01Z</time></trkpt><trkpt lat="36.759293603998096" lon="-107.99044005380732"><ele>1803.0000000000002</ele><time>2026-04-11T17:12:03Z</time></trkpt><trkpt lat="36.75935556243719" lon="-107.99041973020476"><ele>1803.0000000000002</ele><time>2026-04-11T17:12:04Z</time></trkpt><trkpt lat="36.75944846871387" lon="-107.99039129132508"><ele>1803.0</ele><time>2026-04-11T17:12:06.001Z</time></trkpt><trkpt lat="36.75948868316664" lon="-107.99047656455295"><ele>1803.0</ele><time>2026-04-11T17:12:08.001Z</time></trkpt><trkpt lat="36.7595952080279" lon="-107.99052910576775"><ele>1803.3333333333333</ele><time>2026-04-11T17:12:10.001Z</time></trkpt><trkpt lat="36.75970673142836" lon="-107.99054107027631"><ele>1803.6666666666665</ele><time>2026-04-11T17:12:11.001Z</time></trkpt><trkpt lat="36.759791491177" lon="-107.99054585894292"><ele>1804.0</ele><time>2026-04-11T17:12:12.001Z</time></trkpt><trkpt lat="36.759855883044935" lon="-107.99052834847475"><ele>1804.3333333333333</ele><time>2026-04-11T17:12:13.001Z</time></trkpt><trkpt lat="36.759922661872885" lon="-107.99049313688916"><ele>1804.6666666666665</ele><time>2026-04-11T17:12:14.001Z</time></trkpt><trkpt lat="36.760005225286456" lon="-107.99050046973606"><ele>1805.0</ele><time>2026-04-11T17:12:15.001Z</time></trkpt><trkpt lat="36.760065694469304" lon="-107.99055154265699"><ele>1805.0</ele><time>2026-04-11T17:12:16.001Z</time></trkpt><trkpt lat="36.76017476087705" lon="-107.99056487572527"><ele>1805.0</ele><time>2026-04-11T17:12:18.001Z</time></trkpt><trkpt lat="36.76027953402633" lon="-107.99056998968841"><ele>1805.0</ele><time>2026-04-11T17:12:20.001Z</time></trkpt><trkpt lat="36.76036250061637" lon="-107.9904484385435"><ele>1805.0</ele><time>2026-04-11T17:12:22.001Z</time></trkpt><trkpt lat="36.76046675510328" lon="-107.99041650882778"><ele>1804.6666666666665</ele><time>2026-04-11T17:12:23.001Z</time></trkpt><trkpt lat="36.76055347387682" lon="-107.99038920516587"><ele>1804.3333333333333</ele><time>2026-04-11T17:12:24.001Z</time></trkpt><trkpt lat="36.76062891512453" lon="-107.99036948987438"><ele>1804.0</ele><time>2026-04-11T17:12:25.001Z</time></trkpt><trkpt lat="36.76071586920148" lon="-107.9903408869066"><ele>1803.6666666666665</ele><time>2026-04-11T17:12:26.001Z</time></trkpt><trkpt lat="36.76081224446887" lon="-107.99029902137272"><ele>1803.3333333333333</ele><time>2026-04-11T17:12:27.001Z</time></trkpt><trkpt lat="36.76085703581655" lon="-107.99023593445413"><ele>1803.0</ele><time>2026-04-11T17:12:28.001Z</time></trkpt><trkpt lat="36.76085696362411" lon="-107.99014369952926"><ele>1803.0</ele><time>2026-04-11T17:12:29.001Z</time></trkpt><trkpt lat="36.76087026096841" lon="-107.99003300092517"><ele>1803.0</ele><time>2026-04-11T17:12:30.001Z</time></trkpt><trkpt lat="36.76090014208064" lon="-107.98993978887387"><ele>1803.0</ele><time>2026-04-11T17:12:31.001Z</time></trkpt><trkpt lat="36.760917358813096" lon="-107.98981283559424"><ele>1803.0</ele><time>2026-04-11T17:12:33.001Z</time></trkpt><trkpt lat="36.7609420941961" lon="-107.98973972601726"><ele>1803.0</ele><time>2026-04-11T17:12:34.001Z</time></trkpt><trkpt lat="36.76096859325485" lon="-107.98963768502438"><ele>1803.0</ele><time>2026-04-11T17:12:35.001Z</time></trkpt><trkpt lat="36.7610531379953" lon="-107.98951112171672"><ele>1804.0</ele><time>2026-04-11T17:12:37.001Z</time></trkpt><trkpt lat="36.761090957131" lon="-107.9894263612474"><ele>1805.0</ele><time>2026-04-11T17:12:38.001Z</time></trkpt><trkpt lat="36.76112786240219" lon="-107.98934966580342"><ele>1806.0</ele><time>2026-04-11T17:12:39.001Z</time></trkpt><trkpt lat="36.761199985369394" lon="-107.98929536322315"><ele>1807.0</ele><time>2026-04-11T17:12:40.001Z</time></trkpt><trkpt lat="36.76126534283716" lon="-107.9892322817355"><ele>1808.0</ele><time>2026-04-11T17:12:41.001Z</time></trkpt><trkpt lat="36.7613797998297" lon="-107.9892025015065"><ele>1809.0</ele><time>2026-04-11T17:12:43.001Z</time></trkpt><trkpt lat="36.76145680771331" lon="-107.98921371266077"><ele>1809.0</ele><time>2026-04-11T17:12:44.001Z</time></trkpt><trkpt lat="36.761549475943355" lon="-107.98923533098298"><ele>1809.0</ele><time>2026-04-11T17:12:45.001Z</time></trkpt><trkpt lat="36.76167948788726" lon="-107.9892849633192"><ele>1809.0</ele><time>2026-04-11T17:12:47.001Z</time></trkpt><trkpt lat="36.76176197166966" lon="-107.98930247781526"><ele>1809.0</ele><time>2026-04-11T17:12:48.001Z</time></trkpt><trkpt lat="36.76183563611627" lon="-107.98932736613187"><ele>1809.0</ele><time>2026-04-11T17:12:49.001Z</time></trkpt><trkpt lat="36.76190004277142" lon="-107.98938364332335"><ele>1809.0</ele><time>2026-04-11T17:12:50.001Z</time></trkpt><trkpt lat="36.762015184955736" lon="-107.98943004889222"><ele>1809.0</ele><time>2026-04-11T17:12:52.001Z</time></trkpt><trkpt lat="36.76210649705958" lon="-107.98945114672831"><ele>1809.0</ele><time>2026-04-11T17:12:53.001Z</time></trkpt><trkpt lat="36.76217183394515" lon="-107.98947982261996"><ele>1809.0</ele><time>2026-04-11T17:12:54.001Z</time></trkpt><trkpt lat="36.76225211550039" lon="-107.98954436810686"><ele>1809.0</ele><time>2026-04-11T17:12:56.001Z</time></trkpt><trkpt lat="36.76233362732135" lon="-107.9895989055892"><ele>1809.0</ele><time>2026-04-11T17:12:59.001Z</time></trkpt><trkpt lat="36.762435291850906" lon="-107.9896551987009"><ele>1809.0</ele><time>2026-04-11T17:13:01.001Z</time></trkpt><trkpt lat="36.76255186793025" lon="-107.9897553353032"><ele>1809.0</ele><time>2026-04-11T17:13:03.001Z</time></trkpt><trkpt lat="36.762636209321236" lon="-107.9898161270169"><ele>1809.0</ele><time>2026-04-11T17:13:04.001Z</time></trkpt><trkpt lat="36.762724012215656" lon="-107.98986526488335"><ele>1809.0</ele><time>2026-04-11T17:13:05.001Z</time></trkpt><trkpt lat="36.762805709008596" lon="-107.98990736110358"><ele>1809.3333333333333</ele><time>2026-04-11T17:13:06.001Z</time></trkpt><trkpt lat="36.76287405892064" lon="-107.98996484470807"><ele>1809.6666666666665</ele><time>2026-04-11T17:13:07.001Z</time></trkpt><trkpt lat="36.76292469421654" lon="-107.9900459869615"><ele>1810.0</ele><time>2026-04-11T17:13:08.001Z</time></trkpt><trkpt lat="36.76298983649896" lon="-107.99013032349141"><ele>1810.3333333333333</ele><time>2026-04-11T17:13:09.001Z</time></trkpt><trkpt lat="36.7630656189767" lon="-107.99018255976192"><ele>1810.6666666666665</ele><time>2026-04-11T17:13:10.001Z</time></trkpt><trkpt lat="36.7631587530139" lon="-107.99021251768578"><ele>1811.0</ele><time>2026-04-11T17:13:11.001Z</time></trkpt><trkpt lat="36.76324407876482" lon="-107.99027346207508"><ele>1811.0</ele><time>2026-04-11T17:13:12.001Z</time></trkpt><trkpt lat="36.76334389951239" lon="-107.99035638318426"><ele>1811.0</ele><time>2026-04-11T17:13:13.001Z</time></trkpt><trkpt lat="36.763429002533066" lon="-107.99043465556512"><ele>1811.0</ele><time>2026-04-11T17:13:14.001Z</time></trkpt><trkpt lat="36.7635155954379" lon="-107.99050007573545"><ele>1811.0</ele><time>2026-04-11T17:13:15.001Z</time></trkpt><trkpt lat="36.763602989319445" lon="-107.99054470990376"><ele>1811.0</ele><time>2026-04-11T17:13:16.001Z</time></trkpt><trkpt lat="36.76369756882881" lon="-107.99055407219949"><ele>1811.1666666666665</ele><time>2026-04-11T17:13:17.001Z</time></trkpt><trkpt lat="36.76377486414282" lon="-107.99057840676778"><ele>1811.3333333333333</ele><time>2026-04-11T17:13:18.001Z</time></trkpt><trkpt lat="36.763845063593756" lon="-107.9906067301243"><ele>1811.5</ele><time>2026-04-11T17:13:19.001Z</time></trkpt><trkpt lat="36.76390749113729" lon="-107.99063911057127"><ele>1811.6666666666665</ele><time>2026-04-11T17:13:20.001Z</time></trkpt><trkpt lat="36.76397745187468" lon="-107.99065837713063"><ele>1811.8333333333333</ele><time>2026-04-11T17:13:21.001Z</time></trkpt><trkpt lat="36.764093726379336" lon="-107.99070022804965"><ele>1812.0</ele><time>2026-04-11T17:13:23.002Z</time></trkpt><trkpt lat="36.764143316661425" lon="-107.99076022912534"><ele>1811.5</ele><time>2026-04-11T17:13:24.002Z</time></trkpt><trkpt lat="36.76418368997038" lon="-107.99084926509201"><ele>1811.0</ele><time>2026-04-11T17:13:25.002Z</time></trkpt><trkpt lat="36.76421907866891" lon="-107.99093113741834"><ele>1810.5</ele><time>2026-04-11T17:13:26.002Z</time></trkpt><trkpt lat="36.76426558416126" lon="-107.99102747653403"><ele>1810.0</ele><time>2026-04-11T17:13:27.002Z</time></trkpt><trkpt lat="36.76429931802709" lon="-107.99111406748298"><ele>1809.5</ele><time>2026-04-11T17:13:28.002Z</time></trkpt><trkpt lat="36.7642974346407" lon="-107.99120942008787"><ele>1809.0</ele><time>2026-04-11T17:13:29.002Z</time></trkpt><trkpt lat="36.76428486164839" lon="-107.99134351172944"><ele>1809.0</ele><time>2026-04-11T17:13:31.002Z</time></trkpt><trkpt lat="36.76430632228359" lon="-107.99144992050194"><ele>1809.0</ele><time>2026-04-11T17:13:33Z</time></trkpt><trkpt lat="36.7643207176856" lon="-107.99155614432294"><ele>1809.0</ele><time>2026-04-11T17:13:35Z</time></trkpt><trkpt lat="36.76430393095688" lon="-107.99164517178649"><ele>1809.0</ele><time>2026-04-11T17:13:38Z</time></trkpt><trkpt lat="36.76428276395659" lon="-107.99181202575963"><ele>1809.0</ele><time>2026-04-11T17:13:39Z</time></trkpt><trkpt lat="36.764285364105326" lon="-107.99192270392601"><ele>1808.0</ele><time>2026-04-11T17:13:41Z</time></trkpt><trkpt lat="36.76430139974541" lon="-107.992082425502"><ele>1807.0</ele><time>2026-04-11T17:13:43Z</time></trkpt><trkpt lat="36.76431419758767" lon="-107.9921725351041"><ele>1806.0</ele><time>2026-04-11T17:13:44Z</time></trkpt><trkpt lat="36.76433213212858" lon="-107.99229489931159"><ele>1805.0</ele><time>2026-04-11T17:13:45Z</time></trkpt><trkpt lat="36.764354324999076" lon="-107.99240465846839"><ele>1804.0</ele><time>2026-04-11T17:13:46Z</time></trkpt><trkpt lat="36.76438362680836" lon="-107.99251085096526"><ele>1803.1666666666667</ele><time>2026-04-11T17:13:47Z</time></trkpt><trkpt lat="36.76441026396081" lon="-107.99259451595674"><ele>1802.3333333333335</ele><time>2026-04-11T17:13:48Z</time></trkpt><trkpt lat="36.76441686103504" lon="-107.99272824863175"><ele>1801.5</ele><time>2026-04-11T17:13:50Z</time></trkpt><trkpt lat="36.76441449593849" lon="-107.9928119314528"><ele>1800.6666666666665</ele><time>2026-04-11T17:13:51Z</time></trkpt><trkpt lat="36.76440872563183" lon="-107.99291051359259"><ele>1799.8333333333333</ele><time>2026-04-11T17:13:52Z</time></trkpt><trkpt lat="36.764401475706634" lon="-107.9930130534974"><ele>1799.0</ele><time>2026-04-11T17:13:53Z</time></trkpt><trkpt lat="36.76438781964706" lon="-107.99311163549716"><ele>1799.0</ele><time>2026-04-11T17:13:54Z</time></trkpt><trkpt lat="36.764381738363554" lon="-107.99321813957033"><ele>1799.0</ele><time>2026-04-11T17:13:55Z</time></trkpt><trkpt lat="36.76442026483675" lon="-107.99334264092334"><ele>1799.0</ele><time>2026-04-11T17:13:57Z</time></trkpt><trkpt lat="36.76446587291907" lon="-107.99349956962723"><ele>1799.0</ele><time>2026-04-11T17:13:59Z</time></trkpt><trkpt lat="36.764477685338775" lon="-107.99370228388291"><ele>1797.5</ele><time>2026-04-11T17:14:01Z</time></trkpt><trkpt lat="36.76452523076781" lon="-107.99388955563354"><ele>1796.0</ele><time>2026-04-11T17:14:02Z</time></trkpt><trkpt lat="36.76457073507476" lon="-107.99405069774112"><ele>1794.5</ele><time>2026-04-11T17:14:03Z</time></trkpt><trkpt lat="36.764605361416216" lon="-107.99419367997956"><ele>1793.0</ele><time>2026-04-11T17:14:04Z</time></trkpt><trkpt lat="36.76463183118119" lon="-107.99432690398208"><ele>1792.8000000000002</ele><time>2026-04-11T17:14:05Z</time></trkpt><trkpt lat="36.76466752012465" lon="-107.99446644949406"><ele>1792.6000000000001</ele><time>2026-04-11T17:14:06Z</time></trkpt><trkpt lat="36.764702869959585" lon="-107.9945864755752"><ele>1792.3999999999999</ele><time>2026-04-11T17:14:07Z</time></trkpt><trkpt lat="36.76473596937077" lon="-107.99469299713796"><ele>1792.1999999999998</ele><time>2026-04-11T17:14:08Z</time></trkpt><trkpt lat="36.7647488304174" lon="-107.99481237989066"><ele>1792.0</ele><time>2026-04-11T17:14:09Z</time></trkpt><trkpt lat="36.76475519837737" lon="-107.99491012933991"><ele>1792.0</ele><time>2026-04-11T17:14:10Z</time></trkpt><trkpt lat="36.764780785400724" lon="-107.99498574844033"><ele>1791.9999999999998</ele><time>2026-04-11T17:14:11Z</time></trkpt><trkpt lat="36.764846878404754" lon="-107.99506629729437"><ele>1791.9999999999998</ele><time>2026-04-11T17:14:12.001Z</time></trkpt><trkpt lat="36.764938454220804" lon="-107.99519746148752"><ele>1792.0</ele><time>2026-04-11T17:14:13.001Z</time></trkpt><trkpt lat="36.765024118893884" lon="-107.99531145970737"><ele>1792.0</ele><time>2026-04-11T17:14:14.001Z</time></trkpt><trkpt lat="36.765080925909594" lon="-107.9953795845797"><ele>1792.3999999999999</ele><time>2026-04-11T17:14:15.001Z</time></trkpt><trkpt lat="36.765162458003566" lon="-107.99540757583094"><ele>1792.7999999999997</ele><time>2026-04-11T17:14:17.001Z</time></trkpt><trkpt lat="36.76527938272846" lon="-107.99533395251551"><ele>1793.2</ele><time>2026-04-11T17:14:19.001Z</time></trkpt><trkpt lat="36.765363627664286" lon="-107.99531900566299"><ele>1793.6</ele><time>2026-04-11T17:14:20.001Z</time></trkpt><trkpt lat="36.76549100703775" lon="-107.99530840425722"><ele>1794.0</ele><time>2026-04-11T17:14:21.001Z</time></trkpt><trkpt lat="36.76564537344181" lon="-107.99530582457587"><ele>1794.75</ele><time>2026-04-11T17:14:22.001Z</time></trkpt><trkpt lat="36.765797201220686" lon="-107.99529960996288"><ele>1795.5</ele><time>2026-04-11T17:14:23.001Z</time></trkpt><trkpt lat="36.765928053775944" lon="-107.99530057638745"><ele>1796.25</ele><time>2026-04-11T17:14:24.001Z</time></trkpt><trkpt lat="36.76603097309726" lon="-107.99528287322315"><ele>1797.0</ele><time>2026-04-11T17:14:25.001Z</time></trkpt><trkpt lat="36.766108318871" lon="-107.9952757956198"><ele>1798.25</ele><time>2026-04-11T17:14:26.001Z</time></trkpt><trkpt lat="36.766211393134725" lon="-107.99532408186371"><ele>1799.5</ele><time>2026-04-11T17:14:28.001Z</time></trkpt><trkpt lat="36.766342992361565" lon="-107.9953434015726"><ele>1800.75</ele><time>2026-04-11T17:14:30.001Z</time></trkpt><trkpt lat="36.766459803169106" lon="-107.99531346674507"><ele>1802.0</ele><time>2026-04-11T17:14:31.001Z</time></trkpt><trkpt lat="36.76658786826799" lon="-107.99525989938296"><ele>1802.0</ele><time>2026-04-11T17:14:32.001Z</time></trkpt><trkpt lat="36.766691768176095" lon="-107.99524374573036"><ele>1801.9999999999998</ele><time>2026-04-11T17:14:33.001Z</time></trkpt><trkpt lat="36.766781057901824" lon="-107.99523577340784"><ele>1801.9999999999998</ele><time>2026-04-11T17:14:34.001Z</time></trkpt><trkpt lat="36.76688765535846" lon="-107.99524487417078"><ele>1802.0</ele><time>2026-04-11T17:14:36.001Z</time></trkpt><trkpt lat="36.76697479632849" lon="-107.99531555861219"><ele>1802.0</ele><time>2026-04-11T17:14:38.001Z</time></trkpt><trkpt lat="36.767062781499455" lon="-107.99536909204177"><ele>1803.1666666666665</ele><time>2026-04-11T17:14:39.001Z</time></trkpt><trkpt lat="36.76714732243392" lon="-107.99542179035306"><ele>1804.3333333333333</ele><time>2026-04-11T17:14:40.001Z</time></trkpt><trkpt lat="36.767204819648185" lon="-107.99545494601321"><ele>1805.5</ele><time>2026-04-11T17:14:41.001Z</time></trkpt><trkpt lat="36.7672621096828" lon="-107.99549048487981"><ele>1806.6666666666665</ele><time>2026-04-11T17:14:42.001Z</time></trkpt><trkpt lat="36.76736309905159" lon="-107.99553414207868"><ele>1807.8333333333333</ele><time>2026-04-11T17:14:43.001Z</time></trkpt><trkpt lat="36.76746106117197" lon="-107.99555427299322"><ele>1809.0</ele><time>2026-04-11T17:14:44.001Z</time></trkpt><trkpt lat="36.76754599578518" lon="-107.99556046874031"><ele>1809.0</ele><time>2026-04-11T17:14:45.001Z</time></trkpt><trkpt lat="36.76763373359195" lon="-107.99554989918941"><ele>1809.0</ele><time>2026-04-11T17:14:47.001Z</time></trkpt><trkpt lat="36.76776090460405" lon="-107.99555725742965"><ele>1809.0</ele><time>2026-04-11T17:14:49.001Z</time></trkpt><trkpt lat="36.76785182715386" lon="-107.99556435594765"><ele>1809.0</ele><time>2026-04-11T17:14:50.001Z</time></trkpt><trkpt lat="36.767934950627996" lon="-107.99559773363104"><ele>1809.0</ele><time>2026-04-11T17:14:51.001Z</time></trkpt><trkpt lat="36.76799704833718" lon="-107.99566403992014"><ele>1809.8000000000002</ele><time>2026-04-11T17:14:52.001Z</time></trkpt><trkpt lat="36.768054436965556" lon="-107.99570931925828"><ele>1810.6000000000001</ele><time>2026-04-11T17:14:53.001Z</time></trkpt><trkpt lat="36.76811599823717" lon="-107.9956348431086"><ele>1811.4</ele><time>2026-04-11T17:14:55.001Z</time></trkpt><trkpt lat="36.76821878651403" lon="-107.9955748761164"><ele>1812.2</ele><time>2026-04-11T17:14:56.001Z</time></trkpt><trkpt lat="36.768339706366056" lon="-107.99552105657973"><ele>1813.0</ele><time>2026-04-11T17:14:57.001Z</time></trkpt><trkpt lat="36.76843170506296" lon="-107.99546641111358"><ele>1813.0000000000002</ele><time>2026-04-11T17:14:58.001Z</time></trkpt><trkpt lat="36.768507227268145" lon="-107.995393756569"><ele>1813.0</ele><time>2026-04-11T17:14:59.001Z</time></trkpt><trkpt lat="36.76856968488285" lon="-107.99535350514087"><ele>1813.0</ele><time>2026-04-11T17:15:00.001Z</time></trkpt><trkpt lat="36.768639819595855" lon="-107.99537178935522"><ele>1813.0</ele><time>2026-04-11T17:15:01.001Z</time></trkpt><trkpt lat="36.76873097794725" lon="-107.99539810751136"><ele>1813.0000000000002</ele><time>2026-04-11T17:15:02.001Z</time></trkpt><trkpt lat="36.76881251526183" lon="-107.99532105521595"><ele>1813.0</ele><time>2026-04-11T17:15:04.001Z</time></trkpt><trkpt lat="36.768968668229306" lon="-107.9953583295524"><ele>1813.75</ele><time>2026-04-11T17:15:06.001Z</time></trkpt><trkpt lat="36.76909408880985" lon="-107.99539311229042"><ele>1814.5</ele><time>2026-04-11T17:15:07.001Z</time></trkpt><trkpt lat="36.7692262526742" lon="-107.9953968596254"><ele>1815.25</ele><time>2026-04-11T17:15:08.001Z</time></trkpt><trkpt lat="36.76935869950417" lon="-107.99540585204527"><ele>1816.0</ele><time>2026-04-11T17:15:09.001Z</time></trkpt><trkpt lat="36.769445675456204" lon="-107.99543387352833"><ele>1816.6</ele><time>2026-04-11T17:15:10.001Z</time></trkpt><trkpt lat="36.76952028827777" lon="-107.99545474154213"><ele>1817.1999999999998</ele><time>2026-04-11T17:15:11.001Z</time></trkpt><trkpt lat="36.7696113750449" lon="-107.99545413849833"><ele>1817.8000000000002</ele><time>2026-04-11T17:15:12.001Z</time></trkpt><trkpt lat="36.76974886938401" lon="-107.99556023631813"><ele>1818.4</ele><time>2026-04-11T17:15:14.001Z</time></trkpt><trkpt lat="36.76982820659689" lon="-107.9956177304348"><ele>1819.0</ele><time>2026-04-11T17:15:15.001Z</time></trkpt><trkpt lat="36.76989523533531" lon="-107.99561846737303"><ele>1819.0</ele><time>2026-04-11T17:15:16.001Z</time></trkpt><trkpt lat="36.769976749481266" lon="-107.9955773738502"><ele>1819.0</ele><time>2026-04-11T17:15:17.001Z</time></trkpt><trkpt lat="36.77005245362182" lon="-107.99555051595965"><ele>1819.0</ele><time>2026-04-11T17:15:18.001Z</time></trkpt><trkpt lat="36.77014866129186" lon="-107.99571508494279"><ele>1819.0</ele><time>2026-04-11T17:15:20.001Z</time></trkpt><trkpt lat="36.77023544736409" lon="-107.9958157477233"><ele>1819.0</ele><time>2026-04-11T17:15:21.001Z</time></trkpt><trkpt lat="36.77030954440995" lon="-107.99588592688451"><ele>1819.6666666666667</ele><time>2026-04-11T17:15:22.001Z</time></trkpt><trkpt lat="36.77038638566636" lon="-107.99591398263475"><ele>1820.3333333333335</ele><time>2026-04-11T17:15:23.001Z</time></trkpt><trkpt lat="36.770476583682665" lon="-107.99596566176648"><ele>1821.0</ele><time>2026-04-11T17:15:24.001Z</time></trkpt><trkpt lat="36.77054159402309" lon="-107.99602222459518"><ele>1821.6666666666665</ele><time>2026-04-11T17:15:25.001Z</time></trkpt><trkpt lat="36.77057952925084" lon="-107.99615511239205"><ele>1822.3333333333333</ele><time>2026-04-11T17:15:27.001Z</time></trkpt><trkpt lat="36.770625918197766" lon="-107.99623202688907"><ele>1823.0</ele><time>2026-04-11T17:15:28.001Z</time></trkpt><trkpt lat="36.77076363470641" lon="-107.9962417119644"><ele>1823.0</ele><time>2026-04-11T17:15:32.002Z</time></trkpt><trkpt lat="36.77083907612588" lon="-107.99622442452146"><ele>1823.0000000000002</ele><time>2026-04-11T17:15:33.002Z</time></trkpt><trkpt lat="36.770921655990605" lon="-107.99621490092596"><ele>1823.0000000000002</ele><time>2026-04-11T17:15:34.002Z</time></trkpt><trkpt lat="36.77101391356791" lon="-107.99620616525736"><ele>1823.0</ele><time>2026-04-11T17:15:35.002Z</time></trkpt><trkpt lat="36.77108726685745" lon="-107.99619060213672"><ele>1823.0</ele><time>2026-04-11T17:15:36.002Z</time></trkpt><trkpt lat="36.77121533325477" lon="-107.99620073202097"><ele>1823.9999999999998</ele><time>2026-04-11T17:15:38.002Z</time></trkpt><trkpt lat="36.77130293634338" lon="-107.99622046971582"><ele>1825.0</ele><time>2026-04-11T17:15:39Z</time></trkpt><trkpt lat="36.7713751702045" lon="-107.99623144850459"><ele>1826.0</ele><time>2026-04-11T17:15:40Z</time></trkpt><trkpt lat="36.771470896561034" lon="-107.9961699196755"><ele>1827.0</ele><time>2026-04-11T17:15:42Z</time></trkpt><trkpt lat="36.77153971359881" lon="-107.99613518465523"><ele>1827.9999999999998</ele><time>2026-04-11T17:15:43Z</time></trkpt><trkpt lat="36.77162210969421" lon="-107.99611611903522"><ele>1829.0</ele><time>2026-04-11T17:15:44Z</time></trkpt><trkpt lat="36.771712745524276" lon="-107.9961272982834"><ele>1829.0</ele><time>2026-04-11T17:15:45Z</time></trkpt><trkpt lat="36.77177723303291" lon="-107.9961630449174"><ele>1829.0</ele><time>2026-04-11T17:15:46Z</time></trkpt><trkpt lat="36.7718810564998" lon="-107.99620862090102"><ele>1829.0</ele><time>2026-04-11T17:15:48Z</time></trkpt><trkpt lat="36.77200749492132" lon="-107.99630671602138"><ele>1829.0</ele><time>2026-04-11T17:15:50Z</time></trkpt><trkpt lat="36.77209996979861" lon="-107.99634990727633"><ele>1829.0</ele><time>2026-04-11T17:15:51Z</time></trkpt><trkpt lat="36.772177144628" lon="-107.99640431004345"><ele>1829.4</ele><time>2026-04-11T17:15:52Z</time></trkpt><trkpt lat="36.77223389399659" lon="-107.99650419614655"><ele>1829.8000000000002</ele><time>2026-04-11T17:15:53Z</time></trkpt><trkpt lat="36.77228552060848" lon="-107.99662190266629"><ele>1830.1999999999998</ele><time>2026-04-11T17:15:54Z</time></trkpt><trkpt lat="36.77233145510206" lon="-107.9966867833894"><ele>1830.6</ele><time>2026-04-11T17:15:55Z</time></trkpt><trkpt lat="36.772431665723026" lon="-107.99673456662342"><ele>1831.0</ele><time>2026-04-11T17:15:56Z</time></trkpt><trkpt lat="36.77255507178228" lon="-107.99679947648377"><ele>1831.0</ele><time>2026-04-11T17:15:57Z</time></trkpt><trkpt lat="36.772637536228295" lon="-107.99684947482767"><ele>1831.0</ele><time>2026-04-11T17:15:58Z</time></trkpt><trkpt lat="36.77270592214444" lon="-107.99686111577464"><ele>1831.0</ele><time>2026-04-11T17:15:59Z</time></trkpt><trkpt lat="36.772799225522625" lon="-107.99688419781421"><ele>1831.0</ele><time>2026-04-11T17:16:00Z</time></trkpt><trkpt lat="36.77286943660835" lon="-107.99695448154584"><ele>1831.0</ele><time>2026-04-11T17:16:01Z</time></trkpt><trkpt lat="36.772961256667706" lon="-107.99706337469598"><ele>1832.25</ele><time>2026-04-11T17:16:02Z</time></trkpt><trkpt lat="36.77307208784464" lon="-107.99719604595175"><ele>1833.5</ele><time>2026-04-11T17:16:03Z</time></trkpt><trkpt lat="36.77318149396622" lon="-107.99732114241202"><ele>1834.75</ele><time>2026-04-11T17:16:04Z</time></trkpt><trkpt lat="36.77327247979361" lon="-107.99740718927106"><ele>1836.0</ele><time>2026-04-11T17:16:05Z</time></trkpt><trkpt lat="36.77336251265801" lon="-107.99747615172755"><ele>1836.4</ele><time>2026-04-11T17:16:06Z</time></trkpt><trkpt lat="36.77343465256883" lon="-107.99754374629632"><ele>1836.8</ele><time>2026-04-11T17:16:07Z</time></trkpt><trkpt lat="36.77350648311739" lon="-107.99758089711715"><ele>1837.2000000000003</ele><time>2026-04-11T17:16:08Z</time></trkpt><trkpt lat="36.77361225452936" lon="-107.99759792193979"><ele>1837.6000000000001</ele><time>2026-04-11T17:16:09Z</time></trkpt><trkpt lat="36.773717588802334" lon="-107.99764295750872"><ele>1838.0</ele><time>2026-04-11T17:16:10Z</time></trkpt><trkpt lat="36.773803377910305" lon="-107.99776297931895"><ele>1838.4</ele><time>2026-04-11T17:16:11Z</time></trkpt><trkpt lat="36.77388801404898" lon="-107.9978806799143"><ele>1838.8000000000002</ele><time>2026-04-11T17:16:12Z</time></trkpt><trkpt lat="36.77395921878615" lon="-107.99795691518162"><ele>1839.2</ele><time>2026-04-11T17:16:13Z</time></trkpt><trkpt lat="36.77404329540029" lon="-107.99799891045704"><ele>1839.6</ele><time>2026-04-11T17:16:14Z</time></trkpt><trkpt lat="36.77414849685612" lon="-107.99804689918538"><ele>1840.0</ele><time>2026-04-11T17:16:15Z</time></trkpt><trkpt lat="36.77425351731565" lon="-107.99807384040423"><ele>1840.0000000000002</ele><time>2026-04-11T17:16:16.001Z</time></trkpt><trkpt lat="36.774328340528086" lon="-107.99812065331906"><ele>1840.0</ele><time>2026-04-11T17:16:17.001Z</time></trkpt><trkpt lat="36.77433765803719" lon="-107.99820845500146"><ele>1840.0</ele><time>2026-04-11T17:16:18.001Z</time></trkpt><trkpt lat="36.774356999750815" lon="-107.99830434977592"><ele>1840.0</ele><time>2026-04-11T17:16:19.001Z</time></trkpt><trkpt lat="36.774406642807406" lon="-107.99840953703925"><ele>1840.0000000000002</ele><time>2026-04-11T17:16:20.001Z</time></trkpt><trkpt lat="36.7744750289837" lon="-107.9984853872737"><ele>1840.0</ele><time>2026-04-11T17:16:21.001Z</time></trkpt><trkpt lat="36.774502511607345" lon="-107.99856719018688"><ele>1839.5</ele><time>2026-04-11T17:16:22.001Z</time></trkpt><trkpt lat="36.77452859722843" lon="-107.99871521607253"><ele>1839.0</ele><time>2026-04-11T17:16:23.001Z</time></trkpt><trkpt lat="36.77454876135927" lon="-107.99884053207182"><ele>1838.5</ele><time>2026-04-11T17:16:24.001Z</time></trkpt><trkpt lat="36.774622228570095" lon="-107.99899074023091"><ele>1838.0</ele><time>2026-04-11T17:16:26.001Z</time></trkpt><trkpt lat="36.77467741507695" lon="-107.99909074748744"><ele>1838.0</ele><time>2026-04-11T17:16:27.001Z</time></trkpt><trkpt lat="36.77472611728216" lon="-107.99916459151417"><ele>1838.0000000000002</ele><time>2026-04-11T17:16:28.001Z</time></trkpt><trkpt lat="36.77481933239983" lon="-107.99922483373454"><ele>1838.0000000000002</ele><time>2026-04-11T17:16:29.001Z</time></trkpt><trkpt lat="36.77491295908152" lon="-107.99929571015619"><ele>1838.0</ele><time>2026-04-11T17:16:30.001Z</time></trkpt><trkpt lat="36.77496483919969" lon="-107.9993508863036"><ele>1838.0</ele><time>2026-04-11T17:16:31.001Z</time></trkpt><trkpt lat="36.77498505732943" lon="-107.99947857789886"><ele>1837.25</ele><time>2026-04-11T17:16:33.001Z</time></trkpt><trkpt lat="36.77499531627054" lon="-107.99958216918428"><ele>1836.5</ele><time>2026-04-11T17:16:34.001Z</time></trkpt><trkpt lat="36.775078891976655" lon="-107.99975408214299"><ele>1835.75</ele><time>2026-04-11T17:16:36.001Z</time></trkpt><trkpt lat="36.77511350258429" lon="-107.99989718574012"><ele>1835.0</ele><time>2026-04-11T17:16:37.001Z</time></trkpt><trkpt lat="36.775153734835804" lon="-108.00005229247488"><ele>1835.8</ele><time>2026-04-11T17:16:38.001Z</time></trkpt><trkpt lat="36.77520159967181" lon="-108.00017684054792"><ele>1836.6</ele><time>2026-04-11T17:16:39.001Z</time></trkpt><trkpt lat="36.775243859554834" lon="-108.00026226682229"><ele>1837.4</ele><time>2026-04-11T17:16:40.001Z</time></trkpt><trkpt lat="36.77528644641164" lon="-108.00032651810801"><ele>1838.2</ele><time>2026-04-11T17:16:41.001Z</time></trkpt><trkpt lat="36.775459250827" lon="-108.00035099732341"><ele>1839.0</ele><time>2026-04-11T17:16:43.001Z</time></trkpt><trkpt lat="36.775584688366855" lon="-108.00039948510207"><ele>1839.0</ele><time>2026-04-11T17:16:44.001Z</time></trkpt><trkpt lat="36.77569970168693" lon="-108.00048673797106"><ele>1839.0</ele><time>2026-04-11T17:16:45.001Z</time></trkpt><trkpt lat="36.775764733692746" lon="-108.00058507341798"><ele>1839.0</ele><time>2026-04-11T17:16:46.001Z</time></trkpt><trkpt lat="36.77581813791894" lon="-108.00067658497161"><ele>1839.0</ele><time>2026-04-11T17:16:47.001Z</time></trkpt><trkpt lat="36.775864729333954" lon="-108.00075128370126"><ele>1839.0</ele><time>2026-04-11T17:16:48.001Z</time></trkpt><trkpt lat="36.77596424238883" lon="-108.0008054301019"><ele>1839.6666666666667</ele><time>2026-04-11T17:16:49.001Z</time></trkpt><trkpt lat="36.77602427148596" lon="-108.00086959695606"><ele>1840.3333333333335</ele><time>2026-04-11T17:16:50.001Z</time></trkpt><trkpt lat="36.77603923606918" lon="-108.00094831307878"><ele>1841.0</ele><time>2026-04-11T17:16:51.001Z</time></trkpt><trkpt lat="36.77603678205849" lon="-108.00107059766559"><ele>1841.6666666666667</ele><time>2026-04-11T17:16:52.001Z</time></trkpt><trkpt lat="36.77610747843482" lon="-108.0011177712271"><ele>1842.3333333333335</ele><time>2026-04-11T17:16:54.001Z</time></trkpt><trkpt lat="36.77620885324062" lon="-108.0011602134218"><ele>1843.0</ele><time>2026-04-11T17:16:55.001Z</time></trkpt><trkpt lat="36.77630387537234" lon="-108.00122635790453"><ele>1843.0</ele><time>2026-04-11T17:16:56.001Z</time></trkpt><trkpt lat="36.776385181615" lon="-108.00128514934622"><ele>1843.0000000000002</ele><time>2026-04-11T17:16:57.001Z</time></trkpt><trkpt lat="36.77644713821844" lon="-108.00133290017989"><ele>1843.0000000000002</ele><time>2026-04-11T17:16:58.001Z</time></trkpt><trkpt lat="36.77648743857338" lon="-108.00144890948286"><ele>1843.0</ele><time>2026-04-11T17:16:59.001Z</time></trkpt><trkpt lat="36.77653758007117" lon="-108.00157380218577"><ele>1843.0</ele><time>2026-04-11T17:17:00.001Z</time></trkpt><trkpt lat="36.77659466699545" lon="-108.00164077103626"><ele>1842.8000000000002</ele><time>2026-04-11T17:17:01.001Z</time></trkpt><trkpt lat="36.7766748884246" lon="-108.00168953233012"><ele>1842.6000000000001</ele><time>2026-04-11T17:17:03.001Z</time></trkpt><trkpt lat="36.776734271513234" lon="-108.00175193677647"><ele>1842.3999999999999</ele><time>2026-04-11T17:17:18.001Z</time></trkpt><trkpt lat="36.77676591394112" lon="-108.00183478280755"><ele>1842.1999999999998</ele><time>2026-04-11T17:17:19.001Z</time></trkpt><trkpt lat="36.776789240591285" lon="-108.0019147292389"><ele>1842.0</ele><time>2026-04-11T17:17:20.001Z</time></trkpt><trkpt lat="36.77692157647447" lon="-108.00198712049203"><ele>1841.0</ele><time>2026-04-11T17:17:22.001Z</time></trkpt><trkpt lat="36.77702395412709" lon="-108.00200581650489"><ele>1840.0</ele><time>2026-04-11T17:17:23.001Z</time></trkpt><trkpt lat="36.77707915518633" lon="-108.00206771163688"><ele>1839.0</ele><time>2026-04-11T17:17:24.001Z</time></trkpt><trkpt lat="36.77713549424346" lon="-108.00214632668688"><ele>1838.0</ele><time>2026-04-11T17:17:25.001Z</time></trkpt><trkpt lat="36.777216011513694" lon="-108.00220649554919"><ele>1837.0</ele><time>2026-04-11T17:17:26.001Z</time></trkpt><trkpt lat="36.77729458456939" lon="-108.00224141477385"><ele>1836.0</ele><time>2026-04-11T17:17:27.001Z</time></trkpt><trkpt lat="36.77737537708136" lon="-108.00227683295024"><ele>1836.0</ele><time>2026-04-11T17:17:28.001Z</time></trkpt><trkpt lat="36.777439384168794" lon="-108.00234496746974"><ele>1836.0</ele><time>2026-04-11T17:17:29.001Z</time></trkpt><trkpt lat="36.777498289075396" lon="-108.00241107324575"><ele>1836.0</ele><time>2026-04-11T17:17:30.001Z</time></trkpt><trkpt lat="36.77757175968328" lon="-108.00248530649431"><ele>1836.0</ele><time>2026-04-11T17:17:31.001Z</time></trkpt><trkpt lat="36.77761798559686" lon="-108.00255211447302"><ele>1836.0</ele><time>2026-04-11T17:17:32.001Z</time></trkpt><trkpt lat="36.77769938609275" lon="-108.00267855973534"><ele>1834.3333333333333</ele><time>2026-04-11T17:17:34.001Z</time></trkpt><trkpt lat="36.77773964588677" lon="-108.00276152440829"><ele>1832.6666666666665</ele><time>2026-04-11T17:17:35.002Z</time></trkpt><trkpt lat="36.77779027830257" lon="-108.00285107017388"><ele>1831.0</ele><time>2026-04-11T17:17:36.002Z</time></trkpt><trkpt lat="36.77785057665289" lon="-108.00288477962219"><ele>1829.3333333333333</ele><time>2026-04-11T17:17:37.002Z</time></trkpt><trkpt lat="36.77791373458974" lon="-108.00290159323589"><ele>1827.6666666666665</ele><time>2026-04-11T17:17:38.002Z</time></trkpt><trkpt lat="36.77798117598654" lon="-108.00299051485592"><ele>1826.0</ele><time>2026-04-11T17:17:40.002Z</time></trkpt><trkpt lat="36.778007877865996" lon="-108.00310252534992"><ele>1826.0</ele><time>2026-04-11T17:17:41.002Z</time></trkpt><trkpt lat="36.77803651092191" lon="-108.00321904983619"><ele>1826.0</ele><time>2026-04-11T17:17:42.002Z</time></trkpt><trkpt lat="36.77804369518941" lon="-108.00338570149172"><ele>1826.0</ele><time>2026-04-11T17:17:44.002Z</time></trkpt><trkpt lat="36.77802568811103" lon="-108.00346544992671"><ele>1826.0</ele><time>2026-04-11T17:17:45Z</time></trkpt><trkpt lat="36.77804598955189" lon="-108.00355163956341"><ele>1826.0</ele><time>2026-04-11T17:17:46Z</time></trkpt><trkpt lat="36.778099086168886" lon="-108.0036849306391"><ele>1825.6</ele><time>2026-04-11T17:17:47Z</time></trkpt><trkpt lat="36.778140581188154" lon="-108.00381164747668"><ele>1825.1999999999998</ele><time>2026-04-11T17:17:48Z</time></trkpt><trkpt lat="36.77814076261345" lon="-108.00389481781653"><ele>1824.8000000000002</ele><time>2026-04-11T17:17:49Z</time></trkpt><trkpt lat="36.7781135164967" lon="-108.0040046301764"><ele>1824.4</ele><time>2026-04-11T17:17:50Z</time></trkpt><trkpt lat="36.77806861293996" lon="-108.00412945442169"><ele>1824.0</ele><time>2026-04-11T17:17:51Z</time></trkpt><trkpt lat="36.77801865935336" lon="-108.00422352676937"><ele>1823.2</ele><time>2026-04-11T17:17:52Z</time></trkpt><trkpt lat="36.77799225146571" lon="-108.00432654876315"><ele>1822.4</ele><time>2026-04-11T17:17:53Z</time></trkpt><trkpt lat="36.77808872839534" lon="-108.00447033198952"><ele>1821.6</ele><time>2026-04-11T17:17:55Z</time></trkpt><trkpt lat="36.77815390531023" lon="-108.00456775460712"><ele>1820.8</ele><time>2026-04-11T17:17:56Z</time></trkpt><trkpt lat="36.77819263389776" lon="-108.00466858401383"><ele>1820.0</ele><time>2026-04-11T17:17:57Z</time></trkpt><trkpt lat="36.7782181051782" lon="-108.00476657418119"><ele>1819.9999999999998</ele><time>2026-04-11T17:17:58Z</time></trkpt><trkpt lat="36.778245073937114" lon="-108.00486580616412"><ele>1820.0</ele><time>2026-04-11T17:17:59Z</time></trkpt><trkpt lat="36.778284123076524" lon="-108.00493058139935"><ele>1820.0</ele><time>2026-04-11T17:18:00Z</time></trkpt><trkpt lat="36.77841931335356" lon="-108.00493461748292"><ele>1820.0</ele><time>2026-04-11T17:18:02Z</time></trkpt><trkpt lat="36.77850841068756" lon="-108.0049589021402"><ele>1819.9999999999998</ele><time>2026-04-11T17:18:03Z</time></trkpt><trkpt lat="36.77857638896362" lon="-108.00499593505103"><ele>1820.0</ele><time>2026-04-11T17:18:04Z</time></trkpt><trkpt lat="36.77865378394909" lon="-108.0050505067418"><ele>1819.2</ele><time>2026-04-11T17:18:05Z</time></trkpt><trkpt lat="36.77873583875196" lon="-108.00511524336683"><ele>1818.4</ele><time>2026-04-11T17:18:06Z</time></trkpt><trkpt lat="36.778826001294775" lon="-108.00517606301888"><ele>1817.6</ele><time>2026-04-11T17:18:07Z</time></trkpt><trkpt lat="36.77890373612891" lon="-108.00524513927117"><ele>1816.8</ele><time>2026-04-11T17:18:08Z</time></trkpt><trkpt lat="36.77895190970277" lon="-108.00535005753487"><ele>1816.0</ele><time>2026-04-11T17:18:09Z</time></trkpt><trkpt lat="36.77896833268614" lon="-108.00546304583632"><ele>1816.0</ele><time>2026-04-11T17:18:10Z</time></trkpt><trkpt lat="36.779014837913415" lon="-108.00554939770684"><ele>1816.0</ele><time>2026-04-11T17:18:12Z</time></trkpt><trkpt lat="36.77910661012094" lon="-108.0055748649228"><ele>1816.0</ele><time>2026-04-11T17:18:13Z</time></trkpt><trkpt lat="36.77920694973794" lon="-108.005594326556"><ele>1816.0</ele><time>2026-04-11T17:18:14Z</time></trkpt><trkpt lat="36.77927173231131" lon="-108.00575483851269"><ele>1816.0</ele><time>2026-04-11T17:18:16Z</time></trkpt><trkpt lat="36.77932262803481" lon="-108.00585896240108"><ele>1815.8</ele><time>2026-04-11T17:18:17Z</time></trkpt><trkpt lat="36.77937980702036" lon="-108.00596452709539"><ele>1815.6</ele><time>2026-04-11T17:18:18Z</time></trkpt><trkpt lat="36.77941404667362" lon="-108.00603536942191"><ele>1815.4</ele><time>2026-04-11T17:18:19Z</time></trkpt><trkpt lat="36.7794044808966" lon="-108.00621138469089"><ele>1815.2</ele><time>2026-04-11T17:18:21.001Z</time></trkpt><trkpt lat="36.77940806511609" lon="-108.00630758141543"><ele>1815.0</ele><time>2026-04-11T17:18:22.001Z</time></trkpt><trkpt lat="36.779475750590755" lon="-108.00637499794368"><ele>1815.0</ele><time>2026-04-11T17:18:23.001Z</time></trkpt><trkpt lat="36.77955088961782" lon="-108.00649306953294"><ele>1815.0</ele><time>2026-04-11T17:18:24.001Z</time></trkpt><trkpt lat="36.77958532656533" lon="-108.00659397410135"><ele>1815.0</ele><time>2026-04-11T17:18:25.001Z</time></trkpt><trkpt lat="36.77958964852563" lon="-108.00670079341117"><ele>1815.0</ele><time>2026-04-11T17:18:26.001Z</time></trkpt><trkpt lat="36.77969439553914" lon="-108.00680483512852"><ele>1815.0</ele><time>2026-04-11T17:18:28.001Z</time></trkpt><trkpt lat="36.77978567035015" lon="-108.00686631191033"><ele>1815.3333333333333</ele><time>2026-04-11T17:18:29.001Z</time></trkpt><trkpt lat="36.77985740336213" lon="-108.00692178711375"><ele>1815.6666666666665</ele><time>2026-04-11T17:18:30.001Z</time></trkpt><trkpt lat="36.779970952242394" lon="-108.00700937841104"><ele>1816.0</ele><time>2026-04-11T17:18:32.001Z</time></trkpt><trkpt lat="36.78001224447307" lon="-108.00707299349435"><ele>1816.3333333333333</ele><time>2026-04-11T17:18:33.001Z</time></trkpt><trkpt lat="36.780037652132044" lon="-108.00715160609968"><ele>1816.6666666666665</ele><time>2026-04-11T17:18:34.001Z</time></trkpt><trkpt lat="36.78006182449609" lon="-108.00724542455008"><ele>1817.0</ele><time>2026-04-11T17:18:35.001Z</time></trkpt><trkpt lat="36.780113855898094" lon="-108.00735380423917"><ele>1816.9999999999998</ele><time>2026-04-11T17:18:36.001Z</time></trkpt><trkpt lat="36.7801577639362" lon="-108.00743487040438"><ele>1817.0</ele><time>2026-04-11T17:18:37.001Z</time></trkpt><trkpt lat="36.78023298562486" lon="-108.00749852699897"><ele>1817.0</ele><time>2026-04-11T17:18:39.001Z</time></trkpt><trkpt lat="36.78032999820897" lon="-108.0075060426496"><ele>1817.0</ele><time>2026-04-11T17:18:40.001Z</time></trkpt><trkpt lat="36.78042608838413" lon="-108.0075042922508"><ele>1816.9999999999998</ele><time>2026-04-11T17:18:41.001Z</time></trkpt><trkpt lat="36.78050005785478" lon="-108.00749379849195"><ele>1817.0</ele><time>2026-04-11T17:18:42.001Z</time></trkpt><trkpt lat="36.780590582043864" lon="-108.00746468533673"><ele>1816.1999999999998</ele><time>2026-04-11T17:18:43.001Z</time></trkpt><trkpt lat="36.7806845883403" lon="-108.00741854680011"><ele>1815.3999999999999</ele><time>2026-04-11T17:18:44.001Z</time></trkpt><trkpt lat="36.780768553063275" lon="-108.00738260985185"><ele>1814.6000000000001</ele><time>2026-04-11T17:18:45.001Z</time></trkpt><trkpt lat="36.78088166309749" lon="-108.00730909678198"><ele>1813.8000000000002</ele><time>2026-04-11T17:18:47.001Z</time></trkpt><trkpt lat="36.78095844608143" lon="-108.00730846588154"><ele>1813.0</ele><time>2026-04-11T17:18:48.001Z</time></trkpt><trkpt lat="36.78103485495585" lon="-108.00732542930974"><ele>1812.3333333333335</ele><time>2026-04-11T17:18:49.001Z</time></trkpt><trkpt lat="36.78109801929964" lon="-108.00731774965207"><ele>1811.6666666666667</ele><time>2026-04-11T17:18:50.001Z</time></trkpt><trkpt lat="36.78117572497588" lon="-108.00728725312729"><ele>1811.0</ele><time>2026-04-11T17:18:51.001Z</time></trkpt><trkpt lat="36.78126561063306" lon="-108.00729914122714"><ele>1810.3333333333335</ele><time>2026-04-11T17:18:52.001Z</time></trkpt><trkpt lat="36.78134281289247" lon="-108.00731704779234"><ele>1809.6666666666667</ele><time>2026-04-11T17:18:53.001Z</time></trkpt><trkpt lat="36.781405460878844" lon="-108.00733770880308"><ele>1809.0</ele><time>2026-04-11T17:18:54.001Z</time></trkpt><trkpt lat="36.78153573679173" lon="-108.00730835499725"><ele>1809.0</ele><time>2026-04-11T17:18:56.001Z</time></trkpt><trkpt lat="36.78163308743303" lon="-108.00733419887102"><ele>1809.0</ele><time>2026-04-11T17:18:57.001Z</time></trkpt><trkpt lat="36.781719580484754" lon="-108.0073631487599"><ele>1809.0</ele><time>2026-04-11T17:18:58.001Z</time></trkpt><trkpt lat="36.78179356970717" lon="-108.00737795775223"><ele>1809.0</ele><time>2026-04-11T17:18:59.001Z</time></trkpt><trkpt lat="36.78186287924242" lon="-108.0073739934723"><ele>1809.0</ele><time>2026-04-11T17:19:00.001Z</time></trkpt><trkpt lat="36.78198829195408" lon="-108.007377735332"><ele>1808.0</ele><time>2026-04-11T17:19:02.001Z</time></trkpt><trkpt lat="36.78205202529374" lon="-108.00738827419009"><ele>1807.0</ele><time>2026-04-11T17:19:03.001Z</time></trkpt><trkpt lat="36.78211893831693" lon="-108.0074158300133"><ele>1806.0</ele><time>2026-04-11T17:19:04.001Z</time></trkpt><trkpt lat="36.78221074616036" lon="-108.00744132233076"><ele>1805.0</ele><time>2026-04-11T17:19:06.001Z</time></trkpt><trkpt lat="36.78228272047885" lon="-108.00739715891302"><ele>1804.0</ele><time>2026-04-11T17:19:07.001Z</time></trkpt><trkpt lat="36.78238077929703" lon="-108.00733191769118"><ele>1803.0</ele><time>2026-04-11T17:19:08.001Z</time></trkpt><trkpt lat="36.78246192267729" lon="-108.00728258797439"><ele>1803.0</ele><time>2026-04-11T17:19:09.001Z</time></trkpt><trkpt lat="36.78254575733445" lon="-108.00718345654167"><ele>1803.0000000000002</ele><time>2026-04-11T17:19:11.001Z</time></trkpt><trkpt lat="36.78260050976697" lon="-108.0071128533325"><ele>1803.0000000000002</ele><time>2026-04-11T17:19:12.001Z</time></trkpt><trkpt lat="36.782652572684576" lon="-108.00704922205203"><ele>1803.0</ele><time>2026-04-11T17:19:13.001Z</time></trkpt><trkpt lat="36.78276568287262" lon="-108.00699125235334"><ele>1803.0</ele><time>2026-04-11T17:19:15.001Z</time></trkpt><trkpt lat="36.78284396456676" lon="-108.00697842650857"><ele>1800.5</ele><time>2026-04-11T17:19:16.001Z</time></trkpt><trkpt lat="36.78295009068534" lon="-108.00694795482568"><ele>1798.0</ele><time>2026-04-11T17:19:18.001Z</time></trkpt><trkpt lat="36.78306122317146" lon="-108.00704962661929"><ele>1795.5</ele><time>2026-04-11T17:19:20.001Z</time></trkpt><trkpt lat="36.783161832138646" lon="-108.00717889027406"><ele>1793.0</ele><time>2026-04-11T17:19:21.001Z</time></trkpt><trkpt lat="36.78325484163542" lon="-108.00729038001538"><ele>1793.0</ele><time>2026-04-11T17:19:22.001Z</time></trkpt><trkpt lat="36.78332367513365" lon="-108.00735214247851"><ele>1793.0</ele><time>2026-04-11T17:19:23.001Z</time></trkpt><trkpt lat="36.783401753816655" lon="-108.00740939249717"><ele>1793.0</ele><time>2026-04-11T17:19:24.001Z</time></trkpt><trkpt lat="36.78350521834622" lon="-108.00747221364374"><ele>1793.0</ele><time>2026-04-11T17:19:25.001Z</time></trkpt><trkpt lat="36.78365505196336" lon="-108.00754846995221"><ele>1791.75</ele><time>2026-04-11T17:19:26.001Z</time></trkpt><trkpt lat="36.78379882839251" lon="-108.00761682480578"><ele>1790.5</ele><time>2026-04-11T17:19:27.001Z</time></trkpt><trkpt lat="36.78391082322123" lon="-108.00767140709718"><ele>1789.25</ele><time>2026-04-11T17:19:28.001Z</time></trkpt><trkpt lat="36.78399940832585" lon="-108.00772055059902"><ele>1788.0</ele><time>2026-04-11T17:19:29.001Z</time></trkpt><trkpt lat="36.78407629727022" lon="-108.00778028026257"><ele>1788.0</ele><time>2026-04-11T17:19:30.001Z</time></trkpt><trkpt lat="36.78415475165746" lon="-108.00786689191574"><ele>1788.0000000000002</ele><time>2026-04-11T17:19:31.001Z</time></trkpt><trkpt lat="36.78423163801393" lon="-108.00795420211965"><ele>1788.0000000000002</ele><time>2026-04-11T17:19:32.001Z</time></trkpt><trkpt lat="36.78432182738653" lon="-108.00802961394706"><ele>1788.0</ele><time>2026-04-11T17:19:33.001Z</time></trkpt><trkpt lat="36.784383947064015" lon="-108.00809613740584"><ele>1788.0</ele><time>2026-04-11T17:19:34.001Z</time></trkpt><trkpt lat="36.78443767551497" lon="-108.00816207805833"><ele>1787.3333333333333</ele><time>2026-04-11T17:19:35.001Z</time></trkpt><trkpt lat="36.78449625352659" lon="-108.00820978059589"><ele>1786.6666666666665</ele><time>2026-04-11T17:19:36.001Z</time></trkpt><trkpt lat="36.78457707607237" lon="-108.00822095403578"><ele>1786.0</ele><time>2026-04-11T17:19:37.001Z</time></trkpt><trkpt lat="36.784654693225875" lon="-108.0082306348927"><ele>1785.3333333333333</ele><time>2026-04-11T17:19:38.001Z</time></trkpt><trkpt lat="36.78474337876982" lon="-108.00824822627426"><ele>1784.6666666666665</ele><time>2026-04-11T17:19:39.001Z</time></trkpt><trkpt lat="36.784822557367534" lon="-108.008295704984"><ele>1784.0</ele><time>2026-04-11T17:19:40.002Z</time></trkpt><trkpt lat="36.78488760944625" lon="-108.0083447380956"><ele>1783.5</ele><time>2026-04-11T17:19:41.002Z</time></trkpt><trkpt lat="36.78499184452165" lon="-108.00837011728973"><ele>1783.0</ele><time>2026-04-11T17:19:42.002Z</time></trkpt><trkpt lat="36.785122293708675" lon="-108.00836766799944"><ele>1782.5</ele><time>2026-04-11T17:19:43.002Z</time></trkpt><trkpt lat="36.78524503916281" lon="-108.0083354884315"><ele>1782.0</ele><time>2026-04-11T17:19:44.002Z</time></trkpt><trkpt lat="36.78536395090371" lon="-108.00829456320787"><ele>1782.0</ele><time>2026-04-11T17:19:45.002Z</time></trkpt><trkpt lat="36.78549379957411" lon="-108.00825332703494"><ele>1782.0</ele><time>2026-04-11T17:19:46.002Z</time></trkpt><trkpt lat="36.78562444082871" lon="-108.00823506855252"><ele>1782.0</ele><time>2026-04-11T17:19:47.002Z</time></trkpt><trkpt lat="36.78576682627787" lon="-108.00822762959287"><ele>1782.0</ele><time>2026-04-11T17:19:48.002Z</time></trkpt><trkpt lat="36.78589704363411" lon="-108.00822369759095"><ele>1782.0</ele><time>2026-04-11T17:19:49.002Z</time></trkpt><trkpt lat="36.785984102758434" lon="-108.00821432523787"><ele>1781.9999999999998</ele><time>2026-04-11T17:19:50.002Z</time></trkpt><trkpt lat="36.7861091584393" lon="-108.00812044269597"><ele>1781.9999999999998</ele><time>2026-04-11T17:19:52Z</time></trkpt><trkpt lat="36.78616214812442" lon="-108.00803775330591"><ele>1782.0</ele><time>2026-04-11T17:19:53Z</time></trkpt><trkpt lat="36.78620777990838" lon="-108.00793154163689"><ele>1782.0</ele><time>2026-04-11T17:19:54Z</time></trkpt><trkpt lat="36.78623530630653" lon="-108.00782323136681"><ele>1781.3999999999999</ele><time>2026-04-11T17:19:55Z</time></trkpt><trkpt lat="36.78628360225233" lon="-108.00774328912179"><ele>1780.7999999999997</ele><time>2026-04-11T17:19:56Z</time></trkpt><trkpt lat="36.78635887042078" lon="-108.00769300162423"><ele>1780.2</ele><time>2026-04-11T17:19:58Z</time></trkpt><trkpt lat="36.786501609029926" lon="-108.00776921462742"><ele>1779.6</ele><time>2026-04-11T17:20:00Z</time></trkpt><trkpt lat="36.78661826467865" lon="-108.0078326223587"><ele>1779.0</ele><time>2026-04-11T17:20:01Z</time></trkpt><trkpt lat="36.78674115013631" lon="-108.00788903448404"><ele>1779.0</ele><time>2026-04-11T17:20:02Z</time></trkpt><trkpt lat="36.78683688487456" lon="-108.0079583778991"><ele>1779.0</ele><time>2026-04-11T17:20:03Z</time></trkpt><trkpt lat="36.78691978500207" lon="-108.00805196158632"><ele>1779.0</ele><time>2026-04-11T17:20:04Z</time></trkpt><trkpt lat="36.787004258138445" lon="-108.00813575895141"><ele>1779.0</ele><time>2026-04-11T17:20:05Z</time></trkpt><trkpt lat="36.7870868480403" lon="-108.00818694304411"><ele>1779.0</ele><time>2026-04-11T17:20:06Z</time></trkpt><trkpt lat="36.78719580330396" lon="-108.00823870988714"><ele>1778.8000000000002</ele><time>2026-04-11T17:20:07Z</time></trkpt><trkpt lat="36.787336148091306" lon="-108.00830733136692"><ele>1778.6000000000001</ele><time>2026-04-11T17:20:08Z</time></trkpt><trkpt lat="36.78743537789909" lon="-108.00834123382295"><ele>1778.4</ele><time>2026-04-11T17:20:09Z</time></trkpt><trkpt lat="36.787505783544084" lon="-108.00836662279463"><ele>1778.2</ele><time>2026-04-11T17:20:10Z</time></trkpt><trkpt lat="36.78757481223809" lon="-108.00840250859163"><ele>1778.0</ele><time>2026-04-11T17:20:11Z</time></trkpt><trkpt lat="36.787664258538975" lon="-108.00844459549096"><ele>1777.4</ele><time>2026-04-11T17:20:12Z</time></trkpt><trkpt lat="36.78774006530978" lon="-108.00851815136717"><ele>1776.8000000000002</ele><time>2026-04-11T17:20:13Z</time></trkpt><trkpt lat="36.787781528467434" lon="-108.008612829309"><ele>1776.2</ele><time>2026-04-11T17:20:14Z</time></trkpt><trkpt lat="36.787815974347524" lon="-108.00872856677216"><ele>1775.6</ele><time>2026-04-11T17:20:15Z</time></trkpt><trkpt lat="36.78785376505391" lon="-108.00882224769127"><ele>1775.0</ele><time>2026-04-11T17:20:16Z</time></trkpt><trkpt lat="36.78776923686239" lon="-108.00892569586725"><ele>1774.9999999999998</ele><time>2026-04-11T17:20:19Z</time></trkpt><trkpt lat="36.7877242301211" lon="-108.00898493044436"><ele>1775.0</ele><time>2026-04-11T17:20:20Z</time></trkpt><trkpt lat="36.78771780974833" lon="-108.0090791833066"><ele>1775.0</ele><time>2026-04-11T17:20:22Z</time></trkpt><trkpt lat="36.787732203849444" lon="-108.00917531710257"><ele>1775.0</ele><time>2026-04-11T17:20:23Z</time></trkpt><trkpt lat="36.787734925202635" lon="-108.00928814679386"><ele>1774.9999999999998</ele><time>2026-04-11T17:20:24Z</time></trkpt><trkpt lat="36.78772684893604" lon="-108.00942430475287"><ele>1775.0</ele><time>2026-04-11T17:20:25Z</time></trkpt><trkpt lat="36.78771792352317" lon="-108.00957147410288"><ele>1775.4</ele><time>2026-04-11T17:20:26Z</time></trkpt><trkpt lat="36.78770959493938" lon="-108.00969724061947"><ele>1775.8</ele><time>2026-04-11T17:20:27.001Z</time></trkpt><trkpt lat="36.78770870849331" lon="-108.00979833620467"><ele>1776.1999999999998</ele><time>2026-04-11T17:20:28.001Z</time></trkpt><trkpt lat="36.78772404836221" lon="-108.0098781260796"><ele>1776.6</ele><time>2026-04-11T17:20:29.001Z</time></trkpt><trkpt lat="36.78775488651552" lon="-108.00997798206681"><ele>1777.0</ele><time>2026-04-11T17:20:31.001Z</time></trkpt><trkpt lat="36.78784980841591" lon="-108.0100664743408"><ele>1777.0</ele><time>2026-04-11T17:20:33.001Z</time></trkpt><trkpt lat="36.78788637374354" lon="-108.01014459542834"><ele>1776.9999999999998</ele><time>2026-04-11T17:20:34.001Z</time></trkpt><trkpt lat="36.78793186868649" lon="-108.01026279410353"><ele>1776.9999999999998</ele><time>2026-04-11T17:20:36.001Z</time></trkpt><trkpt lat="36.788015359638415" lon="-108.01038409417306"><ele>1777.0</ele><time>2026-04-11T17:20:38.001Z</time></trkpt><trkpt lat="36.788017866388635" lon="-108.01053374490621"><ele>1777.0</ele><time>2026-04-11T17:20:40.001Z</time></trkpt><trkpt lat="36.78800360342875" lon="-108.01065546185224"><ele>1777.0000000000002</ele><time>2026-04-11T17:20:41.001Z</time></trkpt><trkpt lat="36.78801859833462" lon="-108.01074072578392"><ele>1777.0</ele><time>2026-04-11T17:20:42.001Z</time></trkpt><trkpt lat="36.78804570691719" lon="-108.01083548713224"><ele>1777.0</ele><time>2026-04-11T17:20:43.001Z</time></trkpt><trkpt lat="36.78808122261287" lon="-108.01094115323882"><ele>1777.0</ele><time>2026-04-11T17:20:44.001Z</time></trkpt><trkpt lat="36.78810245512014" lon="-108.01102475086351"><ele>1777.0000000000002</ele><time>2026-04-11T17:20:45.001Z</time></trkpt><trkpt lat="36.78810683954665" lon="-108.01111911331138"><ele>1777.0</ele><time>2026-04-11T17:20:46.001Z</time></trkpt><trkpt lat="36.78814634450224" lon="-108.01124444138631"><ele>1776.8</ele><time>2026-04-11T17:20:48.001Z</time></trkpt><trkpt lat="36.788258703765166" lon="-108.0113413868505"><ele>1776.6</ele><time>2026-04-11T17:20:50.001Z</time></trkpt><trkpt lat="36.78833298579934" lon="-108.01141676711165"><ele>1776.3999999999999</ele><time>2026-04-11T17:20:51.001Z</time></trkpt><trkpt lat="36.788391628749025" lon="-108.01149418383385"><ele>1776.1999999999998</ele><time>2026-04-11T17:20:52.001Z</time></trkpt><trkpt lat="36.78843716578251" lon="-108.01158343695096"><ele>1776.0</ele><time>2026-04-11T17:20:55.001Z</time></trkpt><trkpt lat="36.788494045971156" lon="-108.01163410293465"><ele>1775.6</ele><time>2026-04-11T17:20:56.001Z</time></trkpt><trkpt lat="36.788553892310546" lon="-108.01170692916297"><ele>1775.1999999999998</ele><time>2026-04-11T17:20:57.001Z</time></trkpt><trkpt lat="36.788619851767265" lon="-108.01180392915337"><ele>1774.8000000000002</ele><time>2026-04-11T17:20:58.001Z</time></trkpt><trkpt lat="36.78868297678351" lon="-108.01188833190552"><ele>1774.4</ele><time>2026-04-11T17:20:59.001Z</time></trkpt><trkpt lat="36.78871504651545" lon="-108.01201057885076"><ele>1774.0</ele><time>2026-04-11T17:21:01.001Z</time></trkpt><trkpt lat="36.7887230996871" lon="-108.01212728125648"><ele>1774.0</ele><time>2026-04-11T17:21:03.001Z</time></trkpt><trkpt lat="36.788866748985534" lon="-108.01222566209822"><ele>1774.0</ele><time>2026-04-11T17:21:06.001Z</time></trkpt><trkpt lat="36.788975627942634" lon="-108.01234157011966"><ele>1774.0</ele><time>2026-04-11T17:21:08.001Z</time></trkpt><trkpt lat="36.789022399638775" lon="-108.01242891566984"><ele>1774.0</ele><time>2026-04-11T17:21:09.001Z</time></trkpt><trkpt lat="36.78907994335277" lon="-108.01256368986134"><ele>1774.1666666666667</ele><time>2026-04-11T17:21:11.001Z</time></trkpt><trkpt lat="36.789133181147065" lon="-108.01261117318278"><ele>1774.3333333333335</ele><time>2026-04-11T17:21:12.001Z</time></trkpt><trkpt lat="36.78918934857797" lon="-108.01267711156794"><ele>1774.5</ele><time>2026-04-11T17:21:13.001Z</time></trkpt><trkpt lat="36.789235077772005" lon="-108.01274986839081"><ele>1774.6666666666665</ele><time>2026-04-11T17:21:14.001Z</time></trkpt><trkpt lat="36.78928929272239" lon="-108.01282927329463"><ele>1774.8333333333333</ele><time>2026-04-11T17:21:15.001Z</time></trkpt><trkpt lat="36.78937632676197" lon="-108.01295577349958"><ele>1775.0</ele><time>2026-04-11T17:21:16.001Z</time></trkpt><trkpt lat="36.789447880245774" lon="-108.01308376374334"><ele>1774.857142857143</ele><time>2026-04-11T17:21:17.001Z</time></trkpt><trkpt lat="36.78949292920103" lon="-108.01316834792445"><ele>1774.7142857142858</ele><time>2026-04-11T17:21:18.001Z</time></trkpt><trkpt lat="36.7895280283306" lon="-108.01324498543876"><ele>1774.5714285714284</ele><time>2026-04-11T17:21:19.001Z</time></trkpt><trkpt lat="36.78954600802294" lon="-108.01332993367653"><ele>1774.4285714285716</ele><time>2026-04-11T17:21:20.001Z</time></trkpt><trkpt lat="36.789548115634446" lon="-108.01341836197071"><ele>1774.2857142857142</ele><time>2026-04-11T17:21:21.001Z</time></trkpt><trkpt lat="36.78958083061379" lon="-108.01350447895793"><ele>1774.142857142857</ele><time>2026-04-11T17:21:22.001Z</time></trkpt><trkpt lat="36.789642955817" lon="-108.01356206239497"><ele>1774.0</ele><time>2026-04-11T17:21:23.001Z</time></trkpt><trkpt lat="36.78971449684559" lon="-108.01362732317133"><ele>1774.0</ele><time>2026-04-11T17:21:24.001Z</time></trkpt><trkpt lat="36.78980800038777" lon="-108.01373363432714"><ele>1774.0</ele><time>2026-04-11T17:21:25.001Z</time></trkpt><trkpt lat="36.78988804595663" lon="-108.01382849824179"><ele>1774.0</ele><time>2026-04-11T17:21:26.001Z</time></trkpt><trkpt lat="36.78995494036108" lon="-108.01391780378317"><ele>1774.0</ele><time>2026-04-11T17:21:27.001Z</time></trkpt><trkpt lat="36.78998425705214" lon="-108.01399998685208"><ele>1774.0</ele><time>2026-04-11T17:21:28.001Z</time></trkpt><trkpt lat="36.79002765503582" lon="-108.01409606782991"><ele>1774.3333333333335</ele><time>2026-04-11T17:21:29.001Z</time></trkpt><trkpt lat="36.79008533762114" lon="-108.01416268444223"><ele>1774.6666666666667</ele><time>2026-04-11T17:21:30.001Z</time></trkpt><trkpt lat="36.790141852765544" lon="-108.01420696194197"><ele>1775.0</ele><time>2026-04-11T17:21:31.001Z</time></trkpt><trkpt lat="36.79020427876816" lon="-108.01425561614333"><ele>1775.3333333333335</ele><time>2026-04-11T17:21:32.001Z</time></trkpt><trkpt lat="36.79027479495613" lon="-108.01432539257853"><ele>1775.6666666666667</ele><time>2026-04-11T17:21:33.001Z</time></trkpt><trkpt lat="36.79036051921969" lon="-108.01440712562611"><ele>1776.0</ele><time>2026-04-11T17:21:34.001Z</time></trkpt><trkpt lat="36.7904300780303" lon="-108.01447442634034"><ele>1774.75</ele><time>2026-04-11T17:21:35.001Z</time></trkpt><trkpt lat="36.79054642251462" lon="-108.01453333702068"><ele>1773.5</ele><time>2026-04-11T17:21:37.001Z</time></trkpt><trkpt lat="36.790642837247525" lon="-108.01460819308737"><ele>1772.25</ele><time>2026-04-11T17:21:38.001Z</time></trkpt><trkpt lat="36.79075070392565" lon="-108.01472339028884"><ele>1771.0</ele><time>2026-04-11T17:21:39.001Z</time></trkpt><trkpt lat="36.790853995430744" lon="-108.01483753090886"><ele>1771.0</ele><time>2026-04-11T17:21:40.001Z</time></trkpt><trkpt lat="36.7909021265122" lon="-108.01490110017018"><ele>1771.0</ele><time>2026-04-11T17:21:41.001Z</time></trkpt><trkpt lat="36.79095003214124" lon="-108.01498154863933"><ele>1771.0</ele><time>2026-04-11T17:21:42.001Z</time></trkpt><trkpt lat="36.790993507996745" lon="-108.01509659519503"><ele>1771.0</ele><time>2026-04-11T17:21:43.001Z</time></trkpt><trkpt lat="36.79101277811696" lon="-108.01520551463385"><ele>1771.0</ele><time>2026-04-11T17:21:44.001Z</time></trkpt><trkpt lat="36.7911044171857" lon="-108.01530064167129"><ele>1771.1999999999998</ele><time>2026-04-11T17:21:46.001Z</time></trkpt><trkpt lat="36.79119820565775" lon="-108.01538824655786"><ele>1771.3999999999999</ele><time>2026-04-11T17:21:47.002Z</time></trkpt><trkpt lat="36.79127289196357" lon="-108.0154825228088"><ele>1771.6</ele><time>2026-04-11T17:21:48.002Z</time></trkpt><trkpt lat="36.79130302009388" lon="-108.01556947319787"><ele>1771.8</ele><time>2026-04-11T17:21:49.002Z</time></trkpt><trkpt lat="36.7913284031101" lon="-108.0156678988002"><ele>1772.0</ele><time>2026-04-11T17:21:50.002Z</time></trkpt><trkpt lat="36.79136076894525" lon="-108.01577645974834"><ele>1772.0</ele><time>2026-04-11T17:21:52.002Z</time></trkpt><trkpt lat="36.791431560519534" lon="-108.01581576965764"><ele>1772.0</ele><time>2026-04-11T17:21:53.002Z</time></trkpt><trkpt lat="36.7914878541377" lon="-108.0159018027741"><ele>1772.0</ele><time>2026-04-11T17:21:54.002Z</time></trkpt><trkpt lat="36.79142644653083" lon="-108.01608321758698"><ele>1772.0</ele><time>2026-04-11T17:21:56.002Z</time></trkpt><trkpt lat="36.79139782046792" lon="-108.01625308209275"><ele>1772.75</ele><time>2026-04-11T17:21:57Z</time></trkpt><trkpt lat="36.79135697402506" lon="-108.01641516598097"><ele>1773.5</ele><time>2026-04-11T17:21:58Z</time></trkpt><trkpt lat="36.791335750116446" lon="-108.01651932816021"><ele>1774.25</ele><time>2026-04-11T17:21:59Z</time></trkpt><trkpt lat="36.791351635395905" lon="-108.01666976473241"><ele>1775.0</ele><time>2026-04-11T17:22:00Z</time></trkpt><trkpt lat="36.791360576836475" lon="-108.01685516579167"><ele>1775.2</ele><time>2026-04-11T17:22:01Z</time></trkpt><trkpt lat="36.79137361642102" lon="-108.01702954399613"><ele>1775.4</ele><time>2026-04-11T17:22:02Z</time></trkpt><trkpt lat="36.79145474806849" lon="-108.01704976767692"><ele>1775.6</ele><time>2026-04-11T17:22:04Z</time></trkpt><trkpt lat="36.79155269864756" lon="-108.01709784081042"><ele>1775.8</ele><time>2026-04-11T17:22:05Z</time></trkpt><trkpt lat="36.79166684534963" lon="-108.0171280156351"><ele>1776.0</ele><time>2026-04-11T17:22:06Z</time></trkpt><trkpt lat="36.79173005103136" lon="-108.01712743892179"><ele>1776.0</ele><time>2026-04-11T17:22:07Z</time></trkpt><trkpt lat="36.79181351032935" lon="-108.01714212079223"><ele>1776.0</ele><time>2026-04-11T17:22:08Z</time></trkpt><trkpt lat="36.79190785745851" lon="-108.01715521572596"><ele>1776.0</ele><time>2026-04-11T17:22:09Z</time></trkpt><trkpt lat="36.79198761574966" lon="-108.01714453276661"><ele>1776.0</ele><time>2026-04-11T17:22:10Z</time></trkpt><trkpt lat="36.79209816102258" lon="-108.01714508772396"><ele>1776.0</ele><time>2026-04-11T17:22:11Z</time></trkpt><trkpt lat="36.79219440346848" lon="-108.01715048928793"><ele>1774.6666666666667</ele><time>2026-04-11T17:22:12Z</time></trkpt><trkpt lat="36.79227048829867" lon="-108.01714947082897"><ele>1773.3333333333335</ele><time>2026-04-11T17:22:13Z</time></trkpt><trkpt lat="36.79234151371601" lon="-108.01715110698666"><ele>1772.0</ele><time>2026-04-11T17:22:14Z</time></trkpt><trkpt lat="36.79242043042049" lon="-108.01715778715548"><ele>1770.6666666666667</ele><time>2026-04-11T17:22:15Z</time></trkpt><trkpt lat="36.792489546217965" lon="-108.01718020301603"><ele>1769.3333333333335</ele><time>2026-04-11T17:22:16Z</time></trkpt><trkpt lat="36.79258166395966" lon="-108.0172181653657"><ele>1768.0</ele><time>2026-04-11T17:22:17Z</time></trkpt><trkpt lat="36.79266554506265" lon="-108.01723127933897"><ele>1767.0</ele><time>2026-04-11T17:22:18Z</time></trkpt><trkpt lat="36.792751120959004" lon="-108.01723002889018"><ele>1766.0000000000002</ele><time>2026-04-11T17:22:19Z</time></trkpt><trkpt lat="36.792848587554865" lon="-108.01723527507347"><ele>1765.0000000000002</ele><time>2026-04-11T17:22:20Z</time></trkpt><trkpt lat="36.79296893921306" lon="-108.01724651351087"><ele>1764.0</ele><time>2026-04-11T17:22:21Z</time></trkpt><trkpt lat="36.79308188047428" lon="-108.01728629799132"><ele>1763.0</ele><time>2026-04-11T17:22:22Z</time></trkpt><trkpt lat="36.79323317044702" lon="-108.01732745850784"><ele>1763.0</ele><time>2026-04-11T17:22:23Z</time></trkpt><trkpt lat="36.79332839381124" lon="-108.0173596687454"><ele>1763.0000000000002</ele><time>2026-04-11T17:22:24Z</time></trkpt><trkpt lat="36.79339159296884" lon="-108.01739399194597"><ele>1763.0000000000002</ele><time>2026-04-11T17:22:25Z</time></trkpt><trkpt lat="36.79346471417507" lon="-108.01744548548474"><ele>1763.0</ele><time>2026-04-11T17:22:26Z</time></trkpt><trkpt lat="36.79357761786525" lon="-108.01751695627092"><ele>1763.0</ele><time>2026-04-11T17:22:27Z</time></trkpt><trkpt lat="36.79368719409242" lon="-108.01756456679585"><ele>1762.3333333333333</ele><time>2026-04-11T17:22:28Z</time></trkpt><trkpt lat="36.79376118821589" lon="-108.01758869434292"><ele>1761.6666666666665</ele><time>2026-04-11T17:22:29Z</time></trkpt><trkpt lat="36.79387849896102" lon="-108.0175905968469"><ele>1761.0</ele><time>2026-04-11T17:22:31Z</time></trkpt><trkpt lat="36.793966532992904" lon="-108.0175400377226"><ele>1760.3333333333335</ele><time>2026-04-11T17:22:33Z</time></trkpt><trkpt lat="36.79403726915298" lon="-108.01757268443886"><ele>1759.6666666666667</ele><time>2026-04-11T17:22:35Z</time></trkpt><trkpt lat="36.794085774274144" lon="-108.01763965487788"><ele>1759.0</ele><time>2026-04-11T17:25:21.001Z</time></trkpt><trkpt lat="36.79413906442363" lon="-108.017698363947"><ele>1759.0</ele><time>2026-04-11T17:25:23.001Z</time></trkpt><trkpt lat="36.79421024521454" lon="-108.01776335380777"><ele>1759.0</ele><time>2026-04-11T17:25:25.001Z</time></trkpt><trkpt lat="36.794318387869446" lon="-108.01770878032411"><ele>1759.0</ele><time>2026-04-11T17:25:27.001Z</time></trkpt><trkpt lat="36.79438541338605" lon="-108.01763046697029"><ele>1759.0</ele><time>2026-04-11T17:25:28.001Z</time></trkpt><trkpt lat="36.79442741347018" lon="-108.01753915760392"><ele>1759.0</ele><time>2026-04-11T17:25:29.001Z</time></trkpt><trkpt lat="36.79445680385425" lon="-108.01743482601951"><ele>1756.8000000000002</ele><time>2026-04-11T17:25:30.001Z</time></trkpt><trkpt lat="36.7944902490118" lon="-108.01734693849342"><ele>1754.6000000000001</ele><time>2026-04-11T17:25:31.001Z</time></trkpt><trkpt lat="36.79454985378623" lon="-108.0172653162062"><ele>1752.4</ele><time>2026-04-11T17:25:32.001Z</time></trkpt><trkpt lat="36.79462666619867" lon="-108.01715598006822"><ele>1750.2</ele><time>2026-04-11T17:25:33.001Z</time></trkpt><trkpt lat="36.79469594083433" lon="-108.01702912477191"><ele>1748.0</ele><time>2026-04-11T17:25:34.001Z</time></trkpt><trkpt lat="36.79474974763456" lon="-108.01694919729944"><ele>1748.0</ele><time>2026-04-11T17:25:35.001Z</time></trkpt><trkpt lat="36.794831597892816" lon="-108.01687934429879"><ele>1748.0000000000002</ele><time>2026-04-11T17:25:36.001Z</time></trkpt><trkpt lat="36.794933482685686" lon="-108.016824290592"><ele>1748.0000000000002</ele><time>2026-04-11T17:25:37.001Z</time></trkpt><trkpt lat="36.795011490461135" lon="-108.0167692241184"><ele>1748.0</ele><time>2026-04-11T17:25:38.001Z</time></trkpt><trkpt lat="36.79509701695453" lon="-108.01671930233573"><ele>1748.0</ele><time>2026-04-11T17:25:39.001Z</time></trkpt><trkpt lat="36.79518965461017" lon="-108.01666463021101"><ele>1747.0</ele><time>2026-04-11T17:25:40.001Z</time></trkpt><trkpt lat="36.79530204927155" lon="-108.01659612990059"><ele>1746.0000000000002</ele><time>2026-04-11T17:25:41.001Z</time></trkpt><trkpt lat="36.79539951196501" lon="-108.0165467243106"><ele>1745.0000000000002</ele><time>2026-04-11T17:25:42.001Z</time></trkpt><trkpt lat="36.79548985181132" lon="-108.01653578427288"><ele>1744.0</ele><time>2026-04-11T17:25:43.001Z</time></trkpt><trkpt lat="36.795597454188936" lon="-108.01652953030762"><ele>1743.0</ele><time>2026-04-11T17:25:44.001Z</time></trkpt><trkpt lat="36.79570375691102" lon="-108.01652394279132"><ele>1743.0</ele><time>2026-04-11T17:25:45.001Z</time></trkpt><trkpt lat="36.79578514857644" lon="-108.01649036633737"><ele>1743.0000000000002</ele><time>2026-04-11T17:25:46.001Z</time></trkpt><trkpt lat="36.79586024648945" lon="-108.0164469830242"><ele>1743.0000000000002</ele><time>2026-04-11T17:25:47.001Z</time></trkpt><trkpt lat="36.79593436603157" lon="-108.01634532008626"><ele>1743.0</ele><time>2026-04-11T17:25:49.001Z</time></trkpt><trkpt lat="36.79608396529641" lon="-108.01631825732845"><ele>1743.0</ele><time>2026-04-11T17:25:51.001Z</time></trkpt><trkpt lat="36.79618588245684" lon="-108.01632534607248"><ele>1742.6000000000001</ele><time>2026-04-11T17:25:52.001Z</time></trkpt><trkpt lat="36.796287991722345" lon="-108.01624439315098"><ele>1742.2000000000003</ele><time>2026-04-11T17:25:54.001Z</time></trkpt><trkpt lat="36.79634202866692" lon="-108.01614871128811"><ele>1741.8</ele><time>2026-04-11T17:25:55.001Z</time></trkpt><trkpt lat="36.79639621428486" lon="-108.01609895811939"><ele>1741.4</ele><time>2026-04-11T17:25:56.001Z</time></trkpt><trkpt lat="36.79650978697744" lon="-108.0161022389067"><ele>1741.0</ele><time>2026-04-11T17:25:57.001Z</time></trkpt><trkpt lat="36.79662955501131" lon="-108.01610759868915"><ele>1741.0</ele><time>2026-04-11T17:25:58.001Z</time></trkpt><trkpt lat="36.79671132756018" lon="-108.01607155633059"><ele>1741.0</ele><time>2026-04-11T17:25:59.001Z</time></trkpt><trkpt lat="36.796737076429615" lon="-108.01596513658423"><ele>1741.0</ele><time>2026-04-11T17:26:00.001Z</time></trkpt><trkpt lat="36.79679445227322" lon="-108.01584777635502"><ele>1741.0</ele><time>2026-04-11T17:26:01.001Z</time></trkpt><trkpt lat="36.796865987601606" lon="-108.01580269486551"><ele>1741.0</ele><time>2026-04-11T17:26:02.001Z</time></trkpt><trkpt lat="36.79696022703126" lon="-108.01578966512011"><ele>1743.5</ele><time>2026-04-11T17:26:03.001Z</time></trkpt><trkpt lat="36.79708460520913" lon="-108.01572937653707"><ele>1746.0</ele><time>2026-04-11T17:26:04.001Z</time></trkpt><trkpt lat="36.79720838607229" lon="-108.01561110597417"><ele>1748.5</ele><time>2026-04-11T17:26:05.002Z</time></trkpt><trkpt lat="36.79732977173675" lon="-108.0154846724529"><ele>1751.0</ele><time>2026-04-11T17:26:06.002Z</time></trkpt><trkpt lat="36.797430853970084" lon="-108.01535898338777"><ele>1751.0</ele><time>2026-04-11T17:26:07.002Z</time></trkpt><trkpt lat="36.797512531952215" lon="-108.01524337333875"><ele>1751.0</ele><time>2026-04-11T17:26:08.002Z</time></trkpt><trkpt lat="36.79757413291289" lon="-108.01514587213084"><ele>1751.0</ele><time>2026-04-11T17:26:09Z</time></trkpt><trkpt lat="36.79762248628475" lon="-108.01506879537213"><ele>1751.0</ele><time>2026-04-11T17:26:10Z</time></trkpt><trkpt lat="36.797669267398085" lon="-108.01500208734107"><ele>1751.0</ele><time>2026-04-11T17:26:11Z</time></trkpt><trkpt lat="36.79772977706598" lon="-108.01491651084166"><ele>1752.6666666666665</ele><time>2026-04-11T17:26:12Z</time></trkpt><trkpt lat="36.79778393011137" lon="-108.01484727256629"><ele>1754.3333333333333</ele><time>2026-04-11T17:26:14Z</time></trkpt><trkpt lat="36.797868650851306" lon="-108.01478589297967"><ele>1756.0</ele><time>2026-04-11T17:26:22Z</time></trkpt><trkpt lat="36.79794153642123" lon="-108.01475120957133"><ele>1757.6666666666665</ele><time>2026-04-11T17:26:23Z</time></trkpt><trkpt lat="36.79801845438122" lon="-108.01471309201254"><ele>1759.3333333333333</ele><time>2026-04-11T17:26:24Z</time></trkpt><trkpt lat="36.79810011409528" lon="-108.01467067863766"><ele>1761.0</ele><time>2026-04-11T17:26:25Z</time></trkpt><trkpt lat="36.7981827662922" lon="-108.01462144191979"><ele>1761.0</ele><time>2026-04-11T17:26:26Z</time></trkpt><trkpt lat="36.79824949161751" lon="-108.0145651210487"><ele>1761.0</ele><time>2026-04-11T17:26:27Z</time></trkpt><trkpt lat="36.798316653269275" lon="-108.01449734913511"><ele>1761.0</ele><time>2026-04-11T17:26:28Z</time></trkpt><trkpt lat="36.798400243998664" lon="-108.01440844350186"><ele>1761.0</ele><time>2026-04-11T17:26:30Z</time></trkpt><trkpt lat="36.798524610227005" lon="-108.01428513588436"><ele>1761.0</ele><time>2026-04-11T17:26:32Z</time></trkpt><trkpt lat="36.798599994578744" lon="-108.01422469695864"><ele>1762.4</ele><time>2026-04-11T17:26:33Z</time></trkpt><trkpt lat="36.79871063608991" lon="-108.01414782417235"><ele>1763.8</ele><time>2026-04-11T17:26:35Z</time></trkpt><trkpt lat="36.79875575807628" lon="-108.01408579234699"><ele>1765.2000000000003</ele><time>2026-04-11T17:26:36Z</time></trkpt><trkpt lat="36.79880998942928" lon="-108.01398574285922"><ele>1766.6000000000001</ele><time>2026-04-11T17:26:37Z</time></trkpt><trkpt lat="36.798870819479994" lon="-108.0138807251263"><ele>1768.0</ele><time>2026-04-11T17:26:38Z</time></trkpt><trkpt lat="36.79892961342737" lon="-108.01379273804298"><ele>1768.0000000000002</ele><time>2026-04-11T17:26:39Z</time></trkpt><trkpt lat="36.798967558100685" lon="-108.01371671104286"><ele>1768.0</ele><time>2026-04-11T17:26:40Z</time></trkpt><trkpt lat="36.79901058617272" lon="-108.01363545143491"><ele>1768.0</ele><time>2026-04-11T17:26:41Z</time></trkpt><trkpt lat="36.79905880061088" lon="-108.01356148917576"><ele>1768.0</ele><time>2026-04-11T17:26:42Z</time></trkpt><trkpt lat="36.79908960949283" lon="-108.01345672006106"><ele>1768.0000000000002</ele><time>2026-04-11T17:26:43Z</time></trkpt><trkpt lat="36.799116303284116" lon="-108.0133433859709"><ele>1768.0</ele><time>2026-04-11T17:26:44Z</time></trkpt><trkpt lat="36.79916938415546" lon="-108.01324583536021"><ele>1768.5000000000002</ele><time>2026-04-11T17:26:45Z</time></trkpt><trkpt lat="36.79922927516076" lon="-108.01318478394973"><ele>1769.0</ele><time>2026-04-11T17:26:46Z</time></trkpt><trkpt lat="36.79929606276959" lon="-108.01314473714706"><ele>1769.5</ele><time>2026-04-11T17:26:47Z</time></trkpt><trkpt lat="36.799361039328694" lon="-108.01310278076815"><ele>1770.0</ele><time>2026-04-11T17:26:48Z</time></trkpt><trkpt lat="36.79942947680233" lon="-108.01299668046813"><ele>1770.5000000000002</ele><time>2026-04-11T17:26:50Z</time></trkpt><trkpt lat="36.799456101394746" lon="-108.01289770101008"><ele>1771.0</ele><time>2026-04-11T17:26:51Z</time></trkpt><trkpt lat="36.799502433276864" lon="-108.01274455598104"><ele>1771.3333333333335</ele><time>2026-04-11T17:26:52.001Z</time></trkpt><trkpt lat="36.79955199893583" lon="-108.01262481191961"><ele>1771.6666666666667</ele><time>2026-04-11T17:26:53.001Z</time></trkpt><trkpt lat="36.79959134242621" lon="-108.01254454772042"><ele>1772.0</ele><time>2026-04-11T17:26:54.001Z</time></trkpt><trkpt lat="36.7996126473385" lon="-108.01245847518403"><ele>1772.3333333333335</ele><time>2026-04-11T17:26:55.001Z</time></trkpt><trkpt lat="36.79961515206347" lon="-108.012349780848"><ele>1772.6666666666667</ele><time>2026-04-11T17:26:56.001Z</time></trkpt><trkpt lat="36.7996211336607" lon="-108.0122448088473"><ele>1773.0</ele><time>2026-04-11T17:26:57.001Z</time></trkpt><trkpt lat="36.799634319124415" lon="-108.01210959338354"><ele>1773.0</ele><time>2026-04-11T17:26:58.001Z</time></trkpt><trkpt lat="36.79964944277142" lon="-108.01197213007578"><ele>1773.0000000000002</ele><time>2026-04-11T17:26:59.001Z</time></trkpt><trkpt lat="36.7996677242182" lon="-108.0118769503883"><ele>1773.0000000000002</ele><time>2026-04-11T17:27:00.001Z</time></trkpt><trkpt lat="36.799666644503006" lon="-108.011732654903"><ele>1773.0</ele><time>2026-04-11T17:27:03.001Z</time></trkpt><trkpt lat="36.79967465301647" lon="-108.0116458988091"><ele>1773.0</ele><time>2026-04-11T17:27:04.001Z</time></trkpt><trkpt lat="36.79967386718609" lon="-108.01155059556713"><ele>1773.4</ele><time>2026-04-11T17:27:05.001Z</time></trkpt><trkpt lat="36.79965348029977" lon="-108.01145556115453"><ele>1773.8000000000002</ele><time>2026-04-11T17:27:06.001Z</time></trkpt><trkpt lat="36.79965917193293" lon="-108.01135516630914"><ele>1774.2</ele><time>2026-04-11T17:27:07.001Z</time></trkpt><trkpt lat="36.79967052452498" lon="-108.01123678207384"><ele>1774.6</ele><time>2026-04-11T17:27:08.001Z</time></trkpt><trkpt lat="36.79966270276141" lon="-108.01113069195848"><ele>1775.0</ele><time>2026-04-11T17:27:09.001Z</time></trkpt><trkpt lat="36.7995945054139" lon="-108.01098753213356"><ele>1774.9999999999998</ele><time>2026-04-11T17:27:11.001Z</time></trkpt><trkpt lat="36.79953566566538" lon="-108.0109055785046"><ele>1775.0</ele><time>2026-04-11T17:27:12.001Z</time></trkpt><trkpt lat="36.79945597051063" lon="-108.01084420906699"><ele>1775.0</ele><time>2026-04-11T17:27:13.001Z</time></trkpt><trkpt lat="36.799354326314216" lon="-108.01075864158604"><ele>1775.0</ele><time>2026-04-11T17:27:14.001Z</time></trkpt><trkpt lat="36.799306477822675" lon="-108.01069556113418"><ele>1774.9999999999998</ele><time>2026-04-11T17:27:15.001Z</time></trkpt><trkpt lat="36.79931343677298" lon="-108.0106068731928"><ele>1775.0</ele><time>2026-04-11T17:27:16.001Z</time></trkpt><trkpt lat="36.79933516687318" lon="-108.01046328391587"><ele>1775.25</ele><time>2026-04-11T17:27:17.001Z</time></trkpt><trkpt lat="36.7993740692483" lon="-108.01030561222909"><ele>1775.5</ele><time>2026-04-11T17:27:18.001Z</time></trkpt><trkpt lat="36.79938672371676" lon="-108.01015904185853"><ele>1775.75</ele><time>2026-04-11T17:27:19.001Z</time></trkpt><trkpt lat="36.799395553957346" lon="-108.010032531332"><ele>1776.0</ele><time>2026-04-11T17:27:20.001Z</time></trkpt><trkpt lat="36.799408297203556" lon="-108.00990357035444"><ele>1776.0</ele><time>2026-04-11T17:27:21.001Z</time></trkpt><trkpt lat="36.79942130131365" lon="-108.0097720506905"><ele>1776.0</ele><time>2026-04-11T17:27:22.001Z</time></trkpt><trkpt lat="36.7994306313757" lon="-108.00968455288786"><ele>1776.0</ele><time>2026-04-11T17:27:24.001Z</time></trkpt><trkpt lat="36.79949608016662" lon="-108.00960526744821"><ele>1776.0</ele><time>2026-04-11T17:28:25Z</time></trkpt><trkpt lat="36.799567852086" lon="-108.00955967588291"><ele>1776.0</ele><time>2026-04-11T17:28:26Z</time></trkpt><trkpt lat="36.79963281185541" lon="-108.00950235316225"><ele>1776.0</ele><time>2026-04-11T17:28:27Z</time></trkpt><trkpt lat="36.79973658822863" lon="-108.00946396817713"><ele>1776.0</ele><time>2026-04-11T17:28:29Z</time></trkpt><trkpt lat="36.799819309017856" lon="-108.00948585618447"><ele>1776.0</ele><time>2026-04-11T17:28:30Z</time></trkpt><trkpt lat="36.79990274401686" lon="-108.00953052939079"><ele>1776.0</ele><time>2026-04-11T17:28:31Z</time></trkpt><trkpt lat="36.79997612768979" lon="-108.00957873006185"><ele>1776.0</ele><time>2026-04-11T17:28:32Z</time></trkpt><trkpt lat="36.80005030571267" lon="-108.00962626406442"><ele>1776.0</ele><time>2026-04-11T17:28:33Z</time></trkpt><trkpt lat="36.80012451052797" lon="-108.00966422300348"><ele>1776.0</ele><time>2026-04-11T17:28:34Z</time></trkpt><trkpt lat="36.80019909187672" lon="-108.0096930429509"><ele>1775.1666666666667</ele><time>2026-04-11T17:28:35Z</time></trkpt><trkpt lat="36.80026916123263" lon="-108.00970738948222"><ele>1774.3333333333335</ele><time>2026-04-11T17:28:36Z</time></trkpt><trkpt lat="36.80035033588801" lon="-108.00970955460768"><ele>1773.5</ele><time>2026-04-11T17:28:37Z</time></trkpt><trkpt lat="36.80045438136593" lon="-108.0097146506355"><ele>1772.6666666666667</ele><time>2026-04-11T17:28:38Z</time></trkpt><trkpt lat="36.800550677887394" lon="-108.00971938762545"><ele>1771.8333333333335</ele><time>2026-04-11T17:28:39Z</time></trkpt><trkpt lat="36.800620903995984" lon="-108.00970644514983"><ele>1771.0</ele><time>2026-04-11T17:28:40Z</time></trkpt><trkpt lat="36.80069941474978" lon="-108.00961379151595"><ele>1771.0</ele><time>2026-04-11T17:28:42Z</time></trkpt><trkpt lat="36.80075835631587" lon="-108.00956711817147"><ele>1771.0</ele><time>2026-04-11T17:28:43Z</time></trkpt><trkpt lat="36.8008558114273" lon="-108.0095857274107"><ele>1771.0</ele><time>2026-04-11T17:28:45Z</time></trkpt><trkpt lat="36.800916844249265" lon="-108.00964748801285"><ele>1771.0</ele><time>2026-04-11T17:28:46Z</time></trkpt><trkpt lat="36.80097641803812" lon="-108.00972069442628"><ele>1771.0</ele><time>2026-04-11T17:28:47Z</time></trkpt><trkpt lat="36.801095771740705" lon="-108.00975233881819"><ele>1770.0</ele><time>2026-04-11T17:28:49Z</time></trkpt><trkpt lat="36.801184461654955" lon="-108.00976276433494"><ele>1769.0</ele><time>2026-04-11T17:28:50Z</time></trkpt><trkpt lat="36.80126266296557" lon="-108.00981369313162"><ele>1768.0</ele><time>2026-04-11T17:28:51Z</time></trkpt><trkpt lat="36.801333726488245" lon="-108.00988328219391"><ele>1767.0</ele><time>2026-04-11T17:28:52Z</time></trkpt><trkpt lat="36.801418633135725" lon="-108.00996654828668"><ele>1766.0</ele><time>2026-04-11T17:28:53Z</time></trkpt><trkpt lat="36.801494673376894" lon="-108.01005359885805"><ele>1765.9999999999998</ele><time>2026-04-11T17:28:54Z</time></trkpt><trkpt lat="36.80155117469267" lon="-108.01012849492334"><ele>1766.0</ele><time>2026-04-11T17:28:55Z</time></trkpt><trkpt lat="36.80161030539747" lon="-108.01017249258396"><ele>1766.0</ele><time>2026-04-11T17:28:56Z</time></trkpt><trkpt lat="36.801729675617835" lon="-108.01016560925545"><ele>1766.0</ele><time>2026-04-11T17:28:58.001Z</time></trkpt><trkpt lat="36.8018039025962" lon="-108.01013968196246"><ele>1765.9999999999998</ele><time>2026-04-11T17:28:59.001Z</time></trkpt><trkpt lat="36.801873273525665" lon="-108.01012357537323"><ele>1766.0</ele><time>2026-04-11T17:29:00.001Z</time></trkpt><trkpt lat="36.80194873556886" lon="-108.01011088410706"><ele>1763.1666666666665</ele><time>2026-04-11T17:29:02.001Z</time></trkpt><trkpt lat="36.80201156882944" lon="-108.01006289910639"><ele>1760.3333333333333</ele><time>2026-04-11T17:29:04.001Z</time></trkpt><trkpt lat="36.80208783433859" lon="-108.01003606027766"><ele>1757.5</ele><time>2026-04-11T17:29:07.001Z</time></trkpt><trkpt lat="36.80215063932071" lon="-108.01002738030846"><ele>1754.6666666666665</ele><time>2026-04-11T17:29:08.001Z</time></trkpt><trkpt lat="36.802257950413214" lon="-108.01003331710929"><ele>1751.8333333333333</ele><time>2026-04-11T17:29:09.001Z</time></trkpt><trkpt lat="36.80233953691949" lon="-108.01005050701713"><ele>1749.0</ele><time>2026-04-11T17:29:10.001Z</time></trkpt><trkpt lat="36.80241889211389" lon="-108.01006904353964"><ele>1749.0</ele><time>2026-04-11T17:29:11.001Z</time></trkpt><trkpt lat="36.80250613128822" lon="-108.01007761047232"><ele>1749.0</ele><time>2026-04-11T17:29:12.001Z</time></trkpt><trkpt lat="36.8025916387776" lon="-108.0100774942779"><ele>1749.0</ele><time>2026-04-11T17:29:13.001Z</time></trkpt><trkpt lat="36.802666803114604" lon="-108.0100579937904"><ele>1749.0</ele><time>2026-04-11T17:29:14.001Z</time></trkpt><trkpt lat="36.80275071117012" lon="-108.0100071375259"><ele>1749.0</ele><time>2026-04-11T17:29:16.001Z</time></trkpt><trkpt lat="36.80271807441775" lon="-108.01008542914055"><ele>1749.0</ele><time>2026-04-11T17:29:19.001Z</time></trkpt><trkpt lat="36.80263667444154" lon="-108.01013452245051"><ele>1749.0</ele><time>2026-04-11T17:29:21.001Z</time></trkpt><trkpt lat="36.802545601345244" lon="-108.01016583110115"><ele>1749.0</ele><time>2026-04-11T17:29:24.001Z</time></trkpt><trkpt lat="36.802630786825674" lon="-108.0101867708467"><ele>1749.0</ele><time>2026-04-11T17:29:35.001Z</time></trkpt><trkpt lat="36.802704111531646" lon="-108.01010577089087"><ele>1749.0</ele><time>2026-04-11T17:29:37.001Z</time></trkpt><trkpt lat="36.80258269687146" lon="-108.01006533759899"><ele>1749.0</ele><time>2026-04-11T17:29:55.001Z</time></trkpt><trkpt lat="36.80249585273345" lon="-108.01007589462576"><ele>1749.0</ele><time>2026-04-11T17:29:56.001Z</time></trkpt><trkpt lat="36.80241311286423" lon="-108.01008363316717"><ele>1749.0</ele><time>2026-04-11T17:29:57.001Z</time></trkpt><trkpt lat="36.80234446808043" lon="-108.01008396562855"><ele>1749.0</ele><time>2026-04-11T17:29:58.001Z</time></trkpt><trkpt lat="36.80227427819889" lon="-108.01006249109271"><ele>1749.0</ele><time>2026-04-11T17:29:59.001Z</time></trkpt><trkpt lat="36.8021937857037" lon="-108.01003965622071"><ele>1749.0</ele><time>2026-04-11T17:30:00.001Z</time></trkpt><trkpt lat="36.80211935220734" lon="-108.01003485978443"><ele>1749.0</ele><time>2026-04-11T17:30:01.001Z</time></trkpt><trkpt lat="36.80204065186452" lon="-108.01005401069229"><ele>1749.0</ele><time>2026-04-11T17:30:02.001Z</time></trkpt><trkpt lat="36.801972144406655" lon="-108.01011870616554"><ele>1749.0</ele><time>2026-04-11T17:30:05.001Z</time></trkpt><trkpt lat="36.8018616663465" lon="-108.01015170719208"><ele>1749.0</ele><time>2026-04-11T17:30:07.001Z</time></trkpt><trkpt lat="36.80178690964374" lon="-108.01014649484382"><ele>1749.0</ele><time>2026-04-11T17:30:09.001Z</time></trkpt><trkpt lat="36.801669110857894" lon="-108.01017579760482"><ele>1749.0</ele><time>2026-04-11T17:30:11.001Z</time></trkpt><trkpt lat="36.801604069724426" lon="-108.01017856277231"><ele>1751.5</ele><time>2026-04-11T17:30:12.001Z</time></trkpt><trkpt lat="36.8015412726679" lon="-108.01011472093609"><ele>1754.0</ele><time>2026-04-11T17:30:34Z</time></trkpt><trkpt lat="36.80147948216905" lon="-108.0100597929074"><ele>1756.5</ele><time>2026-04-11T17:30:35Z</time></trkpt><trkpt lat="36.801426944356464" lon="-108.01000950581704"><ele>1759.0</ele><time>2026-04-11T17:30:36Z</time></trkpt><trkpt lat="36.801370382354854" lon="-108.00993202136114"><ele>1761.5</ele><time>2026-04-11T17:30:37Z</time></trkpt><trkpt lat="36.801285352919145" lon="-108.00984382650414"><ele>1764.0</ele><time>2026-04-11T17:30:38Z</time></trkpt><trkpt lat="36.80121810932882" lon="-108.00979956024821"><ele>1764.0</ele><time>2026-04-11T17:30:39Z</time></trkpt><trkpt lat="36.801153741467324" lon="-108.0097549697122"><ele>1764.0</ele><time>2026-04-11T17:30:40Z</time></trkpt><trkpt lat="36.80105980394855" lon="-108.00972188155805"><ele>1764.0</ele><time>2026-04-11T17:30:41Z</time></trkpt><trkpt lat="36.80097563857383" lon="-108.0097204406325"><ele>1764.0</ele><time>2026-04-11T17:30:42Z</time></trkpt><trkpt lat="36.800877463128984" lon="-108.00964295924004"><ele>1764.0</ele><time>2026-04-11T17:30:44Z</time></trkpt><trkpt lat="36.800816352042574" lon="-108.00957373607443"><ele>1765.4</ele><time>2026-04-11T17:30:45Z</time></trkpt><trkpt lat="36.80074549842145" lon="-108.00954765321055"><ele>1766.8000000000002</ele><time>2026-04-11T17:30:46Z</time></trkpt><trkpt lat="36.800683983338466" lon="-108.00958513521043"><ele>1768.1999999999998</ele><time>2026-04-11T17:30:47Z</time></trkpt><trkpt lat="36.80059900565928" lon="-108.00970172393473"><ele>1769.6</ele><time>2026-04-11T17:30:49Z</time></trkpt><trkpt lat="36.8004849505884" lon="-108.00972660586378"><ele>1771.0</ele><time>2026-04-11T17:30:51Z</time></trkpt><trkpt lat="36.80034544031187" lon="-108.00970894725"><ele>1771.0</ele><time>2026-04-11T17:30:52Z</time></trkpt><trkpt lat="36.80020509903607" lon="-108.00969832254137"><ele>1771.0</ele><time>2026-04-11T17:30:53Z</time></trkpt><trkpt lat="36.80012128317407" lon="-108.00968052049538"><ele>1771.0</ele><time>2026-04-11T17:30:54Z</time></trkpt><trkpt lat="36.80004776273193" lon="-108.00964688297879"><ele>1771.0</ele><time>2026-04-11T17:30:55Z</time></trkpt><trkpt lat="36.799959552454126" lon="-108.009586835745"><ele>1771.0</ele><time>2026-04-11T17:30:56Z</time></trkpt><trkpt lat="36.79987832440092" lon="-108.00954167018234"><ele>1772.0</ele><time>2026-04-11T17:30:57Z</time></trkpt><trkpt lat="36.79979824812649" lon="-108.00948901645253"><ele>1773.0</ele><time>2026-04-11T17:30:58Z</time></trkpt><trkpt lat="36.799716367220725" lon="-108.00945815163156"><ele>1774.0</ele><time>2026-04-11T17:30:59Z</time></trkpt><trkpt lat="36.79963921067707" lon="-108.00946730555992"><ele>1775.0</ele><time>2026-04-11T17:31:00Z</time></trkpt><trkpt lat="36.79955225805326" lon="-108.00954255465501"><ele>1776.0</ele><time>2026-04-11T17:31:02Z</time></trkpt><trkpt lat="36.79948638698361" lon="-108.00963133621741"><ele>1776.0</ele><time>2026-04-11T17:31:03.001Z</time></trkpt><trkpt lat="36.79943208766202" lon="-108.0096796660999"><ele>1776.0</ele><time>2026-04-11T17:31:04.001Z</time></trkpt><trkpt lat="36.79934902573333" lon="-108.00969168071437"><ele>1776.0</ele><time>2026-04-11T17:31:16.001Z</time></trkpt><trkpt lat="36.79931563293458" lon="-108.00978016815215"><ele>1776.0</ele><time>2026-04-11T17:31:20.001Z</time></trkpt><trkpt lat="36.799358026856886" lon="-108.00987816566759"><ele>1776.0</ele><time>2026-04-11T17:31:22.001Z</time></trkpt><trkpt lat="36.79940417094899" lon="-108.00976942337364"><ele>1776.0</ele><time>2026-04-11T17:31:27.001Z</time></trkpt><trkpt lat="36.79945566270502" lon="-108.00965453697245"><ele>1776.0</ele><time>2026-04-11T17:31:30.001Z</time></trkpt><trkpt lat="36.799553193804606" lon="-108.00955313543132"><ele>1776.0</ele><time>2026-04-11T17:31:32.001Z</time></trkpt><trkpt lat="36.79960658493971" lon="-108.00949614721593"><ele>1776.0</ele><time>2026-04-11T17:31:33.001Z</time></trkpt><trkpt lat="36.79965406634762" lon="-108.00942175562642"><ele>1776.0</ele><time>2026-04-11T17:31:34.001Z</time></trkpt><trkpt lat="36.79970117707015" lon="-108.00933604923225"><ele>1776.0</ele><time>2026-04-11T17:31:35.001Z</time></trkpt><trkpt lat="36.79972607056487" lon="-108.00923428313054"><ele>1776.0</ele><time>2026-04-11T17:31:36.001Z</time></trkpt><trkpt lat="36.79973858371575" lon="-108.00912927326264"><ele>1775.4</ele><time>2026-04-11T17:31:37.001Z</time></trkpt><trkpt lat="36.79976063538031" lon="-108.00903074347647"><ele>1774.8</ele><time>2026-04-11T17:31:38.001Z</time></trkpt><trkpt lat="36.79979087205524" lon="-108.00890932892828"><ele>1774.2000000000003</ele><time>2026-04-11T17:31:39.001Z</time></trkpt><trkpt lat="36.79982608172714" lon="-108.00878131923581"><ele>1773.6000000000001</ele><time>2026-04-11T17:31:40.001Z</time></trkpt><trkpt lat="36.79985638713716" lon="-108.00865750025173"><ele>1773.0</ele><time>2026-04-11T17:31:41.001Z</time></trkpt><trkpt lat="36.79987441448917" lon="-108.00853453825984"><ele>1773.0</ele><time>2026-04-11T17:31:42.001Z</time></trkpt><trkpt lat="36.79988850161658" lon="-108.00844631403014"><ele>1773.0</ele><time>2026-04-11T17:31:43.001Z</time></trkpt><trkpt lat="36.79987662099131" lon="-108.00834951376069"><ele>1773.0</ele><time>2026-04-11T17:31:44.001Z</time></trkpt><trkpt lat="36.79986833153322" lon="-108.00825150959068"><ele>1773.0</ele><time>2026-04-11T17:31:45.001Z</time></trkpt><trkpt lat="36.79986605088123" lon="-108.00815152231759"><ele>1773.0</ele><time>2026-04-11T17:31:46.001Z</time></trkpt><trkpt lat="36.79988590619916" lon="-108.00806996823118"><ele>1773.0</ele><time>2026-04-11T17:31:47.001Z</time></trkpt><trkpt lat="36.79994051236618" lon="-108.007967635821"><ele>1772.2</ele><time>2026-04-11T17:31:48.001Z</time></trkpt><trkpt lat="36.79997605964123" lon="-108.00786648533685"><ele>1771.4</ele><time>2026-04-11T17:31:49.001Z</time></trkpt><trkpt lat="36.80002115509108" lon="-108.00775310718178"><ele>1770.6000000000001</ele><time>2026-04-11T17:31:50.001Z</time></trkpt><trkpt lat="36.80008018295754" lon="-108.00766146045014"><ele>1769.8000000000002</ele><time>2026-04-11T17:31:51.001Z</time></trkpt><trkpt lat="36.80013899001784" lon="-108.00758668643027"><ele>1769.0</ele><time>2026-04-11T17:31:52.001Z</time></trkpt><trkpt lat="36.80021529959673" lon="-108.00753228382352"><ele>1767.8000000000002</ele><time>2026-04-11T17:31:53.001Z</time></trkpt><trkpt lat="36.800320987459735" lon="-108.00746284624907"><ele>1766.6000000000001</ele><time>2026-04-11T17:31:54.001Z</time></trkpt><trkpt lat="36.80041021070146" lon="-108.00741243715784"><ele>1765.4</ele><time>2026-04-11T17:31:55.001Z</time></trkpt><trkpt lat="36.800495299981996" lon="-108.00737034095147"><ele>1764.2</ele><time>2026-04-11T17:31:56.001Z</time></trkpt><trkpt lat="36.800569293008465" lon="-108.00731640207067"><ele>1763.0</ele><time>2026-04-11T17:31:57.001Z</time></trkpt><trkpt lat="36.80063081145679" lon="-108.007261869185"><ele>1763.0</ele><time>2026-04-11T17:31:58.001Z</time></trkpt><trkpt lat="36.800684830492635" lon="-108.00720901347923"><ele>1763.0000000000002</ele><time>2026-04-11T17:31:59.001Z</time></trkpt><trkpt lat="36.80074270224641" lon="-108.00716839268833"><ele>1763.0000000000002</ele><time>2026-04-11T17:32:00.001Z</time></trkpt><trkpt lat="36.80083510056709" lon="-108.00712781994605"><ele>1763.0</ele><time>2026-04-11T17:32:01.001Z</time></trkpt><trkpt lat="36.800952593610376" lon="-108.00708904753941"><ele>1763.0</ele><time>2026-04-11T17:32:02.001Z</time></trkpt><trkpt lat="36.80106894836484" lon="-108.0070483091613"><ele>1763.0</ele><time>2026-04-11T17:32:03.001Z</time></trkpt><trkpt lat="36.80116438209185" lon="-108.00699971573731"><ele>1763.0000000000002</ele><time>2026-04-11T17:32:04.001Z</time></trkpt><trkpt lat="36.80125694740247" lon="-108.00695457892294"><ele>1763.0000000000002</ele><time>2026-04-11T17:32:05.001Z</time></trkpt><trkpt lat="36.80136603001049" lon="-108.00691616064574"><ele>1763.0</ele><time>2026-04-11T17:32:06.001Z</time></trkpt><trkpt lat="36.80146685128399" lon="-108.00686943632189"><ele>1763.0</ele><time>2026-04-11T17:32:07.001Z</time></trkpt><trkpt lat="36.801571107216894" lon="-108.00680121630838"><ele>1763.0</ele><time>2026-04-11T17:32:08.001Z</time></trkpt><trkpt lat="36.80165120347969" lon="-108.00671312624318"><ele>1763.0000000000002</ele><time>2026-04-11T17:32:09.001Z</time></trkpt><trkpt lat="36.801720592451474" lon="-108.00660955494448"><ele>1763.0000000000002</ele><time>2026-04-11T17:32:10.001Z</time></trkpt><trkpt lat="36.801789930925395" lon="-108.00652419189744"><ele>1763.0</ele><time>2026-04-11T17:32:11.001Z</time></trkpt><trkpt lat="36.801856991952896" lon="-108.00648735791812"><ele>1763.0</ele><time>2026-04-11T17:32:12.001Z</time></trkpt><trkpt lat="36.80195517505838" lon="-108.00651929239226"><ele>1762.4</ele><time>2026-04-11T17:32:13.001Z</time></trkpt><trkpt lat="36.80209377008541" lon="-108.00656652348101"><ele>1761.8000000000002</ele><time>2026-04-11T17:32:14.001Z</time></trkpt><trkpt lat="36.80220400227064" lon="-108.00658360581014"><ele>1761.2</ele><time>2026-04-11T17:32:15.001Z</time></trkpt><trkpt lat="36.802300197729124" lon="-108.00655884404453"><ele>1760.6</ele><time>2026-04-11T17:32:16.001Z</time></trkpt><trkpt lat="36.80238492605835" lon="-108.00655285964105"><ele>1760.0</ele><time>2026-04-11T17:32:17.001Z</time></trkpt><trkpt lat="36.80248981252303" lon="-108.00660073935573"><ele>1760.0</ele><time>2026-04-11T17:32:18.001Z</time></trkpt><trkpt lat="36.802589337902944" lon="-108.00666472992307"><ele>1760.0</ele><time>2026-04-11T17:32:19.001Z</time></trkpt><trkpt lat="36.802676393069284" lon="-108.00668896741524"><ele>1760.0</ele><time>2026-04-11T17:32:20.001Z</time></trkpt><trkpt lat="36.802773544478256" lon="-108.00667707424577"><ele>1760.0</ele><time>2026-04-11T17:32:21.001Z</time></trkpt><trkpt lat="36.802846532954845" lon="-108.00665157139679"><ele>1760.0</ele><time>2026-04-11T17:32:22.001Z</time></trkpt><trkpt lat="36.80291108821658" lon="-108.00660121354285"><ele>1760.0</ele><time>2026-04-11T17:32:24.002Z</time></trkpt><trkpt lat="36.80291686929642" lon="-108.00648172568421"><ele>1760.0</ele><time>2026-04-11T17:32:26.002Z</time></trkpt><trkpt lat="36.80288976450405" lon="-108.00636501154877"><ele>1760.0</ele><time>2026-04-11T17:32:27Z</time></trkpt><trkpt lat="36.802851330446614" lon="-108.0062247056058"><ele>1760.0</ele><time>2026-04-11T17:32:28Z</time></trkpt><trkpt lat="36.80280566038522" lon="-108.0060381684663"><ele>1760.0</ele><time>2026-04-11T17:32:29Z</time></trkpt><trkpt lat="36.802820438997145" lon="-108.00584239439725"><ele>1760.0</ele><time>2026-04-11T17:32:30Z</time></trkpt><trkpt lat="36.802852090782935" lon="-108.00564186656658"><ele>1760.0</ele><time>2026-04-11T17:32:31Z</time></trkpt><trkpt lat="36.80289417624719" lon="-108.0053974291423"><ele>1757.6666666666665</ele><time>2026-04-11T17:32:32Z</time></trkpt><trkpt lat="36.80292344245901" lon="-108.00517226166329"><ele>1755.3333333333335</ele><time>2026-04-11T17:32:33Z</time></trkpt><trkpt lat="36.80294154467354" lon="-108.0049802254739"><ele>1753.0</ele><time>2026-04-11T17:32:34Z</time></trkpt><trkpt lat="36.80295278266367" lon="-108.00483013521261"><ele>1752.2</ele><time>2026-04-11T17:32:35Z</time></trkpt><trkpt lat="36.802958870008105" lon="-108.00470803231852"><ele>1751.4</ele><time>2026-04-11T17:32:36Z</time></trkpt><trkpt lat="36.802966759949584" lon="-108.00459334885701"><ele>1750.6000000000001</ele><time>2026-04-11T17:32:37Z</time></trkpt><trkpt lat="36.80297654923014" lon="-108.00449111652152"><ele>1749.8000000000002</ele><time>2026-04-11T17:32:38Z</time></trkpt><trkpt lat="36.8029739533653" lon="-108.00440038649344"><ele>1749.0</ele><time>2026-04-11T17:32:39Z</time></trkpt><trkpt lat="36.80301624733916" lon="-108.00427647994422"><ele>1747.75</ele><time>2026-04-11T17:32:40Z</time></trkpt><trkpt lat="36.803091496535885" lon="-108.00413801382952"><ele>1746.5</ele><time>2026-04-11T17:32:41Z</time></trkpt><trkpt lat="36.803141079101785" lon="-108.0039818288533"><ele>1745.25</ele><time>2026-04-11T17:32:42Z</time></trkpt><trkpt lat="36.803191945048106" lon="-108.00386160025243"><ele>1744.0</ele><time>2026-04-11T17:32:43Z</time></trkpt><trkpt lat="36.80322784803561" lon="-108.00377673864597"><ele>1744.0</ele><time>2026-04-11T17:32:44Z</time></trkpt><trkpt lat="36.80324670669519" lon="-108.00367436198037"><ele>1744.0</ele><time>2026-04-11T17:32:46Z</time></trkpt><trkpt lat="36.803172997279454" lon="-108.00359108332995"><ele>1744.0</ele><time>2026-04-11T17:32:48Z</time></trkpt><trkpt lat="36.80310179984065" lon="-108.00355175985959"><ele>1744.0</ele><time>2026-04-11T17:32:49Z</time></trkpt><trkpt lat="36.80300626784218" lon="-108.00350195570957"><ele>1744.0</ele><time>2026-04-11T17:32:50Z</time></trkpt><trkpt lat="36.80288427957232" lon="-108.0034590565525"><ele>1744.0</ele><time>2026-04-11T17:32:51Z</time></trkpt><trkpt lat="36.80273824619367" lon="-108.00341087568356"><ele>1744.0</ele><time>2026-04-11T17:32:52Z</time></trkpt><trkpt lat="36.80260090580813" lon="-108.00336662527795"><ele>1744.0</ele><time>2026-04-11T17:32:53Z</time></trkpt><trkpt lat="36.802474483586124" lon="-108.00333956955305"><ele>1744.0</ele><time>2026-04-11T17:32:54Z</time></trkpt><trkpt lat="36.802336319426956" lon="-108.0033152697095"><ele>1744.6666666666667</ele><time>2026-04-11T17:32:55Z</time></trkpt><trkpt lat="36.8021889472572" lon="-108.00330456593767"><ele>1745.3333333333335</ele><time>2026-04-11T17:32:56Z</time></trkpt><trkpt lat="36.80202484447613" lon="-108.00330038086236"><ele>1746.0</ele><time>2026-04-11T17:32:57Z</time></trkpt><trkpt lat="36.80185623907805" lon="-108.00330498409522"><ele>1746.3333333333335</ele><time>2026-04-11T17:32:58Z</time></trkpt><trkpt lat="36.80168176970247" lon="-108.00331785886628"><ele>1746.6666666666667</ele><time>2026-04-11T17:32:59Z</time></trkpt><trkpt lat="36.80150843572465" lon="-108.0033283695019"><ele>1747.0</ele><time>2026-04-11T17:33:00Z</time></trkpt><trkpt lat="36.80136157304936" lon="-108.00333409327354"><ele>1747.0</ele><time>2026-04-11T17:33:01Z</time></trkpt><trkpt lat="36.801241452160504" lon="-108.00334502532372"><ele>1747.0</ele><time>2026-04-11T17:33:02Z</time></trkpt><trkpt lat="36.80112770247896" lon="-108.00335674561512"><ele>1747.0</ele><time>2026-04-11T17:33:03Z</time></trkpt><trkpt lat="36.801013595120644" lon="-108.00335862044984"><ele>1747.0</ele><time>2026-04-11T17:33:04Z</time></trkpt><trkpt lat="36.80089468966521" lon="-108.00334149426926"><ele>1747.8</ele><time>2026-04-11T17:33:05Z</time></trkpt><trkpt lat="36.8007603481627" lon="-108.0033080621205"><ele>1748.6</ele><time>2026-04-11T17:33:06Z</time></trkpt><trkpt lat="36.80063066648485" lon="-108.0032744814634"><ele>1749.3999999999999</ele><time>2026-04-11T17:33:07Z</time></trkpt><trkpt lat="36.8005544693777" lon="-108.00325850854479"><ele>1750.1999999999998</ele><time>2026-04-11T17:33:08.001Z</time></trkpt><trkpt lat="36.80048437948716" lon="-108.00323822834943"><ele>1751.0</ele><time>2026-04-11T17:33:09.001Z</time></trkpt><trkpt lat="36.80038414992023" lon="-108.00320325325183"><ele>1751.0</ele><time>2026-04-11T17:33:10.001Z</time></trkpt><trkpt lat="36.80027628000085" lon="-108.00315002419536"><ele>1751.0</ele><time>2026-04-11T17:33:11.001Z</time></trkpt><trkpt lat="36.80014071966129" lon="-108.00308377011505"><ele>1751.0</ele><time>2026-04-11T17:33:12.001Z</time></trkpt><trkpt lat="36.79999403502745" lon="-108.00300979657968"><ele>1751.0</ele><time>2026-04-11T17:33:13.001Z</time></trkpt><trkpt lat="36.79985891761464" lon="-108.00293500095901"><ele>1751.6</ele><time>2026-04-11T17:33:14.001Z</time></trkpt><trkpt lat="36.79975986042503" lon="-108.00288491137815"><ele>1752.1999999999998</ele><time>2026-04-11T17:33:15.001Z</time></trkpt><trkpt lat="36.79967784980884" lon="-108.0028482763019"><ele>1752.8000000000002</ele><time>2026-04-11T17:33:16.001Z</time></trkpt><trkpt lat="36.799583668914366" lon="-108.0028111455332"><ele>1753.4</ele><time>2026-04-11T17:33:17.001Z</time></trkpt><trkpt lat="36.79948283126307" lon="-108.00277301966523"><ele>1754.0</ele><time>2026-04-11T17:33:18.001Z</time></trkpt><trkpt lat="36.79940427477187" lon="-108.0027424460546"><ele>1754.6</ele><time>2026-04-11T17:33:19.001Z</time></trkpt><trkpt lat="36.79933321595394" lon="-108.002703240892"><ele>1755.2</ele><time>2026-04-11T17:33:20.001Z</time></trkpt><trkpt lat="36.799268097966596" lon="-108.00265504317562"><ele>1755.7999999999997</ele><time>2026-04-11T17:33:21.001Z</time></trkpt><trkpt lat="36.79919062327083" lon="-108.0025743193223"><ele>1756.3999999999999</ele><time>2026-04-11T17:33:22.001Z</time></trkpt><trkpt lat="36.79909667377161" lon="-108.00248095760737"><ele>1757.0</ele><time>2026-04-11T17:33:23.001Z</time></trkpt><trkpt lat="36.798987407754446" lon="-108.00239508383319"><ele>1757.25</ele><time>2026-04-11T17:33:24.001Z</time></trkpt><trkpt lat="36.7988608662629" lon="-108.0023131826989"><ele>1757.5</ele><time>2026-04-11T17:33:25.001Z</time></trkpt><trkpt lat="36.79874065368686" lon="-108.00224285711109"><ele>1757.75</ele><time>2026-04-11T17:33:26.001Z</time></trkpt><trkpt lat="36.798614207602284" lon="-108.00218520537128"><ele>1758.0</ele><time>2026-04-11T17:33:27.001Z</time></trkpt><trkpt lat="36.798468436194" lon="-108.00214814753616"><ele>1758.0</ele><time>2026-04-11T17:33:28.001Z</time></trkpt><trkpt lat="36.79830420025372" lon="-108.00212337131869"><ele>1758.0</ele><time>2026-04-11T17:33:29.001Z</time></trkpt><trkpt lat="36.798152976858674" lon="-108.00210077829514"><ele>1758.0</ele><time>2026-04-11T17:33:30.001Z</time></trkpt><trkpt lat="36.798034681162406" lon="-108.0020858508974"><ele>1758.0</ele><time>2026-04-11T17:33:31.001Z</time></trkpt><trkpt lat="36.79793974480484" lon="-108.00208353995718"><ele>1758.0</ele><time>2026-04-11T17:33:32.001Z</time></trkpt><trkpt lat="36.797872997498075" lon="-108.00210627462094"><ele>1758.0000000000002</ele><time>2026-04-11T17:33:33.001Z</time></trkpt><trkpt lat="36.79778618754463" lon="-108.0021691253286"><ele>1758.0000000000002</ele><time>2026-04-11T17:33:34.001Z</time></trkpt><trkpt lat="36.79768069449488" lon="-108.0022346997289"><ele>1758.0</ele><time>2026-04-11T17:33:35.001Z</time></trkpt><trkpt lat="36.79754590914162" lon="-108.0022965607442"><ele>1758.0</ele><time>2026-04-11T17:33:36.001Z</time></trkpt><trkpt lat="36.79738822826755" lon="-108.00235435927044"><ele>1758.0</ele><time>2026-04-11T17:33:37.001Z</time></trkpt><trkpt lat="36.79725373374932" lon="-108.00241052672541"><ele>1758.0</ele><time>2026-04-11T17:33:38.001Z</time></trkpt><trkpt lat="36.797123278653736" lon="-108.00249247409629"><ele>1758.0</ele><time>2026-04-11T17:33:39.001Z</time></trkpt><trkpt lat="36.79701645062978" lon="-108.00257067407469"><ele>1758.0</ele><time>2026-04-11T17:33:40.001Z</time></trkpt><trkpt lat="36.7969382295072" lon="-108.00265190348136"><ele>1758.0</ele><time>2026-04-11T17:33:41.001Z</time></trkpt><trkpt lat="36.79684684550169" lon="-108.00277014963753"><ele>1758.0</ele><time>2026-04-11T17:33:42.001Z</time></trkpt><trkpt lat="36.796726797558456" lon="-108.00288539104949"><ele>1758.0</ele><time>2026-04-11T17:33:43.001Z</time></trkpt><trkpt lat="36.7966201914731" lon="-108.00297748353755"><ele>1758.0</ele><time>2026-04-11T17:33:44.001Z</time></trkpt><trkpt lat="36.796535031833315" lon="-108.00304104248842"><ele>1758.5</ele><time>2026-04-11T17:33:45.001Z</time></trkpt><trkpt lat="36.79644121048707" lon="-108.00307809916796"><ele>1759.0</ele><time>2026-04-11T17:33:46.001Z</time></trkpt><trkpt lat="36.796309372174555" lon="-108.00310477588081"><ele>1759.5</ele><time>2026-04-11T17:33:47.001Z</time></trkpt><trkpt lat="36.79615972273044" lon="-108.00310610286824"><ele>1760.0</ele><time>2026-04-11T17:33:48.001Z</time></trkpt><trkpt lat="36.79599394760807" lon="-108.00308774977631"><ele>1761.6666666666665</ele><time>2026-04-11T17:33:49.001Z</time></trkpt><trkpt lat="36.79580200828667" lon="-108.00304511974413"><ele>1763.3333333333335</ele><time>2026-04-11T17:33:50.001Z</time></trkpt><trkpt lat="36.79561126123419" lon="-108.00300121266291"><ele>1765.0</ele><time>2026-04-11T17:33:51.001Z</time></trkpt><trkpt lat="36.79545334612745" lon="-108.0029719955115"><ele>1765.0</ele><time>2026-04-11T17:33:52.001Z</time></trkpt><trkpt lat="36.795310791295876" lon="-108.00295942023595"><ele>1765.0</ele><time>2026-04-11T17:33:53.001Z</time></trkpt><trkpt lat="36.79519151767362" lon="-108.00295255903002"><ele>1765.0</ele><time>2026-04-11T17:33:54.001Z</time></trkpt><trkpt lat="36.7951094038789" lon="-108.00294291906434"><ele>1765.0</ele><time>2026-04-11T17:33:55.001Z</time></trkpt><trkpt lat="36.79504346106239" lon="-108.00290890186605"><ele>1765.0</ele><time>2026-04-11T17:33:57.001Z</time></trkpt><trkpt lat="36.79502194650266" lon="-108.00278571783883"><ele>1765.6666666666667</ele><time>2026-04-11T17:33:59.001Z</time></trkpt><trkpt lat="36.79503753751744" lon="-108.00267728851715"><ele>1766.3333333333335</ele><time>2026-04-11T17:34:00.001Z</time></trkpt><trkpt lat="36.7950732686138" lon="-108.00255334123464"><ele>1767.0</ele><time>2026-04-11T17:34:01.001Z</time></trkpt><trkpt lat="36.79512426565418" lon="-108.00246980457949"><ele>1767.6666666666665</ele><time>2026-04-11T17:34:02.001Z</time></trkpt><trkpt lat="36.79518780699874" lon="-108.00243140965637"><ele>1768.3333333333333</ele><time>2026-04-11T17:34:03.001Z</time></trkpt><trkpt lat="36.79526268047462" lon="-108.00240733769584"><ele>1769.0</ele><time>2026-04-11T17:34:04.001Z</time></trkpt><trkpt lat="36.79534410635811" lon="-108.00240891446215"><ele>1769.0</ele><time>2026-04-11T17:34:05.001Z</time></trkpt><trkpt lat="36.79544470310649" lon="-108.00241599408633"><ele>1769.0</ele><time>2026-04-11T17:34:07.001Z</time></trkpt><trkpt lat="36.79553110217889" lon="-108.00241239600237"><ele>1769.0</ele><time>2026-04-11T17:34:09.001Z</time></trkpt><trkpt lat="36.79561299579682" lon="-108.00239915925118"><ele>1769.0</ele><time>2026-04-11T17:34:11.001Z</time></trkpt><trkpt lat="36.795704104414625" lon="-108.00237541110499"><ele>1769.0</ele><time>2026-04-11T17:34:15.001Z</time></trkpt><trkpt lat="36.79580768122723" lon="-108.00238268750087"><ele>1769.0</ele><time>2026-04-11T17:34:18.001Z</time></trkpt><trkpt lat="36.79588092309352" lon="-108.00242831909732"><ele>1769.0</ele><time>2026-04-11T17:34:20.001Z</time></trkpt><trkpt lat="36.79591630917657" lon="-108.00234799432295"><ele>1769.0</ele><time>2026-04-11T17:34:23.001Z</time></trkpt><trkpt lat="36.795802095361154" lon="-108.00229076151943"><ele>1769.0</ele><time>2026-04-11T17:35:01Z</time></trkpt><trkpt lat="36.79571379674068" lon="-108.0022560293208"><ele>1769.0</ele><time>2026-04-11T17:35:02Z</time></trkpt><trkpt lat="36.79561224924404" lon="-108.00218983560384"><ele>1769.0</ele><time>2026-04-11T17:35:03Z</time></trkpt><trkpt lat="36.79551433658983" lon="-108.00208505839132"><ele>1769.0</ele><time>2026-04-11T17:35:04Z</time></trkpt><trkpt lat="36.79542249690086" lon="-108.00198775484472"><ele>1769.0</ele><time>2026-04-11T17:35:05Z</time></trkpt><trkpt lat="36.79534893859956" lon="-108.00191854284235"><ele>1769.0</ele><time>2026-04-11T17:35:06Z</time></trkpt><trkpt lat="36.79528723940788" lon="-108.00185570821536"><ele>1769.0</ele><time>2026-04-11T17:35:07Z</time></trkpt><trkpt lat="36.795212990711626" lon="-108.0018077316958"><ele>1769.0</ele><time>2026-04-11T17:35:09Z</time></trkpt><trkpt lat="36.79513004645078" lon="-108.00180083281073"><ele>1769.0</ele><time>2026-04-11T17:35:11Z</time></trkpt><trkpt lat="36.79506821600096" lon="-108.00183358161154"><ele>1769.0</ele><time>2026-04-11T17:35:13Z</time></trkpt><trkpt lat="36.795055259102355" lon="-108.0019206656079"><ele>1769.0</ele><time>2026-04-11T17:35:15.001Z</time></trkpt><trkpt lat="36.795077751142735" lon="-108.00216898372689"><ele>1769.0</ele><time>2026-04-11T17:35:18.001Z</time></trkpt><trkpt lat="36.79505808309826" lon="-108.00233769408759"><ele>1768.9999999999998</ele><time>2026-04-11T17:35:19.001Z</time></trkpt><trkpt lat="36.795054935791256" lon="-108.00244282090205"><ele>1769.0</ele><time>2026-04-11T17:35:20.001Z</time></trkpt><trkpt lat="36.79514923406872" lon="-108.00249498553963"><ele>1769.0</ele><time>2026-04-11T17:35:23.001Z</time></trkpt><trkpt lat="36.79521992978121" lon="-108.00248706993227"><ele>1769.0</ele><time>2026-04-11T17:35:24.001Z</time></trkpt><trkpt lat="36.79528733574708" lon="-108.0024539482776"><ele>1768.9999999999998</ele><time>2026-04-11T17:35:25.001Z</time></trkpt><trkpt lat="36.79539328577799" lon="-108.00242127457396"><ele>1769.0</ele><time>2026-04-11T17:35:26.001Z</time></trkpt><trkpt lat="36.79551750955787" lon="-108.00239967298981"><ele>1768.9999999999998</ele><time>2026-04-11T17:35:27.001Z</time></trkpt><trkpt lat="36.79560772499072" lon="-108.00240774008043"><ele>1769.0</ele><time>2026-04-11T17:35:28.001Z</time></trkpt><trkpt lat="36.7956696460981" lon="-108.00242875722303"><ele>1769.0</ele><time>2026-04-11T17:35:29.001Z</time></trkpt><trkpt lat="36.79573375346107" lon="-108.00245093183663"><ele>1769.0</ele><time>2026-04-11T17:35:31.001Z</time></trkpt><trkpt lat="36.79574995482502" lon="-108.00233394636673"><ele>1768.9999999999998</ele><time>2026-04-11T17:35:43.001Z</time></trkpt><trkpt lat="36.79568622778811" lon="-108.00224308129842"><ele>1769.0</ele><time>2026-04-11T17:35:44.001Z</time></trkpt><trkpt lat="36.79559852300839" lon="-108.0021410821069"><ele>1769.0</ele><time>2026-04-11T17:35:45.001Z</time></trkpt><trkpt lat="36.79547907775263" lon="-108.0020357265674"><ele>1769.0</ele><time>2026-04-11T17:35:46.001Z</time></trkpt><trkpt lat="36.79538699936248" lon="-108.00194871877157"><ele>1769.0</ele><time>2026-04-11T17:35:47.001Z</time></trkpt><trkpt lat="36.79532107031102" lon="-108.00189370963236"><ele>1769.0</ele><time>2026-04-11T17:35:48.001Z</time></trkpt><trkpt lat="36.79526206431992" lon="-108.00184248717815"><ele>1769.0</ele><time>2026-04-11T17:35:49.001Z</time></trkpt><trkpt lat="36.7952018073213" lon="-108.00179711422133"><ele>1769.0</ele><time>2026-04-11T17:35:50.001Z</time></trkpt><trkpt lat="36.795104436786396" lon="-108.00180331360363"><ele>1769.0</ele><time>2026-04-11T17:35:52.001Z</time></trkpt><trkpt lat="36.79505022066269" lon="-108.0018718892038"><ele>1769.0</ele><time>2026-04-11T17:35:54.001Z</time></trkpt><trkpt lat="36.7950644037752" lon="-108.00199171077153"><ele>1769.0</ele><time>2026-04-11T17:35:56.001Z</time></trkpt><trkpt lat="36.79507089090278" lon="-108.00213107991623"><ele>1769.0</ele><time>2026-04-11T17:35:57.001Z</time></trkpt><trkpt lat="36.795071139426184" lon="-108.00227351027803"><ele>1768.9999999999998</ele><time>2026-04-11T17:35:58.001Z</time></trkpt><trkpt lat="36.79506068289199" lon="-108.00237732828349"><ele>1769.0</ele><time>2026-04-11T17:35:59.001Z</time></trkpt><trkpt lat="36.79508078565579" lon="-108.00248003737723"><ele>1769.0</ele><time>2026-04-11T17:36:01.001Z</time></trkpt><trkpt lat="36.79516453484381" lon="-108.00249468595058"><ele>1769.0</ele><time>2026-04-11T17:36:03.001Z</time></trkpt><trkpt lat="36.795243074235536" lon="-108.00245071860925"><ele>1768.9999999999998</ele><time>2026-04-11T17:36:04.001Z</time></trkpt><trkpt lat="36.795329614150624" lon="-108.00242357358005"><ele>1769.0</ele><time>2026-04-11T17:36:05.001Z</time></trkpt><trkpt lat="36.79539373870499" lon="-108.00241657803782"><ele>1768.9999999999998</ele><time>2026-04-11T17:36:06.001Z</time></trkpt><trkpt lat="36.795466469063996" lon="-108.00243052352401"><ele>1769.0</ele><time>2026-04-11T17:36:07.001Z</time></trkpt><trkpt lat="36.79556324078027" lon="-108.00245235788863"><ele>1769.0</ele><time>2026-04-11T17:36:08.001Z</time></trkpt><trkpt lat="36.79564932689692" lon="-108.00245869279827"><ele>1769.0</ele><time>2026-04-11T17:36:09.001Z</time></trkpt><trkpt lat="36.79574383837295" lon="-108.00245680257217"><ele>1768.9999999999998</ele><time>2026-04-11T17:36:11.001Z</time></trkpt><trkpt lat="36.79576258496439" lon="-108.00236764460296"><ele>1769.0</ele><time>2026-04-11T17:36:13.001Z</time></trkpt><trkpt lat="36.79572199291377" lon="-108.00228083125623"><ele>1769.0</ele><time>2026-04-11T17:36:14.001Z</time></trkpt><trkpt lat="36.79563287955582" lon="-108.00218314525209"><ele>1769.0</ele><time>2026-04-11T17:36:15.001Z</time></trkpt><trkpt lat="36.795524494903866" lon="-108.0020798823458"><ele>1769.0</ele><time>2026-04-11T17:36:16.001Z</time></trkpt><trkpt lat="36.79542653145012" lon="-108.00198724186743"><ele>1769.0</ele><time>2026-04-11T17:36:17.001Z</time></trkpt><trkpt lat="36.79534864513097" lon="-108.00191645385686"><ele>1768.9999999999998</ele><time>2026-04-11T17:36:18.001Z</time></trkpt><trkpt lat="36.79528003644109" lon="-108.00186002710267"><ele>1769.0</ele><time>2026-04-11T17:36:19.001Z</time></trkpt><trkpt lat="36.79521361284638" lon="-108.00181299574527"><ele>1769.0</ele><time>2026-04-11T17:36:20.001Z</time></trkpt><trkpt lat="36.795151021049406" lon="-108.0017891539427"><ele>1769.0</ele><time>2026-04-11T17:36:21.001Z</time></trkpt><trkpt lat="36.79507336305319" lon="-108.00179549192961"><ele>1768.9999999999998</ele><time>2026-04-11T17:36:23.001Z</time></trkpt><trkpt lat="36.79503357519745" lon="-108.00187597759843"><ele>1769.0</ele><time>2026-04-11T17:36:25.001Z</time></trkpt><trkpt lat="36.79505681198388" lon="-108.00204757209598"><ele>1769.0</ele><time>2026-04-11T17:36:27.001Z</time></trkpt><trkpt lat="36.79505930166192" lon="-108.00220527262412"><ele>1769.0</ele><time>2026-04-11T17:36:28.001Z</time></trkpt><trkpt lat="36.79505113412445" lon="-108.00233326048136"><ele>1769.0</ele><time>2026-04-11T17:36:29.001Z</time></trkpt><trkpt lat="36.79505126712784" lon="-108.00241251131975"><ele>1769.0</ele><time>2026-04-11T17:36:30.001Z</time></trkpt><trkpt lat="36.79511182996724" lon="-108.00249275004433"><ele>1769.0</ele><time>2026-04-11T17:36:32.001Z</time></trkpt><trkpt lat="36.79521855557765" lon="-108.00248628878217"><ele>1769.0</ele><time>2026-04-11T17:36:34.001Z</time></trkpt><trkpt lat="36.79530469939706" lon="-108.00244506132931"><ele>1769.0</ele><time>2026-04-11T17:36:35.001Z</time></trkpt><trkpt lat="36.79541962225679" lon="-108.0024213269107"><ele>1769.0</ele><time>2026-04-11T17:36:36.001Z</time></trkpt><trkpt lat="36.79556717529713" lon="-108.0024177065892"><ele>1769.0</ele><time>2026-04-11T17:36:37.002Z</time></trkpt><trkpt lat="36.79568886694245" lon="-108.00242937386582"><ele>1768.9999999999998</ele><time>2026-04-11T17:36:38.002Z</time></trkpt><trkpt lat="36.795779815665476" lon="-108.00244386392669"><ele>1769.0</ele><time>2026-04-11T17:36:39Z</time></trkpt><trkpt lat="36.79584746717201" lon="-108.00244681459425"><ele>1769.0</ele><time>2026-04-11T17:36:40Z</time></trkpt><trkpt lat="36.7959027208912" lon="-108.00238629032931"><ele>1769.0</ele><time>2026-04-11T17:36:42Z</time></trkpt><trkpt lat="36.79584335185999" lon="-108.00229356997293"><ele>1768.9999999999998</ele><time>2026-04-11T17:36:44Z</time></trkpt><trkpt lat="36.795762641919566" lon="-108.00226378541426"><ele>1769.0</ele><time>2026-04-11T17:36:45Z</time></trkpt><trkpt lat="36.795649186047825" lon="-108.00222192537554"><ele>1769.0</ele><time>2026-04-11T17:36:46Z</time></trkpt><trkpt lat="36.79555326918525" lon="-108.00213293202049"><ele>1769.0</ele><time>2026-04-11T17:36:47Z</time></trkpt><trkpt lat="36.79545531376853" lon="-108.00202070430511"><ele>1769.0</ele><time>2026-04-11T17:36:48Z</time></trkpt><trkpt lat="36.795365231296664" lon="-108.00192513851255"><ele>1769.0</ele><time>2026-04-11T17:36:49Z</time></trkpt><trkpt lat="36.79529890372741" lon="-108.00185428779346"><ele>1768.9999999999998</ele><time>2026-04-11T17:36:50Z</time></trkpt><trkpt lat="36.79523339250672" lon="-108.00181054937612"><ele>1769.0</ele><time>2026-04-11T17:36:51Z</time></trkpt><trkpt lat="36.79516487635093" lon="-108.00177885639458"><ele>1769.0</ele><time>2026-04-11T17:36:52Z</time></trkpt><trkpt lat="36.795081400838676" lon="-108.0017995240574"><ele>1769.0</ele><time>2026-04-11T17:36:54Z</time></trkpt><trkpt lat="36.79504670311046" lon="-108.00188069424311"><ele>1768.9999999999998</ele><time>2026-04-11T17:36:56Z</time></trkpt><trkpt lat="36.79507216702472" lon="-108.00201747887527"><ele>1769.0</ele><time>2026-04-11T17:36:58Z</time></trkpt><trkpt lat="36.795079949244474" lon="-108.00214837106454"><ele>1769.0</ele><time>2026-04-11T17:36:59Z</time></trkpt><trkpt lat="36.79506997877579" lon="-108.00227960566266"><ele>1769.0</ele><time>2026-04-11T17:37:00Z</time></trkpt><trkpt lat="36.79505314575798" lon="-108.00237663719955"><ele>1769.0</ele><time>2026-04-11T17:37:01Z</time></trkpt><trkpt lat="36.79507911048937" lon="-108.00247887228846"><ele>1769.0</ele><time>2026-04-11T17:37:03Z</time></trkpt><trkpt lat="36.79517926389912" lon="-108.00249852400061"><ele>1769.0</ele><time>2026-04-11T17:37:05Z</time></trkpt><trkpt lat="36.795319027955244" lon="-108.00243834022508"><ele>1769.0</ele><time>2026-04-11T17:37:07Z</time></trkpt><trkpt lat="36.79543793842493" lon="-108.00241853244314"><ele>1769.0</ele><time>2026-04-11T17:37:08Z</time></trkpt><trkpt lat="36.79557067427569" lon="-108.00242081484855"><ele>1769.0</ele><time>2026-04-11T17:37:09Z</time></trkpt><trkpt lat="36.79566801013667" lon="-108.00244200844944"><ele>1769.0</ele><time>2026-04-11T17:37:10Z</time></trkpt><trkpt lat="36.79573022833237" lon="-108.00245825917075"><ele>1769.0</ele><time>2026-04-11T17:37:11Z</time></trkpt><trkpt lat="36.79577468145845" lon="-108.00239257829335"><ele>1769.0</ele><time>2026-04-11T17:37:14Z</time></trkpt><trkpt lat="36.795710252747" lon="-108.00226116024473"><ele>1769.0</ele><time>2026-04-11T17:37:16Z</time></trkpt><trkpt lat="36.795630442784386" lon="-108.00217099636774"><ele>1769.0</ele><time>2026-04-11T17:37:17Z</time></trkpt><trkpt lat="36.795528824556676" lon="-108.00208054641942"><ele>1769.0</ele><time>2026-04-11T17:37:18Z</time></trkpt><trkpt lat="36.79542623369802" lon="-108.00198218946666"><ele>1768.9999999999998</ele><time>2026-04-11T17:37:19Z</time></trkpt><trkpt lat="36.795346802577406" lon="-108.00190634035732"><ele>1769.0</ele><time>2026-04-11T17:37:20Z</time></trkpt><trkpt lat="36.79528444792924" lon="-108.00184849908831"><ele>1769.0</ele><time>2026-04-11T17:37:21Z</time></trkpt><trkpt lat="36.79522583504248" lon="-108.0017983478186"><ele>1769.0</ele><time>2026-04-11T17:37:22Z</time></trkpt><trkpt lat="36.795119038478475" lon="-108.00179851507758"><ele>1768.9999999999998</ele><time>2026-04-11T17:37:24.001Z</time></trkpt><trkpt lat="36.79505418738614" lon="-108.0018397794917"><ele>1769.0</ele><time>2026-04-11T17:37:26.001Z</time></trkpt><trkpt lat="36.79505592955626" lon="-108.00193770250611"><ele>1769.0</ele><time>2026-04-11T17:37:28.001Z</time></trkpt><trkpt lat="36.79506449628368" lon="-108.00202247591922"><ele>1769.0</ele><time>2026-04-11T17:37:29.001Z</time></trkpt><trkpt lat="36.79506844733102" lon="-108.00216488570481"><ele>1769.0</ele><time>2026-04-11T17:37:30.001Z</time></trkpt><trkpt lat="36.79506338800636" lon="-108.00230351534017"><ele>1769.0</ele><time>2026-04-11T17:37:31.001Z</time></trkpt><trkpt lat="36.795051244570715" lon="-108.0024005230819"><ele>1769.0</ele><time>2026-04-11T17:37:32.001Z</time></trkpt><trkpt lat="36.795096459825" lon="-108.00248039146405"><ele>1769.0</ele><time>2026-04-11T17:37:34.001Z</time></trkpt><trkpt lat="36.79524766567684" lon="-108.0024540711424"><ele>1769.0</ele><time>2026-04-11T17:37:36.001Z</time></trkpt><trkpt lat="36.79535873939336" lon="-108.00243311350411"><ele>1769.0</ele><time>2026-04-11T17:37:37.001Z</time></trkpt><trkpt lat="36.79544838237164" lon="-108.0024323834767"><ele>1769.0</ele><time>2026-04-11T17:37:38.001Z</time></trkpt><trkpt lat="36.79552459016753" lon="-108.00243879900853"><ele>1769.0</ele><time>2026-04-11T17:37:39.001Z</time></trkpt><trkpt lat="36.79559037726009" lon="-108.00243449346529"><ele>1768.9999999999998</ele><time>2026-04-11T17:37:40.001Z</time></trkpt><trkpt lat="36.795696111813236" lon="-108.00245318637516"><ele>1769.0</ele><time>2026-04-11T17:37:42.001Z</time></trkpt><trkpt lat="36.795769327363395" lon="-108.00244655413896"><ele>1769.0</ele><time>2026-04-11T17:37:44.001Z</time></trkpt><trkpt lat="36.79582689945839" lon="-108.00240517500235"><ele>1769.0</ele><time>2026-04-11T17:37:47.001Z</time></trkpt><trkpt lat="36.79579035924449" lon="-108.0023350084113"><ele>1768.9999999999998</ele><time>2026-04-11T17:37:50.001Z</time></trkpt><trkpt lat="36.79570824087485" lon="-108.00225473187517"><ele>1769.0</ele><time>2026-04-11T17:37:51.001Z</time></trkpt><trkpt lat="36.795606472542374" lon="-108.00216607273602"><ele>1769.0</ele><time>2026-04-11T17:37:52.001Z</time></trkpt><trkpt lat="36.79550089093828" lon="-108.00205761742646"><ele>1769.0</ele><time>2026-04-11T17:37:53.001Z</time></trkpt><trkpt lat="36.795407012026025" lon="-108.00196519451116"><ele>1769.0</ele><time>2026-04-11T17:37:54.001Z</time></trkpt><trkpt lat="36.79533855037187" lon="-108.00189902305667"><ele>1769.0</ele><time>2026-04-11T17:37:55.001Z</time></trkpt><trkpt lat="36.79527789335696" lon="-108.0018434075748"><ele>1769.0</ele><time>2026-04-11T17:37:56.001Z</time></trkpt><trkpt lat="36.79521600189089" lon="-108.00179958631226"><ele>1769.0</ele><time>2026-04-11T17:37:57.001Z</time></trkpt><trkpt lat="36.795104628105484" lon="-108.00178331853498"><ele>1769.0</ele><time>2026-04-11T17:37:59.001Z</time></trkpt><trkpt lat="36.7950511879092" lon="-108.00185036970642"><ele>1769.0</ele><time>2026-04-11T17:38:01.001Z</time></trkpt><trkpt lat="36.79506483906865" lon="-108.00194752868549"><ele>1769.0</ele><time>2026-04-11T17:38:03.001Z</time></trkpt><trkpt lat="36.79506734388525" lon="-108.00210579734937"><ele>1769.0</ele><time>2026-04-11T17:38:05.001Z</time></trkpt><trkpt lat="36.79506707788042" lon="-108.00219108919433"><ele>1769.0</ele><time>2026-04-11T17:38:06.001Z</time></trkpt><trkpt lat="36.79505777039365" lon="-108.00231227142542"><ele>1769.0</ele><time>2026-04-11T17:38:07.001Z</time></trkpt><trkpt lat="36.795053155228715" lon="-108.00240930401158"><ele>1769.0</ele><time>2026-04-11T17:38:08.001Z</time></trkpt><trkpt lat="36.79510282428245" lon="-108.00247673322126"><ele>1769.0</ele><time>2026-04-11T17:38:10.001Z</time></trkpt><trkpt lat="36.795226297504065" lon="-108.00248135620501"><ele>1769.0</ele><time>2026-04-11T17:38:12.001Z</time></trkpt><trkpt lat="36.7953245796166" lon="-108.00244673109718"><ele>1769.0</ele><time>2026-04-11T17:38:13.001Z</time></trkpt><trkpt lat="36.79544258578957" lon="-108.00242162258496"><ele>1769.0</ele><time>2026-04-11T17:38:14.001Z</time></trkpt><trkpt lat="36.795554343542896" lon="-108.00242637132885"><ele>1769.0</ele><time>2026-04-11T17:38:15.001Z</time></trkpt><trkpt lat="36.795637959682416" lon="-108.00244674396485"><ele>1769.0</ele><time>2026-04-11T17:38:16.001Z</time></trkpt><trkpt lat="36.795706603747604" lon="-108.00246296379589"><ele>1769.0</ele><time>2026-04-11T17:38:17.001Z</time></trkpt><trkpt lat="36.795768391205904" lon="-108.00243013246146"><ele>1769.0</ele><time>2026-04-11T17:38:19.001Z</time></trkpt><trkpt lat="36.795712951249634" lon="-108.00228530315502"><ele>1769.0</ele><time>2026-04-11T17:38:21.001Z</time></trkpt><trkpt lat="36.79564012110138" lon="-108.00218503206268"><ele>1769.0</ele><time>2026-04-11T17:38:22.001Z</time></trkpt><trkpt lat="36.79553188553703" lon="-108.00207472363562"><ele>1769.0</ele><time>2026-04-11T17:38:23.001Z</time></trkpt><trkpt lat="36.795427658362584" lon="-108.00198306659128"><ele>1768.9999999999998</ele><time>2026-04-11T17:38:24.001Z</time></trkpt><trkpt lat="36.79535272716623" lon="-108.00191964529039"><ele>1769.0</ele><time>2026-04-11T17:38:25.001Z</time></trkpt><trkpt lat="36.79528827282991" lon="-108.00186507400097"><ele>1769.0</ele><time>2026-04-11T17:38:26.001Z</time></trkpt><trkpt lat="36.79522345631723" lon="-108.00180587889105"><ele>1769.0</ele><time>2026-04-11T17:38:27.001Z</time></trkpt><trkpt lat="36.7951586360329" lon="-108.00177516202211"><ele>1768.9999999999998</ele><time>2026-04-11T17:38:28.001Z</time></trkpt><trkpt lat="36.79508329312914" lon="-108.00174990751039"><ele>1769.0</ele><time>2026-04-11T17:38:29.001Z</time></trkpt><trkpt lat="36.79499098648443" lon="-108.00172518565269"><ele>1769.0</ele><time>2026-04-11T17:38:30.001Z</time></trkpt><trkpt lat="36.79490012257378" lon="-108.00170290428458"><ele>1769.0</ele><time>2026-04-11T17:38:31.001Z</time></trkpt><trkpt lat="36.794798804743145" lon="-108.00168900167812"><ele>1769.0</ele><time>2026-04-11T17:38:32.001Z</time></trkpt><trkpt lat="36.7946698171461" lon="-108.00166242873017"><ele>1769.0</ele><time>2026-04-11T17:38:33.001Z</time></trkpt><trkpt lat="36.794564030355595" lon="-108.00163766240006"><ele>1769.0</ele><time>2026-04-11T17:38:34.001Z</time></trkpt><trkpt lat="36.79449207749584" lon="-108.00161002693285"><ele>1768.8333333333333</ele><time>2026-04-11T17:38:35.001Z</time></trkpt><trkpt lat="36.79444419157446" lon="-108.0015526684787"><ele>1768.6666666666665</ele><time>2026-04-11T17:38:36.001Z</time></trkpt><trkpt lat="36.79440624488004" lon="-108.00144322597055"><ele>1768.5</ele><time>2026-04-11T17:38:37.001Z</time></trkpt><trkpt lat="36.79436550670161" lon="-108.0012946051107"><ele>1768.3333333333335</ele><time>2026-04-11T17:38:38.001Z</time></trkpt><trkpt lat="36.79432146242245" lon="-108.00120101356315"><ele>1768.1666666666667</ele><time>2026-04-11T17:38:39.001Z</time></trkpt><trkpt lat="36.79426008375959" lon="-108.00116560501752"><ele>1768.0</ele><time>2026-04-11T17:38:40.001Z</time></trkpt><trkpt lat="36.794170686479966" lon="-108.00116081251598"><ele>1768.8000000000002</ele><time>2026-04-11T17:38:41.001Z</time></trkpt><trkpt lat="36.79405810253827" lon="-108.00117300425524"><ele>1769.6000000000001</ele><time>2026-04-11T17:38:42.001Z</time></trkpt><trkpt lat="36.79398236511587" lon="-108.00117840082596"><ele>1770.3999999999999</ele><time>2026-04-11T17:38:43.001Z</time></trkpt><trkpt lat="36.79396112969458" lon="-108.00128796677193"><ele>1771.1999999999998</ele><time>2026-04-11T17:38:46Z</time></trkpt><trkpt lat="36.79395383780342" lon="-108.00142772135808"><ele>1772.0</ele><time>2026-04-11T17:38:48Z</time></trkpt><trkpt lat="36.79394862621096" lon="-108.0015669451302"><ele>1772.0</ele><time>2026-04-11T17:38:49Z</time></trkpt><trkpt lat="36.793948947076196" lon="-108.001739109865"><ele>1772.0</ele><time>2026-04-11T17:38:50Z</time></trkpt><trkpt lat="36.79395036545279" lon="-108.0019175484021"><ele>1772.0</ele><time>2026-04-11T17:38:51Z</time></trkpt><trkpt lat="36.793943543189805" lon="-108.00207134042371"><ele>1772.0</ele><time>2026-04-11T17:38:52Z</time></trkpt><trkpt lat="36.79392241750222" lon="-108.00222281473287"><ele>1772.0</ele><time>2026-04-11T17:38:53Z</time></trkpt><trkpt lat="36.793892098237464" lon="-108.00236320580481"><ele>1771.9999999999998</ele><time>2026-04-11T17:38:54Z</time></trkpt><trkpt lat="36.79385363050025" lon="-108.00249630232555"><ele>1771.9999999999998</ele><time>2026-04-11T17:38:55Z</time></trkpt><trkpt lat="36.79382313103673" lon="-108.00260177578086"><ele>1772.0</ele><time>2026-04-11T17:38:56Z</time></trkpt><trkpt lat="36.79378677091645" lon="-108.00270049795482"><ele>1772.0</ele><time>2026-04-11T17:38:57Z</time></trkpt><trkpt lat="36.79374160087774" lon="-108.00282348327983"><ele>1771.8333333333333</ele><time>2026-04-11T17:38:58Z</time></trkpt><trkpt lat="36.79370116576814" lon="-108.00293627232"><ele>1771.6666666666665</ele><time>2026-04-11T17:38:59Z</time></trkpt><trkpt lat="36.793659420037535" lon="-108.00301021117542"><ele>1771.5</ele><time>2026-04-11T17:39:00Z</time></trkpt><trkpt lat="36.79363975916954" lon="-108.00309277629115"><ele>1771.3333333333335</ele><time>2026-04-11T17:39:01Z</time></trkpt><trkpt lat="36.79364135304816" lon="-108.00318405091211"><ele>1771.1666666666667</ele><time>2026-04-11T17:39:02Z</time></trkpt><trkpt lat="36.793637958641675" lon="-108.00330778591855"><ele>1771.0</ele><time>2026-04-11T17:39:03Z</time></trkpt><trkpt lat="36.79364448146389" lon="-108.0034607574299"><ele>1771.75</ele><time>2026-04-11T17:39:04Z</time></trkpt><trkpt lat="36.79365793273038" lon="-108.00362517267932"><ele>1772.5</ele><time>2026-04-11T17:39:05Z</time></trkpt><trkpt lat="36.79363110402076" lon="-108.00377611012732"><ele>1773.25</ele><time>2026-04-11T17:39:06Z</time></trkpt><trkpt lat="36.79358803109138" lon="-108.00390607893196"><ele>1774.0</ele><time>2026-04-11T17:39:07Z</time></trkpt><trkpt lat="36.79357368835299" lon="-108.00407151195026"><ele>1774.25</ele><time>2026-04-11T17:39:08Z</time></trkpt><trkpt lat="36.79356001899499" lon="-108.00423930248634"><ele>1774.5</ele><time>2026-04-11T17:39:09Z</time></trkpt><trkpt lat="36.79352087361171" lon="-108.0043920928865"><ele>1774.75</ele><time>2026-04-11T17:39:10Z</time></trkpt><trkpt lat="36.79348928796749" lon="-108.00454965632545"><ele>1775.0</ele><time>2026-04-11T17:39:11Z</time></trkpt><trkpt lat="36.793464861083855" lon="-108.00470785309514"><ele>1776.0</ele><time>2026-04-11T17:39:12Z</time></trkpt><trkpt lat="36.79346382886462" lon="-108.00482474045471"><ele>1777.0</ele><time>2026-04-11T17:39:13Z</time></trkpt><trkpt lat="36.79342493488872" lon="-108.00490911587409"><ele>1778.0</ele><time>2026-04-11T17:39:16Z</time></trkpt><trkpt lat="36.79334105006692" lon="-108.00488968072176"><ele>1779.0</ele><time>2026-04-11T17:39:18Z</time></trkpt><trkpt lat="36.79322276091425" lon="-108.00490635601763"><ele>1780.0</ele><time>2026-04-11T17:39:20Z</time></trkpt><trkpt lat="36.793140484093854" lon="-108.0049216530272"><ele>1780.0000000000002</ele><time>2026-04-11T17:39:21Z</time></trkpt><trkpt lat="36.79303946500622" lon="-108.00494142912362"><ele>1780.0</ele><time>2026-04-11T17:39:22Z</time></trkpt><trkpt lat="36.79296984785296" lon="-108.00499422699272"><ele>1780.0</ele><time>2026-04-11T17:39:23Z</time></trkpt><trkpt lat="36.79289536029557" lon="-108.00502095003132"><ele>1780.0</ele><time>2026-04-11T17:39:24Z</time></trkpt><trkpt lat="36.792816763961596" lon="-108.00501716472483"><ele>1780.0000000000002</ele><time>2026-04-11T17:39:25Z</time></trkpt><trkpt lat="36.79271562367299" lon="-108.00499902462191"><ele>1780.0</ele><time>2026-04-11T17:39:26Z</time></trkpt><trkpt lat="36.79262412581374" lon="-108.00496932393186"><ele>1780.6</ele><time>2026-04-11T17:39:27Z</time></trkpt><trkpt lat="36.79253368059859" lon="-108.00493367629731"><ele>1781.2</ele><time>2026-04-11T17:39:28Z</time></trkpt><trkpt lat="36.79242488187054" lon="-108.00490216553644"><ele>1781.8000000000002</ele><time>2026-04-11T17:39:29Z</time></trkpt><trkpt lat="36.792306813223455" lon="-108.00489680832091"><ele>1782.4</ele><time>2026-04-11T17:39:30Z</time></trkpt><trkpt lat="36.79219733995201" lon="-108.00490121218041"><ele>1783.0</ele><time>2026-04-11T17:39:31Z</time></trkpt><trkpt lat="36.792085756265735" lon="-108.00491513987704"><ele>1783.0000000000002</ele><time>2026-04-11T17:39:32.001Z</time></trkpt><trkpt lat="36.79201544234691" lon="-108.00495040963156"><ele>1783.0</ele><time>2026-04-11T17:39:33.001Z</time></trkpt><trkpt lat="36.79196387689529" lon="-108.00500260811144"><ele>1783.0</ele><time>2026-04-11T17:39:34.001Z</time></trkpt><trkpt lat="36.791892355973864" lon="-108.00507148259133"><ele>1783.0</ele><time>2026-04-11T17:39:35.001Z</time></trkpt><trkpt lat="36.791794489394924" lon="-108.00515018113867"><ele>1783.0000000000002</ele><time>2026-04-11T17:39:36.001Z</time></trkpt><trkpt lat="36.79170608209037" lon="-108.00520029774016"><ele>1783.0</ele><time>2026-04-11T17:39:37.001Z</time></trkpt><trkpt lat="36.791636453919295" lon="-108.00520813698775"><ele>1782.4</ele><time>2026-04-11T17:39:38.001Z</time></trkpt><trkpt lat="36.791574845816385" lon="-108.00519195319117"><ele>1781.8000000000002</ele><time>2026-04-11T17:39:39.001Z</time></trkpt><trkpt lat="36.79148840642414" lon="-108.00515505895817"><ele>1781.2</ele><time>2026-04-11T17:39:41.001Z</time></trkpt><trkpt lat="36.791405570211154" lon="-108.00515066917616"><ele>1780.6</ele><time>2026-04-11T17:39:42.001Z</time></trkpt><trkpt lat="36.791293914302166" lon="-108.00511291543556"><ele>1780.0</ele><time>2026-04-11T17:39:43.001Z</time></trkpt><trkpt lat="36.791193219375145" lon="-108.00506532788576"><ele>1780.0</ele><time>2026-04-11T17:39:44.001Z</time></trkpt><trkpt lat="36.7911325870688" lon="-108.00502939207541"><ele>1780.0</ele><time>2026-04-11T17:39:45.001Z</time></trkpt><trkpt lat="36.791042382658276" lon="-108.00492554452255"><ele>1780.0</ele><time>2026-04-11T17:39:47.001Z</time></trkpt><trkpt lat="36.790989780530666" lon="-108.0048579195694"><ele>1780.0</ele><time>2026-04-11T17:39:48.001Z</time></trkpt><trkpt lat="36.79092420225842" lon="-108.00476299905972"><ele>1780.0</ele><time>2026-04-11T17:39:49.001Z</time></trkpt><trkpt lat="36.79085723103518" lon="-108.00465627975566"><ele>1780.1666666666667</ele><time>2026-04-11T17:39:50.001Z</time></trkpt><trkpt lat="36.790799411590896" lon="-108.00454489086093"><ele>1780.3333333333335</ele><time>2026-04-11T17:39:51.001Z</time></trkpt><trkpt lat="36.79074897074818" lon="-108.00445859303102"><ele>1780.5</ele><time>2026-04-11T17:39:52.001Z</time></trkpt><trkpt lat="36.790705946593384" lon="-108.00439897310147"><ele>1780.6666666666665</ele><time>2026-04-11T17:39:53.001Z</time></trkpt><trkpt lat="36.790654633418185" lon="-108.00435006046945"><ele>1780.8333333333333</ele><time>2026-04-11T17:39:54.001Z</time></trkpt><trkpt lat="36.79058577632104" lon="-108.00433157267051"><ele>1781.0</ele><time>2026-04-11T17:39:55.001Z</time></trkpt><trkpt lat="36.790505398196544" lon="-108.00431713359053"><ele>1780.9999999999998</ele><time>2026-04-11T17:39:56.001Z</time></trkpt><trkpt lat="36.79043615461137" lon="-108.00429587348853"><ele>1781.0</ele><time>2026-04-11T17:39:57.001Z</time></trkpt><trkpt lat="36.79037737889589" lon="-108.00426367657685"><ele>1781.0</ele><time>2026-04-11T17:39:58.001Z</time></trkpt><trkpt lat="36.790302638653046" lon="-108.00421861468999"><ele>1781.0</ele><time>2026-04-11T17:39:59.001Z</time></trkpt><trkpt lat="36.79023088932929" lon="-108.00417775615288"><ele>1780.9999999999998</ele><time>2026-04-11T17:40:00.001Z</time></trkpt><trkpt lat="36.79013068321158" lon="-108.00410860270607"><ele>1781.0</ele><time>2026-04-11T17:40:02.001Z</time></trkpt><trkpt lat="36.790067047846016" lon="-108.00407559227139"><ele>1783.8</ele><time>2026-04-11T17:40:04.001Z</time></trkpt><trkpt lat="36.78998617631967" lon="-108.00404693708262"><ele>1786.6</ele><time>2026-04-11T17:45:40Z</time></trkpt><trkpt lat="36.78986502599748" lon="-108.00401663089322"><ele>1789.4</ele><time>2026-04-11T17:45:42Z</time></trkpt><trkpt lat="36.78978363759396" lon="-108.00401623437112"><ele>1792.2</ele><time>2026-04-11T17:45:43Z</time></trkpt><trkpt lat="36.78970387487489" lon="-108.00402581487249"><ele>1795.0</ele><time>2026-04-11T17:45:44Z</time></trkpt><trkpt lat="36.78959152871612" lon="-108.00406633148631"><ele>1795.0</ele><time>2026-04-11T17:45:46Z</time></trkpt><trkpt lat="36.78947883931162" lon="-108.00410369251684"><ele>1795.0</ele><time>2026-04-11T17:45:48Z</time></trkpt><trkpt lat="36.78936857423532" lon="-108.0041295597663"><ele>1795.0</ele><time>2026-04-11T17:45:50.001Z</time></trkpt><trkpt lat="36.78929430961155" lon="-108.00416867906978"><ele>1795.0</ele><time>2026-04-11T17:45:51.001Z</time></trkpt><trkpt lat="36.789213509865085" lon="-108.00422519270852"><ele>1795.0</ele><time>2026-04-11T17:45:53.001Z</time></trkpt><trkpt lat="36.78912903815199" lon="-108.00428430163541"><ele>1794.8333333333335</ele><time>2026-04-11T17:45:56.001Z</time></trkpt><trkpt lat="36.78905202340294" lon="-108.00430869380529"><ele>1794.6666666666667</ele><time>2026-04-11T17:45:59.001Z</time></trkpt><trkpt lat="36.78898379693713" lon="-108.00429074675165"><ele>1794.5</ele><time>2026-04-11T17:46:02.001Z</time></trkpt><trkpt lat="36.78893152065352" lon="-108.00422093431537"><ele>1794.3333333333335</ele><time>2026-04-11T17:46:05.001Z</time></trkpt><trkpt lat="36.788907753658144" lon="-108.00414422370648"><ele>1794.1666666666667</ele><time>2026-04-11T17:46:08.001Z</time></trkpt><trkpt lat="36.788951280482934" lon="-108.00400884559836"><ele>1794.0</ele><time>2026-04-11T17:46:11.001Z</time></trkpt><trkpt lat="36.78903736362729" lon="-108.00399196189291"><ele>1794.0</ele><time>2026-04-11T17:46:12.001Z</time></trkpt><trkpt lat="36.78911982610142" lon="-108.00395015038738"><ele>1794.0</ele><time>2026-04-11T17:46:13.001Z</time></trkpt><trkpt lat="36.78922175155765" lon="-108.00389822288378"><ele>1794.0</ele><time>2026-04-11T17:46:15.001Z</time></trkpt><trkpt lat="36.789288878472" lon="-108.0037869816246"><ele>1794.0</ele><time>2026-04-11T17:46:17.001Z</time></trkpt><trkpt lat="36.78933436870093" lon="-108.00369760986949"><ele>1794.0</ele><time>2026-04-11T17:46:18.001Z</time></trkpt><trkpt lat="36.78936635274733" lon="-108.00358358798489"><ele>1794.2</ele><time>2026-04-11T17:46:19.001Z</time></trkpt><trkpt lat="36.78940503057863" lon="-108.0034617126952"><ele>1794.4</ele><time>2026-04-11T17:46:20.001Z</time></trkpt><trkpt lat="36.78943991982588" lon="-108.00335442679746"><ele>1794.6</ele><time>2026-04-11T17:46:21.001Z</time></trkpt><trkpt lat="36.789475839124705" lon="-108.00325929597668"><ele>1794.8</ele><time>2026-04-11T17:46:22.001Z</time></trkpt><trkpt lat="36.78950603801471" lon="-108.0031523187176"><ele>1795.0</ele><time>2026-04-11T17:46:24.001Z</time></trkpt><trkpt lat="36.78951050200176" lon="-108.00325920809182"><ele>1795.0000000000002</ele><time>2026-04-11T17:46:30.001Z</time></trkpt><trkpt lat="36.78958645228765" lon="-108.00321009298446"><ele>1795.0</ele><time>2026-04-11T17:47:25Z</time></trkpt><trkpt lat="36.78953223342742" lon="-108.003251354968"><ele>1795.0</ele><time>2026-04-11T17:48:12.001Z</time></trkpt><trkpt lat="36.78946143426281" lon="-108.0033170636757"><ele>1795.0</ele><time>2026-04-11T17:49:02.001Z</time></trkpt><trkpt lat="36.78941777534794" lon="-108.00341142773979"><ele>1795.0000000000002</ele><time>2026-04-11T17:49:04.001Z</time></trkpt><trkpt lat="36.78937922730828" lon="-108.00353976447327"><ele>1795.0</ele><time>2026-04-11T17:49:06.001Z</time></trkpt><trkpt lat="36.78935357286908" lon="-108.00361479622565"><ele>1794.8333333333335</ele><time>2026-04-11T17:49:07.001Z</time></trkpt><trkpt lat="36.78932487772001" lon="-108.00369455120956"><ele>1794.6666666666667</ele><time>2026-04-11T17:49:08.001Z</time></trkpt><trkpt lat="36.78929825881315" lon="-108.00377216983816"><ele>1794.5</ele><time>2026-04-11T17:49:09.001Z</time></trkpt><trkpt lat="36.78924069963649" lon="-108.00389706609164"><ele>1794.3333333333335</ele><time>2026-04-11T17:49:11.001Z</time></trkpt><trkpt lat="36.78919611825987" lon="-108.00399534364803"><ele>1794.1666666666667</ele><time>2026-04-11T17:49:14.001Z</time></trkpt><trkpt lat="36.789186948126265" lon="-108.00411484857479"><ele>1794.0</ele><time>2026-04-11T17:49:17Z</time></trkpt><trkpt lat="36.78919932578494" lon="-108.00426183674149"><ele>1792.6666666666667</ele><time>2026-04-11T17:49:19Z</time></trkpt><trkpt lat="36.78919091218147" lon="-108.00436976507251"><ele>1791.3333333333335</ele><time>2026-04-11T17:49:21Z</time></trkpt><trkpt lat="36.789158888761506" lon="-108.0044487559274"><ele>1790.0</ele><time>2026-04-11T17:49:25Z</time></trkpt><trkpt lat="36.789101950980324" lon="-108.00448571059661"><ele>1788.6666666666667</ele><time>2026-04-11T17:49:29Z</time></trkpt><trkpt lat="36.78906969049655" lon="-108.00437408659852"><ele>1787.3333333333335</ele><time>2026-04-11T17:49:40Z</time></trkpt><trkpt lat="36.789031181863486" lon="-108.0043114130049"><ele>1786.0</ele><time>2026-04-11T17:49:41Z</time></trkpt><trkpt lat="36.788964004521105" lon="-108.00423225180744"><ele>1786.0</ele><time>2026-04-11T17:49:42Z</time></trkpt><trkpt lat="36.78890114140577" lon="-108.00418354054331"><ele>1786.0</ele><time>2026-04-11T17:49:43Z</time></trkpt><trkpt lat="36.78879397867397" lon="-108.0041454286942"><ele>1786.0</ele><time>2026-04-11T17:49:45Z</time></trkpt><trkpt lat="36.7886560999804" lon="-108.00415617140159"><ele>1786.0</ele><time>2026-04-11T17:49:47Z</time></trkpt><trkpt lat="36.788543537842976" lon="-108.00418429961155"><ele>1786.0</ele><time>2026-04-11T17:49:48Z</time></trkpt><trkpt lat="36.788397026165505" lon="-108.00422924785731"><ele>1785.8</ele><time>2026-04-11T17:49:49Z</time></trkpt><trkpt lat="36.78827362838629" lon="-108.00425604922951"><ele>1785.6</ele><time>2026-04-11T17:49:50Z</time></trkpt><trkpt lat="36.78815765597965" lon="-108.0042684632791"><ele>1785.4</ele><time>2026-04-11T17:49:51Z</time></trkpt><trkpt lat="36.78806425951885" lon="-108.00425679264043"><ele>1785.2</ele><time>2026-04-11T17:49:52Z</time></trkpt><trkpt lat="36.787975112610766" lon="-108.00422053086136"><ele>1785.0</ele><time>2026-04-11T17:49:53Z</time></trkpt><trkpt lat="36.787863857592086" lon="-108.00415903385012"><ele>1785.0</ele><time>2026-04-11T17:49:54Z</time></trkpt><trkpt lat="36.78776663163239" lon="-108.00411042764244"><ele>1785.0</ele><time>2026-04-11T17:49:55Z</time></trkpt><trkpt lat="36.78766316160941" lon="-108.00403474249461"><ele>1785.0</ele><time>2026-04-11T17:49:56Z</time></trkpt><trkpt lat="36.78758673241281" lon="-108.00396501939734"><ele>1785.0</ele><time>2026-04-11T17:49:57Z</time></trkpt><trkpt lat="36.787529877410485" lon="-108.00391809003287"><ele>1785.0</ele><time>2026-04-11T17:49:58Z</time></trkpt><trkpt lat="36.78743846341367" lon="-108.00385748170356"><ele>1784.8333333333333</ele><time>2026-04-11T17:50:00Z</time></trkpt><trkpt lat="36.787385384797076" lon="-108.00379327306209"><ele>1784.6666666666665</ele><time>2026-04-11T17:50:01Z</time></trkpt><trkpt lat="36.787322390012825" lon="-108.00371596602402"><ele>1784.5</ele><time>2026-04-11T17:50:02Z</time></trkpt><trkpt lat="36.78727412224857" lon="-108.0036512880896"><ele>1784.3333333333333</ele><time>2026-04-11T17:50:03Z</time></trkpt><trkpt lat="36.78722009766088" lon="-108.00359997135051"><ele>1784.1666666666665</ele><time>2026-04-11T17:50:04Z</time></trkpt><trkpt lat="36.78715847507267" lon="-108.00362084672437"><ele>1784.0</ele><time>2026-04-11T17:50:05Z</time></trkpt><trkpt lat="36.78704365524886" lon="-108.00362694129039"><ele>1783.9999999999998</ele><time>2026-04-11T17:50:07.001Z</time></trkpt><trkpt lat="36.78696126163391" lon="-108.00357601012169"><ele>1784.0</ele><time>2026-04-11T17:50:09.001Z</time></trkpt><trkpt lat="36.786901516693355" lon="-108.00351445018799"><ele>1784.0</ele><time>2026-04-11T17:50:10.001Z</time></trkpt><trkpt lat="36.78681638318632" lon="-108.00348050465324"><ele>1784.0</ele><time>2026-04-11T17:50:11.001Z</time></trkpt><trkpt lat="36.786725478314516" lon="-108.00351795483056"><ele>1783.9999999999998</ele><time>2026-04-11T17:50:13.001Z</time></trkpt><trkpt lat="36.7866762611526" lon="-108.00359980206035"><ele>1784.0</ele><time>2026-04-11T17:50:15.001Z</time></trkpt><trkpt lat="36.786614310852485" lon="-108.00362672620533"><ele>1785.2</ele><time>2026-04-11T17:50:17.001Z</time></trkpt><trkpt lat="36.78655086034826" lon="-108.00360563278204"><ele>1786.4</ele><time>2026-04-11T17:50:20.001Z</time></trkpt><trkpt lat="36.78638129175179" lon="-108.00350388968894"><ele>1787.6</ele><time>2026-04-11T17:50:22.001Z</time></trkpt><trkpt lat="36.78627460418521" lon="-108.00342655502995"><ele>1788.8</ele><time>2026-04-11T17:50:24.001Z</time></trkpt><trkpt lat="36.786208831954376" lon="-108.0033970530052"><ele>1790.0</ele><time>2026-04-11T17:50:25.001Z</time></trkpt><trkpt lat="36.78611127169028" lon="-108.00338444309978"><ele>1790.6</ele><time>2026-04-11T17:50:27.001Z</time></trkpt><trkpt lat="36.78602297490773" lon="-108.00328961611066"><ele>1791.2</ele><time>2026-04-11T17:50:29.001Z</time></trkpt><trkpt lat="36.78590829340329" lon="-108.00326719002834"><ele>1791.8000000000002</ele><time>2026-04-11T17:50:31.001Z</time></trkpt><trkpt lat="36.78580082780563" lon="-108.00326939834717"><ele>1792.4</ele><time>2026-04-11T17:50:33.001Z</time></trkpt><trkpt lat="36.78573423414278" lon="-108.00325407159856"><ele>1793.0</ele><time>2026-04-11T17:50:34.001Z</time></trkpt><trkpt lat="36.78566338467004" lon="-108.00322895393658"><ele>1794.2</ele><time>2026-04-11T17:50:35.001Z</time></trkpt><trkpt lat="36.78558255918503" lon="-108.00320647048655"><ele>1795.4</ele><time>2026-04-11T17:50:36.001Z</time></trkpt><trkpt lat="36.78550348860085" lon="-108.00317929491592"><ele>1796.6000000000001</ele><time>2026-04-11T17:50:37.001Z</time></trkpt><trkpt lat="36.78542508036635" lon="-108.0031153777481"><ele>1797.8000000000002</ele><time>2026-04-11T17:50:38.001Z</time></trkpt><trkpt lat="36.785338976124876" lon="-108.00304226223054"><ele>1799.0</ele><time>2026-04-11T17:50:39.001Z</time></trkpt><trkpt lat="36.78524882426928" lon="-108.00298544274298"><ele>1800.1666666666665</ele><time>2026-04-11T17:50:40.001Z</time></trkpt><trkpt lat="36.7851605819392" lon="-108.0029591950506"><ele>1801.3333333333333</ele><time>2026-04-11T17:50:41.001Z</time></trkpt><trkpt lat="36.785081011351785" lon="-108.0030040416584"><ele>1802.5</ele><time>2026-04-11T17:50:42.001Z</time></trkpt><trkpt lat="36.78505604153096" lon="-108.00288790797813"><ele>1803.6666666666665</ele><time>2026-04-11T17:50:44.001Z</time></trkpt><trkpt lat="36.78502637508916" lon="-108.00279459221173"><ele>1804.8333333333333</ele><time>2026-04-11T17:50:45.001Z</time></trkpt><trkpt lat="36.78497432425823" lon="-108.00274528314476"><ele>1806.0</ele><time>2026-04-11T17:50:48.001Z</time></trkpt><trkpt lat="36.78500774001451" lon="-108.00263979038115"><ele>1806.0</ele><time>2026-04-11T17:50:56.001Z</time></trkpt><trkpt lat="36.78505951471863" lon="-108.0025696670853"><ele>1806.0</ele><time>2026-04-11T17:50:57.001Z</time></trkpt><trkpt lat="36.78509546193448" lon="-108.00249205378655"><ele>1806.0</ele><time>2026-04-11T17:50:58.001Z</time></trkpt><trkpt lat="36.78508395838118" lon="-108.00231963938553"><ele>1806.0</ele><time>2026-04-11T17:51:00.001Z</time></trkpt><trkpt lat="36.78506591249622" lon="-108.00222469431637"><ele>1806.0</ele><time>2026-04-11T17:51:01.001Z</time></trkpt><trkpt lat="36.78507218504422" lon="-108.00210589964924"><ele>1805.3333333333333</ele><time>2026-04-11T17:51:03.001Z</time></trkpt><trkpt lat="36.78510459124593" lon="-108.0020294680436"><ele>1804.6666666666665</ele><time>2026-04-11T17:51:04.001Z</time></trkpt><trkpt lat="36.78513494795965" lon="-108.00194702131816"><ele>1804.0</ele><time>2026-04-11T17:51:05.001Z</time></trkpt><trkpt lat="36.785155831871876" lon="-108.00181436432464"><ele>1803.3333333333333</ele><time>2026-04-11T17:51:07.001Z</time></trkpt><trkpt lat="36.78512850088983" lon="-108.00172762955663"><ele>1802.6666666666665</ele><time>2026-04-11T17:51:08.001Z</time></trkpt><trkpt lat="36.785082413035724" lon="-108.0016343789895"><ele>1802.0</ele><time>2026-04-11T17:51:09.001Z</time></trkpt><trkpt lat="36.78505228725511" lon="-108.00155574639119"><ele>1801.8333333333333</ele><time>2026-04-11T17:51:10.001Z</time></trkpt><trkpt lat="36.78498602488993" lon="-108.00148756181568"><ele>1801.6666666666665</ele><time>2026-04-11T17:51:12.001Z</time></trkpt><trkpt lat="36.78490144975048" lon="-108.0014148177757"><ele>1801.5</ele><time>2026-04-11T17:51:14.001Z</time></trkpt><trkpt lat="36.78493742368508" lon="-108.00133055568617"><ele>1801.3333333333335</ele><time>2026-04-11T17:51:16.001Z</time></trkpt><trkpt lat="36.784941470001336" lon="-108.00121402759189"><ele>1801.1666666666667</ele><time>2026-04-11T17:51:18.001Z</time></trkpt><trkpt lat="36.784943627793204" lon="-108.00112426466247"><ele>1801.0</ele><time>2026-04-11T17:51:19.001Z</time></trkpt><trkpt lat="36.78491501543576" lon="-108.00102252086818"><ele>1801.0</ele><time>2026-04-11T17:51:23Z</time></trkpt><trkpt lat="36.78493558087852" lon="-108.00092149102376"><ele>1801.0</ele><time>2026-04-11T17:51:26Z</time></trkpt><trkpt lat="36.78493380545688" lon="-108.0007069492492"><ele>1801.0</ele><time>2026-04-11T17:51:27Z</time></trkpt><trkpt lat="36.78495828784882" lon="-108.00061926988361"><ele>1801.0</ele><time>2026-04-11T17:51:28Z</time></trkpt><trkpt lat="36.78499863074094" lon="-108.00049978541061"><ele>1801.0</ele><time>2026-04-11T17:51:30Z</time></trkpt><trkpt lat="36.78501933935546" lon="-108.00039289119113"><ele>1800.8</ele><time>2026-04-11T17:51:33Z</time></trkpt><trkpt lat="36.785104646908756" lon="-108.0002950094949"><ele>1800.6</ele><time>2026-04-11T17:51:35Z</time></trkpt><trkpt lat="36.78518390913045" lon="-108.00025063172602"><ele>1800.4</ele><time>2026-04-11T17:51:36Z</time></trkpt><trkpt lat="36.78524040966225" lon="-108.0001566726985"><ele>1800.2</ele><time>2026-04-11T17:51:38Z</time></trkpt><trkpt lat="36.78518886715597" lon="-108.00003123960077"><ele>1800.0</ele><time>2026-04-11T17:51:40Z</time></trkpt><trkpt lat="36.78515278789958" lon="-107.99995475391147"><ele>1800.0</ele><time>2026-04-11T17:51:41Z</time></trkpt><trkpt lat="36.7850795921773" lon="-107.99987332152467"><ele>1800.0</ele><time>2026-04-11T17:51:42Z</time></trkpt><trkpt lat="36.78500618749038" lon="-107.99979718315272"><ele>1800.0</ele><time>2026-04-11T17:51:43Z</time></trkpt><trkpt lat="36.78493048746912" lon="-107.99973804603925"><ele>1800.0</ele><time>2026-04-11T17:51:44Z</time></trkpt><trkpt lat="36.78485904972577" lon="-107.99967959505398"><ele>1800.0</ele><time>2026-04-11T17:51:45Z</time></trkpt><trkpt lat="36.78479876654378" lon="-107.99964931607897"><ele>1800.0</ele><time>2026-04-11T17:51:46Z</time></trkpt><trkpt lat="36.784761794968865" lon="-107.99956018070299"><ele>1800.0</ele><time>2026-04-11T17:51:48Z</time></trkpt><trkpt lat="36.78469972097474" lon="-107.99950708361241"><ele>1800.0</ele><time>2026-04-11T17:51:49Z</time></trkpt><trkpt lat="36.784622131076404" lon="-107.99946137127158"><ele>1800.0</ele><time>2026-04-11T17:51:50Z</time></trkpt><trkpt lat="36.78456496890475" lon="-107.99937752942996"><ele>1800.0</ele><time>2026-04-11T17:51:51Z</time></trkpt><trkpt lat="36.784522679664526" lon="-107.99929497488554"><ele>1800.0</ele><time>2026-04-11T17:51:52Z</time></trkpt><trkpt lat="36.78448286812253" lon="-107.99920311641748"><ele>1800.0</ele><time>2026-04-11T17:51:54Z</time></trkpt><trkpt lat="36.784425234432874" lon="-107.99910911095868"><ele>1800.0</ele><time>2026-04-11T17:52:01Z</time></trkpt><trkpt lat="36.78436385172843" lon="-107.99904439797645"><ele>1800.0</ele><time>2026-04-11T17:52:04Z</time></trkpt><trkpt lat="36.78430775851165" lon="-107.99898104607907"><ele>1800.0</ele><time>2026-04-11T17:52:07Z</time></trkpt><trkpt lat="36.7842407792592" lon="-107.99893709948184"><ele>1800.0</ele><time>2026-04-11T17:52:10Z</time></trkpt><trkpt lat="36.78416508073919" lon="-107.99892961011265"><ele>1800.0</ele><time>2026-04-11T17:52:12Z</time></trkpt><trkpt lat="36.78408867893742" lon="-107.99893041443136"><ele>1800.0</ele><time>2026-04-11T17:52:13.001Z</time></trkpt><trkpt lat="36.78401461015171" lon="-107.99893859013312"><ele>1801.2</ele><time>2026-04-11T17:52:14.001Z</time></trkpt><trkpt lat="36.78392361421289" lon="-107.99894952879033"><ele>1802.4</ele><time>2026-04-11T17:52:15.001Z</time></trkpt><trkpt lat="36.78381835288351" lon="-107.99894709977686"><ele>1803.6</ele><time>2026-04-11T17:52:16.001Z</time></trkpt><trkpt lat="36.78371383626308" lon="-107.99895914471149"><ele>1804.8</ele><time>2026-04-11T17:52:17.001Z</time></trkpt><trkpt lat="36.78362743300591" lon="-107.99896226323385"><ele>1806.0</ele><time>2026-04-11T17:52:18.001Z</time></trkpt><trkpt lat="36.78356281018852" lon="-107.9989437062539"><ele>1806.6666666666667</ele><time>2026-04-11T17:52:19.001Z</time></trkpt><trkpt lat="36.783499747435684" lon="-107.99890024612704"><ele>1807.3333333333335</ele><time>2026-04-11T17:52:20.001Z</time></trkpt><trkpt lat="36.783461509967104" lon="-107.99883767715893"><ele>1808.0</ele><time>2026-04-11T17:52:21.001Z</time></trkpt><trkpt lat="36.78338555700302" lon="-107.99878773004502"><ele>1808.6666666666667</ele><time>2026-04-11T17:52:22.001Z</time></trkpt><trkpt lat="36.783313253664204" lon="-107.99876412078486"><ele>1809.3333333333335</ele><time>2026-04-11T17:52:23.001Z</time></trkpt><trkpt lat="36.78321549544897" lon="-107.99873267060075"><ele>1810.0</ele><time>2026-04-11T17:52:24.001Z</time></trkpt><trkpt lat="36.783117069741124" lon="-107.99870146962111"><ele>1810.0</ele><time>2026-04-11T17:52:25.001Z</time></trkpt><trkpt lat="36.78305405761215" lon="-107.99868014586761"><ele>1810.0</ele><time>2026-04-11T17:52:26.001Z</time></trkpt><trkpt lat="36.78297103004867" lon="-107.99864116936003"><ele>1810.0</ele><time>2026-04-11T17:52:27.001Z</time></trkpt><trkpt lat="36.78286419931767" lon="-107.99859499513106"><ele>1810.0</ele><time>2026-04-11T17:52:28.001Z</time></trkpt><trkpt lat="36.7827852244466" lon="-107.9985466589386"><ele>1810.0</ele><time>2026-04-11T17:52:29.001Z</time></trkpt><trkpt lat="36.78268970721382" lon="-107.99857808532856"><ele>1811.0</ele><time>2026-04-11T17:52:31.001Z</time></trkpt><trkpt lat="36.7825468956655" lon="-107.99855893574043"><ele>1812.0</ele><time>2026-04-11T17:53:55Z</time></trkpt><trkpt lat="36.7824961168219" lon="-107.99849144831103"><ele>1813.0</ele><time>2026-04-11T17:53:57Z</time></trkpt><trkpt lat="36.782444979568496" lon="-107.99839908563138"><ele>1814.0</ele><time>2026-04-11T17:53:59Z</time></trkpt><trkpt lat="36.782371439827145" lon="-107.99834506106392"><ele>1815.0</ele><time>2026-04-11T17:54:01Z</time></trkpt><trkpt lat="36.78228367287049" lon="-107.99825764937266"><ele>1816.2</ele><time>2026-04-11T17:55:22.001Z</time></trkpt><trkpt lat="36.78218670825127" lon="-107.99826962362661"><ele>1817.4</ele><time>2026-04-11T17:55:24.001Z</time></trkpt><trkpt lat="36.78207884116032" lon="-107.9982657384609"><ele>1818.6</ele><time>2026-04-11T17:55:26.001Z</time></trkpt><trkpt lat="36.781972788880736" lon="-107.99825534053744"><ele>1819.8</ele><time>2026-04-11T17:55:28.001Z</time></trkpt><trkpt lat="36.78190875816304" lon="-107.99824142006874"><ele>1821.0</ele><time>2026-04-11T17:55:29.001Z</time></trkpt><trkpt lat="36.78181325284935" lon="-107.99823522725454"><ele>1821.1666666666667</ele><time>2026-04-11T17:55:31.001Z</time></trkpt><trkpt lat="36.78173830784934" lon="-107.99813927203454"><ele>1821.3333333333335</ele><time>2026-04-11T17:55:33Z</time></trkpt><trkpt lat="36.78165570363619" lon="-107.99812343166776"><ele>1821.5</ele><time>2026-04-11T17:55:35Z</time></trkpt><trkpt lat="36.781589729541516" lon="-107.99810908920988"><ele>1821.6666666666667</ele><time>2026-04-11T17:55:47Z</time></trkpt><trkpt lat="36.781561266637546" lon="-107.998182588336"><ele>1821.8333333333335</ele><time>2026-04-11T17:55:49Z</time></trkpt><trkpt lat="36.78157193871997" lon="-107.99828167166929"><ele>1822.0</ele><time>2026-04-11T17:55:51Z</time></trkpt><trkpt lat="36.78155925353289" lon="-107.99837353732096"><ele>1822.0</ele><time>2026-04-11T17:55:54Z</time></trkpt><trkpt lat="36.78154134553991" lon="-107.99845068651108"><ele>1821.9999999999998</ele><time>2026-04-11T17:55:56Z</time></trkpt><trkpt lat="36.78149881121491" lon="-107.99851627159526"><ele>1821.9999999999998</ele><time>2026-04-11T17:55:59Z</time></trkpt><trkpt lat="36.781452936901566" lon="-107.99862127103638"><ele>1822.0</ele><time>2026-04-11T17:56:02Z</time></trkpt><trkpt lat="36.78138700096538" lon="-107.99879203262084"><ele>1822.0</ele><time>2026-04-11T17:56:04Z</time></trkpt><trkpt lat="36.78139801453188" lon="-107.99890108949305"><ele>1822.0</ele><time>2026-04-11T17:56:06Z</time></trkpt><trkpt lat="36.781372790126895" lon="-107.99900150170107"><ele>1821.9999999999998</ele><time>2026-04-11T17:56:08Z</time></trkpt><trkpt lat="36.781325219340516" lon="-107.99911856433633"><ele>1821.9999999999998</ele><time>2026-04-11T17:56:10Z</time></trkpt><trkpt lat="36.78126480550387" lon="-107.99923309896816"><ele>1822.0</ele><time>2026-04-11T17:56:12Z</time></trkpt><trkpt lat="36.78120520654756" lon="-107.99930522007872"><ele>1822.0</ele><time>2026-04-11T17:56:14Z</time></trkpt><trkpt lat="36.781117524866346" lon="-107.99942741763846"><ele>1822.3333333333335</ele><time>2026-04-11T17:56:16Z</time></trkpt><trkpt lat="36.78107574177327" lon="-107.99950369147817"><ele>1822.6666666666667</ele><time>2026-04-11T17:56:17Z</time></trkpt><trkpt lat="36.78104019153597" lon="-107.99957069014243"><ele>1823.0</ele><time>2026-04-11T17:56:18Z</time></trkpt><trkpt lat="36.781005003088346" lon="-107.99968958237105"><ele>1823.3333333333335</ele><time>2026-04-11T17:56:20Z</time></trkpt><trkpt lat="36.78101597346975" lon="-107.99980059260561"><ele>1823.6666666666667</ele><time>2026-04-11T17:56:22Z</time></trkpt><trkpt lat="36.780959445847635" lon="-107.99989893945785"><ele>1824.0</ele><time>2026-04-11T17:56:24Z</time></trkpt><trkpt lat="36.78090524137089" lon="-107.99999502721924"><ele>1824.0</ele><time>2026-04-11T17:56:26Z</time></trkpt><trkpt lat="36.78087896145418" lon="-108.00008009345368"><ele>1824.0</ele><time>2026-04-11T17:56:28Z</time></trkpt><trkpt lat="36.780813487222765" lon="-108.00017345045518"><ele>1824.0</ele><time>2026-04-11T17:56:30Z</time></trkpt><trkpt lat="36.78073903598755" lon="-108.00018909690124"><ele>1824.0</ele><time>2026-04-11T17:56:31Z</time></trkpt><trkpt lat="36.78067114694299" lon="-108.00021323550735"><ele>1824.0</ele><time>2026-04-11T17:56:32Z</time></trkpt><trkpt lat="36.78059102146969" lon="-108.0001138426249"><ele>1824.0</ele><time>2026-04-11T17:56:34Z</time></trkpt><trkpt lat="36.78053013888328" lon="-108.00008534963588"><ele>1824.0</ele><time>2026-04-11T17:56:35Z</time></trkpt><trkpt lat="36.7804385442277" lon="-108.0001576695154"><ele>1824.0</ele><time>2026-04-11T17:56:37Z</time></trkpt><trkpt lat="36.780375328680215" lon="-108.00014987300828"><ele>1824.0</ele><time>2026-04-11T17:56:38Z</time></trkpt><trkpt lat="36.7803125879302" lon="-108.00010850916638"><ele>1824.0</ele><time>2026-04-11T17:56:39Z</time></trkpt><trkpt lat="36.78025407369381" lon="-108.00004410131162"><ele>1824.0</ele><time>2026-04-11T17:56:40Z</time></trkpt><trkpt lat="36.78018696204895" lon="-107.99997630187889"><ele>1824.0</ele><time>2026-04-11T17:56:41Z</time></trkpt><trkpt lat="36.78012119789533" lon="-107.99991584870718"><ele>1825.0</ele><time>2026-04-11T17:56:42Z</time></trkpt><trkpt lat="36.7800493839246" lon="-107.99985127043882"><ele>1826.0</ele><time>2026-04-11T17:56:43Z</time></trkpt><trkpt lat="36.77999123971345" lon="-107.99981100119004"><ele>1827.0</ele><time>2026-04-11T17:56:44Z</time></trkpt><trkpt lat="36.77989982590361" lon="-107.99977259958987"><ele>1828.0</ele><time>2026-04-11T17:56:55.001Z</time></trkpt><trkpt lat="36.7797909680123" lon="-107.99974535588782"><ele>1829.0</ele><time>2026-04-11T17:56:57.001Z</time></trkpt><trkpt lat="36.77970865824292" lon="-107.99974469078063"><ele>1830.0</ele><time>2026-04-11T17:56:59.001Z</time></trkpt><trkpt lat="36.77966686328026" lon="-107.99981233143649"><ele>1830.0</ele><time>2026-04-11T17:57:01.001Z</time></trkpt><trkpt lat="36.77962168239728" lon="-107.99987609943585"><ele>1830.0</ele><time>2026-04-11T17:57:02.001Z</time></trkpt><trkpt lat="36.77950246585673" lon="-107.99991574524398"><ele>1830.0</ele><time>2026-04-11T17:57:04.001Z</time></trkpt><trkpt lat="36.77941214311522" lon="-107.99997718497757"><ele>1830.0</ele><time>2026-04-11T17:57:06.001Z</time></trkpt><trkpt lat="36.77932069090727" lon="-108.00001710354223"><ele>1830.0</ele><time>2026-04-11T17:57:08.001Z</time></trkpt><trkpt lat="36.77924332400254" lon="-108.00004045182024"><ele>1829.8333333333333</ele><time>2026-04-11T17:57:09.001Z</time></trkpt><trkpt lat="36.779180492953074" lon="-108.0000619180762"><ele>1829.6666666666665</ele><time>2026-04-11T17:57:10.001Z</time></trkpt><trkpt lat="36.77910866268108" lon="-108.00015216479106"><ele>1829.5</ele><time>2026-04-11T17:57:12.001Z</time></trkpt><trkpt lat="36.77906717322431" lon="-108.00024480305014"><ele>1829.3333333333333</ele><time>2026-04-11T17:57:13.001Z</time></trkpt><trkpt lat="36.77900385548344" lon="-108.00028665361822"><ele>1829.1666666666665</ele><time>2026-04-11T17:57:14.001Z</time></trkpt><trkpt lat="36.77891832047345" lon="-108.00030726474276"><ele>1829.0</ele><time>2026-04-11T17:57:15.001Z</time></trkpt><trkpt lat="36.77885207536005" lon="-108.00031181274565"><ele>1828.9999999999998</ele><time>2026-04-11T17:57:16.001Z</time></trkpt><trkpt lat="36.77878615950571" lon="-108.00031564475921"><ele>1829.0</ele><time>2026-04-11T17:57:19.001Z</time></trkpt><trkpt lat="36.77869954422825" lon="-108.00035372420271"><ele>1829.0</ele><time>2026-04-11T17:57:33.001Z</time></trkpt><trkpt lat="36.77860772635541" lon="-108.00042831466614"><ele>1829.0</ele><time>2026-04-11T17:57:35.001Z</time></trkpt><trkpt lat="36.77854430043308" lon="-108.00046462841014"><ele>1828.9999999999998</ele><time>2026-04-11T17:57:36.001Z</time></trkpt><trkpt lat="36.77846447602831" lon="-108.00051139799609"><ele>1829.0</ele><time>2026-04-11T17:57:37.001Z</time></trkpt><trkpt lat="36.77838664721172" lon="-108.00056192616722"><ele>1829.0</ele><time>2026-04-11T17:57:38.001Z</time></trkpt><trkpt lat="36.778269329888374" lon="-108.00062900024822"><ele>1829.0</ele><time>2026-04-11T17:57:40Z</time></trkpt><trkpt lat="36.7781831992853" lon="-108.00067760713972"><ele>1829.0</ele><time>2026-04-11T17:57:42Z</time></trkpt><trkpt lat="36.778124736359906" lon="-108.00072481719891"><ele>1829.0</ele><time>2026-04-11T17:57:43Z</time></trkpt><trkpt lat="36.77808821795862" lon="-108.00080684049682"><ele>1829.0</ele><time>2026-04-11T17:57:44Z</time></trkpt><trkpt lat="36.777990516743465" lon="-108.00084013073695"><ele>1829.0</ele><time>2026-04-11T17:57:46Z</time></trkpt><trkpt lat="36.777926788600446" lon="-108.00083221740309"><ele>1829.0</ele><time>2026-04-11T17:57:47Z</time></trkpt><trkpt lat="36.777833078736386" lon="-108.00090370755613"><ele>1829.0</ele><time>2026-04-11T17:57:49Z</time></trkpt><trkpt lat="36.77774251317559" lon="-108.00100571662136"><ele>1829.0</ele><time>2026-04-11T17:57:51Z</time></trkpt><trkpt lat="36.77766958032344" lon="-108.00101759198157"><ele>1829.0</ele><time>2026-04-11T17:57:52Z</time></trkpt><trkpt lat="36.77758203975639" lon="-108.00104153441903"><ele>1830.4</ele><time>2026-04-11T17:57:53Z</time></trkpt><trkpt lat="36.77752084722713" lon="-108.00109370497165"><ele>1831.8000000000002</ele><time>2026-04-11T17:57:54Z</time></trkpt><trkpt lat="36.77745178985612" lon="-108.0011549503482"><ele>1833.1999999999998</ele><time>2026-04-11T17:57:55Z</time></trkpt><trkpt lat="36.77734531344171" lon="-108.00118279840858"><ele>1834.6</ele><time>2026-04-11T17:57:57Z</time></trkpt><trkpt lat="36.77722288107253" lon="-108.00119521477984"><ele>1836.0</ele><time>2026-04-11T17:57:59Z</time></trkpt><trkpt lat="36.77712671164062" lon="-108.00123587068109"><ele>1836.0</ele><time>2026-04-11T17:58:00Z</time></trkpt><trkpt lat="36.77704754440828" lon="-108.00128692101724"><ele>1836.0</ele><time>2026-04-11T17:58:01Z</time></trkpt><trkpt lat="36.77698461295605" lon="-108.00134586341564"><ele>1836.0</ele><time>2026-04-11T17:58:02Z</time></trkpt><trkpt lat="36.77690445111544" lon="-108.00141881490207"><ele>1836.0</ele><time>2026-04-11T17:58:03Z</time></trkpt><trkpt lat="36.77680677377552" lon="-108.00148573257322"><ele>1836.0</ele><time>2026-04-11T17:58:04Z</time></trkpt><trkpt lat="36.776746538755404" lon="-108.00154218578898"><ele>1837.1999999999998</ele><time>2026-04-11T17:58:05Z</time></trkpt><trkpt lat="36.77666488991494" lon="-108.0016300524185"><ele>1838.3999999999999</ele><time>2026-04-11T17:58:07Z</time></trkpt><trkpt lat="36.77660457641364" lon="-108.00169070266747"><ele>1839.6</ele><time>2026-04-11T17:58:10Z</time></trkpt><trkpt lat="36.776554643670615" lon="-108.00175099129245"><ele>1840.8</ele><time>2026-04-11T17:58:12Z</time></trkpt><trkpt lat="36.77650494372968" lon="-108.00182358622857"><ele>1842.0</ele><time>2026-04-11T17:58:15Z</time></trkpt><trkpt lat="36.77641765759841" lon="-108.00195868168396"><ele>1842.0</ele><time>2026-04-11T17:58:16Z</time></trkpt><trkpt lat="36.77634755508381" lon="-108.00207021119597"><ele>1841.9999999999998</ele><time>2026-04-11T17:58:18Z</time></trkpt><trkpt lat="36.77630919246226" lon="-108.00216254202034"><ele>1841.9999999999998</ele><time>2026-04-11T17:58:20Z</time></trkpt><trkpt lat="36.776303364284566" lon="-108.0022898223068"><ele>1842.0</ele><time>2026-04-11T17:58:22Z</time></trkpt><trkpt lat="36.77629164625344" lon="-108.00240517960849"><ele>1842.0</ele><time>2026-04-11T17:58:24Z</time></trkpt><trkpt lat="36.77624703683568" lon="-108.00248669951323"><ele>1840.8333333333333</ele><time>2026-04-11T17:58:26Z</time></trkpt><trkpt lat="36.776162384104005" lon="-108.00255255770557"><ele>1839.6666666666665</ele><time>2026-04-11T17:58:28Z</time></trkpt><trkpt lat="36.77609974370581" lon="-108.00264214576829"><ele>1838.5</ele><time>2026-04-11T17:58:30Z</time></trkpt><trkpt lat="36.77611027760248" lon="-108.00275053019016"><ele>1837.3333333333333</ele><time>2026-04-11T17:58:32Z</time></trkpt><trkpt lat="36.776156802179045" lon="-108.00268794858856"><ele>1836.1666666666665</ele><time>2026-04-11T17:58:35.001Z</time></trkpt><trkpt lat="36.77613462453811" lon="-108.00276525622814"><ele>1835.0</ele><time>2026-04-11T17:59:26.001Z</time></trkpt><trkpt lat="36.77608085382361" lon="-108.00284727738548"><ele>1835.0</ele><time>2026-04-11T18:00:41.001Z</time></trkpt><trkpt lat="36.775991859538465" lon="-108.00295071410171"><ele>1835.0</ele><time>2026-04-11T18:00:43.001Z</time></trkpt><trkpt lat="36.77595019141005" lon="-108.00301408825436"><ele>1835.0</ele><time>2026-04-11T18:00:44.001Z</time></trkpt><trkpt lat="36.775891579986194" lon="-108.0031283617676"><ele>1835.0</ele><time>2026-04-11T18:00:46.001Z</time></trkpt><trkpt lat="36.7758286373935" lon="-108.0032434123105"><ele>1835.0</ele><time>2026-04-11T18:00:48.001Z</time></trkpt><trkpt lat="36.7757791083453" lon="-108.00333111735404"><ele>1833.8333333333333</ele><time>2026-04-11T18:00:49.001Z</time></trkpt><trkpt lat="36.775734942873356" lon="-108.00342448191661"><ele>1832.6666666666665</ele><time>2026-04-11T18:00:50.001Z</time></trkpt><trkpt lat="36.77571427101571" lon="-108.00351199256353"><ele>1831.5</ele><time>2026-04-11T18:00:51.001Z</time></trkpt><trkpt lat="36.77569926054934" lon="-108.00360546209097"><ele>1830.3333333333335</ele><time>2026-04-11T18:00:52.001Z</time></trkpt><trkpt lat="36.77566166506549" lon="-108.00374828126294"><ele>1829.1666666666667</ele><time>2026-04-11T18:00:54.001Z</time></trkpt><trkpt lat="36.77564156473779" lon="-108.003843130594"><ele>1828.0</ele><time>2026-04-11T18:00:55.001Z</time></trkpt><trkpt lat="36.77561224665412" lon="-108.0039235898291"><ele>1828.0000000000002</ele><time>2026-04-11T18:00:56.001Z</time></trkpt><trkpt lat="36.77557883619208" lon="-108.0039918354586"><ele>1828.0</ele><time>2026-04-11T18:00:57.001Z</time></trkpt><trkpt lat="36.77553591354745" lon="-108.00413500599718"><ele>1828.0</ele><time>2026-04-11T18:00:59.001Z</time></trkpt><trkpt lat="36.77553241723814" lon="-108.00424659872684"><ele>1828.0</ele><time>2026-04-11T18:01:00.001Z</time></trkpt><trkpt lat="36.77553051148983" lon="-108.00435022262091"><ele>1828.0000000000002</ele><time>2026-04-11T18:01:01.001Z</time></trkpt><trkpt lat="36.775488231335416" lon="-108.00444584730198"><ele>1828.0</ele><time>2026-04-11T18:01:03.001Z</time></trkpt><trkpt lat="36.77541784195905" lon="-108.00459090663745"><ele>1827.3333333333335</ele><time>2026-04-11T18:01:05.001Z</time></trkpt><trkpt lat="36.775414461284846" lon="-108.0047283156644"><ele>1826.6666666666667</ele><time>2026-04-11T18:01:07.001Z</time></trkpt><trkpt lat="36.775372766610154" lon="-108.00483776562925"><ele>1826.0</ele><time>2026-04-11T18:01:09.001Z</time></trkpt><trkpt lat="36.77532095857863" lon="-108.00490692716656"><ele>1825.3333333333335</ele><time>2026-04-11T18:01:10.001Z</time></trkpt><trkpt lat="36.775274943072105" lon="-108.00497547287138"><ele>1824.6666666666667</ele><time>2026-04-11T18:01:11.001Z</time></trkpt><trkpt lat="36.77523722696523" lon="-108.0050798812342"><ele>1824.0</ele><time>2026-04-11T18:01:13.001Z</time></trkpt><trkpt lat="36.77520747646991" lon="-108.00516016293174"><ele>1823.25</ele><time>2026-04-11T18:01:16.001Z</time></trkpt><trkpt lat="36.775148275849574" lon="-108.00531341415527"><ele>1822.5</ele><time>2026-04-11T18:01:17.001Z</time></trkpt><trkpt lat="36.775095612067354" lon="-108.0054193485007"><ele>1821.75</ele><time>2026-04-11T18:01:19.001Z</time></trkpt><trkpt lat="36.775032722409314" lon="-108.00553705690939"><ele>1821.0</ele><time>2026-04-11T18:01:21.001Z</time></trkpt><trkpt lat="36.77497657873797" lon="-108.00564621446847"><ele>1821.0</ele><time>2026-04-11T18:01:23.001Z</time></trkpt><trkpt lat="36.77496176871095" lon="-108.00577370362709"><ele>1821.0</ele><time>2026-04-11T18:01:25.001Z</time></trkpt><trkpt lat="36.77495570851278" lon="-108.00585511756793"><ele>1821.0</ele><time>2026-04-11T18:01:26.001Z</time></trkpt><trkpt lat="36.77494225770688" lon="-108.00594074910083"><ele>1821.0</ele><time>2026-04-11T18:01:27.001Z</time></trkpt><trkpt lat="36.77491185591807" lon="-108.00609949098205"><ele>1821.0</ele><time>2026-04-11T18:01:29.001Z</time></trkpt><trkpt lat="36.77489126861163" lon="-108.00618424564672"><ele>1821.0</ele><time>2026-04-11T18:01:30.001Z</time></trkpt><trkpt lat="36.774861621049496" lon="-108.0062650870657"><ele>1819.6</ele><time>2026-04-11T18:01:31.001Z</time></trkpt><trkpt lat="36.77480514184311" lon="-108.00632053178396"><ele>1818.1999999999998</ele><time>2026-04-11T18:01:32.001Z</time></trkpt><trkpt lat="36.77476284486864" lon="-108.00638784996504"><ele>1816.8000000000002</ele><time>2026-04-11T18:01:33.001Z</time></trkpt><trkpt lat="36.77474203063993" lon="-108.00646294961926"><ele>1815.4</ele><time>2026-04-11T18:01:34.001Z</time></trkpt><trkpt lat="36.77494971990031" lon="-108.00650680743036"><ele>1814.0</ele><time>2026-04-11T18:01:37.001Z</time></trkpt><trkpt lat="36.7750345621228" lon="-108.00651531619127"><ele>1813.9999999999998</ele><time>2026-04-11T18:01:38.001Z</time></trkpt><trkpt lat="36.77510186352817" lon="-108.00659979338123"><ele>1814.0</ele><time>2026-04-11T18:01:40.001Z</time></trkpt><trkpt lat="36.775169689035195" lon="-108.00662094006032"><ele>1814.0</ele><time>2026-04-11T18:01:42.001Z</time></trkpt><trkpt lat="36.775238077264596" lon="-108.00663145577457"><ele>1814.0</ele><time>2026-04-11T18:01:44.001Z</time></trkpt><trkpt lat="36.77531041975589" lon="-108.00664082275641"><ele>1813.9999999999998</ele><time>2026-04-11T18:01:47.001Z</time></trkpt><trkpt lat="36.77532271189248" lon="-108.00675332231805"><ele>1814.0</ele><time>2026-04-11T18:01:49.001Z</time></trkpt><trkpt lat="36.77535989036597" lon="-108.00684000039296"><ele>1813.4</ele><time>2026-04-11T18:01:50.001Z</time></trkpt><trkpt lat="36.77533469283249" lon="-108.00691236481671"><ele>1812.8000000000002</ele><time>2026-04-11T18:01:55Z</time></trkpt><trkpt lat="36.77518257732346" lon="-108.0069754031806"><ele>1812.1999999999998</ele><time>2026-04-11T18:01:57Z</time></trkpt><trkpt lat="36.77513038827846" lon="-108.00705423245199"><ele>1811.6</ele><time>2026-04-11T18:01:59Z</time></trkpt><trkpt lat="36.77505766290023" lon="-108.00706654283681"><ele>1811.0</ele><time>2026-04-11T18:02:01Z</time></trkpt><trkpt lat="36.77495052450952" lon="-108.00708626120739"><ele>1810.5714285714284</ele><time>2026-04-11T18:02:03Z</time></trkpt><trkpt lat="36.774886625198015" lon="-108.00711071812763"><ele>1810.1428571428573</ele><time>2026-04-11T18:02:04Z</time></trkpt><trkpt lat="36.77482418028098" lon="-108.00714908056896"><ele>1809.7142857142858</ele><time>2026-04-11T18:02:05Z</time></trkpt><trkpt lat="36.77476522804609" lon="-108.00718190731436"><ele>1809.2857142857142</ele><time>2026-04-11T18:02:06Z</time></trkpt><trkpt lat="36.77471314669749" lon="-108.00723647294139"><ele>1808.8571428571427</ele><time>2026-04-11T18:02:07Z</time></trkpt><trkpt lat="36.77464700948481" lon="-108.0072929227735"><ele>1808.4285714285716</ele><time>2026-04-11T18:02:08Z</time></trkpt><trkpt lat="36.77459253278776" lon="-108.0073670366918"><ele>1808.0</ele><time>2026-04-11T18:02:09Z</time></trkpt><trkpt lat="36.77453438277314" lon="-108.00741836464219"><ele>1807.9999999999998</ele><time>2026-04-11T18:02:10Z</time></trkpt><trkpt lat="36.774451414921764" lon="-108.0074183105278"><ele>1808.0</ele><time>2026-04-11T18:02:11Z</time></trkpt><trkpt lat="36.77435290475412" lon="-108.00742987705786"><ele>1808.0</ele><time>2026-04-11T18:02:12Z</time></trkpt><trkpt lat="36.77426296580657" lon="-108.00744251985365"><ele>1808.0</ele><time>2026-04-11T18:02:13Z</time></trkpt><trkpt lat="36.77418639894552" lon="-108.00746233663519"><ele>1807.9999999999998</ele><time>2026-04-11T18:02:14Z</time></trkpt><trkpt lat="36.774118335341015" lon="-108.00749742273679"><ele>1808.0</ele><time>2026-04-11T18:02:15Z</time></trkpt><trkpt lat="36.774052508861125" lon="-108.0075284052472"><ele>1808.8000000000002</ele><time>2026-04-11T18:02:16Z</time></trkpt><trkpt lat="36.773930783695775" lon="-108.0076890572229"><ele>1809.6000000000001</ele><time>2026-04-11T18:02:18Z</time></trkpt><trkpt lat="36.77384248955655" lon="-108.0077757669823"><ele>1810.3999999999999</ele><time>2026-04-11T18:02:19Z</time></trkpt><trkpt lat="36.773773279517776" lon="-108.00779611445606"><ele>1811.1999999999998</ele><time>2026-04-11T18:02:20Z</time></trkpt><trkpt lat="36.77372299187129" lon="-108.00785748968507"><ele>1812.0</ele><time>2026-04-11T18:02:21Z</time></trkpt><trkpt lat="36.77360255914237" lon="-108.0079127210987"><ele>1812.0</ele><time>2026-04-11T18:02:23Z</time></trkpt><trkpt lat="36.77353668953805" lon="-108.00798666011676"><ele>1812.0</ele><time>2026-04-11T18:02:25Z</time></trkpt><trkpt lat="36.773458464092016" lon="-108.00807844022314"><ele>1812.0</ele><time>2026-04-11T18:02:27Z</time></trkpt><trkpt lat="36.77340345672019" lon="-108.00812259589333"><ele>1812.0</ele><time>2026-04-11T18:02:28Z</time></trkpt><trkpt lat="36.77339159523916" lon="-108.00820955253968"><ele>1812.0</ele><time>2026-04-11T18:02:30Z</time></trkpt><trkpt lat="36.77335454923374" lon="-108.0082830757804"><ele>1812.0</ele><time>2026-04-11T18:02:32Z</time></trkpt><trkpt lat="36.77330386493913" lon="-108.0086267800035"><ele>1812.6666666666667</ele><time>2026-04-11T18:02:35Z</time></trkpt><trkpt lat="36.77332020597933" lon="-108.00870504600222"><ele>1813.3333333333335</ele><time>2026-04-11T18:02:36Z</time></trkpt><trkpt lat="36.77334229424735" lon="-108.00878200430442"><ele>1814.0</ele><time>2026-04-11T18:02:37Z</time></trkpt><trkpt lat="36.77336781285582" lon="-108.0088593569552"><ele>1814.6666666666667</ele><time>2026-04-11T18:02:38Z</time></trkpt><trkpt lat="36.77349927152868" lon="-108.00889927062138"><ele>1815.3333333333335</ele><time>2026-04-11T18:02:40Z</time></trkpt><trkpt lat="36.773559017780784" lon="-108.00892668321326"><ele>1816.0</ele><time>2026-04-11T18:02:41Z</time></trkpt><trkpt lat="36.77364530483731" lon="-108.00896400924145"><ele>1816.0000000000002</ele><time>2026-04-11T18:02:42Z</time></trkpt><trkpt lat="36.773732642997054" lon="-108.00898945476452"><ele>1816.0</ele><time>2026-04-11T18:02:43Z</time></trkpt><trkpt lat="36.773813857799205" lon="-108.00899744945762"><ele>1816.0</ele><time>2026-04-11T18:02:44Z</time></trkpt><trkpt lat="36.773898354626766" lon="-108.00897867573653"><ele>1816.0</ele><time>2026-04-11T18:02:45Z</time></trkpt><trkpt lat="36.773982671379926" lon="-108.00893788399158"><ele>1816.0000000000002</ele><time>2026-04-11T18:02:46Z</time></trkpt><trkpt lat="36.7740642368446" lon="-108.00888888663918"><ele>1816.0</ele><time>2026-04-11T18:02:47Z</time></trkpt><trkpt lat="36.77413240804643" lon="-108.00886342266274"><ele>1816.0000000000002</ele><time>2026-04-11T18:02:48.001Z</time></trkpt><trkpt lat="36.774204510781416" lon="-108.0088376161778"><ele>1816.0</ele><time>2026-04-11T18:02:50.001Z</time></trkpt><trkpt lat="36.774263277947526" lon="-108.00880706274128"><ele>1816.0</ele><time>2026-04-11T18:02:54.001Z</time></trkpt><trkpt lat="36.774359418515424" lon="-108.00883128434386"><ele>1816.0</ele><time>2026-04-11T18:02:58.001Z</time></trkpt><trkpt lat="36.774423779838" lon="-108.00882731444001"><ele>1816.0000000000002</ele><time>2026-04-11T18:02:59.001Z</time></trkpt><trkpt lat="36.774511518785836" lon="-108.00884697183525"><ele>1816.0</ele><time>2026-04-11T18:03:00.001Z</time></trkpt><trkpt lat="36.77461917058589" lon="-108.00886721309236"><ele>1814.8</ele><time>2026-04-11T18:03:01.001Z</time></trkpt><trkpt lat="36.77473217710018" lon="-108.00889705505958"><ele>1813.6</ele><time>2026-04-11T18:03:02.001Z</time></trkpt><trkpt lat="36.774829378974324" lon="-108.00893818712531"><ele>1812.4</ele><time>2026-04-11T18:03:03.001Z</time></trkpt><trkpt lat="36.77491579295512" lon="-108.00898052906996"><ele>1811.2</ele><time>2026-04-11T18:03:04.001Z</time></trkpt><trkpt lat="36.774995427392774" lon="-108.00903901263536"><ele>1810.0</ele><time>2026-04-11T18:03:05.001Z</time></trkpt><trkpt lat="36.77507000400818" lon="-108.00909192375782"><ele>1810.0</ele><time>2026-04-11T18:03:06.001Z</time></trkpt><trkpt lat="36.77513886254991" lon="-108.00915151676176"><ele>1810.0</ele><time>2026-04-11T18:03:07.001Z</time></trkpt><trkpt lat="36.77521803265103" lon="-108.00920775256697"><ele>1810.0</ele><time>2026-04-11T18:03:08.001Z</time></trkpt><trkpt lat="36.775306857233154" lon="-108.0092631908743"><ele>1810.0</ele><time>2026-04-11T18:03:09.001Z</time></trkpt><trkpt lat="36.77539866628017" lon="-108.00930497957472"><ele>1810.0</ele><time>2026-04-11T18:03:10.001Z</time></trkpt><trkpt lat="36.775501478833654" lon="-108.00933737563388"><ele>1809.4</ele><time>2026-04-11T18:03:11.001Z</time></trkpt><trkpt lat="36.77559972176796" lon="-108.00938529005354"><ele>1808.8</ele><time>2026-04-11T18:03:12.001Z</time></trkpt><trkpt lat="36.775682942705345" lon="-108.00943159891911"><ele>1808.1999999999998</ele><time>2026-04-11T18:03:13.001Z</time></trkpt><trkpt lat="36.77575102556075" lon="-108.00946726631138"><ele>1807.6</ele><time>2026-04-11T18:03:14.001Z</time></trkpt><trkpt lat="36.775858513833896" lon="-108.00952764657086"><ele>1807.0</ele><time>2026-04-11T18:03:16.001Z</time></trkpt><trkpt lat="36.77594218610132" lon="-108.00957344599922"><ele>1807.0000000000002</ele><time>2026-04-11T18:03:18.001Z</time></trkpt><trkpt lat="36.7760053658149" lon="-108.00960928415523"><ele>1807.0</ele><time>2026-04-11T18:03:20.001Z</time></trkpt><trkpt lat="36.77607997155878" lon="-108.00963864395025"><ele>1807.0</ele><time>2026-04-11T18:03:22.001Z</time></trkpt><trkpt lat="36.77615786655262" lon="-108.00966948051149"><ele>1807.0</ele><time>2026-04-11T18:03:25.001Z</time></trkpt><trkpt lat="36.77622800088798" lon="-108.00970654825576"><ele>1807.0000000000002</ele><time>2026-04-11T18:03:28.001Z</time></trkpt><trkpt lat="36.77629983667315" lon="-108.00975898257906"><ele>1807.0</ele><time>2026-04-11T18:03:52.001Z</time></trkpt><trkpt lat="36.77636172098982" lon="-108.00978826568416"><ele>1805.3999999999999</ele><time>2026-04-11T18:03:53.001Z</time></trkpt><trkpt lat="36.77645403742746" lon="-108.0098357033414"><ele>1803.7999999999997</ele><time>2026-04-11T18:03:54.001Z</time></trkpt><trkpt lat="36.776549713314914" lon="-108.00990666615162"><ele>1802.2</ele><time>2026-04-11T18:03:55.001Z</time></trkpt><trkpt lat="36.77662971102168" lon="-108.0099772245404"><ele>1800.6</ele><time>2026-04-11T18:03:56.001Z</time></trkpt><trkpt lat="36.77669472081927" lon="-108.01005329313006"><ele>1799.0</ele><time>2026-04-11T18:03:57Z</time></trkpt><trkpt lat="36.77675778814071" lon="-108.01012761013126"><ele>1798.5</ele><time>2026-04-11T18:03:58Z</time></trkpt><trkpt lat="36.77682472880912" lon="-108.01021182024304"><ele>1798.0</ele><time>2026-04-11T18:03:59Z</time></trkpt><trkpt lat="36.77690504814865" lon="-108.01032063033631"><ele>1797.5</ele><time>2026-04-11T18:04:00Z</time></trkpt><trkpt lat="36.777003297375856" lon="-108.01045427332927"><ele>1797.0</ele><time>2026-04-11T18:04:01Z</time></trkpt><trkpt lat="36.777117103345965" lon="-108.01059968616126"><ele>1796.1999999999998</ele><time>2026-04-11T18:04:02Z</time></trkpt><trkpt lat="36.77722060755509" lon="-108.0107168425495"><ele>1795.3999999999999</ele><time>2026-04-11T18:04:03Z</time></trkpt><trkpt lat="36.77730268777346" lon="-108.01080677731521"><ele>1794.6000000000001</ele><time>2026-04-11T18:04:04Z</time></trkpt><trkpt lat="36.77736868245515" lon="-108.01087895638904"><ele>1793.8000000000002</ele><time>2026-04-11T18:04:05Z</time></trkpt><trkpt lat="36.77742953759808" lon="-108.01094060135836"><ele>1793.0</ele><time>2026-04-11T18:04:06Z</time></trkpt><trkpt lat="36.77747651696674" lon="-108.01099366606124"><ele>1792.9999999999998</ele><time>2026-04-11T18:04:07Z</time></trkpt><trkpt lat="36.777531139904205" lon="-108.01107336294537"><ele>1793.0</ele><time>2026-04-11T18:04:09Z</time></trkpt><trkpt lat="36.77759136002873" lon="-108.01102730654745"><ele>1793.0</ele><time>2026-04-11T18:04:14Z</time></trkpt><trkpt lat="36.777609221872105" lon="-108.01093797886146"><ele>1793.0</ele><time>2026-04-11T18:04:15Z</time></trkpt><trkpt lat="36.77761300721311" lon="-108.01081417770581"><ele>1792.9999999999998</ele><time>2026-04-11T18:04:16Z</time></trkpt><trkpt lat="36.77761668730252" lon="-108.01069586576425"><ele>1793.0</ele><time>2026-04-11T18:04:17Z</time></trkpt><trkpt lat="36.77763638284381" lon="-108.01058541286392"><ele>1793.0</ele><time>2026-04-11T18:04:18Z</time></trkpt><trkpt lat="36.777670854833474" lon="-108.01045142621993"><ele>1793.0</ele><time>2026-04-11T18:04:19Z</time></trkpt><trkpt lat="36.777701033146" lon="-108.01030163200095"><ele>1793.0</ele><time>2026-04-11T18:04:20Z</time></trkpt><trkpt lat="36.77772271075594" lon="-108.01010545932544"><ele>1793.0</ele><time>2026-04-11T18:04:21Z</time></trkpt><trkpt lat="36.7777655486456" lon="-108.00988146539198"><ele>1793.75</ele><time>2026-04-11T18:04:22Z</time></trkpt><trkpt lat="36.77779846562782" lon="-108.00972267275907"><ele>1794.5</ele><time>2026-04-11T18:04:23Z</time></trkpt><trkpt lat="36.777840050283004" lon="-108.00959372791135"><ele>1795.25</ele><time>2026-04-11T18:04:24Z</time></trkpt><trkpt lat="36.777915737136105" lon="-108.00946451451725"><ele>1796.0</ele><time>2026-04-11T18:04:25Z</time></trkpt><trkpt lat="36.77799442468565" lon="-108.0093522853613"><ele>1796.0</ele><time>2026-04-11T18:04:26Z</time></trkpt><trkpt lat="36.778078588293305" lon="-108.00926598226586"><ele>1796.0</ele><time>2026-04-11T18:04:27Z</time></trkpt><trkpt lat="36.77816093847872" lon="-108.0091854284595"><ele>1796.0</ele><time>2026-04-11T18:04:28Z</time></trkpt><trkpt lat="36.77823282727551" lon="-108.00910770154228"><ele>1796.0</ele><time>2026-04-11T18:04:29Z</time></trkpt><trkpt lat="36.77829998810271" lon="-108.00902432571716"><ele>1796.0</ele><time>2026-04-11T18:04:30Z</time></trkpt><trkpt lat="36.77836958962844" lon="-108.00896384851416"><ele>1797.4</ele><time>2026-04-11T18:04:31Z</time></trkpt><trkpt lat="36.77847651603471" lon="-108.008937222124"><ele>1798.8</ele><time>2026-04-11T18:04:33Z</time></trkpt><trkpt lat="36.778618391755785" lon="-108.00894073438431"><ele>1800.2000000000003</ele><time>2026-04-11T18:04:35Z</time></trkpt><trkpt lat="36.77868326909691" lon="-108.00894062626509"><ele>1801.6000000000001</ele><time>2026-04-11T18:04:36Z</time></trkpt><trkpt lat="36.77875433870532" lon="-108.00895962750293"><ele>1803.0</ele><time>2026-04-11T18:04:39Z</time></trkpt><trkpt lat="36.778818073118444" lon="-108.00894667150207"><ele>1803.0</ele><time>2026-04-11T18:04:42Z</time></trkpt><trkpt lat="36.77885060716621" lon="-108.00887937379083"><ele>1803.0000000000002</ele><time>2026-04-11T18:04:44Z</time></trkpt><trkpt lat="36.77884285711066" lon="-108.00878919542163"><ele>1803.0000000000002</ele><time>2026-04-11T18:04:46Z</time></trkpt><trkpt lat="36.77872813404194" lon="-108.00879982896345"><ele>1803.0</ele><time>2026-04-11T18:04:49Z</time></trkpt><trkpt lat="36.77861932704169" lon="-108.00885147745231"><ele>1803.0</ele><time>2026-04-11T18:04:51Z</time></trkpt><trkpt lat="36.77850175489532" lon="-108.00889799335268"><ele>1803.0</ele><time>2026-04-11T18:04:53Z</time></trkpt><trkpt lat="36.77842140718745" lon="-108.00893614749972"><ele>1803.0000000000002</ele><time>2026-04-11T18:04:55Z</time></trkpt><trkpt lat="36.77834572055035" lon="-108.00897915374405"><ele>1803.0000000000002</ele><time>2026-04-11T18:04:58.001Z</time></trkpt><trkpt lat="36.778278655332265" lon="-108.00905334418854"><ele>1803.0</ele><time>2026-04-11T18:05:52.001Z</time></trkpt><trkpt lat="36.7781810213947" lon="-108.00917810356381"><ele>1803.0</ele><time>2026-04-11T18:05:54.001Z</time></trkpt><trkpt lat="36.77808389708531" lon="-108.00927889378193"><ele>1801.25</ele><time>2026-04-11T18:05:55.001Z</time></trkpt><trkpt lat="36.77797765591533" lon="-108.00939087179005"><ele>1799.5</ele><time>2026-04-11T18:05:56.001Z</time></trkpt><trkpt lat="36.77789474225209" lon="-108.00949556748408"><ele>1797.75</ele><time>2026-04-11T18:05:57.001Z</time></trkpt><trkpt lat="36.77782365323957" lon="-108.00962833611102"><ele>1796.0</ele><time>2026-04-11T18:05:58.001Z</time></trkpt><trkpt lat="36.77777932874918" lon="-108.00977135016704"><ele>1796.0</ele><time>2026-04-11T18:05:59.001Z</time></trkpt><trkpt lat="36.77774972788547" lon="-108.00990701936254"><ele>1796.0</ele><time>2026-04-11T18:06:00.001Z</time></trkpt><trkpt lat="36.77772235055347" lon="-108.01006689068095"><ele>1796.0</ele><time>2026-04-11T18:06:01.001Z</time></trkpt><trkpt lat="36.777696622710536" lon="-108.01024148669026"><ele>1796.0</ele><time>2026-04-11T18:06:02.001Z</time></trkpt><trkpt lat="36.777680211973845" lon="-108.01037421312782"><ele>1795.4</ele><time>2026-04-11T18:06:03Z</time></trkpt><trkpt lat="36.77765998613687" lon="-108.01048140225946"><ele>1794.8</ele><time>2026-04-11T18:06:04Z</time></trkpt><trkpt lat="36.777629339243795" lon="-108.01060397490753"><ele>1794.2000000000003</ele><time>2026-04-11T18:06:05Z</time></trkpt><trkpt lat="36.77760460489748" lon="-108.0107096894598"><ele>1793.6000000000001</ele><time>2026-04-11T18:06:06Z</time></trkpt><trkpt lat="36.77752736902279" lon="-108.01082515469875"><ele>1793.0</ele><time>2026-04-11T18:06:08Z</time></trkpt><trkpt lat="36.77744543625717" lon="-108.01086194733155"><ele>1793.0</ele><time>2026-04-11T18:06:09Z</time></trkpt><trkpt lat="36.77735507745914" lon="-108.01085882544983"><ele>1793.0000000000002</ele><time>2026-04-11T18:06:10Z</time></trkpt><trkpt lat="36.77727503515187" lon="-108.01080036598088"><ele>1793.0000000000002</ele><time>2026-04-11T18:06:11Z</time></trkpt><trkpt lat="36.7771880773438" lon="-108.01069488879811"><ele>1793.0</ele><time>2026-04-11T18:06:12Z</time></trkpt><trkpt lat="36.777092518998344" lon="-108.01056058400471"><ele>1793.0</ele><time>2026-04-11T18:06:13Z</time></trkpt><trkpt lat="36.77697550448705" lon="-108.01040826809907"><ele>1794.3333333333333</ele><time>2026-04-11T18:06:14Z</time></trkpt><trkpt lat="36.77684513018965" lon="-108.01024183282333"><ele>1795.6666666666665</ele><time>2026-04-11T18:06:15Z</time></trkpt><trkpt lat="36.77670567402122" lon="-108.010066843397"><ele>1797.0</ele><time>2026-04-11T18:06:16Z</time></trkpt><trkpt lat="36.776585909671915" lon="-108.00993275891125"><ele>1797.5</ele><time>2026-04-11T18:06:17Z</time></trkpt><trkpt lat="36.77646746206827" lon="-108.00982993801387"><ele>1798.0</ele><time>2026-04-11T18:06:18Z</time></trkpt><trkpt lat="36.77635303621697" lon="-108.0097627959798"><ele>1798.5</ele><time>2026-04-11T18:06:19Z</time></trkpt><trkpt lat="36.776222291229196" lon="-108.00970870451566"><ele>1799.0</ele><time>2026-04-11T18:06:20Z</time></trkpt><trkpt lat="36.77605777022875" lon="-108.00964804369512"><ele>1801.6666666666665</ele><time>2026-04-11T18:06:21Z</time></trkpt><trkpt lat="36.77587481393432" lon="-108.00956923037288"><ele>1804.3333333333335</ele><time>2026-04-11T18:06:22Z</time></trkpt><trkpt lat="36.775682800407814" lon="-108.00947361340351"><ele>1807.0</ele><time>2026-04-11T18:06:23Z</time></trkpt><trkpt lat="36.77550283174388" lon="-108.00937916316703"><ele>1807.0</ele><time>2026-04-11T18:06:24Z</time></trkpt><trkpt lat="36.77535908257188" lon="-108.00930357914591"><ele>1807.0</ele><time>2026-04-11T18:06:25Z</time></trkpt><trkpt lat="36.775222447362744" lon="-108.00923632848266"><ele>1807.0</ele><time>2026-04-11T18:06:26Z</time></trkpt><trkpt lat="36.77507969153413" lon="-108.00915288776201"><ele>1808.0</ele><time>2026-04-11T18:06:27Z</time></trkpt><trkpt lat="36.77493905712069" lon="-108.0090478415676"><ele>1809.0</ele><time>2026-04-11T18:06:28Z</time></trkpt><trkpt lat="36.774797753101865" lon="-108.00894308290927"><ele>1810.0</ele><time>2026-04-11T18:06:29Z</time></trkpt><trkpt lat="36.774671810078075" lon="-108.00887972575393"><ele>1810.0</ele><time>2026-04-11T18:06:30Z</time></trkpt><trkpt lat="36.77455480454793" lon="-108.00885125472382"><ele>1810.0</ele><time>2026-04-11T18:06:31Z</time></trkpt><trkpt lat="36.774432185515124" lon="-108.00883403915851"><ele>1810.0</ele><time>2026-04-11T18:06:32Z</time></trkpt><trkpt lat="36.77429825880836" lon="-108.00881905627053"><ele>1810.0</ele><time>2026-04-11T18:06:33Z</time></trkpt><trkpt lat="36.77417519501506" lon="-108.00881068323332"><ele>1811.2</ele><time>2026-04-11T18:06:34Z</time></trkpt><trkpt lat="36.77404817297379" lon="-108.00882008867428"><ele>1812.4</ele><time>2026-04-11T18:06:35Z</time></trkpt><trkpt lat="36.77393864773811" lon="-108.00885399290856"><ele>1813.6</ele><time>2026-04-11T18:06:36Z</time></trkpt><trkpt lat="36.77383866498385" lon="-108.00889943772343"><ele>1814.8</ele><time>2026-04-11T18:06:37Z</time></trkpt><trkpt lat="36.77374007876704" lon="-108.00893136091855"><ele>1816.0</ele><time>2026-04-11T18:06:38Z</time></trkpt><trkpt lat="36.77366103538724" lon="-108.00893624925543"><ele>1816.0000000000002</ele><time>2026-04-11T18:06:39Z</time></trkpt><trkpt lat="36.77359514785377" lon="-108.00891722751658"><ele>1816.0</ele><time>2026-04-11T18:06:40Z</time></trkpt><trkpt lat="36.77353097814667" lon="-108.00887223744101"><ele>1816.0</ele><time>2026-04-11T18:06:41Z</time></trkpt><trkpt lat="36.77345535472832" lon="-108.00880390756345"><ele>1816.0</ele><time>2026-04-11T18:06:42Z</time></trkpt><trkpt lat="36.77339671943641" lon="-108.00873228731255"><ele>1816.0000000000002</ele><time>2026-04-11T18:06:43Z</time></trkpt><trkpt lat="36.77334876509099" lon="-108.00860770826014"><ele>1816.0</ele><time>2026-04-11T18:06:45Z</time></trkpt><trkpt lat="36.7733396486178" lon="-108.00851287973441"><ele>1816.4</ele><time>2026-04-11T18:06:46Z</time></trkpt><trkpt lat="36.77333599250867" lon="-108.00838658731904"><ele>1816.8</ele><time>2026-04-11T18:06:48Z</time></trkpt><trkpt lat="36.77339793944229" lon="-108.0082136643881"><ele>1817.2000000000003</ele><time>2026-04-11T18:06:50Z</time></trkpt><trkpt lat="36.77343060299398" lon="-108.00811913540427"><ele>1817.6000000000001</ele><time>2026-04-11T18:06:51Z</time></trkpt><trkpt lat="36.77348336157744" lon="-108.00803914236108"><ele>1818.0</ele><time>2026-04-11T18:06:53Z</time></trkpt><trkpt lat="36.7735392137761" lon="-108.0079964373898"><ele>1817.0</ele><time>2026-04-11T18:06:54Z</time></trkpt><trkpt lat="36.77359565071775" lon="-108.00794373947863"><ele>1816.0</ele><time>2026-04-11T18:06:55Z</time></trkpt><trkpt lat="36.77368558217633" lon="-108.00785509653288"><ele>1815.0</ele><time>2026-04-11T18:06:57Z</time></trkpt><trkpt lat="36.773753581106256" lon="-108.00782663453478"><ele>1814.0</ele><time>2026-04-11T18:06:58Z</time></trkpt><trkpt lat="36.773825044268484" lon="-108.00779092250451"><ele>1813.0</ele><time>2026-04-11T18:06:59Z</time></trkpt><trkpt lat="36.7738808776971" lon="-108.00773623370895"><ele>1812.0</ele><time>2026-04-11T18:07:00Z</time></trkpt><trkpt lat="36.77393032578009" lon="-108.0076822313778"><ele>1812.0</ele><time>2026-04-11T18:07:01Z</time></trkpt><trkpt lat="36.77400348122904" lon="-108.00762608332414"><ele>1811.9999999999998</ele><time>2026-04-11T18:07:02.001Z</time></trkpt><trkpt lat="36.77407533599798" lon="-108.00755497906744"><ele>1811.9999999999998</ele><time>2026-04-11T18:07:03.001Z</time></trkpt><trkpt lat="36.77413428336823" lon="-108.00747603405293"><ele>1812.0</ele><time>2026-04-11T18:07:04.001Z</time></trkpt><trkpt lat="36.77424228232969" lon="-108.00740694677253"><ele>1812.0</ele><time>2026-04-11T18:07:06.001Z</time></trkpt><trkpt lat="36.774304546349526" lon="-108.00736351181604"><ele>1811.1999999999998</ele><time>2026-04-11T18:07:07.001Z</time></trkpt><trkpt lat="36.77443913312042" lon="-108.00734498798246"><ele>1810.3999999999999</ele><time>2026-04-11T18:07:09.001Z</time></trkpt><trkpt lat="36.77455907167261" lon="-108.00737670001543"><ele>1809.6000000000001</ele><time>2026-04-11T18:07:10.001Z</time></trkpt><trkpt lat="36.77462988615013" lon="-108.00738066014466"><ele>1808.8000000000002</ele><time>2026-04-11T18:07:11.001Z</time></trkpt><trkpt lat="36.77472933280469" lon="-108.00730852224446"><ele>1808.0</ele><time>2026-04-11T18:07:13.001Z</time></trkpt><trkpt lat="36.77479567705632" lon="-108.00721378745736"><ele>1807.9999999999998</ele><time>2026-04-11T18:07:14.001Z</time></trkpt><trkpt lat="36.77485787240614" lon="-108.00713794373037"><ele>1808.0</ele><time>2026-04-11T18:07:15.001Z</time></trkpt><trkpt lat="36.774947618442205" lon="-108.00707209740021"><ele>1808.0</ele><time>2026-04-11T18:07:17.001Z</time></trkpt><trkpt lat="36.77501391060213" lon="-108.00703549771474"><ele>1808.0</ele><time>2026-04-11T18:07:18.001Z</time></trkpt><trkpt lat="36.775089875522504" lon="-108.0070129300334"><ele>1807.9999999999998</ele><time>2026-04-11T18:07:19.001Z</time></trkpt><trkpt lat="36.775159357046874" lon="-108.0070174702259"><ele>1808.0</ele><time>2026-04-11T18:07:21.001Z</time></trkpt><trkpt lat="36.775231118984635" lon="-108.00697053819177"><ele>1808.4999999999998</ele><time>2026-04-11T18:07:23.001Z</time></trkpt><trkpt lat="36.775338384584316" lon="-108.00690863065016"><ele>1809.0</ele><time>2026-04-11T18:07:25.001Z</time></trkpt><trkpt lat="36.775403948732254" lon="-108.0068746072817"><ele>1809.5</ele><time>2026-04-11T18:07:27.001Z</time></trkpt><trkpt lat="36.775339972037926" lon="-108.00679953855723"><ele>1810.0</ele><time>2026-04-11T18:07:30.001Z</time></trkpt><trkpt lat="36.775329614626514" lon="-108.00669431348541"><ele>1810.4999999999998</ele><time>2026-04-11T18:07:33.001Z</time></trkpt><trkpt lat="36.7752444402017" lon="-108.00668101163534"><ele>1811.0</ele><time>2026-04-11T18:07:36.001Z</time></trkpt><trkpt lat="36.775182993392775" lon="-108.00664200262462"><ele>1811.4999999999998</ele><time>2026-04-11T18:07:38.001Z</time></trkpt><trkpt lat="36.77510925233579" lon="-108.00659775021204"><ele>1812.0</ele><time>2026-04-11T18:07:41.001Z</time></trkpt><trkpt lat="36.77504029128503" lon="-108.00654831863733"><ele>1812.5</ele><time>2026-04-11T18:07:42.001Z</time></trkpt><trkpt lat="36.774985516467616" lon="-108.00649733315386"><ele>1813.0</ele><time>2026-04-11T18:07:43.001Z</time></trkpt><trkpt lat="36.77486942178314" lon="-108.00646923861298"><ele>1813.4999999999998</ele><time>2026-04-11T18:07:45.001Z</time></trkpt><trkpt lat="36.77480829941537" lon="-108.00638864158168"><ele>1814.0</ele><time>2026-04-11T18:07:47.001Z</time></trkpt><trkpt lat="36.774849489739665" lon="-108.00630621179545"><ele>1814.0</ele><time>2026-04-11T18:07:48.001Z</time></trkpt><trkpt lat="36.7747038127853" lon="-108.00626534687478"><ele>1814.0</ele><time>2026-04-11T18:07:50.001Z</time></trkpt><trkpt lat="36.7747485509888" lon="-108.00611370358236"><ele>1814.0</ele><time>2026-04-11T18:07:52.001Z</time></trkpt><trkpt lat="36.77480415026473" lon="-108.00602908159976"><ele>1814.0</ele><time>2026-04-11T18:07:53.001Z</time></trkpt><trkpt lat="36.77483862315458" lon="-108.00593201651604"><ele>1813.9999999999998</ele><time>2026-04-11T18:07:54.001Z</time></trkpt><trkpt lat="36.77487486605842" lon="-108.00583940072318"><ele>1814.0</ele><time>2026-04-11T18:07:55.001Z</time></trkpt><trkpt lat="36.77491036806694" lon="-108.0057522979557"><ele>1814.0</ele><time>2026-04-11T18:07:56.001Z</time></trkpt><trkpt lat="36.77494755271956" lon="-108.00566220033106"><ele>1814.0</ele><time>2026-04-11T18:07:57.001Z</time></trkpt><trkpt lat="36.774987850296256" lon="-108.00555622391455"><ele>1813.9999999999998</ele><time>2026-04-11T18:07:58.001Z</time></trkpt><trkpt lat="36.775019428699935" lon="-108.00548223304607"><ele>1814.0</ele><time>2026-04-11T18:07:59.001Z</time></trkpt><trkpt lat="36.77507733442996" lon="-108.00541997852514"><ele>1814.9999999999998</ele><time>2026-04-11T18:08:00.001Z</time></trkpt><trkpt lat="36.77512049089887" lon="-108.00535141642607"><ele>1816.0</ele><time>2026-04-11T18:08:01.001Z</time></trkpt><trkpt lat="36.77516735851767" lon="-108.00525428911214"><ele>1817.0</ele><time>2026-04-11T18:08:03.001Z</time></trkpt><trkpt lat="36.77522590955188" lon="-108.00514667033536"><ele>1818.0</ele><time>2026-04-11T18:08:05.001Z</time></trkpt><trkpt lat="36.77518761462898" lon="-108.00522541030921"><ele>1818.9999999999998</ele><time>2026-04-11T18:08:07.001Z</time></trkpt><trkpt lat="36.77523250638015" lon="-108.0051221511031"><ele>1820.0</ele><time>2026-04-11T18:08:09Z</time></trkpt><trkpt lat="36.77526858929501" lon="-108.00499544851864"><ele>1820.8</ele><time>2026-04-11T18:08:12Z</time></trkpt><trkpt lat="36.77530414195379" lon="-108.00492778429934"><ele>1821.6</ele><time>2026-04-11T18:08:13Z</time></trkpt><trkpt lat="36.77536320032815" lon="-108.00480122461751"><ele>1822.4</ele><time>2026-04-11T18:08:16Z</time></trkpt><trkpt lat="36.77539695019306" lon="-108.00472513812454"><ele>1823.2</ele><time>2026-04-11T18:08:17Z</time></trkpt><trkpt lat="36.77544687058179" lon="-108.00456538331636"><ele>1824.0</ele><time>2026-04-11T18:08:18Z</time></trkpt><trkpt lat="36.77545211194713" lon="-108.0044591230698"><ele>1824.0</ele><time>2026-04-11T18:08:19Z</time></trkpt><trkpt lat="36.77550865259628" lon="-108.00435304085363"><ele>1824.0</ele><time>2026-04-11T18:08:21Z</time></trkpt><trkpt lat="36.775549618866975" lon="-108.00425082193934"><ele>1824.0</ele><time>2026-04-11T18:08:23Z</time></trkpt><trkpt lat="36.775535726871006" lon="-108.00415794204406"><ele>1824.0</ele><time>2026-04-11T18:08:24Z</time></trkpt><trkpt lat="36.775540921494894" lon="-108.00406432204662"><ele>1824.0</ele><time>2026-04-11T18:08:25Z</time></trkpt><trkpt lat="36.775559961056935" lon="-108.00398793982588"><ele>1824.0</ele><time>2026-04-11T18:08:26Z</time></trkpt><trkpt lat="36.77561508176493" lon="-108.00386711679471"><ele>1824.8000000000002</ele><time>2026-04-11T18:08:28Z</time></trkpt><trkpt lat="36.77564541442205" lon="-108.00379090404911"><ele>1825.6000000000001</ele><time>2026-04-11T18:08:29Z</time></trkpt><trkpt lat="36.77568529639234" lon="-108.00364362665147"><ele>1826.4</ele><time>2026-04-11T18:08:31Z</time></trkpt><trkpt lat="36.77570234542469" lon="-108.00354580213883"><ele>1827.2</ele><time>2026-04-11T18:08:32Z</time></trkpt><trkpt lat="36.77573413122341" lon="-108.00344256490327"><ele>1828.0</ele><time>2026-04-11T18:08:34Z</time></trkpt><trkpt lat="36.77576601433206" lon="-108.0033368888151"><ele>1829.4</ele><time>2026-04-11T18:08:35Z</time></trkpt><trkpt lat="36.77583402942285" lon="-108.00321780061152"><ele>1830.8000000000002</ele><time>2026-04-11T18:08:37Z</time></trkpt><trkpt lat="36.77588369638846" lon="-108.00314035371926"><ele>1832.2</ele><time>2026-04-11T18:08:38Z</time></trkpt><trkpt lat="36.775926792164995" lon="-108.00306251858764"><ele>1833.6</ele><time>2026-04-11T18:08:39Z</time></trkpt><trkpt lat="36.77597335667736" lon="-108.00296762563065"><ele>1835.0</ele><time>2026-04-11T18:08:41Z</time></trkpt><trkpt lat="36.77606799264471" lon="-108.0028569110093"><ele>1834.9999999999998</ele><time>2026-04-11T18:08:43Z</time></trkpt><trkpt lat="36.77611966085674" lon="-108.00280225084997"><ele>1835.0</ele><time>2026-04-11T18:08:44Z</time></trkpt><trkpt lat="36.77616996266079" lon="-108.00267602862525"><ele>1835.0</ele><time>2026-04-11T18:08:46Z</time></trkpt><trkpt lat="36.77617411355891" lon="-108.00259069242927"><ele>1835.0</ele><time>2026-04-11T18:08:47Z</time></trkpt><trkpt lat="36.77621400806296" lon="-108.00248851061258"><ele>1834.9999999999998</ele><time>2026-04-11T18:08:49Z</time></trkpt><trkpt lat="36.77627844008201" lon="-108.00243950617589"><ele>1835.0</ele><time>2026-04-11T18:08:51Z</time></trkpt><trkpt lat="36.77634264689123" lon="-108.00235198127338"><ele>1836.1666666666665</ele><time>2026-04-11T18:08:52Z</time></trkpt><trkpt lat="36.77634058281778" lon="-108.00225623356091"><ele>1837.3333333333333</ele><time>2026-04-11T18:08:53Z</time></trkpt><trkpt lat="36.77635480965876" lon="-108.0020891750455"><ele>1838.5</ele><time>2026-04-11T18:08:55Z</time></trkpt><trkpt lat="36.776378834497955" lon="-108.00200077344988"><ele>1839.6666666666665</ele><time>2026-04-11T18:08:56Z</time></trkpt><trkpt lat="36.77643843661959" lon="-108.00194767294268"><ele>1840.8333333333333</ele><time>2026-04-11T18:08:58Z</time></trkpt><trkpt lat="36.776502405289925" lon="-108.0018921546617"><ele>1842.0</ele><time>2026-04-11T18:09:01Z</time></trkpt><trkpt lat="36.7765831133192" lon="-108.00183789559128"><ele>1842.0</ele><time>2026-04-11T18:09:03Z</time></trkpt><trkpt lat="36.77662522340644" lon="-108.00176714925321"><ele>1842.0</ele><time>2026-04-11T18:09:05Z</time></trkpt><trkpt lat="36.77664983967768" lon="-108.00167684437605"><ele>1842.0</ele><time>2026-04-11T18:09:07Z</time></trkpt><trkpt lat="36.776697223978715" lon="-108.00161239285671"><ele>1842.0</ele><time>2026-04-11T18:09:10Z</time></trkpt><trkpt lat="36.77675604141639" lon="-108.00153534249382"><ele>1842.0</ele><time>2026-04-11T18:09:24.001Z</time></trkpt><trkpt lat="36.77684205436567" lon="-108.00143017577058"><ele>1842.0</ele><time>2026-04-11T18:09:27.001Z</time></trkpt><trkpt lat="36.776960466045324" lon="-108.00134938008641"><ele>1841.0</ele><time>2026-04-11T18:09:29.001Z</time></trkpt><trkpt lat="36.77703785637914" lon="-108.00129443086097"><ele>1840.0</ele><time>2026-04-11T18:09:30.001Z</time></trkpt><trkpt lat="36.77712368407615" lon="-108.00122826273434"><ele>1839.0</ele><time>2026-04-11T18:09:31.001Z</time></trkpt><trkpt lat="36.77719448186464" lon="-108.00118464752606"><ele>1838.0</ele><time>2026-04-11T18:09:32.001Z</time></trkpt><trkpt lat="36.77726882040918" lon="-108.00115771766224"><ele>1837.0</ele><time>2026-04-11T18:09:33.001Z</time></trkpt><trkpt lat="36.7773582040888" lon="-108.00112979507972"><ele>1836.0</ele><time>2026-04-11T18:09:34.001Z</time></trkpt><trkpt lat="36.77743335803315" lon="-108.00110222988272"><ele>1836.0</ele><time>2026-04-11T18:09:35.001Z</time></trkpt><trkpt lat="36.77750558860061" lon="-108.00109461246811"><ele>1836.0</ele><time>2026-04-11T18:09:36.001Z</time></trkpt><trkpt lat="36.77756988327337" lon="-108.00106825400859"><ele>1836.0</ele><time>2026-04-11T18:09:37.001Z</time></trkpt><trkpt lat="36.7776365131434" lon="-108.00101136381727"><ele>1836.0</ele><time>2026-04-11T18:09:38.001Z</time></trkpt><trkpt lat="36.777716232818676" lon="-108.00095237044758"><ele>1836.0</ele><time>2026-04-11T18:09:39.001Z</time></trkpt><trkpt lat="36.777800644551846" lon="-108.00093687633363"><ele>1836.0</ele><time>2026-04-11T18:09:40.001Z</time></trkpt><trkpt lat="36.777866400361646" lon="-108.00090056658058"><ele>1834.8333333333333</ele><time>2026-04-11T18:09:41.001Z</time></trkpt><trkpt lat="36.77790517014264" lon="-108.00083753595283"><ele>1833.6666666666665</ele><time>2026-04-11T18:09:42.001Z</time></trkpt><trkpt lat="36.77803354474348" lon="-108.00079068255795"><ele>1832.5</ele><time>2026-04-11T18:09:44.001Z</time></trkpt><trkpt lat="36.77810437565796" lon="-108.00078588029331"><ele>1831.3333333333333</ele><time>2026-04-11T18:09:45.001Z</time></trkpt><trkpt lat="36.77815875460632" lon="-108.00073218372162"><ele>1830.1666666666665</ele><time>2026-04-11T18:09:46.001Z</time></trkpt><trkpt lat="36.778200582939505" lon="-108.00065713526934"><ele>1829.0</ele><time>2026-04-11T18:09:47.001Z</time></trkpt><trkpt lat="36.77828832851666" lon="-108.00059043869193"><ele>1828.9999999999998</ele><time>2026-04-11T18:09:49.001Z</time></trkpt><trkpt lat="36.77835075643013" lon="-108.00057080542808"><ele>1829.0</ele><time>2026-04-11T18:09:50.001Z</time></trkpt><trkpt lat="36.77841212197471" lon="-108.00053627645985"><ele>1829.0</ele><time>2026-04-11T18:09:51.001Z</time></trkpt><trkpt lat="36.77847929437967" lon="-108.000484966138"><ele>1829.0</ele><time>2026-04-11T18:09:52.001Z</time></trkpt><trkpt lat="36.77854670035357" lon="-108.00043897329697"><ele>1828.9999999999998</ele><time>2026-04-11T18:09:53.001Z</time></trkpt><trkpt lat="36.77865313389075" lon="-108.00037249933754"><ele>1829.0</ele><time>2026-04-11T18:09:55.001Z</time></trkpt><trkpt lat="36.778737520004455" lon="-108.00031876185523"><ele>1828.9999999999998</ele><time>2026-04-11T18:09:57.001Z</time></trkpt><trkpt lat="36.77880496763709" lon="-108.00029893890041"><ele>1829.0</ele><time>2026-04-11T18:10:13.001Z</time></trkpt><trkpt lat="36.77890016578161" lon="-108.00029642439064"><ele>1829.0</ele><time>2026-04-11T18:10:15Z</time></trkpt><trkpt lat="36.778969273758825" lon="-108.00027961574939"><ele>1829.0</ele><time>2026-04-11T18:10:16Z</time></trkpt><trkpt lat="36.77904893408003" lon="-108.0002350557831"><ele>1828.9999999999998</ele><time>2026-04-11T18:10:17Z</time></trkpt><trkpt lat="36.779121583747994" lon="-108.00017491151289"><ele>1829.0</ele><time>2026-04-11T18:10:18Z</time></trkpt><trkpt lat="36.77916951613256" lon="-108.0000864181438"><ele>1829.0</ele><time>2026-04-11T18:10:19Z</time></trkpt><trkpt lat="36.779197318420444" lon="-107.99998922117335"><ele>1829.0</ele><time>2026-04-11T18:10:20Z</time></trkpt><trkpt lat="36.77931738117952" lon="-107.99997009390711"><ele>1829.0</ele><time>2026-04-11T18:10:22Z</time></trkpt><trkpt lat="36.779421811848295" lon="-107.99994975015625"><ele>1829.0</ele><time>2026-04-11T18:10:23Z</time></trkpt><trkpt lat="36.779488075416076" lon="-107.99991144760946"><ele>1829.0</ele><time>2026-04-11T18:10:25Z</time></trkpt><trkpt lat="36.779546346899394" lon="-107.99986646544032"><ele>1829.1666666666665</ele><time>2026-04-11T18:10:27Z</time></trkpt><trkpt lat="36.77963068995883" lon="-107.99983885811058"><ele>1829.3333333333333</ele><time>2026-04-11T18:10:28Z</time></trkpt><trkpt lat="36.77972017312673" lon="-107.99981671895188"><ele>1829.5</ele><time>2026-04-11T18:10:29Z</time></trkpt><trkpt lat="36.779803045321735" lon="-107.99978717692015"><ele>1829.6666666666665</ele><time>2026-04-11T18:10:30Z</time></trkpt><trkpt lat="36.77989365807997" lon="-107.99977072982729"><ele>1829.8333333333333</ele><time>2026-04-11T18:10:31Z</time></trkpt><trkpt lat="36.77996387750209" lon="-107.99977550249821"><ele>1830.0</ele><time>2026-04-11T18:10:32Z</time></trkpt><trkpt lat="36.78003006903861" lon="-107.99981528479249"><ele>1830.0</ele><time>2026-04-11T18:10:33Z</time></trkpt><trkpt lat="36.780105194526456" lon="-107.99987814922034"><ele>1830.0</ele><time>2026-04-11T18:10:34Z</time></trkpt><trkpt lat="36.78018468195138" lon="-107.99995489746313"><ele>1830.0</ele><time>2026-04-11T18:10:35Z</time></trkpt><trkpt lat="36.78025927943387" lon="-108.00003907024711"><ele>1830.0</ele><time>2026-04-11T18:10:36Z</time></trkpt><trkpt lat="36.7803185168846" lon="-108.00010786053403"><ele>1830.0</ele><time>2026-04-11T18:10:37Z</time></trkpt><trkpt lat="36.780382087168796" lon="-108.00014863402993"><ele>1830.0</ele><time>2026-04-11T18:10:38Z</time></trkpt><trkpt lat="36.78050129309634" lon="-108.0001696638702"><ele>1828.8</ele><time>2026-04-11T18:10:40Z</time></trkpt><trkpt lat="36.78060186824783" lon="-108.00012654836317"><ele>1827.6</ele><time>2026-04-11T18:10:42Z</time></trkpt><trkpt lat="36.7806911903843" lon="-108.00018024953955"><ele>1826.4</ele><time>2026-04-11T18:10:44Z</time></trkpt><trkpt lat="36.780767619024964" lon="-108.00016306558193"><ele>1825.2</ele><time>2026-04-11T18:10:55Z</time></trkpt><trkpt lat="36.78085165046371" lon="-108.00012386813134"><ele>1824.0</ele><time>2026-04-11T18:10:56Z</time></trkpt><trkpt lat="36.78091037268243" lon="-108.00003706623164"><ele>1824.0</ele><time>2026-04-11T18:10:58Z</time></trkpt><trkpt lat="36.78094081306219" lon="-107.99991671005783"><ele>1824.0</ele><time>2026-04-11T18:11:00Z</time></trkpt><trkpt lat="36.78101297350736" lon="-107.99981101822524"><ele>1824.0</ele><time>2026-04-11T18:11:02Z</time></trkpt><trkpt lat="36.781084574179744" lon="-107.99972404359251"><ele>1824.0</ele><time>2026-04-11T18:11:04Z</time></trkpt><trkpt lat="36.7810802133361" lon="-107.99961012564324"><ele>1824.0</ele><time>2026-04-11T18:11:06Z</time></trkpt><trkpt lat="36.78108722748048" lon="-107.99949294818794"><ele>1823.6666666666667</ele><time>2026-04-11T18:11:08Z</time></trkpt><trkpt lat="36.78113565671732" lon="-107.99944035686927"><ele>1823.3333333333335</ele><time>2026-04-11T18:11:09Z</time></trkpt><trkpt lat="36.78120562121474" lon="-107.99932441281406"><ele>1823.0</ele><time>2026-04-11T18:11:11Z</time></trkpt><trkpt lat="36.78125674990123" lon="-107.99924898800272"><ele>1822.6666666666667</ele><time>2026-04-11T18:11:12Z</time></trkpt><trkpt lat="36.7813118011129" lon="-107.99917513005093"><ele>1822.3333333333335</ele><time>2026-04-11T18:11:13Z</time></trkpt><trkpt lat="36.78134864393728" lon="-107.9991080321214"><ele>1822.0</ele><time>2026-04-11T18:11:15Z</time></trkpt><trkpt lat="36.78138111067495" lon="-107.99903722720067"><ele>1822.0</ele><time>2026-04-11T18:11:16Z</time></trkpt><trkpt lat="36.78140708747671" lon="-107.99895208872039"><ele>1821.9999999999998</ele><time>2026-04-11T18:11:17Z</time></trkpt><trkpt lat="36.781419892489076" lon="-107.99886085972987"><ele>1821.9999999999998</ele><time>2026-04-11T18:11:18Z</time></trkpt><trkpt lat="36.781424772405174" lon="-107.99870850326087"><ele>1822.0</ele><time>2026-04-11T18:11:20.001Z</time></trkpt><trkpt lat="36.78144585613072" lon="-107.9985729585006"><ele>1822.0</ele><time>2026-04-11T18:11:22.001Z</time></trkpt><trkpt lat="36.78152242760472" lon="-107.9984515877253"><ele>1822.0</ele><time>2026-04-11T18:11:24.001Z</time></trkpt><trkpt lat="36.781576220709056" lon="-107.99834550461605"><ele>1821.9999999999998</ele><time>2026-04-11T18:11:26.001Z</time></trkpt><trkpt lat="36.78155483481947" lon="-107.99823339514003"><ele>1821.9999999999998</ele><time>2026-04-11T18:11:28.001Z</time></trkpt><trkpt lat="36.78157216802477" lon="-107.9980986822935"><ele>1822.0</ele><time>2026-04-11T18:11:30.001Z</time></trkpt><trkpt lat="36.78164888237285" lon="-107.99807618827136"><ele>1822.0</ele><time>2026-04-11T18:11:32.001Z</time></trkpt><trkpt lat="36.781720858986475" lon="-107.99812279513053"><ele>1821.75</ele><time>2026-04-11T18:11:34.001Z</time></trkpt><trkpt lat="36.78184818862881" lon="-107.9981937453416"><ele>1821.5</ele><time>2026-04-11T18:11:37.001Z</time></trkpt><trkpt lat="36.78193384546527" lon="-107.99824976498789"><ele>1821.25</ele><time>2026-04-11T18:11:39.001Z</time></trkpt><trkpt lat="36.782064632871794" lon="-107.99824769286171"><ele>1821.0</ele><time>2026-04-11T18:11:41.001Z</time></trkpt><trkpt lat="36.782184312924635" lon="-107.99825582162686"><ele>1821.0</ele><time>2026-04-11T18:11:43.001Z</time></trkpt><trkpt lat="36.78225785446786" lon="-107.99825929726858"><ele>1821.0</ele><time>2026-04-11T18:11:44.001Z</time></trkpt><trkpt lat="36.782341019765795" lon="-107.99826474294288"><ele>1821.0</ele><time>2026-04-11T18:11:46.001Z</time></trkpt><trkpt lat="36.782447005072974" lon="-107.99837510363447"><ele>1821.0</ele><time>2026-04-11T18:11:48.001Z</time></trkpt><trkpt lat="36.78251902465119" lon="-107.99845991897983"><ele>1821.0</ele><time>2026-04-11T18:11:50.001Z</time></trkpt><trkpt lat="36.782564599107765" lon="-107.99852430034429"><ele>1820.0</ele><time>2026-04-11T18:11:52.001Z</time></trkpt><trkpt lat="36.78263252987252" lon="-107.99857072827068"><ele>1819.0</ele><time>2026-04-11T18:11:54.001Z</time></trkpt><trkpt lat="36.78269544414189" lon="-107.99859660053649"><ele>1818.0</ele><time>2026-04-11T18:11:56.001Z</time></trkpt><trkpt lat="36.782762304132945" lon="-107.99860244080884"><ele>1817.0</ele><time>2026-04-11T18:11:57.001Z</time></trkpt><trkpt lat="36.78284189566989" lon="-107.99859548905155"><ele>1816.0</ele><time>2026-04-11T18:11:59.001Z</time></trkpt><trkpt lat="36.782945697762244" lon="-107.99861512836748"><ele>1815.0</ele><time>2026-04-11T18:12:01.001Z</time></trkpt><trkpt lat="36.783013674511984" lon="-107.99863852344812"><ele>1814.0</ele><time>2026-04-11T18:12:02.001Z</time></trkpt><trkpt lat="36.78309391638646" lon="-107.99866926395852"><ele>1813.0</ele><time>2026-04-11T18:12:03.001Z</time></trkpt><trkpt lat="36.78318801789258" lon="-107.9987228887652"><ele>1812.0</ele><time>2026-04-11T18:12:04.001Z</time></trkpt><trkpt lat="36.78329756585812" lon="-107.99876874433723"><ele>1811.0</ele><time>2026-04-11T18:12:05.001Z</time></trkpt><trkpt lat="36.78339912268434" lon="-107.99881419765121"><ele>1810.0</ele><time>2026-04-11T18:12:06.001Z</time></trkpt><trkpt lat="36.783502774801846" lon="-107.99887141938906"><ele>1809.3333333333335</ele><time>2026-04-11T18:12:07.001Z</time></trkpt><trkpt lat="36.783579924066444" lon="-107.99893086331093"><ele>1808.6666666666667</ele><time>2026-04-11T18:12:08.001Z</time></trkpt><trkpt lat="36.78365928692841" lon="-107.99898018569444"><ele>1808.0</ele><time>2026-04-11T18:12:09.001Z</time></trkpt><trkpt lat="36.783734078604176" lon="-107.99900780329624"><ele>1807.3333333333335</ele><time>2026-04-11T18:12:10.001Z</time></trkpt><trkpt lat="36.783809577379714" lon="-107.99902274031476"><ele>1806.6666666666667</ele><time>2026-04-11T18:12:11.001Z</time></trkpt><trkpt lat="36.78388438075087" lon="-107.9990225401135"><ele>1806.0</ele><time>2026-04-11T18:12:12.001Z</time></trkpt><trkpt lat="36.78396920904952" lon="-107.99902090280622"><ele>1806.0</ele><time>2026-04-11T18:12:13.001Z</time></trkpt><trkpt lat="36.784060986865015" lon="-107.9990078525795"><ele>1806.0</ele><time>2026-04-11T18:12:14.001Z</time></trkpt><trkpt lat="36.78414092216328" lon="-107.99899594499351"><ele>1806.0</ele><time>2026-04-11T18:12:15.001Z</time></trkpt><trkpt lat="36.784212132863594" lon="-107.99898891867832"><ele>1806.0</ele><time>2026-04-11T18:12:16.001Z</time></trkpt><trkpt lat="36.78433725595521" lon="-107.99890633178595"><ele>1806.0</ele><time>2026-04-11T18:12:18.001Z</time></trkpt><trkpt lat="36.78443442607879" lon="-107.99890964145068"><ele>1804.8</ele><time>2026-04-11T18:12:20.001Z</time></trkpt><trkpt lat="36.78449953734055" lon="-107.99900077705388"><ele>1803.6</ele><time>2026-04-11T18:12:22Z</time></trkpt><trkpt lat="36.78448658076098" lon="-107.99912377725906"><ele>1802.4</ele><time>2026-04-11T18:12:25Z</time></trkpt><trkpt lat="36.78451915331591" lon="-107.99933217232181"><ele>1801.2</ele><time>2026-04-11T18:12:28Z</time></trkpt><trkpt lat="36.78456981367976" lon="-107.99938612208963"><ele>1800.0</ele><time>2026-04-11T18:12:29Z</time></trkpt><trkpt lat="36.784614253395894" lon="-107.99945475043758"><ele>1800.0</ele><time>2026-04-11T18:12:30Z</time></trkpt><trkpt lat="36.784668066424665" lon="-107.99952713276484"><ele>1800.0</ele><time>2026-04-11T18:12:31Z</time></trkpt><trkpt lat="36.78472743479716" lon="-107.99958976744405"><ele>1800.0</ele><time>2026-04-11T18:12:32Z</time></trkpt><trkpt lat="36.784831632850995" lon="-107.99967034228396"><ele>1800.0</ele><time>2026-04-11T18:12:34Z</time></trkpt><trkpt lat="36.784876912545066" lon="-107.99975262260774"><ele>1800.0</ele><time>2026-04-11T18:12:36Z</time></trkpt><trkpt lat="36.78497240164646" lon="-107.99980094419273"><ele>1800.0</ele><time>2026-04-11T18:12:38Z</time></trkpt><trkpt lat="36.785026180922266" lon="-107.9998630782391"><ele>1800.0</ele><time>2026-04-11T18:12:39Z</time></trkpt><trkpt lat="36.78507530658967" lon="-107.99991420136823"><ele>1800.0</ele><time>2026-04-11T18:12:40Z</time></trkpt><trkpt lat="36.78513695077162" lon="-107.99999329960252"><ele>1800.0</ele><time>2026-04-11T18:12:42Z</time></trkpt><trkpt lat="36.7851814652889" lon="-108.00010998154579"><ele>1800.0</ele><time>2026-04-11T18:12:44Z</time></trkpt><trkpt lat="36.78522083894008" lon="-108.00024244134947"><ele>1800.0</ele><time>2026-04-11T18:12:46Z</time></trkpt><trkpt lat="36.78522330285961" lon="-108.00034562800892"><ele>1800.0</ele><time>2026-04-11T18:12:48Z</time></trkpt><trkpt lat="36.78511592419754" lon="-108.00037269074674"><ele>1800.0</ele><time>2026-04-11T18:12:50Z</time></trkpt><trkpt lat="36.785028926002354" lon="-108.00044377666505"><ele>1800.0</ele><time>2026-04-11T18:12:51Z</time></trkpt><trkpt lat="36.784975698692925" lon="-108.00048692253228"><ele>1800.0</ele><time>2026-04-11T18:12:52Z</time></trkpt><trkpt lat="36.78501282331815" lon="-108.00058480334327"><ele>1800.0</ele><time>2026-04-11T18:12:56Z</time></trkpt><trkpt lat="36.78495923294487" lon="-108.00070492922627"><ele>1800.1666666666667</ele><time>2026-04-11T18:12:58Z</time></trkpt><trkpt lat="36.78492868022034" lon="-108.00083710666294"><ele>1800.3333333333335</ele><time>2026-04-11T18:13:00Z</time></trkpt><trkpt lat="36.78492390813972" lon="-108.00093980846721"><ele>1800.5</ele><time>2026-04-11T18:13:01Z</time></trkpt><trkpt lat="36.78491777506755" lon="-108.00102174912338"><ele>1800.6666666666667</ele><time>2026-04-11T18:13:02Z</time></trkpt><trkpt lat="36.78496190124941" lon="-108.0010881746609"><ele>1800.8333333333335</ele><time>2026-04-11T18:13:04Z</time></trkpt><trkpt lat="36.784947542200975" lon="-108.00117305714298"><ele>1801.0</ele><time>2026-04-11T18:13:09Z</time></trkpt><trkpt lat="36.784894900983325" lon="-108.00136453359563"><ele>1801.0</ele><time>2026-04-11T18:13:11Z</time></trkpt><trkpt lat="36.784887284043165" lon="-108.00146569135283"><ele>1801.0</ele><time>2026-04-11T18:13:13Z</time></trkpt><trkpt lat="36.78496935784027" lon="-108.00153231261966"><ele>1801.0</ele><time>2026-04-11T18:13:16Z</time></trkpt><trkpt lat="36.78505522787373" lon="-108.0016027579276"><ele>1801.0</ele><time>2026-04-11T18:13:18Z</time></trkpt><trkpt lat="36.785075549009875" lon="-108.00168760035876"><ele>1801.0</ele><time>2026-04-11T18:13:20Z</time></trkpt><trkpt lat="36.785113220753374" lon="-108.00181259704414"><ele>1801.1666666666667</ele><time>2026-04-11T18:13:22Z</time></trkpt><trkpt lat="36.78512383725004" lon="-108.00189268877212"><ele>1801.3333333333335</ele><time>2026-04-11T18:13:23Z</time></trkpt><trkpt lat="36.785125373271924" lon="-108.0019825076219"><ele>1801.5</ele><time>2026-04-11T18:13:24Z</time></trkpt><trkpt lat="36.78510052851599" lon="-108.00206830408085"><ele>1801.6666666666665</ele><time>2026-04-11T18:13:25Z</time></trkpt><trkpt lat="36.78507120854448" lon="-108.00215061179406"><ele>1801.8333333333333</ele><time>2026-04-11T18:13:26.001Z</time></trkpt><trkpt lat="36.785054966073844" lon="-108.00225432915244"><ele>1802.0</ele><time>2026-04-11T18:13:27.001Z</time></trkpt><trkpt lat="36.78505306529521" lon="-108.002362932074"><ele>1801.9999999999998</ele><time>2026-04-11T18:13:28.001Z</time></trkpt><trkpt lat="36.78505991870349" lon="-108.00246764441819"><ele>1802.0</ele><time>2026-04-11T18:13:29.001Z</time></trkpt><trkpt lat="36.78507426432199" lon="-108.00256428231998"><ele>1802.0</ele><time>2026-04-11T18:13:30.001Z</time></trkpt><trkpt lat="36.785031818561784" lon="-108.00265594707346"><ele>1802.0</ele><time>2026-04-11T18:13:31.001Z</time></trkpt><trkpt lat="36.78498527688723" lon="-108.00271311211591"><ele>1801.9999999999998</ele><time>2026-04-11T18:13:32.001Z</time></trkpt><trkpt lat="36.78502181569626" lon="-108.00279708753074"><ele>1802.0</ele><time>2026-04-11T18:13:35.001Z</time></trkpt><trkpt lat="36.7850753649493" lon="-108.00288069374447"><ele>1801.4999999999998</ele><time>2026-04-11T18:13:36.001Z</time></trkpt><trkpt lat="36.78512063978545" lon="-108.00298560295779"><ele>1801.0</ele><time>2026-04-11T18:13:37.001Z</time></trkpt><trkpt lat="36.785188773574745" lon="-108.00302341825181"><ele>1800.5</ele><time>2026-04-11T18:13:39.001Z</time></trkpt><trkpt lat="36.78526765719091" lon="-108.00299939751244"><ele>1800.0</ele><time>2026-04-11T18:13:40.001Z</time></trkpt><trkpt lat="36.78536847148255" lon="-108.00299329283912"><ele>1799.4999999999998</ele><time>2026-04-11T18:13:41.001Z</time></trkpt><trkpt lat="36.78545659704755" lon="-108.00304329073815"><ele>1799.0</ele><time>2026-04-11T18:13:42.001Z</time></trkpt><trkpt lat="36.78550572790799" lon="-108.00311791475387"><ele>1798.9999999999998</ele><time>2026-04-11T18:13:43.001Z</time></trkpt><trkpt lat="36.78558492381754" lon="-108.00319453860469"><ele>1799.0</ele><time>2026-04-11T18:13:44.001Z</time></trkpt><trkpt lat="36.78566637160275" lon="-108.00324036880455"><ele>1799.0</ele><time>2026-04-11T18:13:45.001Z</time></trkpt><trkpt lat="36.785733975405826" lon="-108.00323221974998"><ele>1799.0</ele><time>2026-04-11T18:13:46.001Z</time></trkpt><trkpt lat="36.78579901107891" lon="-108.00323389036667"><ele>1798.9999999999998</ele><time>2026-04-11T18:13:47.001Z</time></trkpt><trkpt lat="36.785885426887006" lon="-108.0032862228588"><ele>1799.0</ele><time>2026-04-11T18:13:48.001Z</time></trkpt><trkpt lat="36.785949461625066" lon="-108.00330663839625"><ele>1797.8000000000002</ele><time>2026-04-11T18:13:49.001Z</time></trkpt><trkpt lat="36.786045164016436" lon="-108.00329363729976"><ele>1796.6000000000001</ele><time>2026-04-11T18:13:51.001Z</time></trkpt><trkpt lat="36.78610435477715" lon="-108.00333424294354"><ele>1795.4</ele><time>2026-04-11T18:13:52.001Z</time></trkpt><trkpt lat="36.78616150004908" lon="-108.00340402271273"><ele>1794.2</ele><time>2026-04-11T18:13:53.001Z</time></trkpt><trkpt lat="36.7862398626233" lon="-108.00344310378355"><ele>1793.0</ele><time>2026-04-11T18:13:55.001Z</time></trkpt><trkpt lat="36.78636128162165" lon="-108.00344715870153"><ele>1792.4999999999998</ele><time>2026-04-11T18:13:57.001Z</time></trkpt><trkpt lat="36.786434099091174" lon="-108.0034904398782"><ele>1792.0</ele><time>2026-04-11T18:13:58.001Z</time></trkpt><trkpt lat="36.786499182975135" lon="-108.00355822427184"><ele>1791.5</ele><time>2026-04-11T18:13:59.001Z</time></trkpt><trkpt lat="36.78655156656675" lon="-108.00360985262472"><ele>1791.0</ele><time>2026-04-11T18:14:00.001Z</time></trkpt><trkpt lat="36.78663491208402" lon="-108.00360150364806"><ele>1790.4999999999998</ele><time>2026-04-11T18:14:02.001Z</time></trkpt><trkpt lat="36.78671714130505" lon="-108.00352931308142"><ele>1790.0</ele><time>2026-04-11T18:14:04.001Z</time></trkpt><trkpt lat="36.786801589634585" lon="-108.00346026206039"><ele>1788.9999999999998</ele><time>2026-04-11T18:14:06.001Z</time></trkpt><trkpt lat="36.78690355929108" lon="-108.00352263333622"><ele>1788.0</ele><time>2026-04-11T18:14:08.001Z</time></trkpt><trkpt lat="36.78698700491602" lon="-108.00357244931017"><ele>1787.0</ele><time>2026-04-11T18:14:09.001Z</time></trkpt><trkpt lat="36.7870448201638" lon="-108.00361078123025"><ele>1786.0</ele><time>2026-04-11T18:14:10.001Z</time></trkpt><trkpt lat="36.787150974112734" lon="-108.00362709739615"><ele>1784.9999999999998</ele><time>2026-04-11T18:14:12.001Z</time></trkpt><trkpt lat="36.787220718725074" lon="-108.0036388249995"><ele>1784.0</ele><time>2026-04-11T18:14:13.001Z</time></trkpt><trkpt lat="36.78731862365376" lon="-108.00368520770203"><ele>1784.0</ele><time>2026-04-11T18:14:15.001Z</time></trkpt><trkpt lat="36.78737493365864" lon="-108.00375532084641"><ele>1784.0</ele><time>2026-04-11T18:14:16.001Z</time></trkpt><trkpt lat="36.78741800974173" lon="-108.00382825132189"><ele>1784.0</ele><time>2026-04-11T18:14:17.001Z</time></trkpt><trkpt lat="36.78753310944101" lon="-108.00393743533003"><ele>1784.0</ele><time>2026-04-11T18:14:19.001Z</time></trkpt><trkpt lat="36.78760879466563" lon="-108.00398028565546"><ele>1784.0</ele><time>2026-04-11T18:14:20.001Z</time></trkpt><trkpt lat="36.78767597753981" lon="-108.00401857204174"><ele>1784.2</ele><time>2026-04-11T18:14:21.001Z</time></trkpt><trkpt lat="36.78774551741562" lon="-108.00407964991199"><ele>1784.4</ele><time>2026-04-11T18:14:22.001Z</time></trkpt><trkpt lat="36.78782215612604" lon="-108.0041325513439"><ele>1784.6</ele><time>2026-04-11T18:14:23.001Z</time></trkpt><trkpt lat="36.78791492501619" lon="-108.00418302324151"><ele>1784.8</ele><time>2026-04-11T18:14:24.001Z</time></trkpt><trkpt lat="36.788015445693716" lon="-108.00421539369756"><ele>1785.0</ele><time>2026-04-11T18:14:25.001Z</time></trkpt><trkpt lat="36.78812787776815" lon="-108.0042515991792"><ele>1785.2</ele><time>2026-04-11T18:14:26Z</time></trkpt><trkpt lat="36.78822381210983" lon="-108.0042611536505"><ele>1785.4</ele><time>2026-04-11T18:14:27Z</time></trkpt><trkpt lat="36.78833161975331" lon="-108.004235808271"><ele>1785.6</ele><time>2026-04-11T18:14:28Z</time></trkpt><trkpt lat="36.788445798734195" lon="-108.00420866523936"><ele>1785.8</ele><time>2026-04-11T18:14:29Z</time></trkpt><trkpt lat="36.78853745963589" lon="-108.00418060937947"><ele>1786.0</ele><time>2026-04-11T18:14:30Z</time></trkpt><trkpt lat="36.78860269437508" lon="-108.00415899927602"><ele>1786.0</ele><time>2026-04-11T18:14:31Z</time></trkpt><trkpt lat="36.78866727608491" lon="-108.00413860932916"><ele>1786.0</ele><time>2026-04-11T18:14:32Z</time></trkpt><trkpt lat="36.78874662362605" lon="-108.00412965203195"><ele>1786.0</ele><time>2026-04-11T18:14:33Z</time></trkpt><trkpt lat="36.788873955750844" lon="-108.00414565563455"><ele>1786.0</ele><time>2026-04-11T18:14:35Z</time></trkpt><trkpt lat="36.788960098085944" lon="-108.00417888794283"><ele>1786.0</ele><time>2026-04-11T18:14:36Z</time></trkpt><trkpt lat="36.78905583664156" lon="-108.0042094483903"><ele>1786.0</ele><time>2026-04-11T18:14:37Z</time></trkpt><trkpt lat="36.78913327692405" lon="-108.0042204649452"><ele>1786.0</ele><time>2026-04-11T18:14:38Z</time></trkpt><trkpt lat="36.78921723104699" lon="-108.0042024579072"><ele>1786.0</ele><time>2026-04-11T18:14:40Z</time></trkpt><trkpt lat="36.789314352101826" lon="-108.0041409757113"><ele>1786.0</ele><time>2026-04-11T18:14:42Z</time></trkpt><trkpt lat="36.789377602611985" lon="-108.00411515852848"><ele>1786.0</ele><time>2026-04-11T18:14:43Z</time></trkpt><trkpt lat="36.78949211610656" lon="-108.00407420009675"><ele>1787.5000000000002</ele><time>2026-04-11T18:14:45Z</time></trkpt><trkpt lat="36.78960504406006" lon="-108.00405527007398"><ele>1789.0</ele><time>2026-04-11T18:14:47Z</time></trkpt><trkpt lat="36.789675392361175" lon="-108.00402953152376"><ele>1790.5</ele><time>2026-04-11T18:14:48Z</time></trkpt><trkpt lat="36.78975650087827" lon="-108.0040045976623"><ele>1792.0</ele><time>2026-04-11T18:14:49Z</time></trkpt><trkpt lat="36.789844944910904" lon="-108.00400586859536"><ele>1793.5000000000002</ele><time>2026-04-11T18:14:50Z</time></trkpt><trkpt lat="36.78992534007449" lon="-108.00401214843669"><ele>1795.0</ele><time>2026-04-11T18:14:51Z</time></trkpt><trkpt lat="36.78999102449588" lon="-108.00403430020224"><ele>1795.0000000000002</ele><time>2026-04-11T18:14:52Z</time></trkpt><trkpt lat="36.79005567142513" lon="-108.00405886672898"><ele>1795.0</ele><time>2026-04-11T18:14:53Z</time></trkpt><trkpt lat="36.79013666989853" lon="-108.00408981391905"><ele>1795.0</ele><time>2026-04-11T18:14:54Z</time></trkpt><trkpt lat="36.790210252759735" lon="-108.00412471719412"><ele>1795.0</ele><time>2026-04-11T18:14:55Z</time></trkpt><trkpt lat="36.790300151632444" lon="-108.00417042652494"><ele>1795.0000000000002</ele><time>2026-04-11T18:14:56Z</time></trkpt><trkpt lat="36.79038655184015" lon="-108.00422266555702"><ele>1795.0</ele><time>2026-04-11T18:14:57Z</time></trkpt><trkpt lat="36.79045045266443" lon="-108.00426485865843"><ele>1792.6666666666667</ele><time>2026-04-11T18:14:58Z</time></trkpt><trkpt lat="36.7905325875225" lon="-108.0043200254166"><ele>1790.3333333333335</ele><time>2026-04-11T18:15:00Z</time></trkpt><trkpt lat="36.79060568087505" lon="-108.00432186980026"><ele>1788.0</ele><time>2026-04-11T18:15:03Z</time></trkpt><trkpt lat="36.790668735049074" lon="-108.00435117192686"><ele>1785.6666666666665</ele><time>2026-04-11T18:15:28Z</time></trkpt><trkpt lat="36.790737627904484" lon="-108.00440409665207"><ele>1783.3333333333333</ele><time>2026-04-11T18:15:29Z</time></trkpt><trkpt lat="36.79078367016851" lon="-108.00447209060798"><ele>1781.0</ele><time>2026-04-11T18:15:30Z</time></trkpt><trkpt lat="36.79082783004607" lon="-108.00454497181175"><ele>1781.0</ele><time>2026-04-11T18:15:31Z</time></trkpt><trkpt lat="36.790893577018956" lon="-108.00465041367748"><ele>1781.0</ele><time>2026-04-11T18:15:32.001Z</time></trkpt><trkpt lat="36.79097106869731" lon="-108.00477881861444"><ele>1781.0</ele><time>2026-04-11T18:15:33.001Z</time></trkpt><trkpt lat="36.79102948330845" lon="-108.00487413746545"><ele>1781.0</ele><time>2026-04-11T18:15:34.001Z</time></trkpt><trkpt lat="36.79107869611419" lon="-108.00494819942894"><ele>1781.0</ele><time>2026-04-11T18:15:35.001Z</time></trkpt><trkpt lat="36.7911313190901" lon="-108.00500910770259"><ele>1780.8</ele><time>2026-04-11T18:15:36.001Z</time></trkpt><trkpt lat="36.791189129037285" lon="-108.00504946503274"><ele>1780.6</ele><time>2026-04-11T18:15:37.001Z</time></trkpt><trkpt lat="36.79127103693201" lon="-108.0050902581576"><ele>1780.4</ele><time>2026-04-11T18:15:38.001Z</time></trkpt><trkpt lat="36.79137738641979" lon="-108.00512508135337"><ele>1780.2</ele><time>2026-04-11T18:15:39.001Z</time></trkpt><trkpt lat="36.7915043592976" lon="-108.00515403049071"><ele>1780.0</ele><time>2026-04-11T18:15:40.001Z</time></trkpt><trkpt lat="36.79159692657499" lon="-108.0051767774725"><ele>1780.0</ele><time>2026-04-11T18:15:41.001Z</time></trkpt><trkpt lat="36.79166457053239" lon="-108.00517256271986"><ele>1780.0</ele><time>2026-04-11T18:15:43.001Z</time></trkpt><trkpt lat="36.791770385280614" lon="-108.0051341019476"><ele>1780.0</ele><time>2026-04-11T18:15:45.001Z</time></trkpt><trkpt lat="36.79194111975107" lon="-108.00506814210934"><ele>1780.0</ele><time>2026-04-11T18:15:46.001Z</time></trkpt><trkpt lat="36.79202239665418" lon="-108.00498583624287"><ele>1780.75</ele><time>2026-04-11T18:15:47.001Z</time></trkpt><trkpt lat="36.7921099078843" lon="-108.00493190986393"><ele>1781.5</ele><time>2026-04-11T18:15:48.001Z</time></trkpt><trkpt lat="36.792185299595516" lon="-108.00489888849786"><ele>1782.25</ele><time>2026-04-11T18:15:49.001Z</time></trkpt><trkpt lat="36.792373318356056" lon="-108.00490512132968"><ele>1783.0</ele><time>2026-04-11T18:15:51.001Z</time></trkpt><trkpt lat="36.79247573946042" lon="-108.0049167266209"><ele>1783.0</ele><time>2026-04-11T18:15:52.001Z</time></trkpt><trkpt lat="36.792573465165724" lon="-108.00494479931663"><ele>1783.0000000000002</ele><time>2026-04-11T18:15:53.001Z</time></trkpt><trkpt lat="36.79266163311625" lon="-108.00497125276246"><ele>1783.0000000000002</ele><time>2026-04-11T18:15:54.001Z</time></trkpt><trkpt lat="36.79275639149733" lon="-108.00500737299252"><ele>1783.0</ele><time>2026-04-11T18:15:55.001Z</time></trkpt><trkpt lat="36.79285307387853" lon="-108.00502603468381"><ele>1783.0</ele><time>2026-04-11T18:15:56.001Z</time></trkpt><trkpt lat="36.792955397908756" lon="-108.00502390944962"><ele>1782.4</ele><time>2026-04-11T18:15:57.001Z</time></trkpt><trkpt lat="36.79311008961123" lon="-108.00495490527224"><ele>1781.8000000000002</ele><time>2026-04-11T18:15:59.001Z</time></trkpt><trkpt lat="36.79318806676281" lon="-108.0049136051557"><ele>1781.2</ele><time>2026-04-11T18:16:00.001Z</time></trkpt><trkpt lat="36.79328339263003" lon="-108.00487248545379"><ele>1780.6</ele><time>2026-04-11T18:16:01.001Z</time></trkpt><trkpt lat="36.793369149102325" lon="-108.00485952938476"><ele>1780.0</ele><time>2026-04-11T18:16:02.001Z</time></trkpt><trkpt lat="36.79344927101062" lon="-108.0048564018992"><ele>1779.0</ele><time>2026-04-11T18:16:03.001Z</time></trkpt><trkpt lat="36.79352646000574" lon="-108.00483758141539"><ele>1778.0</ele><time>2026-04-11T18:16:05.001Z</time></trkpt><trkpt lat="36.79359210583657" lon="-108.00484412214254"><ele>1777.0</ele><time>2026-04-11T18:16:08.001Z</time></trkpt><trkpt lat="36.79368944768522" lon="-108.00483893385447"><ele>1776.0</ele><time>2026-04-11T18:16:10.001Z</time></trkpt><trkpt lat="36.79377925667215" lon="-108.00487692989002"><ele>1775.0</ele><time>2026-04-11T18:16:11.001Z</time></trkpt><trkpt lat="36.7938880284276" lon="-108.00495772883136"><ele>1775.8</ele><time>2026-04-11T18:16:13.001Z</time></trkpt><trkpt lat="36.793941520644445" lon="-108.00501841865011"><ele>1776.6</ele><time>2026-04-11T18:16:14.001Z</time></trkpt><trkpt lat="36.793983516649625" lon="-108.00507753409711"><ele>1777.4</ele><time>2026-04-11T18:16:15.001Z</time></trkpt><trkpt lat="36.79405280992877" lon="-108.00520672109202"><ele>1778.2</ele><time>2026-04-11T18:16:17.001Z</time></trkpt><trkpt lat="36.79407965043853" lon="-108.0053121939091"><ele>1779.0</ele><time>2026-04-11T18:16:18.001Z</time></trkpt><trkpt lat="36.79408449371725" lon="-108.00543851770583"><ele>1779.0</ele><time>2026-04-11T18:16:19.001Z</time></trkpt><trkpt lat="36.79406748969807" lon="-108.00559644908044"><ele>1779.0</ele><time>2026-04-11T18:16:20.001Z</time></trkpt><trkpt lat="36.79408075276006" lon="-108.00577199118503"><ele>1779.0</ele><time>2026-04-11T18:16:21.001Z</time></trkpt><trkpt lat="36.79409905129265" lon="-108.00593645654932"><ele>1779.0</ele><time>2026-04-11T18:16:22.001Z</time></trkpt><trkpt lat="36.79409805625987" lon="-108.00607982531146"><ele>1779.0</ele><time>2026-04-11T18:16:23.001Z</time></trkpt><trkpt lat="36.79410055688708" lon="-108.00620225565734"><ele>1779.0</ele><time>2026-04-11T18:16:24.001Z</time></trkpt><trkpt lat="36.79411797278903" lon="-108.00630703637674"><ele>1779.0</ele><time>2026-04-11T18:16:25.001Z</time></trkpt><trkpt lat="36.79415777294661" lon="-108.00638948380906"><ele>1779.0</ele><time>2026-04-11T18:16:26.001Z</time></trkpt><trkpt lat="36.79422681974891" lon="-108.0064664194786"><ele>1779.0</ele><time>2026-04-11T18:16:27.001Z</time></trkpt><trkpt lat="36.79428216972638" lon="-108.00654903499981"><ele>1779.0</ele><time>2026-04-11T18:16:28.001Z</time></trkpt><trkpt lat="36.79435121321171" lon="-108.00660955240467"><ele>1778.5</ele><time>2026-04-11T18:16:29.001Z</time></trkpt><trkpt lat="36.79444087710685" lon="-108.00663114431572"><ele>1778.0</ele><time>2026-04-11T18:16:30.001Z</time></trkpt><trkpt lat="36.79459374300708" lon="-108.00655894229703"><ele>1777.5</ele><time>2026-04-11T18:16:31.001Z</time></trkpt><trkpt lat="36.79469167235613" lon="-108.00659680619431"><ele>1777.0</ele><time>2026-04-11T18:16:32Z</time></trkpt><trkpt lat="36.794792322355235" lon="-108.00663116942523"><ele>1777.0</ele><time>2026-04-11T18:16:33Z</time></trkpt><trkpt lat="36.7948922735354" lon="-108.00662328170752"><ele>1776.9999999999998</ele><time>2026-04-11T18:16:34Z</time></trkpt><trkpt lat="36.79498409613928" lon="-108.00660788747363"><ele>1776.9999999999998</ele><time>2026-04-11T18:16:35Z</time></trkpt><trkpt lat="36.79505652379638" lon="-108.00663029105604"><ele>1777.0</ele><time>2026-04-11T18:16:36Z</time></trkpt><trkpt lat="36.795142335731335" lon="-108.006697157578"><ele>1777.0</ele><time>2026-04-11T18:16:37Z</time></trkpt><trkpt lat="36.79519801314102" lon="-108.00678743213048"><ele>1777.25</ele><time>2026-04-11T18:16:38Z</time></trkpt><trkpt lat="36.79527808578832" lon="-108.00692388767563"><ele>1777.5</ele><time>2026-04-11T18:16:39Z</time></trkpt><trkpt lat="36.79539296772458" lon="-108.0070365312577"><ele>1777.75</ele><time>2026-04-11T18:16:40Z</time></trkpt><trkpt lat="36.79546095880578" lon="-108.007136097356"><ele>1778.0</ele><time>2026-04-11T18:16:41Z</time></trkpt><trkpt lat="36.79551699253318" lon="-108.00722535932844"><ele>1778.0</ele><time>2026-04-11T18:16:42Z</time></trkpt><trkpt lat="36.79562611091601" lon="-108.00728896296711"><ele>1778.0</ele><time>2026-04-11T18:16:43Z</time></trkpt><trkpt lat="36.79575124548482" lon="-108.00735318692433"><ele>1778.0</ele><time>2026-04-11T18:16:44Z</time></trkpt><trkpt lat="36.79586636541643" lon="-108.00742450774412"><ele>1778.0</ele><time>2026-04-11T18:16:45Z</time></trkpt><trkpt lat="36.79596868383962" lon="-108.00749523043169"><ele>1778.2</ele><time>2026-04-11T18:16:46Z</time></trkpt><trkpt lat="36.796040639765" lon="-108.00757636123018"><ele>1778.4</ele><time>2026-04-11T18:16:47Z</time></trkpt><trkpt lat="36.79611710124373" lon="-108.0076672103445"><ele>1778.6000000000001</ele><time>2026-04-11T18:16:48Z</time></trkpt><trkpt lat="36.796180160111966" lon="-108.00771549929654"><ele>1778.8000000000002</ele><time>2026-04-11T18:16:49Z</time></trkpt><trkpt lat="36.796301826522544" lon="-108.00771385530904"><ele>1779.0</ele><time>2026-04-11T18:16:51Z</time></trkpt><trkpt lat="36.796409425684196" lon="-108.00769688878543"><ele>1779.0</ele><time>2026-04-11T18:16:52Z</time></trkpt><trkpt lat="36.7965210627291" lon="-108.00767309572488"><ele>1779.0</ele><time>2026-04-11T18:16:53Z</time></trkpt><trkpt lat="36.796611611628954" lon="-108.0076214057302"><ele>1779.0</ele><time>2026-04-11T18:16:54Z</time></trkpt><trkpt lat="36.79672587672465" lon="-108.00756640443551"><ele>1779.0</ele><time>2026-04-11T18:16:55Z</time></trkpt><trkpt lat="36.79684942846328" lon="-108.00753727378904"><ele>1778.0</ele><time>2026-04-11T18:16:56Z</time></trkpt><trkpt lat="36.79697141335763" lon="-108.00748463373428"><ele>1777.0</ele><time>2026-04-11T18:16:57Z</time></trkpt><trkpt lat="36.79705207737417" lon="-108.00743266483285"><ele>1776.0</ele><time>2026-04-11T18:16:58Z</time></trkpt><trkpt lat="36.797119065452996" lon="-108.00738885056629"><ele>1775.0</ele><time>2026-04-11T18:16:59Z</time></trkpt><trkpt lat="36.797189504078816" lon="-108.00739942351497"><ele>1774.0</ele><time>2026-04-11T18:17:00Z</time></trkpt><trkpt lat="36.797304333341415" lon="-108.00748921159102"><ele>1774.0000000000002</ele><time>2026-04-11T18:17:01Z</time></trkpt><trkpt lat="36.797408593673076" lon="-108.0075400159459"><ele>1774.0</ele><time>2026-04-11T18:17:02Z</time></trkpt><trkpt lat="36.797497188991684" lon="-108.00753403947238"><ele>1774.0</ele><time>2026-04-11T18:17:03Z</time></trkpt><trkpt lat="36.7975933098938" lon="-108.0075222658242"><ele>1774.0</ele><time>2026-04-11T18:17:04Z</time></trkpt><trkpt lat="36.79767761467235" lon="-108.00751316893313"><ele>1774.0000000000002</ele><time>2026-04-11T18:17:05Z</time></trkpt><trkpt lat="36.797739433729404" lon="-108.00754723866211"><ele>1774.0</ele><time>2026-04-11T18:17:06Z</time></trkpt><trkpt lat="36.79782119458286" lon="-108.00763396734067"><ele>1774.0</ele><time>2026-04-11T18:17:07Z</time></trkpt><trkpt lat="36.79791149570125" lon="-108.00774182454275"><ele>1774.0</ele><time>2026-04-11T18:17:08Z</time></trkpt><trkpt lat="36.797981270579385" lon="-108.00785778579667"><ele>1774.0</ele><time>2026-04-11T18:17:09Z</time></trkpt><trkpt lat="36.798027738886205" lon="-108.00797714578665"><ele>1774.0</ele><time>2026-04-11T18:17:10Z</time></trkpt><trkpt lat="36.79805627479932" lon="-108.00805547121942"><ele>1774.0</ele><time>2026-04-11T18:17:11Z</time></trkpt><trkpt lat="36.798131643004375" lon="-108.00812134028146"><ele>1774.0</ele><time>2026-04-11T18:17:12Z</time></trkpt><trkpt lat="36.79825371319262" lon="-108.00820258772355"><ele>1774.0</ele><time>2026-04-11T18:17:13Z</time></trkpt><trkpt lat="36.798345713443496" lon="-108.00827812652061"><ele>1774.0</ele><time>2026-04-11T18:17:14Z</time></trkpt><trkpt lat="36.79842752447899" lon="-108.00835147756781"><ele>1774.0</ele><time>2026-04-11T18:17:15Z</time></trkpt><trkpt lat="36.79849788596402" lon="-108.00841017266669"><ele>1774.0</ele><time>2026-04-11T18:17:16Z</time></trkpt><trkpt lat="36.798604626033146" lon="-108.00849275883256"><ele>1773.8000000000002</ele><time>2026-04-11T18:17:18Z</time></trkpt><trkpt lat="36.79865039553263" lon="-108.00859270269443"><ele>1773.6000000000001</ele><time>2026-04-11T18:17:19Z</time></trkpt><trkpt lat="36.79867547697355" lon="-108.00872010798882"><ele>1773.4</ele><time>2026-04-11T18:17:20Z</time></trkpt><trkpt lat="36.79870184344862" lon="-108.00885782741068"><ele>1773.2</ele><time>2026-04-11T18:17:21Z</time></trkpt><trkpt lat="36.798738948666646" lon="-108.00898703136168"><ele>1773.0</ele><time>2026-04-11T18:17:22Z</time></trkpt><trkpt lat="36.79879370326998" lon="-108.00910502046844"><ele>1774.2</ele><time>2026-04-11T18:17:23Z</time></trkpt><trkpt lat="36.79883748801762" lon="-108.00920773894184"><ele>1775.4</ele><time>2026-04-11T18:17:24Z</time></trkpt><trkpt lat="36.79889434628388" lon="-108.00928401646117"><ele>1776.6000000000001</ele><time>2026-04-11T18:17:25Z</time></trkpt><trkpt lat="36.798968221450224" lon="-108.00934733301692"><ele>1777.8000000000002</ele><time>2026-04-11T18:17:26Z</time></trkpt><trkpt lat="36.799059121782285" lon="-108.00942302205301"><ele>1779.0</ele><time>2026-04-11T18:17:27Z</time></trkpt><trkpt lat="36.799131536933125" lon="-108.0095016041014"><ele>1779.0</ele><time>2026-04-11T18:17:28Z</time></trkpt><trkpt lat="36.79920284953294" lon="-108.00959156481015"><ele>1779.0</ele><time>2026-04-11T18:17:29Z</time></trkpt><trkpt lat="36.7992962128521" lon="-108.00967369973081"><ele>1779.0</ele><time>2026-04-11T18:17:30Z</time></trkpt><trkpt lat="36.79937508079721" lon="-108.00971406258668"><ele>1779.0</ele><time>2026-04-11T18:17:31Z</time></trkpt><trkpt lat="36.79947271509872" lon="-108.00964369548916"><ele>1779.0</ele><time>2026-04-11T18:17:33Z</time></trkpt><trkpt lat="36.79955343507207" lon="-108.00954809472314"><ele>1778.5</ele><time>2026-04-11T18:17:35Z</time></trkpt><trkpt lat="36.79963028896989" lon="-108.00947965772629"><ele>1778.0</ele><time>2026-04-11T18:17:37Z</time></trkpt><trkpt lat="36.79972239953418" lon="-108.00946087380153"><ele>1777.5</ele><time>2026-04-11T18:18:11.001Z</time></trkpt><trkpt lat="36.799798981899755" lon="-108.00945901425534"><ele>1777.0</ele><time>2026-04-11T18:18:12.001Z</time></trkpt><trkpt lat="36.79987443704509" lon="-108.0094940770367"><ele>1776.5</ele><time>2026-04-11T18:18:13.001Z</time></trkpt><trkpt lat="36.79995833473159" lon="-108.00954876664186"><ele>1776.0</ele><time>2026-04-11T18:18:14.001Z</time></trkpt><trkpt lat="36.800035481824864" lon="-108.00959850183568"><ele>1776.0</ele><time>2026-04-11T18:18:15.001Z</time></trkpt><trkpt lat="36.80010925943824" lon="-108.00963748277093"><ele>1776.0</ele><time>2026-04-11T18:18:16.001Z</time></trkpt><trkpt lat="36.80018133535388" lon="-108.00967324993233"><ele>1776.0</ele><time>2026-04-11T18:18:17.001Z</time></trkpt><trkpt lat="36.800258988948855" lon="-108.00969460206107"><ele>1776.0</ele><time>2026-04-11T18:18:18.001Z</time></trkpt><trkpt lat="36.80036052592018" lon="-108.00969390765951"><ele>1776.0</ele><time>2026-04-11T18:18:19.001Z</time></trkpt><trkpt lat="36.80047767711382" lon="-108.00970030981104"><ele>1775.0</ele><time>2026-04-11T18:18:20.001Z</time></trkpt><trkpt lat="36.800581502937334" lon="-108.00970393190235"><ele>1774.0</ele><time>2026-04-11T18:18:21.001Z</time></trkpt><trkpt lat="36.80066783498576" lon="-108.0096481437778"><ele>1773.0</ele><time>2026-04-11T18:18:23.001Z</time></trkpt><trkpt lat="36.800761504217796" lon="-108.0095449193423"><ele>1772.0</ele><time>2026-04-11T18:18:25.001Z</time></trkpt><trkpt lat="36.80085537096984" lon="-108.00957392954682"><ele>1771.0</ele><time>2026-04-11T18:18:27.001Z</time></trkpt><trkpt lat="36.80091361587996" lon="-108.00963150283029"><ele>1771.0000000000002</ele><time>2026-04-11T18:18:28.001Z</time></trkpt><trkpt lat="36.800971514039375" lon="-108.00970274805242"><ele>1771.0</ele><time>2026-04-11T18:18:29.001Z</time></trkpt><trkpt lat="36.801069107765905" lon="-108.00973485050072"><ele>1771.0</ele><time>2026-04-11T18:18:31.001Z</time></trkpt><trkpt lat="36.8011371664537" lon="-108.00973848990861"><ele>1771.0</ele><time>2026-04-11T18:18:32.001Z</time></trkpt><trkpt lat="36.80120061031808" lon="-108.00976055479869"><ele>1771.0000000000002</ele><time>2026-04-11T18:18:33.001Z</time></trkpt><trkpt lat="36.80126975556621" lon="-108.00981349469016"><ele>1771.0</ele><time>2026-04-11T18:18:34.001Z</time></trkpt><trkpt lat="36.801350401849106" lon="-108.00988409928017"><ele>1770.0</ele><time>2026-04-11T18:18:35.001Z</time></trkpt><trkpt lat="36.80143762046207" lon="-108.00997040149532"><ele>1769.0</ele><time>2026-04-11T18:18:36.001Z</time></trkpt><trkpt lat="36.801506573374475" lon="-108.01004990731458"><ele>1768.0</ele><time>2026-04-11T18:18:37.001Z</time></trkpt><trkpt lat="36.801559906008904" lon="-108.01012314158817"><ele>1767.0</ele><time>2026-04-11T18:18:38Z</time></trkpt><trkpt lat="36.801620029063166" lon="-108.01015921458202"><ele>1766.0</ele><time>2026-04-11T18:18:39Z</time></trkpt><trkpt lat="36.80174200870471" lon="-108.01014630221604"><ele>1766.0</ele><time>2026-04-11T18:18:41Z</time></trkpt><trkpt lat="36.80183176181818" lon="-108.01012217302228"><ele>1766.0</ele><time>2026-04-11T18:18:42Z</time></trkpt><trkpt lat="36.80189827136253" lon="-108.01011491914895"><ele>1766.0</ele><time>2026-04-11T18:18:43Z</time></trkpt><trkpt lat="36.801987452405626" lon="-108.01008016329034"><ele>1766.0</ele><time>2026-04-11T18:18:45Z</time></trkpt><trkpt lat="36.80206599676769" lon="-108.01002274603094"><ele>1766.0</ele><time>2026-04-11T18:18:47Z</time></trkpt><trkpt lat="36.80226592663227" lon="-108.01004812110348"><ele>1762.6</ele><time>2026-04-11T18:18:50Z</time></trkpt><trkpt lat="36.80236118874625" lon="-108.01006834448918"><ele>1759.1999999999998</ele><time>2026-04-11T18:18:51Z</time></trkpt><trkpt lat="36.80245126932172" lon="-108.0100856736166"><ele>1755.8000000000002</ele><time>2026-04-11T18:18:52Z</time></trkpt><trkpt lat="36.80254910726684" lon="-108.01009039174616"><ele>1752.4</ele><time>2026-04-11T18:18:53Z</time></trkpt><trkpt lat="36.802646314874046" lon="-108.01007760130305"><ele>1749.0</ele><time>2026-04-11T18:18:54Z</time></trkpt><trkpt lat="36.80273720391543" lon="-108.01003653434528"><ele>1748.2</ele><time>2026-04-11T18:18:55Z</time></trkpt><trkpt lat="36.80282040399191" lon="-108.00997656800558"><ele>1747.4</ele><time>2026-04-11T18:18:56Z</time></trkpt><trkpt lat="36.80289279136394" lon="-108.00992993490505"><ele>1746.6</ele><time>2026-04-11T18:18:57Z</time></trkpt><trkpt lat="36.80303533442755" lon="-108.0098839246514"><ele>1745.8</ele><time>2026-04-11T18:18:59Z</time></trkpt><trkpt lat="36.80312999639783" lon="-108.00985439122759"><ele>1745.0</ele><time>2026-04-11T18:19:00Z</time></trkpt><trkpt lat="36.80324168448057" lon="-108.00979835823676"><ele>1745.0</ele><time>2026-04-11T18:19:01Z</time></trkpt><trkpt lat="36.80332169561598" lon="-108.00976350378873"><ele>1745.0</ele><time>2026-04-11T18:19:02Z</time></trkpt><trkpt lat="36.80340296376728" lon="-108.00975425071995"><ele>1745.0</ele><time>2026-04-11T18:19:03Z</time></trkpt><trkpt lat="36.80348741135946" lon="-108.00975778086696"><ele>1745.0</ele><time>2026-04-11T18:19:04Z</time></trkpt><trkpt lat="36.80358664450865" lon="-108.00977393856158"><ele>1745.0</ele><time>2026-04-11T18:19:05Z</time></trkpt><trkpt lat="36.803696805759024" lon="-108.00979196776022"><ele>1743.5</ele><time>2026-04-11T18:19:06Z</time></trkpt><trkpt lat="36.803804058381246" lon="-108.00976312342571"><ele>1742.0</ele><time>2026-04-11T18:19:07Z</time></trkpt><trkpt lat="36.80389857164267" lon="-108.0097055113405"><ele>1740.5</ele><time>2026-04-11T18:19:08Z</time></trkpt><trkpt lat="36.80399753194466" lon="-108.00967075170257"><ele>1739.0</ele><time>2026-04-11T18:19:09Z</time></trkpt><trkpt lat="36.80413666334313" lon="-108.00968663107685"><ele>1739.0</ele><time>2026-04-11T18:19:11Z</time></trkpt><trkpt lat="36.80427224941789" lon="-108.0097137032475"><ele>1739.0</ele><time>2026-04-11T18:19:12Z</time></trkpt><trkpt lat="36.80438210268348" lon="-108.00978404650712"><ele>1739.0</ele><time>2026-04-11T18:19:13Z</time></trkpt><trkpt lat="36.804454077478155" lon="-108.00982376934793"><ele>1739.0</ele><time>2026-04-11T18:19:14Z</time></trkpt><trkpt lat="36.804520111236904" lon="-108.0098188309357"><ele>1739.0</ele><time>2026-04-11T18:19:16Z</time></trkpt><trkpt lat="36.804552501622084" lon="-108.0097390646561"><ele>1739.2</ele><time>2026-04-11T18:19:18Z</time></trkpt><trkpt lat="36.80456531334839" lon="-108.00964743666168"><ele>1739.4</ele><time>2026-04-11T18:19:19Z</time></trkpt><trkpt lat="36.804556840309516" lon="-108.00943959429107"><ele>1739.6</ele><time>2026-04-11T18:19:21Z</time></trkpt><trkpt lat="36.804550356114945" lon="-108.00931752781842"><ele>1739.8</ele><time>2026-04-11T18:19:22Z</time></trkpt><trkpt lat="36.80455375801053" lon="-108.00923671580941"><ele>1740.0</ele><time>2026-04-11T18:19:23Z</time></trkpt><trkpt lat="36.8045768189823" lon="-108.00915392801336"><ele>1741.4</ele><time>2026-04-11T18:19:24Z</time></trkpt><trkpt lat="36.804628317173034" lon="-108.00903507317187"><ele>1742.8</ele><time>2026-04-11T18:19:25Z</time></trkpt><trkpt lat="36.80467831688821" lon="-108.00889958003599"><ele>1744.1999999999998</ele><time>2026-04-11T18:19:26Z</time></trkpt><trkpt lat="36.80467859386308" lon="-108.00879277397519"><ele>1745.6</ele><time>2026-04-11T18:19:27Z</time></trkpt><trkpt lat="36.80467840737897" lon="-108.00867365081473"><ele>1747.0</ele><time>2026-04-11T18:19:28Z</time></trkpt><trkpt lat="36.8046811375146" lon="-108.00853647614512"><ele>1747.0</ele><time>2026-04-11T18:19:29Z</time></trkpt><trkpt lat="36.804696898004906" lon="-108.00839090173807"><ele>1746.9999999999998</ele><time>2026-04-11T18:19:30Z</time></trkpt><trkpt lat="36.804696217323794" lon="-108.00824873150813"><ele>1746.9999999999998</ele><time>2026-04-11T18:19:31Z</time></trkpt><trkpt lat="36.80468308756849" lon="-108.00811813422139"><ele>1747.0</ele><time>2026-04-11T18:19:32Z</time></trkpt><trkpt lat="36.80466033596567" lon="-108.00801048431708"><ele>1747.0</ele><time>2026-04-11T18:19:33Z</time></trkpt><trkpt lat="36.80464750199859" lon="-108.00790222858524"><ele>1748.6</ele><time>2026-04-11T18:19:34Z</time></trkpt><trkpt lat="36.80464760559814" lon="-108.00779852459607"><ele>1750.1999999999998</ele><time>2026-04-11T18:19:35Z</time></trkpt><trkpt lat="36.80468133082113" lon="-108.00765452426609"><ele>1751.8</ele><time>2026-04-11T18:19:37Z</time></trkpt><trkpt lat="36.804680603738944" lon="-108.00750758808888"><ele>1753.4</ele><time>2026-04-11T18:19:38Z</time></trkpt><trkpt lat="36.804661192282445" lon="-108.00735409892425"><ele>1755.0</ele><time>2026-04-11T18:19:39Z</time></trkpt><trkpt lat="36.80465346170823" lon="-108.0072643785858"><ele>1755.0</ele><time>2026-04-11T18:19:40Z</time></trkpt><trkpt lat="36.8046822700666" lon="-108.00717385038448"><ele>1755.0</ele><time>2026-04-11T18:19:42Z</time></trkpt><trkpt lat="36.804768558194965" lon="-108.00706605275168"><ele>1755.0</ele><time>2026-04-11T18:19:44Z</time></trkpt><trkpt lat="36.80485350446633" lon="-108.00703499408802"><ele>1755.0</ele><time>2026-04-11T18:19:46Z</time></trkpt><trkpt lat="36.80492285325211" lon="-108.00704905940002"><ele>1755.0</ele><time>2026-04-11T18:19:50.001Z</time></trkpt><trkpt lat="36.805008440763636" lon="-108.00697668039686"><ele>1755.0</ele><time>2026-04-11T18:20:22.001Z</time></trkpt><trkpt lat="36.80509463571926" lon="-108.00693042317728"><ele>1755.0</ele><time>2026-04-11T18:20:23.001Z</time></trkpt><trkpt lat="36.80516991330074" lon="-108.00689535159526"><ele>1755.0</ele><time>2026-04-11T18:20:24.001Z</time></trkpt><trkpt lat="36.805265721487196" lon="-108.00688321721162"><ele>1755.0</ele><time>2026-04-11T18:20:26.001Z</time></trkpt><trkpt lat="36.805333989987716" lon="-108.00685011725227"><ele>1755.0</ele><time>2026-04-11T18:20:27.001Z</time></trkpt><trkpt lat="36.80542928460607" lon="-108.00678713716367"><ele>1753.1666666666667</ele><time>2026-04-11T18:20:28.001Z</time></trkpt><trkpt lat="36.80553277152687" lon="-108.00670722865027"><ele>1751.3333333333335</ele><time>2026-04-11T18:20:29.001Z</time></trkpt><trkpt lat="36.805620527900565" lon="-108.00663559666978"><ele>1749.5</ele><time>2026-04-11T18:20:30.001Z</time></trkpt><trkpt lat="36.80569833917196" lon="-108.00658297478194"><ele>1747.6666666666667</ele><time>2026-04-11T18:20:31.001Z</time></trkpt><trkpt lat="36.8057573855983" lon="-108.0065399284137"><ele>1745.8333333333335</ele><time>2026-04-11T18:20:32.001Z</time></trkpt><trkpt lat="36.80581209133906" lon="-108.00649991706135"><ele>1744.0</ele><time>2026-04-11T18:20:55Z</time></trkpt><trkpt lat="36.8058115988868" lon="-108.0064164280735"><ele>1744.0</ele><time>2026-04-11T18:20:58Z</time></trkpt><trkpt lat="36.80577762337026" lon="-108.00633795537524"><ele>1744.0</ele><time>2026-04-11T18:20:59Z</time></trkpt><trkpt lat="36.805728525947494" lon="-108.006263083281"><ele>1744.0</ele><time>2026-04-11T18:21:00Z</time></trkpt><trkpt lat="36.80564925326806" lon="-108.00618530226875"><ele>1744.0</ele><time>2026-04-11T18:21:01Z</time></trkpt><trkpt lat="36.80555984216375" lon="-108.00609679034541"><ele>1744.0</ele><time>2026-04-11T18:21:02Z</time></trkpt><trkpt lat="36.805464772785605" lon="-108.00597643270372"><ele>1744.0</ele><time>2026-04-11T18:21:03Z</time></trkpt><trkpt lat="36.80535389015915" lon="-108.00585199860843"><ele>1744.0</ele><time>2026-04-11T18:21:04Z</time></trkpt><trkpt lat="36.80525070637623" lon="-108.00574188238953"><ele>1744.0</ele><time>2026-04-11T18:21:05Z</time></trkpt><trkpt lat="36.805157050191596" lon="-108.00564323179489"><ele>1744.0</ele><time>2026-04-11T18:21:06Z</time></trkpt><trkpt lat="36.80508817749672" lon="-108.00557696616592"><ele>1745.5000000000002</ele><time>2026-04-11T18:21:07Z</time></trkpt><trkpt lat="36.80501142112927" lon="-108.00550895278968"><ele>1747.0</ele><time>2026-04-11T18:21:09Z</time></trkpt><trkpt lat="36.804881417208875" lon="-108.00547980510157"><ele>1748.5</ele><time>2026-04-11T18:21:12Z</time></trkpt><trkpt lat="36.80481723130109" lon="-108.00544035726982"><ele>1750.0</ele><time>2026-04-11T18:21:13Z</time></trkpt><trkpt lat="36.804796379795945" lon="-108.0053457899724"><ele>1751.5000000000002</ele><time>2026-04-11T18:21:15Z</time></trkpt><trkpt lat="36.80481606753975" lon="-108.00526096363616"><ele>1753.0</ele><time>2026-04-11T18:21:16Z</time></trkpt><trkpt lat="36.80484867868589" lon="-108.00515786732102"><ele>1753.0</ele><time>2026-04-11T18:21:17Z</time></trkpt><trkpt lat="36.804859814748184" lon="-108.00505352497066"><ele>1753.0000000000002</ele><time>2026-04-11T18:21:18Z</time></trkpt><trkpt lat="36.804847810565164" lon="-108.00492127373391"><ele>1753.0000000000002</ele><time>2026-04-11T18:21:19Z</time></trkpt><trkpt lat="36.80483661896486" lon="-108.00477265481722"><ele>1753.0</ele><time>2026-04-11T18:21:20Z</time></trkpt><trkpt lat="36.80482417576414" lon="-108.00462773442014"><ele>1753.0</ele><time>2026-04-11T18:21:21Z</time></trkpt><trkpt lat="36.8048096557367" lon="-108.00451128172608"><ele>1752.2</ele><time>2026-04-11T18:21:22Z</time></trkpt><trkpt lat="36.80477259547076" lon="-108.00443325133648"><ele>1751.4</ele><time>2026-04-11T18:21:23Z</time></trkpt><trkpt lat="36.80471833531515" lon="-108.00433980183276"><ele>1750.6000000000001</ele><time>2026-04-11T18:21:24Z</time></trkpt><trkpt lat="36.804659611076076" lon="-108.00422277330111"><ele>1749.8000000000002</ele><time>2026-04-11T18:21:25Z</time></trkpt><trkpt lat="36.804608144070336" lon="-108.00411680773973"><ele>1749.0</ele><time>2026-04-11T18:21:26Z</time></trkpt><trkpt lat="36.804587715832064" lon="-108.00402680469588"><ele>1747.8333333333333</ele><time>2026-04-11T18:21:28Z</time></trkpt><trkpt lat="36.80464039107532" lon="-108.00395737249362"><ele>1746.6666666666665</ele><time>2026-04-11T18:21:31Z</time></trkpt><trkpt lat="36.80470608988107" lon="-108.00389861332266"><ele>1745.5</ele><time>2026-04-11T18:21:33Z</time></trkpt><trkpt lat="36.804736182065156" lon="-108.00380927666798"><ele>1744.3333333333333</ele><time>2026-04-11T18:21:35Z</time></trkpt><trkpt lat="36.80471873346073" lon="-108.00366922732493"><ele>1743.1666666666665</ele><time>2026-04-11T18:21:37Z</time></trkpt><trkpt lat="36.80476761180089" lon="-108.00359545501782"><ele>1742.0</ele><time>2026-04-11T18:21:40Z</time></trkpt><trkpt lat="36.804879034871355" lon="-108.00357949862544"><ele>1742.0</ele><time>2026-04-11T18:21:42Z</time></trkpt><trkpt lat="36.80495325657396" lon="-108.0035706398207"><ele>1741.9999999999998</ele><time>2026-04-11T18:21:43Z</time></trkpt><trkpt lat="36.80503112892915" lon="-108.00352667555852"><ele>1741.9999999999998</ele><time>2026-04-11T18:21:45Z</time></trkpt><trkpt lat="36.805032319854305" lon="-108.00339431820638"><ele>1742.0</ele><time>2026-04-11T18:21:47Z</time></trkpt><trkpt lat="36.80503203269083" lon="-108.00322346088669"><ele>1742.0</ele><time>2026-04-11T18:21:48Z</time></trkpt><trkpt lat="36.805030695112045" lon="-108.00307973101673"><ele>1741.5</ele><time>2026-04-11T18:21:49Z</time></trkpt><trkpt lat="36.805028131311566" lon="-108.00293409782067"><ele>1741.0</ele><time>2026-04-11T18:21:50Z</time></trkpt><trkpt lat="36.805027225873765" lon="-108.00276459668397"><ele>1740.5</ele><time>2026-04-11T18:21:51Z</time></trkpt><trkpt lat="36.805030072811235" lon="-108.00258265321429"><ele>1740.0</ele><time>2026-04-11T18:21:52Z</time></trkpt><trkpt lat="36.80503664116877" lon="-108.00240370670203"><ele>1740.0</ele><time>2026-04-11T18:21:53Z</time></trkpt><trkpt lat="36.80503758823337" lon="-108.00222898402569"><ele>1740.0</ele><time>2026-04-11T18:21:54Z</time></trkpt><trkpt lat="36.80503720326191" lon="-108.00205704520651"><ele>1740.0</ele><time>2026-04-11T18:21:55Z</time></trkpt><trkpt lat="36.80504109648902" lon="-108.00190457084346"><ele>1740.0</ele><time>2026-04-11T18:21:56.001Z</time></trkpt><trkpt lat="36.80504839936012" lon="-108.00173326341117"><ele>1740.8</ele><time>2026-04-11T18:21:57.001Z</time></trkpt><trkpt lat="36.80504803131938" lon="-108.00159548234228"><ele>1741.6</ele><time>2026-04-11T18:21:58.001Z</time></trkpt><trkpt lat="36.80504770867253" lon="-108.00147469498495"><ele>1742.4</ele><time>2026-04-11T18:21:59.001Z</time></trkpt><trkpt lat="36.805048564205975" lon="-108.00135390287267"><ele>1743.2</ele><time>2026-04-11T18:22:00.001Z</time></trkpt><trkpt lat="36.80504972055483" lon="-108.00123870849558"><ele>1744.0</ele><time>2026-04-11T18:22:01.001Z</time></trkpt><trkpt lat="36.805313310627774" lon="-108.00118286781147"><ele>1742.0</ele><time>2026-04-11T18:22:03.001Z</time></trkpt><trkpt lat="36.80538092085611" lon="-108.0011816536556"><ele>1740.0</ele><time>2026-04-11T18:22:04.001Z</time></trkpt><trkpt lat="36.8055260453744" lon="-108.00126393660109"><ele>1738.0</ele><time>2026-04-11T18:22:05.001Z</time></trkpt><trkpt lat="36.80560994585762" lon="-108.00121112540516"><ele>1736.0</ele><time>2026-04-11T18:22:06.001Z</time></trkpt><trkpt lat="36.805773104018286" lon="-108.0011483615724"><ele>1736.0</ele><time>2026-04-11T18:22:07.001Z</time></trkpt><trkpt lat="36.80588243286689" lon="-108.00106444860205"><ele>1736.0</ele><time>2026-04-11T18:22:08.001Z</time></trkpt><trkpt lat="36.805992715979606" lon="-108.0009798032076"><ele>1736.0</ele><time>2026-04-11T18:22:09.001Z</time></trkpt><trkpt lat="36.806091803260955" lon="-108.00090375088782"><ele>1736.0</ele><time>2026-04-11T18:22:10.001Z</time></trkpt><trkpt lat="36.806178260569965" lon="-108.00083739242973"><ele>1734.0</ele><time>2026-04-11T18:22:11.001Z</time></trkpt><trkpt lat="36.8062550034723" lon="-108.00077849005754"><ele>1732.0</ele><time>2026-04-11T18:22:12.001Z</time></trkpt><trkpt lat="36.80607330694701" lon="-108.00022272882087"><ele>1732.0000000000002</ele><time>2026-04-11T18:22:13.001Z</time></trkpt><trkpt lat="36.80614267455183" lon="-108.00020505107086"><ele>1732.0</ele><time>2026-04-11T18:22:14.001Z</time></trkpt><trkpt lat="36.80623744556746" lon="-108.00022025508484"><ele>1732.0</ele><time>2026-04-11T18:22:16.001Z</time></trkpt><trkpt lat="36.80629443829115" lon="-108.00028075567988"><ele>1732.0</ele><time>2026-04-11T18:22:19.001Z</time></trkpt><trkpt lat="36.80633879909954" lon="-108.00037568297756"><ele>1732.0000000000002</ele><time>2026-04-11T18:22:22.001Z</time></trkpt><trkpt lat="36.80637458791515" lon="-108.00051859957911"><ele>1732.0</ele><time>2026-04-11T18:22:24.001Z</time></trkpt><trkpt lat="36.80638337258514" lon="-108.00059838291723"><ele>1732.0000000000002</ele><time>2026-04-11T18:22:25.001Z</time></trkpt><trkpt lat="36.80641188513264" lon="-108.00072682222566"><ele>1732.0</ele><time>2026-04-11T18:22:27.001Z</time></trkpt><trkpt lat="36.80645122003227" lon="-108.00083232146916"><ele>1732.0</ele><time>2026-04-11T18:22:29.001Z</time></trkpt><trkpt lat="36.806470437558254" lon="-108.0009074554599"><ele>1732.0</ele><time>2026-04-11T18:22:30.001Z</time></trkpt><trkpt lat="36.806495566600915" lon="-108.00098520792955"><ele>1732.0000000000002</ele><time>2026-04-11T18:22:32.001Z</time></trkpt><trkpt lat="36.8064784248382" lon="-108.0010734933173"><ele>1732.0</ele><time>2026-04-11T18:22:34.001Z</time></trkpt><trkpt lat="36.806471922623714" lon="-108.00118593641312"><ele>1732.0000000000002</ele><time>2026-04-11T18:22:36.001Z</time></trkpt><trkpt lat="36.80651111920667" lon="-108.00125966288746"><ele>1732.0</ele><time>2026-04-11T18:22:38.001Z</time></trkpt><trkpt lat="36.806593610993836" lon="-108.00131875959568"><ele>1732.0</ele><time>2026-04-11T18:22:40.001Z</time></trkpt><trkpt lat="36.80661535851042" lon="-108.00140447390015"><ele>1732.0</ele><time>2026-04-11T18:22:42.001Z</time></trkpt><trkpt lat="36.80662597143091" lon="-108.00153157054089"><ele>1732.0000000000002</ele><time>2026-04-11T18:22:44.001Z</time></trkpt><trkpt lat="36.806631042712155" lon="-108.00166460464135"><ele>1732.0</ele><time>2026-04-11T18:22:46.001Z</time></trkpt><trkpt lat="36.80662842018964" lon="-108.00174908964583"><ele>1731.8</ele><time>2026-04-11T18:22:49.001Z</time></trkpt><trkpt lat="36.80659956763714" lon="-108.00155423606"><ele>1731.6</ele><time>2026-04-11T18:22:54Z</time></trkpt><trkpt lat="36.8065987153367" lon="-108.00144987524683"><ele>1731.3999999999999</ele><time>2026-04-11T18:22:57Z</time></trkpt><trkpt lat="36.80660191893206" lon="-108.00134405662261"><ele>1731.1999999999998</ele><time>2026-04-11T18:23:00Z</time></trkpt><trkpt lat="36.8066112371152" lon="-108.00126344739716"><ele>1731.0</ele><time>2026-04-11T18:23:02Z</time></trkpt><trkpt lat="36.80655975096099" lon="-108.00120805179698"><ele>1731.0</ele><time>2026-04-11T18:23:04Z</time></trkpt><trkpt lat="36.806488840490154" lon="-108.00118398637115"><ele>1731.0</ele><time>2026-04-11T18:23:06Z</time></trkpt><trkpt lat="36.80649822546806" lon="-108.00108101185755"><ele>1731.0</ele><time>2026-04-11T18:23:09Z</time></trkpt><trkpt lat="36.806529855812244" lon="-108.00100952153592"><ele>1731.0</ele><time>2026-04-11T18:23:19Z</time></trkpt><trkpt lat="36.80654335286317" lon="-108.00087349748479"><ele>1731.0</ele><time>2026-04-11T18:23:22Z</time></trkpt><trkpt lat="36.806521572214486" lon="-108.00079060645697"><ele>1731.0</ele><time>2026-04-11T18:23:23Z</time></trkpt><trkpt lat="36.80647025090276" lon="-108.00065345862464"><ele>1731.1666666666667</ele><time>2026-04-11T18:23:25Z</time></trkpt><trkpt lat="36.80643880712542" lon="-108.00058387359361"><ele>1731.3333333333335</ele><time>2026-04-11T18:23:26Z</time></trkpt><trkpt lat="36.806397817823736" lon="-108.00050754454364"><ele>1731.5</ele><time>2026-04-11T18:23:28Z</time></trkpt><trkpt lat="36.806364358011564" lon="-108.00041275307183"><ele>1731.6666666666667</ele><time>2026-04-11T18:23:37Z</time></trkpt><trkpt lat="36.806320115519185" lon="-108.00031391495527"><ele>1731.8333333333335</ele><time>2026-04-11T18:23:39Z</time></trkpt><trkpt lat="36.80630202851028" lon="-108.00020976232592"><ele>1732.0</ele><time>2026-04-11T18:23:41Z</time></trkpt><trkpt lat="36.80619197608945" lon="-108.00020327345952"><ele>1732.0</ele><time>2026-04-11T18:23:44Z</time></trkpt><trkpt lat="36.806106784705605" lon="-108.00025032113096"><ele>1732.0</ele><time>2026-04-11T18:23:45Z</time></trkpt><trkpt lat="36.80599890877875" lon="-108.00030824041364"><ele>1732.0</ele><time>2026-04-11T18:23:46Z</time></trkpt><trkpt lat="36.805880443867316" lon="-108.00037996683238"><ele>1732.0</ele><time>2026-04-11T18:23:47Z</time></trkpt><trkpt lat="36.80578189304983" lon="-108.00048351808812"><ele>1733.3333333333335</ele><time>2026-04-11T18:23:48Z</time></trkpt><trkpt lat="36.80567741963447" lon="-108.00063924236471"><ele>1734.6666666666665</ele><time>2026-04-11T18:23:49Z</time></trkpt><trkpt lat="36.80557372865911" lon="-108.00080027255615"><ele>1736.0</ele><time>2026-04-11T18:23:50Z</time></trkpt><trkpt lat="36.80548711729657" lon="-108.00092608825672"><ele>1736.0</ele><time>2026-04-11T18:23:51Z</time></trkpt><trkpt lat="36.8054193232403" lon="-108.00102167831137"><ele>1736.0</ele><time>2026-04-11T18:23:52Z</time></trkpt><trkpt lat="36.805365508310345" lon="-108.0011064447345"><ele>1736.0</ele><time>2026-04-11T18:23:53Z</time></trkpt><trkpt lat="36.80530505845686" lon="-108.00118477525879"><ele>1736.0</ele><time>2026-04-11T18:23:54Z</time></trkpt><trkpt lat="36.80522962633521" lon="-108.00126564890417"><ele>1736.0</ele><time>2026-04-11T18:23:55Z</time></trkpt><trkpt lat="36.80516807912885" lon="-108.00133285927802"><ele>1736.8</ele><time>2026-04-11T18:23:56Z</time></trkpt><trkpt lat="36.805113427014334" lon="-108.00140132980736"><ele>1737.6</ele><time>2026-04-11T18:23:57Z</time></trkpt><trkpt lat="36.80507007461792" lon="-108.00150408576373"><ele>1738.4</ele><time>2026-04-11T18:23:58Z</time></trkpt><trkpt lat="36.805053787659496" lon="-108.00163801467477"><ele>1739.2</ele><time>2026-04-11T18:23:59Z</time></trkpt><trkpt lat="36.8050818785587" lon="-108.00178828765142"><ele>1740.0</ele><time>2026-04-11T18:24:00Z</time></trkpt><trkpt lat="36.80506264223994" lon="-108.0019777258615"><ele>1740.0</ele><time>2026-04-11T18:24:01Z</time></trkpt><trkpt lat="36.80506613098648" lon="-108.00220362070449"><ele>1740.0</ele><time>2026-04-11T18:24:02Z</time></trkpt><trkpt lat="36.805062697083585" lon="-108.0023990991354"><ele>1740.0</ele><time>2026-04-11T18:24:03Z</time></trkpt><trkpt lat="36.8050587675604" lon="-108.00255218744581"><ele>1739.6</ele><time>2026-04-11T18:24:04.001Z</time></trkpt><trkpt lat="36.805071989477085" lon="-108.00267225537827"><ele>1739.2</ele><time>2026-04-11T18:24:05.001Z</time></trkpt><trkpt lat="36.80507282931864" lon="-108.00276543967165"><ele>1738.8000000000002</ele><time>2026-04-11T18:24:06.001Z</time></trkpt><trkpt lat="36.80507284072447" lon="-108.00288746076066"><ele>1738.4</ele><time>2026-04-11T18:24:08.001Z</time></trkpt><trkpt lat="36.805071474233266" lon="-108.00299914082181"><ele>1738.0</ele><time>2026-04-11T18:24:10.001Z</time></trkpt><trkpt lat="36.805074179807434" lon="-108.00313647947917"><ele>1738.0</ele><time>2026-04-11T18:24:12.001Z</time></trkpt><trkpt lat="36.80507638113116" lon="-108.00322773516984"><ele>1738.0000000000002</ele><time>2026-04-11T18:24:13.001Z</time></trkpt><trkpt lat="36.80509790642052" lon="-108.0034633693752"><ele>1738.0000000000002</ele><time>2026-04-11T18:24:15.001Z</time></trkpt><trkpt lat="36.80509054188122" lon="-108.00360311629146"><ele>1738.0</ele><time>2026-04-11T18:24:17.001Z</time></trkpt><trkpt lat="36.80509100630895" lon="-108.00369345900407"><ele>1738.0</ele><time>2026-04-11T18:24:18.001Z</time></trkpt><trkpt lat="36.80509590151111" lon="-108.00382091374841"><ele>1738.6666666666667</ele><time>2026-04-11T18:24:19.001Z</time></trkpt><trkpt lat="36.805094926701486" lon="-108.00390192027044"><ele>1739.3333333333335</ele><time>2026-04-11T18:24:20.001Z</time></trkpt><trkpt lat="36.80509380953844" lon="-108.00399475755357"><ele>1740.0</ele><time>2026-04-11T18:24:22.001Z</time></trkpt><trkpt lat="36.805101411454366" lon="-108.00412164932219"><ele>1740.6666666666665</ele><time>2026-04-11T18:24:24.001Z</time></trkpt><trkpt lat="36.80510421228204" lon="-108.00421877867323"><ele>1741.3333333333333</ele><time>2026-04-11T18:24:25.001Z</time></trkpt><trkpt lat="36.80510731875046" lon="-108.00432650730733"><ele>1742.0</ele><time>2026-04-11T18:24:26.001Z</time></trkpt><trkpt lat="36.80510128414932" lon="-108.00442589377805"><ele>1744.3333333333333</ele><time>2026-04-11T18:24:27.001Z</time></trkpt><trkpt lat="36.80511304216201" lon="-108.00452498813284"><ele>1746.6666666666665</ele><time>2026-04-11T18:24:28.001Z</time></trkpt><trkpt lat="36.80483200608393" lon="-108.00464009844764"><ele>1749.0</ele><time>2026-04-11T18:24:29.001Z</time></trkpt><trkpt lat="36.80484365343165" lon="-108.00474291245746"><ele>1749.0</ele><time>2026-04-11T18:24:30.001Z</time></trkpt><trkpt lat="36.80484210809823" lon="-108.00485514345573"><ele>1749.0</ele><time>2026-04-11T18:24:31.001Z</time></trkpt><trkpt lat="36.804831865144735" lon="-108.00499325846792"><ele>1749.0</ele><time>2026-04-11T18:24:32.001Z</time></trkpt><trkpt lat="36.8048351670456" lon="-108.00515491278006"><ele>1749.0</ele><time>2026-04-11T18:24:33.001Z</time></trkpt><trkpt lat="36.80484248033099" lon="-108.00529440931629"><ele>1749.0</ele><time>2026-04-11T18:24:34.001Z</time></trkpt><trkpt lat="36.80482981521048" lon="-108.0053758608451"><ele>1749.8000000000002</ele><time>2026-04-11T18:24:35.001Z</time></trkpt><trkpt lat="36.80483769833551" lon="-108.00547776938949"><ele>1750.6000000000001</ele><time>2026-04-11T18:24:37.001Z</time></trkpt><trkpt lat="36.804952323368184" lon="-108.0055394725486"><ele>1751.4</ele><time>2026-04-11T18:24:39.001Z</time></trkpt><trkpt lat="36.80503151086686" lon="-108.00556174274443"><ele>1752.2</ele><time>2026-04-11T18:24:40.001Z</time></trkpt><trkpt lat="36.805129254633485" lon="-108.00554650146023"><ele>1753.0</ele><time>2026-04-11T18:24:42.001Z</time></trkpt><trkpt lat="36.8051947578782" lon="-108.00553120884655"><ele>1751.6666666666667</ele><time>2026-04-11T18:24:43.001Z</time></trkpt><trkpt lat="36.805286573483585" lon="-108.0055270780025"><ele>1750.3333333333335</ele><time>2026-04-11T18:24:44.001Z</time></trkpt><trkpt lat="36.80536368055725" lon="-108.0055091744953"><ele>1749.0</ele><time>2026-04-11T18:24:45.001Z</time></trkpt><trkpt lat="36.8054208084315" lon="-108.0054319900419"><ele>1747.6666666666665</ele><time>2026-04-11T18:24:47.001Z</time></trkpt><trkpt lat="36.80550038934491" lon="-108.00540937253422"><ele>1746.3333333333333</ele><time>2026-04-11T18:24:49.001Z</time></trkpt><trkpt lat="36.8055838203195" lon="-108.00540882652825"><ele>1745.0</ele><time>2026-04-11T18:24:51.001Z</time></trkpt><trkpt lat="36.805658708406455" lon="-108.00543400057728"><ele>1745.0</ele><time>2026-04-11T18:24:54.001Z</time></trkpt><trkpt lat="36.80568822993234" lon="-108.00560576710174"><ele>1745.0</ele><time>2026-04-11T18:24:56Z</time></trkpt><trkpt lat="36.80570966363829" lon="-108.00573355527958"><ele>1745.0</ele><time>2026-04-11T18:24:57Z</time></trkpt><trkpt lat="36.80573416511792" lon="-108.00587755271792"><ele>1745.0</ele><time>2026-04-11T18:24:58Z</time></trkpt><trkpt lat="36.80575057504706" lon="-108.00601554780201"><ele>1744.8</ele><time>2026-04-11T18:24:59Z</time></trkpt><trkpt lat="36.80577045291244" lon="-108.00612599496822"><ele>1744.6</ele><time>2026-04-11T18:25:00Z</time></trkpt><trkpt lat="36.80578728228466" lon="-108.0062106795307"><ele>1744.4</ele><time>2026-04-11T18:25:01Z</time></trkpt><trkpt lat="36.805840080268524" lon="-108.00628201791474"><ele>1744.2</ele><time>2026-04-11T18:25:03Z</time></trkpt><trkpt lat="36.80599228961247" lon="-108.00625107494757"><ele>1744.0</ele><time>2026-04-11T18:25:05Z</time></trkpt><trkpt lat="36.80612124532838" lon="-108.00622565225669"><ele>1742.0</ele><time>2026-04-11T18:25:06Z</time></trkpt><trkpt lat="36.806264822555555" lon="-108.00619372989168"><ele>1740.0</ele><time>2026-04-11T18:25:07Z</time></trkpt><trkpt lat="36.8063818262313" lon="-108.00615810279572"><ele>1738.0</ele><time>2026-04-11T18:25:08Z</time></trkpt><trkpt lat="36.80648021399928" lon="-108.00612829289425"><ele>1736.0</ele><time>2026-04-11T18:25:09Z</time></trkpt><trkpt lat="36.80657267174674" lon="-108.00611597099154"><ele>1736.0</ele><time>2026-04-11T18:25:10Z</time></trkpt><trkpt lat="36.806683229283394" lon="-108.006136575007"><ele>1736.0</ele><time>2026-04-11T18:25:11Z</time></trkpt><trkpt lat="36.80679290929164" lon="-108.00615103350995"><ele>1736.0</ele><time>2026-04-11T18:25:12Z</time></trkpt><trkpt lat="36.80688871868915" lon="-108.00612993575348"><ele>1736.0</ele><time>2026-04-11T18:25:13Z</time></trkpt><trkpt lat="36.80699238334681" lon="-108.00607221972163"><ele>1736.0</ele><time>2026-04-11T18:25:14Z</time></trkpt><trkpt lat="36.80710767544499" lon="-108.00598277858731"><ele>1735.5</ele><time>2026-04-11T18:25:15Z</time></trkpt><trkpt lat="36.80721847811644" lon="-108.00588443945688"><ele>1735.0</ele><time>2026-04-11T18:25:16Z</time></trkpt><trkpt lat="36.80733098419757" lon="-108.0057887539731"><ele>1734.5</ele><time>2026-04-11T18:25:17Z</time></trkpt><trkpt lat="36.807465645401" lon="-108.00569020289271"><ele>1734.0</ele><time>2026-04-11T18:25:18Z</time></trkpt><trkpt lat="36.807582536195085" lon="-108.00560832530901"><ele>1733.6666666666667</ele><time>2026-04-11T18:25:19Z</time></trkpt><trkpt lat="36.807685321551475" lon="-108.00553777259456"><ele>1733.3333333333335</ele><time>2026-04-11T18:25:20Z</time></trkpt><trkpt lat="36.80776310925141" lon="-108.00549316104221"><ele>1733.0</ele><time>2026-04-11T18:25:21Z</time></trkpt><trkpt lat="36.80783654220922" lon="-108.00546331658761"><ele>1732.6666666666667</ele><time>2026-04-11T18:25:22Z</time></trkpt><trkpt lat="36.80789984402412" lon="-108.00545581571906"><ele>1732.3333333333335</ele><time>2026-04-11T18:25:23Z</time></trkpt><trkpt lat="36.80798342979929" lon="-108.00548230355126"><ele>1732.0</ele><time>2026-04-11T18:25:25Z</time></trkpt><trkpt lat="36.80805616599522" lon="-108.00547812421563"><ele>1732.0000000000002</ele><time>2026-04-11T18:32:17Z</time></trkpt><trkpt lat="36.80800476981732" lon="-108.00552409457946"><ele>1732.0</ele><time>2026-04-11T18:35:52Z</time></trkpt><trkpt lat="36.8080589850265" lon="-108.00544277237564"><ele>1732.0</ele><time>2026-04-11T18:37:56Z</time></trkpt><trkpt lat="36.80811904606706" lon="-108.0054126019649"><ele>1732.0</ele><time>2026-04-11T18:37:58Z</time></trkpt><trkpt lat="36.80815494644532" lon="-108.00532528907716"><ele>1732.0000000000002</ele><time>2026-04-11T18:38:01Z</time></trkpt><trkpt lat="36.80819432920847" lon="-108.0052412291048"><ele>1732.0</ele><time>2026-04-11T18:38:04Z</time></trkpt><trkpt lat="36.80824232916444" lon="-108.00515765261608"><ele>1732.0</ele><time>2026-04-11T18:38:07Z</time></trkpt><trkpt lat="36.80830351581277" lon="-108.00508773400442"><ele>1732.0</ele><time>2026-04-11T18:38:10Z</time></trkpt><trkpt lat="36.80838649966334" lon="-108.00507718910963"><ele>1732.0</ele><time>2026-04-11T18:38:14Z</time></trkpt><trkpt lat="36.808455569376534" lon="-108.0050878734073"><ele>1732.0</ele><time>2026-04-11T18:38:17Z</time></trkpt></trkseg></trk></gpx>